<?xml version="1.0" encoding="UTF-8" standalone="no" ?>
<gpx xmlns="http://www.topografix.com/GPX/1/1" xmlns:xsi="http://www.w3.org/2001/XMLSchema-instance" xsi:schemaLocation="http://www.topografix.com/GPX/1/1 http://www.topografix.com/GPX/1/1/gpx.xsd" version="1.1" creator="VisuGPX - https://www.visugpx.com">
  <metadata>
    <name>Trail de Semisens 8 mai 2013 St Vincent de Tyrosse</name>
    <desc><![CDATA[Parcours sur chemins, sentiers et monotraces]]></desc>
  </metadata>
  <trk>
    <name><![CDATA[Reconnaissance 25 km SEMISENS 21/04/2013]]></name>
    <trkseg>
      <trkpt lat="43.67506" lon="-1.28768">
        <ele>40</ele>
        <time>2013-04-21T06:10:07.000Z</time>
      </trkpt>
      <trkpt lat="43.67512" lon="-1.28763">
        <ele>39.799999237061</ele>
        <time>2013-04-21T06:10:12.000Z</time>
      </trkpt>
      <trkpt lat="43.67514" lon="-1.28759">
        <ele>39.599998474121</ele>
        <time>2013-04-21T06:10:14.000Z</time>
      </trkpt>
      <trkpt lat="43.67518" lon="-1.28757">
        <ele>39.599998474121</ele>
        <time>2013-04-21T06:10:16.000Z</time>
      </trkpt>
      <trkpt lat="43.67521" lon="-1.28753">
        <ele>39.599998474121</ele>
        <time>2013-04-21T06:10:18.000Z</time>
      </trkpt>
      <trkpt lat="43.67526" lon="-1.28748">
        <ele>39.400001525879</ele>
        <time>2013-04-21T06:10:21.000Z</time>
      </trkpt>
      <trkpt lat="43.67536" lon="-1.28739">
        <ele>39.200000762939</ele>
        <time>2013-04-21T06:10:26.000Z</time>
      </trkpt>
      <trkpt lat="43.6755" lon="-1.28724">
        <ele>38.799999237061</ele>
        <time>2013-04-21T06:10:34.000Z</time>
      </trkpt>
      <trkpt lat="43.67557" lon="-1.28717">
        <ele>38.599998474121</ele>
        <time>2013-04-21T06:10:38.000Z</time>
      </trkpt>
      <trkpt lat="43.67567" lon="-1.28706">
        <ele>38.400001525879</ele>
        <time>2013-04-21T06:10:44.000Z</time>
      </trkpt>
      <trkpt lat="43.67578" lon="-1.28695">
        <ele>38</ele>
        <time>2013-04-21T06:10:50.000Z</time>
      </trkpt>
      <trkpt lat="43.67587" lon="-1.28685">
        <ele>37.799999237061</ele>
        <time>2013-04-21T06:10:55.000Z</time>
      </trkpt>
      <trkpt lat="43.67597" lon="-1.28675">
        <ele>37.200000762939</ele>
        <time>2013-04-21T06:11:00.000Z</time>
      </trkpt>
      <trkpt lat="43.67606" lon="-1.28667">
        <ele>37</ele>
        <time>2013-04-21T06:11:05.000Z</time>
      </trkpt>
      <trkpt lat="43.67615" lon="-1.28658">
        <ele>37</ele>
        <time>2013-04-21T06:11:10.000Z</time>
      </trkpt>
      <trkpt lat="43.67626" lon="-1.28649">
        <ele>37.200000762939</ele>
        <time>2013-04-21T06:11:16.000Z</time>
      </trkpt>
      <trkpt lat="43.67638" lon="-1.28638">
        <ele>37.400001525879</ele>
        <time>2013-04-21T06:11:22.000Z</time>
      </trkpt>
      <trkpt lat="43.67647" lon="-1.28629">
        <ele>37.599998474121</ele>
        <time>2013-04-21T06:11:27.000Z</time>
      </trkpt>
      <trkpt lat="43.67658" lon="-1.28618">
        <ele>38</ele>
        <time>2013-04-21T06:11:33.000Z</time>
      </trkpt>
      <trkpt lat="43.6767" lon="-1.28606">
        <ele>38.400001525879</ele>
        <time>2013-04-21T06:11:40.000Z</time>
      </trkpt>
      <trkpt lat="43.67681" lon="-1.28596">
        <ele>38.400001525879</ele>
        <time>2013-04-21T06:11:46.000Z</time>
      </trkpt>
      <trkpt lat="43.67689" lon="-1.28585">
        <ele>38.599998474121</ele>
        <time>2013-04-21T06:11:51.000Z</time>
      </trkpt>
      <trkpt lat="43.677" lon="-1.28574">
        <ele>39</ele>
        <time>2013-04-21T06:11:57.000Z</time>
      </trkpt>
      <trkpt lat="43.67711" lon="-1.28563">
        <ele>39.400001525879</ele>
        <time>2013-04-21T06:12:03.000Z</time>
      </trkpt>
      <trkpt lat="43.67723" lon="-1.28551">
        <ele>39.799999237061</ele>
        <time>2013-04-21T06:12:10.000Z</time>
      </trkpt>
      <trkpt lat="43.67733" lon="-1.28543">
        <ele>40</ele>
        <time>2013-04-21T06:12:15.000Z</time>
      </trkpt>
      <trkpt lat="43.67736" lon="-1.2854">
        <ele>40.200000762939</ele>
        <time>2013-04-21T06:12:17.000Z</time>
      </trkpt>
      <trkpt lat="43.67741" lon="-1.28537">
        <ele>40.200000762939</ele>
        <time>2013-04-21T06:12:20.000Z</time>
      </trkpt>
      <trkpt lat="43.67748" lon="-1.28526">
        <ele>40.599998474121</ele>
        <time>2013-04-21T06:12:26.000Z</time>
      </trkpt>
      <trkpt lat="43.6775" lon="-1.28524">
        <ele>40.799999237061</ele>
        <time>2013-04-21T06:12:27.000Z</time>
      </trkpt>
      <trkpt lat="43.67759" lon="-1.28513">
        <ele>41.200000762939</ele>
        <time>2013-04-21T06:12:33.000Z</time>
      </trkpt>
      <trkpt lat="43.67769" lon="-1.28504">
        <ele>41.400001525879</ele>
        <time>2013-04-21T06:12:38.000Z</time>
      </trkpt>
      <trkpt lat="43.67781" lon="-1.28492">
        <ele>41.400001525879</ele>
        <time>2013-04-21T06:12:44.000Z</time>
      </trkpt>
      <trkpt lat="43.67792" lon="-1.28481">
        <ele>41.400001525879</ele>
        <time>2013-04-21T06:12:50.000Z</time>
      </trkpt>
      <trkpt lat="43.67801" lon="-1.28472">
        <ele>41.400001525879</ele>
        <time>2013-04-21T06:12:55.000Z</time>
      </trkpt>
      <trkpt lat="43.67811" lon="-1.28463">
        <ele>41.400001525879</ele>
        <time>2013-04-21T06:13:00.000Z</time>
      </trkpt>
      <trkpt lat="43.67824" lon="-1.2845">
        <ele>41.400001525879</ele>
        <time>2013-04-21T06:13:07.000Z</time>
      </trkpt>
      <trkpt lat="43.67834" lon="-1.2844">
        <ele>41.400001525879</ele>
        <time>2013-04-21T06:13:12.000Z</time>
      </trkpt>
      <trkpt lat="43.67842" lon="-1.28431">
        <ele>41.200000762939</ele>
        <time>2013-04-21T06:13:17.000Z</time>
      </trkpt>
      <trkpt lat="43.67857" lon="-1.28418">
        <ele>40.799999237061</ele>
        <time>2013-04-21T06:13:25.000Z</time>
      </trkpt>
      <trkpt lat="43.67868" lon="-1.28422">
        <ele>40.200000762939</ele>
        <time>2013-04-21T06:13:30.000Z</time>
      </trkpt>
      <trkpt lat="43.67881" lon="-1.28439">
        <ele>39.400001525879</ele>
        <time>2013-04-21T06:13:37.000Z</time>
      </trkpt>
      <trkpt lat="43.67891" lon="-1.28459">
        <ele>38.799999237061</ele>
        <time>2013-04-21T06:13:44.000Z</time>
      </trkpt>
      <trkpt lat="43.67901" lon="-1.28475">
        <ele>38.400001525879</ele>
        <time>2013-04-21T06:13:50.000Z</time>
      </trkpt>
      <trkpt lat="43.67908" lon="-1.2849">
        <ele>38.200000762939</ele>
        <time>2013-04-21T06:13:55.000Z</time>
      </trkpt>
      <trkpt lat="43.67916" lon="-1.28504">
        <ele>38</ele>
        <time>2013-04-21T06:14:01.000Z</time>
      </trkpt>
      <trkpt lat="43.67926" lon="-1.2852">
        <ele>38.400001525879</ele>
        <time>2013-04-21T06:14:08.000Z</time>
      </trkpt>
      <trkpt lat="43.67933" lon="-1.2853">
        <ele>38.799999237061</ele>
        <time>2013-04-21T06:14:13.000Z</time>
      </trkpt>
      <trkpt lat="43.67943" lon="-1.28534">
        <ele>39.400001525879</ele>
        <time>2013-04-21T06:14:18.000Z</time>
      </trkpt>
      <trkpt lat="43.67955" lon="-1.28527">
        <ele>40</ele>
        <time>2013-04-21T06:14:24.000Z</time>
      </trkpt>
      <trkpt lat="43.67966" lon="-1.28517">
        <ele>40.599998474121</ele>
        <time>2013-04-21T06:14:30.000Z</time>
      </trkpt>
      <trkpt lat="43.6798" lon="-1.28508">
        <ele>41.200000762939</ele>
        <time>2013-04-21T06:14:37.000Z</time>
      </trkpt>
      <trkpt lat="43.67993" lon="-1.28502">
        <ele>41.599998474121</ele>
        <time>2013-04-21T06:14:43.000Z</time>
      </trkpt>
      <trkpt lat="43.68003" lon="-1.28496">
        <ele>42</ele>
        <time>2013-04-21T06:14:49.000Z</time>
      </trkpt>
      <trkpt lat="43.68011" lon="-1.28491">
        <ele>42</ele>
        <time>2013-04-21T06:14:53.000Z</time>
      </trkpt>
      <trkpt lat="43.68021" lon="-1.28488">
        <ele>42.400001525879</ele>
        <time>2013-04-21T06:14:58.000Z</time>
      </trkpt>
      <trkpt lat="43.68031" lon="-1.28489">
        <ele>42.599998474121</ele>
        <time>2013-04-21T06:15:03.000Z</time>
      </trkpt>
      <trkpt lat="43.68044" lon="-1.28488">
        <ele>43</ele>
        <time>2013-04-21T06:15:09.000Z</time>
      </trkpt>
      <trkpt lat="43.68053" lon="-1.28488">
        <ele>43.400001525879</ele>
        <time>2013-04-21T06:15:14.000Z</time>
      </trkpt>
      <trkpt lat="43.68066" lon="-1.28489">
        <ele>43.799999237061</ele>
        <time>2013-04-21T06:15:20.000Z</time>
      </trkpt>
      <trkpt lat="43.68078" lon="-1.28492">
        <ele>44.400001525879</ele>
        <time>2013-04-21T06:15:26.000Z</time>
      </trkpt>
      <trkpt lat="43.68091" lon="-1.28496">
        <ele>44.799999237061</ele>
        <time>2013-04-21T06:15:33.000Z</time>
      </trkpt>
      <trkpt lat="43.68102" lon="-1.285">
        <ele>45.200000762939</ele>
        <time>2013-04-21T06:15:38.000Z</time>
      </trkpt>
      <trkpt lat="43.68113" lon="-1.28504">
        <ele>45.400001525879</ele>
        <time>2013-04-21T06:15:44.000Z</time>
      </trkpt>
      <trkpt lat="43.68127" lon="-1.28508">
        <ele>45.599998474121</ele>
        <time>2013-04-21T06:15:50.000Z</time>
      </trkpt>
      <trkpt lat="43.68141" lon="-1.28512">
        <ele>46</ele>
        <time>2013-04-21T06:15:57.000Z</time>
      </trkpt>
      <trkpt lat="43.68155" lon="-1.28515">
        <ele>46.400001525879</ele>
        <time>2013-04-21T06:16:03.000Z</time>
      </trkpt>
      <trkpt lat="43.68168" lon="-1.28519">
        <ele>47</ele>
        <time>2013-04-21T06:16:09.000Z</time>
      </trkpt>
      <trkpt lat="43.68183" lon="-1.28523">
        <ele>48.200000762939</ele>
        <time>2013-04-21T06:16:15.000Z</time>
      </trkpt>
      <trkpt lat="43.68197" lon="-1.28526">
        <ele>49.599998474121</ele>
        <time>2013-04-21T06:16:21.000Z</time>
      </trkpt>
      <trkpt lat="43.68212" lon="-1.2853">
        <ele>51</ele>
        <time>2013-04-21T06:16:28.000Z</time>
      </trkpt>
      <trkpt lat="43.68227" lon="-1.28534">
        <ele>52.599998474121</ele>
        <time>2013-04-21T06:16:34.000Z</time>
      </trkpt>
      <trkpt lat="43.68239" lon="-1.28541">
        <ele>54</ele>
        <time>2013-04-21T06:16:40.000Z</time>
      </trkpt>
      <trkpt lat="43.6825" lon="-1.28545">
        <ele>55.200000762939</ele>
        <time>2013-04-21T06:16:45.000Z</time>
      </trkpt>
      <trkpt lat="43.68267" lon="-1.28549">
        <ele>56.200000762939</ele>
        <time>2013-04-21T06:16:53.000Z</time>
      </trkpt>
      <trkpt lat="43.68282" lon="-1.28552">
        <ele>56.799999237061</ele>
        <time>2013-04-21T06:17:00.000Z</time>
      </trkpt>
      <trkpt lat="43.68296" lon="-1.28551">
        <ele>57.400001525879</ele>
        <time>2013-04-21T06:17:06.000Z</time>
      </trkpt>
      <trkpt lat="43.68312" lon="-1.28548">
        <ele>57.799999237061</ele>
        <time>2013-04-21T06:17:13.000Z</time>
      </trkpt>
      <trkpt lat="43.68325" lon="-1.28543">
        <ele>58.200000762939</ele>
        <time>2013-04-21T06:17:19.000Z</time>
      </trkpt>
      <trkpt lat="43.68337" lon="-1.28538">
        <ele>58</ele>
        <time>2013-04-21T06:17:25.000Z</time>
      </trkpt>
      <trkpt lat="43.68351" lon="-1.28532">
        <ele>57.200000762939</ele>
        <time>2013-04-21T06:17:32.000Z</time>
      </trkpt>
      <trkpt lat="43.68364" lon="-1.28527">
        <ele>56.599998474121</ele>
        <time>2013-04-21T06:17:38.000Z</time>
      </trkpt>
      <trkpt lat="43.68377" lon="-1.28524">
        <ele>56</ele>
        <time>2013-04-21T06:17:44.000Z</time>
      </trkpt>
      <trkpt lat="43.68393" lon="-1.28521">
        <ele>55.400001525879</ele>
        <time>2013-04-21T06:17:51.000Z</time>
      </trkpt>
      <trkpt lat="43.68401" lon="-1.28519">
        <ele>55</ele>
        <time>2013-04-21T06:17:56.000Z</time>
      </trkpt>
      <trkpt lat="43.68404" lon="-1.28513">
        <ele>55</ele>
        <time>2013-04-21T06:17:58.000Z</time>
      </trkpt>
      <trkpt lat="43.68404" lon="-1.28505">
        <ele>55.200000762939</ele>
        <time>2013-04-21T06:18:01.000Z</time>
      </trkpt>
      <trkpt lat="43.68404" lon="-1.28499">
        <ele>55.200000762939</ele>
        <time>2013-04-21T06:18:03.000Z</time>
      </trkpt>
      <trkpt lat="43.68399" lon="-1.28486">
        <ele>55.400001525879</ele>
        <time>2013-04-21T06:18:08.000Z</time>
      </trkpt>
      <trkpt lat="43.68395" lon="-1.2847">
        <ele>55.400001525879</ele>
        <time>2013-04-21T06:18:14.000Z</time>
      </trkpt>
      <trkpt lat="43.68396" lon="-1.28462">
        <ele>55.599998474121</ele>
        <time>2013-04-21T06:18:18.000Z</time>
      </trkpt>
      <trkpt lat="43.68396" lon="-1.28445">
        <ele>55.599998474121</ele>
        <time>2013-04-21T06:18:24.000Z</time>
      </trkpt>
      <trkpt lat="43.68395" lon="-1.28428">
        <ele>55.599998474121</ele>
        <time>2013-04-21T06:18:29.000Z</time>
      </trkpt>
      <trkpt lat="43.68393" lon="-1.28415">
        <ele>55.599998474121</ele>
        <time>2013-04-21T06:18:34.000Z</time>
      </trkpt>
      <trkpt lat="43.68389" lon="-1.28399">
        <ele>55.400001525879</ele>
        <time>2013-04-21T06:18:40.000Z</time>
      </trkpt>
      <trkpt lat="43.68386" lon="-1.28383">
        <ele>55.200000762939</ele>
        <time>2013-04-21T06:18:46.000Z</time>
      </trkpt>
      <trkpt lat="43.68383" lon="-1.28367">
        <ele>55</ele>
        <time>2013-04-21T06:18:51.000Z</time>
      </trkpt>
      <trkpt lat="43.68381" lon="-1.28353">
        <ele>54.599998474121</ele>
        <time>2013-04-21T06:18:56.000Z</time>
      </trkpt>
      <trkpt lat="43.68381" lon="-1.2835">
        <ele>54.599998474121</ele>
        <time>2013-04-21T06:18:58.000Z</time>
      </trkpt>
      <trkpt lat="43.6838" lon="-1.28346">
        <ele>54.400001525879</ele>
        <time>2013-04-21T06:19:00.000Z</time>
      </trkpt>
      <trkpt lat="43.68381" lon="-1.28343">
        <ele>54.400001525879</ele>
        <time>2013-04-21T06:19:01.000Z</time>
      </trkpt>
      <trkpt lat="43.68375" lon="-1.28327">
        <ele>53.799999237061</ele>
        <time>2013-04-21T06:19:06.000Z</time>
      </trkpt>
      <trkpt lat="43.68374" lon="-1.28324">
        <ele>53.799999237061</ele>
        <time>2013-04-21T06:19:08.000Z</time>
      </trkpt>
      <trkpt lat="43.68373" lon="-1.28321">
        <ele>53.599998474121</ele>
        <time>2013-04-21T06:19:10.000Z</time>
      </trkpt>
      <trkpt lat="43.68369" lon="-1.28309">
        <ele>53.200000762939</ele>
        <time>2013-04-21T06:19:13.000Z</time>
      </trkpt>
      <trkpt lat="43.68366" lon="-1.28296">
        <ele>53</ele>
        <time>2013-04-21T06:19:16.000Z</time>
      </trkpt>
      <trkpt lat="43.68361" lon="-1.28273">
        <ele>52.400001525879</ele>
        <time>2013-04-21T06:19:23.000Z</time>
      </trkpt>
      <trkpt lat="43.68355" lon="-1.28251">
        <ele>51.799999237061</ele>
        <time>2013-04-21T06:19:30.000Z</time>
      </trkpt>
      <trkpt lat="43.6835" lon="-1.28234">
        <ele>51.200000762939</ele>
        <time>2013-04-21T06:19:36.000Z</time>
      </trkpt>
      <trkpt lat="43.68351" lon="-1.28233">
        <ele>51.200000762939</ele>
        <time>2013-04-21T06:19:37.000Z</time>
      </trkpt>
      <trkpt lat="43.68348" lon="-1.28226">
        <ele>50.799999237061</ele>
        <time>2013-04-21T06:19:42.000Z</time>
      </trkpt>
      <trkpt lat="43.68346" lon="-1.28219">
        <ele>50.599998474121</ele>
        <time>2013-04-21T06:19:45.000Z</time>
      </trkpt>
      <trkpt lat="43.68344" lon="-1.28212">
        <ele>50.400001525879</ele>
        <time>2013-04-21T06:19:47.000Z</time>
      </trkpt>
      <trkpt lat="43.6834" lon="-1.28192">
        <ele>49.799999237061</ele>
        <time>2013-04-21T06:19:53.000Z</time>
      </trkpt>
      <trkpt lat="43.68338" lon="-1.28179">
        <ele>49.400001525879</ele>
        <time>2013-04-21T06:19:59.000Z</time>
      </trkpt>
      <trkpt lat="43.68333" lon="-1.28169">
        <ele>49</ele>
        <time>2013-04-21T06:20:04.000Z</time>
      </trkpt>
      <trkpt lat="43.68333" lon="-1.28165">
        <ele>49</ele>
        <time>2013-04-21T06:20:05.000Z</time>
      </trkpt>
      <trkpt lat="43.68331" lon="-1.28157">
        <ele>49</ele>
        <time>2013-04-21T06:20:08.000Z</time>
      </trkpt>
      <trkpt lat="43.68326" lon="-1.28139">
        <ele>49</ele>
        <time>2013-04-21T06:20:14.000Z</time>
      </trkpt>
      <trkpt lat="43.68323" lon="-1.28127">
        <ele>49</ele>
        <time>2013-04-21T06:20:18.000Z</time>
      </trkpt>
      <trkpt lat="43.68321" lon="-1.28111">
        <ele>49.200000762939</ele>
        <time>2013-04-21T06:20:23.000Z</time>
      </trkpt>
      <trkpt lat="43.68315" lon="-1.28094">
        <ele>49.200000762939</ele>
        <time>2013-04-21T06:20:28.000Z</time>
      </trkpt>
      <trkpt lat="43.68311" lon="-1.28077">
        <ele>48.799999237061</ele>
        <time>2013-04-21T06:20:34.000Z</time>
      </trkpt>
      <trkpt lat="43.68308" lon="-1.28062">
        <ele>48.200000762939</ele>
        <time>2013-04-21T06:20:40.000Z</time>
      </trkpt>
      <trkpt lat="43.68306" lon="-1.28047">
        <ele>47.799999237061</ele>
        <time>2013-04-21T06:20:45.000Z</time>
      </trkpt>
      <trkpt lat="43.68304" lon="-1.28038">
        <ele>47.400001525879</ele>
        <time>2013-04-21T06:20:48.000Z</time>
      </trkpt>
      <trkpt lat="43.68302" lon="-1.28032">
        <ele>47.200000762939</ele>
        <time>2013-04-21T06:20:50.000Z</time>
      </trkpt>
      <trkpt lat="43.68301" lon="-1.28018">
        <ele>46.599998474121</ele>
        <time>2013-04-21T06:20:55.000Z</time>
      </trkpt>
      <trkpt lat="43.683" lon="-1.28016">
        <ele>46.599998474121</ele>
        <time>2013-04-21T06:20:56.000Z</time>
      </trkpt>
      <trkpt lat="43.68302" lon="-1.28011">
        <ele>46.400001525879</ele>
        <time>2013-04-21T06:21:01.000Z</time>
      </trkpt>
      <trkpt lat="43.68302" lon="-1.2801">
        <ele>46.400001525879</ele>
        <time>2013-04-21T06:21:02.000Z</time>
      </trkpt>
      <trkpt lat="43.68307" lon="-1.28008">
        <ele>46.599998474121</ele>
        <time>2013-04-21T06:21:06.000Z</time>
      </trkpt>
      <trkpt lat="43.68317" lon="-1.28012">
        <ele>47</ele>
        <time>2013-04-21T06:21:11.000Z</time>
      </trkpt>
      <trkpt lat="43.68331" lon="-1.28019">
        <ele>47.599998474121</ele>
        <time>2013-04-21T06:21:17.000Z</time>
      </trkpt>
      <trkpt lat="43.68341" lon="-1.28022">
        <ele>48</ele>
        <time>2013-04-21T06:21:22.000Z</time>
      </trkpt>
      <trkpt lat="43.68348" lon="-1.28024">
        <ele>48.400001525879</ele>
        <time>2013-04-21T06:21:25.000Z</time>
      </trkpt>
      <trkpt lat="43.68354" lon="-1.28025">
        <ele>48.599998474121</ele>
        <time>2013-04-21T06:21:27.000Z</time>
      </trkpt>
      <trkpt lat="43.68361" lon="-1.28027">
        <ele>49</ele>
        <time>2013-04-21T06:21:31.000Z</time>
      </trkpt>
      <trkpt lat="43.68362" lon="-1.28027">
        <ele>49</ele>
        <time>2013-04-21T06:21:32.000Z</time>
      </trkpt>
      <trkpt lat="43.68372" lon="-1.28027">
        <ele>49.400001525879</ele>
        <time>2013-04-21T06:21:37.000Z</time>
      </trkpt>
      <trkpt lat="43.68386" lon="-1.28029">
        <ele>50</ele>
        <time>2013-04-21T06:21:43.000Z</time>
      </trkpt>
      <trkpt lat="43.68399" lon="-1.28031">
        <ele>50.599998474121</ele>
        <time>2013-04-21T06:21:50.000Z</time>
      </trkpt>
      <trkpt lat="43.68411" lon="-1.28032">
        <ele>51.200000762939</ele>
        <time>2013-04-21T06:21:55.000Z</time>
      </trkpt>
      <trkpt lat="43.68416" lon="-1.28032">
        <ele>51.400001525879</ele>
        <time>2013-04-21T06:21:59.000Z</time>
      </trkpt>
      <trkpt lat="43.68425" lon="-1.28033">
        <ele>52</ele>
        <time>2013-04-21T06:22:04.000Z</time>
      </trkpt>
      <trkpt lat="43.68438" lon="-1.28033">
        <ele>52.799999237061</ele>
        <time>2013-04-21T06:22:11.000Z</time>
      </trkpt>
      <trkpt lat="43.68451" lon="-1.28032">
        <ele>53.400001525879</ele>
        <time>2013-04-21T06:22:17.000Z</time>
      </trkpt>
      <trkpt lat="43.68457" lon="-1.28031">
        <ele>53.799999237061</ele>
        <time>2013-04-21T06:22:20.000Z</time>
      </trkpt>
      <trkpt lat="43.68459" lon="-1.28033">
        <ele>54</ele>
        <time>2013-04-21T06:22:21.000Z</time>
      </trkpt>
      <trkpt lat="43.68471" lon="-1.28035">
        <ele>54.799999237061</ele>
        <time>2013-04-21T06:22:27.000Z</time>
      </trkpt>
      <trkpt lat="43.68478" lon="-1.28039">
        <ele>55.400001525879</ele>
        <time>2013-04-21T06:22:30.000Z</time>
      </trkpt>
      <trkpt lat="43.68481" lon="-1.28039">
        <ele>55.599998474121</ele>
        <time>2013-04-21T06:22:32.000Z</time>
      </trkpt>
      <trkpt lat="43.68491" lon="-1.28041">
        <ele>56.400001525879</ele>
        <time>2013-04-21T06:22:37.000Z</time>
      </trkpt>
      <trkpt lat="43.68502" lon="-1.28043">
        <ele>57.200000762939</ele>
        <time>2013-04-21T06:22:43.000Z</time>
      </trkpt>
      <trkpt lat="43.68513" lon="-1.28046">
        <ele>58</ele>
        <time>2013-04-21T06:22:48.000Z</time>
      </trkpt>
      <trkpt lat="43.68527" lon="-1.28049">
        <ele>59</ele>
        <time>2013-04-21T06:22:55.000Z</time>
      </trkpt>
      <trkpt lat="43.68539" lon="-1.28049">
        <ele>59.799999237061</ele>
        <time>2013-04-21T06:23:02.000Z</time>
      </trkpt>
      <trkpt lat="43.6855" lon="-1.28051">
        <ele>60.599998474121</ele>
        <time>2013-04-21T06:23:08.000Z</time>
      </trkpt>
      <trkpt lat="43.6856" lon="-1.28053">
        <ele>61.400001525879</ele>
        <time>2013-04-21T06:23:14.000Z</time>
      </trkpt>
      <trkpt lat="43.68564" lon="-1.28054">
        <ele>61.599998474121</ele>
        <time>2013-04-21T06:23:18.000Z</time>
      </trkpt>
      <trkpt lat="43.68568" lon="-1.28055">
        <ele>61.799999237061</ele>
        <time>2013-04-21T06:23:20.000Z</time>
      </trkpt>
      <trkpt lat="43.68579" lon="-1.28056">
        <ele>62.599998474121</ele>
        <time>2013-04-21T06:23:26.000Z</time>
      </trkpt>
      <trkpt lat="43.68592" lon="-1.2806">
        <ele>62.799999237061</ele>
        <time>2013-04-21T06:23:32.000Z</time>
      </trkpt>
      <trkpt lat="43.686" lon="-1.2806">
        <ele>62.400001525879</ele>
        <time>2013-04-21T06:23:36.000Z</time>
      </trkpt>
      <trkpt lat="43.68605" lon="-1.28063">
        <ele>62.200000762939</ele>
        <time>2013-04-21T06:23:38.000Z</time>
      </trkpt>
      <trkpt lat="43.68613" lon="-1.28064">
        <ele>62</ele>
        <time>2013-04-21T06:23:41.000Z</time>
      </trkpt>
      <trkpt lat="43.68622" lon="-1.28066">
        <ele>61.799999237061</ele>
        <time>2013-04-21T06:23:45.000Z</time>
      </trkpt>
      <trkpt lat="43.68637" lon="-1.28068">
        <ele>61.200000762939</ele>
        <time>2013-04-21T06:23:52.000Z</time>
      </trkpt>
      <trkpt lat="43.68645" lon="-1.28066">
        <ele>60.799999237061</ele>
        <time>2013-04-21T06:23:56.000Z</time>
      </trkpt>
      <trkpt lat="43.68649" lon="-1.2806">
        <ele>60.599998474121</ele>
        <time>2013-04-21T06:24:00.000Z</time>
      </trkpt>
      <trkpt lat="43.68649" lon="-1.28059">
        <ele>60.599998474121</ele>
        <time>2013-04-21T06:24:01.000Z</time>
      </trkpt>
      <trkpt lat="43.6865" lon="-1.28057">
        <ele>60.400001525879</ele>
        <time>2013-04-21T06:24:03.000Z</time>
      </trkpt>
      <trkpt lat="43.68653" lon="-1.28053">
        <ele>60.400001525879</ele>
        <time>2013-04-21T06:24:04.000Z</time>
      </trkpt>
      <trkpt lat="43.68661" lon="-1.28044">
        <ele>60</ele>
        <time>2013-04-21T06:24:09.000Z</time>
      </trkpt>
      <trkpt lat="43.68669" lon="-1.28031">
        <ele>59.799999237061</ele>
        <time>2013-04-21T06:24:14.000Z</time>
      </trkpt>
      <trkpt lat="43.68677" lon="-1.28015">
        <ele>59.400001525879</ele>
        <time>2013-04-21T06:24:20.000Z</time>
      </trkpt>
      <trkpt lat="43.68685" lon="-1.28008">
        <ele>59</ele>
        <time>2013-04-21T06:24:24.000Z</time>
      </trkpt>
      <trkpt lat="43.68698" lon="-1.28002">
        <ele>58.400001525879</ele>
        <time>2013-04-21T06:24:29.000Z</time>
      </trkpt>
      <trkpt lat="43.6871" lon="-1.27998">
        <ele>57.799999237061</ele>
        <time>2013-04-21T06:24:34.000Z</time>
      </trkpt>
      <trkpt lat="43.68724" lon="-1.27994">
        <ele>57.200000762939</ele>
        <time>2013-04-21T06:24:40.000Z</time>
      </trkpt>
      <trkpt lat="43.6874" lon="-1.2799">
        <ele>56.400001525879</ele>
        <time>2013-04-21T06:24:47.000Z</time>
      </trkpt>
      <trkpt lat="43.68755" lon="-1.27986">
        <ele>55.599998474121</ele>
        <time>2013-04-21T06:24:53.000Z</time>
      </trkpt>
      <trkpt lat="43.68767" lon="-1.27983">
        <ele>55.200000762939</ele>
        <time>2013-04-21T06:24:58.000Z</time>
      </trkpt>
      <trkpt lat="43.68781" lon="-1.27975">
        <ele>54.599998474121</ele>
        <time>2013-04-21T06:25:04.000Z</time>
      </trkpt>
      <trkpt lat="43.68792" lon="-1.27962">
        <ele>54.200000762939</ele>
        <time>2013-04-21T06:25:10.000Z</time>
      </trkpt>
      <trkpt lat="43.68801" lon="-1.27946">
        <ele>53.799999237061</ele>
        <time>2013-04-21T06:25:16.000Z</time>
      </trkpt>
      <trkpt lat="43.68808" lon="-1.27929">
        <ele>53.799999237061</ele>
        <time>2013-04-21T06:25:22.000Z</time>
      </trkpt>
      <trkpt lat="43.68814" lon="-1.27911">
        <ele>53.599998474121</ele>
        <time>2013-04-21T06:25:28.000Z</time>
      </trkpt>
      <trkpt lat="43.68824" lon="-1.27899">
        <ele>53</ele>
        <time>2013-04-21T06:25:34.000Z</time>
      </trkpt>
      <trkpt lat="43.68836" lon="-1.27901">
        <ele>52.599998474121</ele>
        <time>2013-04-21T06:25:39.000Z</time>
      </trkpt>
      <trkpt lat="43.68845" lon="-1.27905">
        <ele>52</ele>
        <time>2013-04-21T06:25:43.000Z</time>
      </trkpt>
      <trkpt lat="43.68854" lon="-1.27919">
        <ele>51.599998474121</ele>
        <time>2013-04-21T06:25:48.000Z</time>
      </trkpt>
      <trkpt lat="43.68865" lon="-1.27933">
        <ele>50.799999237061</ele>
        <time>2013-04-21T06:25:54.000Z</time>
      </trkpt>
      <trkpt lat="43.68876" lon="-1.27942">
        <ele>50</ele>
        <time>2013-04-21T06:25:59.000Z</time>
      </trkpt>
      <trkpt lat="43.68891" lon="-1.27944">
        <ele>49.200000762939</ele>
        <time>2013-04-21T06:26:05.000Z</time>
      </trkpt>
      <trkpt lat="43.68905" lon="-1.27938">
        <ele>48.400001525879</ele>
        <time>2013-04-21T06:26:11.000Z</time>
      </trkpt>
      <trkpt lat="43.68915" lon="-1.27928">
        <ele>47.799999237061</ele>
        <time>2013-04-21T06:26:16.000Z</time>
      </trkpt>
      <trkpt lat="43.68923" lon="-1.27921">
        <ele>47.400001525879</ele>
        <time>2013-04-21T06:26:20.000Z</time>
      </trkpt>
      <trkpt lat="43.6893" lon="-1.27906">
        <ele>47</ele>
        <time>2013-04-21T06:26:25.000Z</time>
      </trkpt>
      <trkpt lat="43.68932" lon="-1.27889">
        <ele>47</ele>
        <time>2013-04-21T06:26:30.000Z</time>
      </trkpt>
      <trkpt lat="43.6893" lon="-1.27871">
        <ele>47.200000762939</ele>
        <time>2013-04-21T06:26:36.000Z</time>
      </trkpt>
      <trkpt lat="43.68925" lon="-1.27852">
        <ele>47.400001525879</ele>
        <time>2013-04-21T06:26:42.000Z</time>
      </trkpt>
      <trkpt lat="43.68919" lon="-1.27835">
        <ele>47.799999237061</ele>
        <time>2013-04-21T06:26:48.000Z</time>
      </trkpt>
      <trkpt lat="43.68912" lon="-1.27818">
        <ele>48.200000762939</ele>
        <time>2013-04-21T06:26:54.000Z</time>
      </trkpt>
      <trkpt lat="43.68911" lon="-1.27802">
        <ele>48.200000762939</ele>
        <time>2013-04-21T06:26:59.000Z</time>
      </trkpt>
      <trkpt lat="43.68912" lon="-1.27788">
        <ele>48.200000762939</ele>
        <time>2013-04-21T06:27:04.000Z</time>
      </trkpt>
      <trkpt lat="43.68917" lon="-1.27769">
        <ele>47.799999237061</ele>
        <time>2013-04-21T06:27:10.000Z</time>
      </trkpt>
      <trkpt lat="43.68925" lon="-1.27758">
        <ele>47.599998474121</ele>
        <time>2013-04-21T06:27:15.000Z</time>
      </trkpt>
      <trkpt lat="43.68936" lon="-1.27753">
        <ele>47.200000762939</ele>
        <time>2013-04-21T06:27:20.000Z</time>
      </trkpt>
      <trkpt lat="43.68951" lon="-1.27753">
        <ele>46.599998474121</ele>
        <time>2013-04-21T06:27:26.000Z</time>
      </trkpt>
      <trkpt lat="43.68965" lon="-1.27761">
        <ele>46</ele>
        <time>2013-04-21T06:27:32.000Z</time>
      </trkpt>
      <trkpt lat="43.68973" lon="-1.27773">
        <ele>45.599998474121</ele>
        <time>2013-04-21T06:27:37.000Z</time>
      </trkpt>
      <trkpt lat="43.6898" lon="-1.27791">
        <ele>45.200000762939</ele>
        <time>2013-04-21T06:27:43.000Z</time>
      </trkpt>
      <trkpt lat="43.68982" lon="-1.2781">
        <ele>45</ele>
        <time>2013-04-21T06:27:49.000Z</time>
      </trkpt>
      <trkpt lat="43.68981" lon="-1.27828">
        <ele>44.799999237061</ele>
        <time>2013-04-21T06:27:54.000Z</time>
      </trkpt>
      <trkpt lat="43.68981" lon="-1.27837">
        <ele>44.799999237061</ele>
        <time>2013-04-21T06:27:57.000Z</time>
      </trkpt>
      <trkpt lat="43.68981" lon="-1.27839">
        <ele>44.799999237061</ele>
        <time>2013-04-21T06:27:58.000Z</time>
      </trkpt>
      <trkpt lat="43.68979" lon="-1.27853">
        <ele>44.799999237061</ele>
        <time>2013-04-21T06:28:02.000Z</time>
      </trkpt>
      <trkpt lat="43.68979" lon="-1.27855">
        <ele>44.799999237061</ele>
        <time>2013-04-21T06:28:03.000Z</time>
      </trkpt>
      <trkpt lat="43.6898" lon="-1.27872">
        <ele>44.599998474121</ele>
        <time>2013-04-21T06:28:08.000Z</time>
      </trkpt>
      <trkpt lat="43.68982" lon="-1.27892">
        <ele>44.200000762939</ele>
        <time>2013-04-21T06:28:14.000Z</time>
      </trkpt>
      <trkpt lat="43.68985" lon="-1.27909">
        <ele>43.799999237061</ele>
        <time>2013-04-21T06:28:19.000Z</time>
      </trkpt>
      <trkpt lat="43.68991" lon="-1.27923">
        <ele>43.400001525879</ele>
        <time>2013-04-21T06:28:24.000Z</time>
      </trkpt>
      <trkpt lat="43.69" lon="-1.27935">
        <ele>43</ele>
        <time>2013-04-21T06:28:29.000Z</time>
      </trkpt>
      <trkpt lat="43.69011" lon="-1.27942">
        <ele>42.799999237061</ele>
        <time>2013-04-21T06:28:34.000Z</time>
      </trkpt>
      <trkpt lat="43.69023" lon="-1.27945">
        <ele>42.599998474121</ele>
        <time>2013-04-21T06:28:39.000Z</time>
      </trkpt>
      <trkpt lat="43.69035" lon="-1.27943">
        <ele>42.400001525879</ele>
        <time>2013-04-21T06:28:44.000Z</time>
      </trkpt>
      <trkpt lat="43.69043" lon="-1.27945">
        <ele>42.400001525879</ele>
        <time>2013-04-21T06:28:49.000Z</time>
      </trkpt>
      <trkpt lat="43.69047" lon="-1.27947">
        <ele>42.400001525879</ele>
        <time>2013-04-21T06:28:52.000Z</time>
      </trkpt>
      <trkpt lat="43.69048" lon="-1.27948">
        <ele>42.400001525879</ele>
        <time>2013-04-21T06:28:53.000Z</time>
      </trkpt>
      <trkpt lat="43.69054" lon="-1.2795">
        <ele>42.200000762939</ele>
        <time>2013-04-21T06:28:56.000Z</time>
      </trkpt>
      <trkpt lat="43.69056" lon="-1.27952">
        <ele>42.200000762939</ele>
        <time>2013-04-21T06:28:57.000Z</time>
      </trkpt>
      <trkpt lat="43.69066" lon="-1.27954">
        <ele>42.200000762939</ele>
        <time>2013-04-21T06:29:02.000Z</time>
      </trkpt>
      <trkpt lat="43.69077" lon="-1.27956">
        <ele>42</ele>
        <time>2013-04-21T06:29:08.000Z</time>
      </trkpt>
      <trkpt lat="43.6908" lon="-1.27957">
        <ele>42</ele>
        <time>2013-04-21T06:29:10.000Z</time>
      </trkpt>
      <trkpt lat="43.69082" lon="-1.27957">
        <ele>42</ele>
        <time>2013-04-21T06:29:12.000Z</time>
      </trkpt>
      <trkpt lat="43.69086" lon="-1.27957">
        <ele>42</ele>
        <time>2013-04-21T06:29:18.000Z</time>
      </trkpt>
      <trkpt lat="43.69086" lon="-1.27957">
        <ele>42</ele>
        <time>2013-04-21T06:29:19.000Z</time>
      </trkpt>
      <trkpt lat="43.69089" lon="-1.27958">
        <ele>42</ele>
        <time>2013-04-21T06:29:25.000Z</time>
      </trkpt>
      <trkpt lat="43.69092" lon="-1.27957">
        <ele>42</ele>
        <time>2013-04-21T06:29:28.000Z</time>
      </trkpt>
      <trkpt lat="43.69093" lon="-1.27955">
        <ele>42</ele>
        <time>2013-04-21T06:29:29.000Z</time>
      </trkpt>
      <trkpt lat="43.69092" lon="-1.27955">
        <ele>42</ele>
        <time>2013-04-21T06:29:34.000Z</time>
      </trkpt>
      <trkpt lat="43.69094" lon="-1.27951">
        <ele>42</ele>
        <time>2013-04-21T06:29:40.000Z</time>
      </trkpt>
      <trkpt lat="43.69092" lon="-1.27946">
        <ele>42</ele>
        <time>2013-04-21T06:29:46.000Z</time>
      </trkpt>
      <trkpt lat="43.69094" lon="-1.27935">
        <ele>42</ele>
        <time>2013-04-21T06:29:52.000Z</time>
      </trkpt>
      <trkpt lat="43.69093" lon="-1.27922">
        <ele>42</ele>
        <time>2013-04-21T06:29:57.000Z</time>
      </trkpt>
      <trkpt lat="43.69089" lon="-1.27906">
        <ele>42</ele>
        <time>2013-04-21T06:30:02.000Z</time>
      </trkpt>
      <trkpt lat="43.69085" lon="-1.27891">
        <ele>42.200000762939</ele>
        <time>2013-04-21T06:30:08.000Z</time>
      </trkpt>
      <trkpt lat="43.69082" lon="-1.27879">
        <ele>42.400001525879</ele>
        <time>2013-04-21T06:30:13.000Z</time>
      </trkpt>
      <trkpt lat="43.69084" lon="-1.27873">
        <ele>42.400001525879</ele>
        <time>2013-04-21T06:30:15.000Z</time>
      </trkpt>
      <trkpt lat="43.69084" lon="-1.27869">
        <ele>42.400001525879</ele>
        <time>2013-04-21T06:30:17.000Z</time>
      </trkpt>
      <trkpt lat="43.69086" lon="-1.27851">
        <ele>42.599998474121</ele>
        <time>2013-04-21T06:30:22.000Z</time>
      </trkpt>
      <trkpt lat="43.69092" lon="-1.27836">
        <ele>42.799999237061</ele>
        <time>2013-04-21T06:30:28.000Z</time>
      </trkpt>
      <trkpt lat="43.69098" lon="-1.27825">
        <ele>42.799999237061</ele>
        <time>2013-04-21T06:30:33.000Z</time>
      </trkpt>
      <trkpt lat="43.69105" lon="-1.27812">
        <ele>42.799999237061</ele>
        <time>2013-04-21T06:30:38.000Z</time>
      </trkpt>
      <trkpt lat="43.69111" lon="-1.27798">
        <ele>42.799999237061</ele>
        <time>2013-04-21T06:30:43.000Z</time>
      </trkpt>
      <trkpt lat="43.69117" lon="-1.27784">
        <ele>42.799999237061</ele>
        <time>2013-04-21T06:30:48.000Z</time>
      </trkpt>
      <trkpt lat="43.69123" lon="-1.27769">
        <ele>42.799999237061</ele>
        <time>2013-04-21T06:30:53.000Z</time>
      </trkpt>
      <trkpt lat="43.69131" lon="-1.27759">
        <ele>42.799999237061</ele>
        <time>2013-04-21T06:30:58.000Z</time>
      </trkpt>
      <trkpt lat="43.69138" lon="-1.27744">
        <ele>42.599998474121</ele>
        <time>2013-04-21T06:31:03.000Z</time>
      </trkpt>
      <trkpt lat="43.69144" lon="-1.27727">
        <ele>42.599998474121</ele>
        <time>2013-04-21T06:31:09.000Z</time>
      </trkpt>
      <trkpt lat="43.69147" lon="-1.27713">
        <ele>42.400001525879</ele>
        <time>2013-04-21T06:31:14.000Z</time>
      </trkpt>
      <trkpt lat="43.69149" lon="-1.27698">
        <ele>42.400001525879</ele>
        <time>2013-04-21T06:31:19.000Z</time>
      </trkpt>
      <trkpt lat="43.69152" lon="-1.27679">
        <ele>42.400001525879</ele>
        <time>2013-04-21T06:31:25.000Z</time>
      </trkpt>
      <trkpt lat="43.69156" lon="-1.27664">
        <ele>42.400001525879</ele>
        <time>2013-04-21T06:31:30.000Z</time>
      </trkpt>
      <trkpt lat="43.69161" lon="-1.27647">
        <ele>43</ele>
        <time>2013-04-21T06:31:36.000Z</time>
      </trkpt>
      <trkpt lat="43.69166" lon="-1.2764">
        <ele>43.200000762939</ele>
        <time>2013-04-21T06:31:39.000Z</time>
      </trkpt>
      <trkpt lat="43.69168" lon="-1.27638">
        <ele>43.200000762939</ele>
        <time>2013-04-21T06:31:40.000Z</time>
      </trkpt>
      <trkpt lat="43.69173" lon="-1.27633">
        <ele>43.400001525879</ele>
        <time>2013-04-21T06:31:43.000Z</time>
      </trkpt>
      <trkpt lat="43.69178" lon="-1.27628">
        <ele>43.599998474121</ele>
        <time>2013-04-21T06:31:46.000Z</time>
      </trkpt>
      <trkpt lat="43.69186" lon="-1.27614">
        <ele>44</ele>
        <time>2013-04-21T06:31:52.000Z</time>
      </trkpt>
      <trkpt lat="43.69193" lon="-1.27602">
        <ele>44.400001525879</ele>
        <time>2013-04-21T06:31:57.000Z</time>
      </trkpt>
      <trkpt lat="43.69201" lon="-1.27592">
        <ele>44.400001525879</ele>
        <time>2013-04-21T06:32:02.000Z</time>
      </trkpt>
      <trkpt lat="43.69213" lon="-1.27576">
        <ele>44.400001525879</ele>
        <time>2013-04-21T06:32:10.000Z</time>
      </trkpt>
      <trkpt lat="43.6922" lon="-1.27566">
        <ele>44.400001525879</ele>
        <time>2013-04-21T06:32:15.000Z</time>
      </trkpt>
      <trkpt lat="43.69227" lon="-1.27554">
        <ele>44.400001525879</ele>
        <time>2013-04-21T06:32:20.000Z</time>
      </trkpt>
      <trkpt lat="43.69234" lon="-1.27543">
        <ele>44.400001525879</ele>
        <time>2013-04-21T06:32:25.000Z</time>
      </trkpt>
      <trkpt lat="43.69235" lon="-1.27543">
        <ele>44.400001525879</ele>
        <time>2013-04-21T06:32:26.000Z</time>
      </trkpt>
      <trkpt lat="43.69241" lon="-1.27541">
        <ele>44.200000762939</ele>
        <time>2013-04-21T06:32:29.000Z</time>
      </trkpt>
      <trkpt lat="43.69246" lon="-1.27534">
        <ele>44.200000762939</ele>
        <time>2013-04-21T06:32:32.000Z</time>
      </trkpt>
      <trkpt lat="43.69248" lon="-1.2753">
        <ele>44.200000762939</ele>
        <time>2013-04-21T06:32:34.000Z</time>
      </trkpt>
      <trkpt lat="43.6925" lon="-1.2753">
        <ele>44.200000762939</ele>
        <time>2013-04-21T06:32:35.000Z</time>
      </trkpt>
      <trkpt lat="43.69254" lon="-1.27527">
        <ele>44.200000762939</ele>
        <time>2013-04-21T06:32:38.000Z</time>
      </trkpt>
      <trkpt lat="43.69261" lon="-1.27532">
        <ele>44</ele>
        <time>2013-04-21T06:32:42.000Z</time>
      </trkpt>
      <trkpt lat="43.69268" lon="-1.27536">
        <ele>43.799999237061</ele>
        <time>2013-04-21T06:32:47.000Z</time>
      </trkpt>
      <trkpt lat="43.69271" lon="-1.27536">
        <ele>43.799999237061</ele>
        <time>2013-04-21T06:32:48.000Z</time>
      </trkpt>
      <trkpt lat="43.69275" lon="-1.27532">
        <ele>43.799999237061</ele>
        <time>2013-04-21T06:32:51.000Z</time>
      </trkpt>
      <trkpt lat="43.69279" lon="-1.2753">
        <ele>43.799999237061</ele>
        <time>2013-04-21T06:32:54.000Z</time>
      </trkpt>
      <trkpt lat="43.69285" lon="-1.27525">
        <ele>43.799999237061</ele>
        <time>2013-04-21T06:32:57.000Z</time>
      </trkpt>
      <trkpt lat="43.69288" lon="-1.2752">
        <ele>43.799999237061</ele>
        <time>2013-04-21T06:33:00.000Z</time>
      </trkpt>
      <trkpt lat="43.69291" lon="-1.27519">
        <ele>43.599998474121</ele>
        <time>2013-04-21T06:33:02.000Z</time>
      </trkpt>
      <trkpt lat="43.69297" lon="-1.27517">
        <ele>43.599998474121</ele>
        <time>2013-04-21T06:33:06.000Z</time>
      </trkpt>
      <trkpt lat="43.69305" lon="-1.27519">
        <ele>43.400001525879</ele>
        <time>2013-04-21T06:33:11.000Z</time>
      </trkpt>
      <trkpt lat="43.69307" lon="-1.27518">
        <ele>43.400001525879</ele>
        <time>2013-04-21T06:33:13.000Z</time>
      </trkpt>
      <trkpt lat="43.6931" lon="-1.27516">
        <ele>43.400001525879</ele>
        <time>2013-04-21T06:33:15.000Z</time>
      </trkpt>
      <trkpt lat="43.69313" lon="-1.27515">
        <ele>43.200000762939</ele>
        <time>2013-04-21T06:33:17.000Z</time>
      </trkpt>
      <trkpt lat="43.69325" lon="-1.27509">
        <ele>43</ele>
        <time>2013-04-21T06:33:23.000Z</time>
      </trkpt>
      <trkpt lat="43.69331" lon="-1.27509">
        <ele>43</ele>
        <time>2013-04-21T06:33:27.000Z</time>
      </trkpt>
      <trkpt lat="43.69342" lon="-1.27505">
        <ele>42.799999237061</ele>
        <time>2013-04-21T06:33:32.000Z</time>
      </trkpt>
      <trkpt lat="43.69343" lon="-1.27503">
        <ele>42.799999237061</ele>
        <time>2013-04-21T06:33:33.000Z</time>
      </trkpt>
      <trkpt lat="43.69354" lon="-1.27502">
        <ele>42.599998474121</ele>
        <time>2013-04-21T06:33:39.000Z</time>
      </trkpt>
      <trkpt lat="43.6936" lon="-1.27501">
        <ele>42.599998474121</ele>
        <time>2013-04-21T06:33:44.000Z</time>
      </trkpt>
      <trkpt lat="43.69369" lon="-1.275">
        <ele>42.400001525879</ele>
        <time>2013-04-21T06:33:49.000Z</time>
      </trkpt>
      <trkpt lat="43.69381" lon="-1.27496">
        <ele>42.200000762939</ele>
        <time>2013-04-21T06:33:55.000Z</time>
      </trkpt>
      <trkpt lat="43.69384" lon="-1.27495">
        <ele>42.200000762939</ele>
        <time>2013-04-21T06:33:57.000Z</time>
      </trkpt>
      <trkpt lat="43.6939" lon="-1.27492">
        <ele>42.200000762939</ele>
        <time>2013-04-21T06:34:00.000Z</time>
      </trkpt>
      <trkpt lat="43.69405" lon="-1.2749">
        <ele>42</ele>
        <time>2013-04-21T06:34:06.000Z</time>
      </trkpt>
      <trkpt lat="43.69414" lon="-1.27489">
        <ele>42</ele>
        <time>2013-04-21T06:34:11.000Z</time>
      </trkpt>
      <trkpt lat="43.69421" lon="-1.27486">
        <ele>42</ele>
        <time>2013-04-21T06:34:15.000Z</time>
      </trkpt>
      <trkpt lat="43.69422" lon="-1.27485">
        <ele>42</ele>
        <time>2013-04-21T06:34:16.000Z</time>
      </trkpt>
      <trkpt lat="43.69426" lon="-1.27485">
        <ele>42</ele>
        <time>2013-04-21T06:34:18.000Z</time>
      </trkpt>
      <trkpt lat="43.69432" lon="-1.27486">
        <ele>42</ele>
        <time>2013-04-21T06:34:21.000Z</time>
      </trkpt>
      <trkpt lat="43.69434" lon="-1.27487">
        <ele>42.200000762939</ele>
        <time>2013-04-21T06:34:22.000Z</time>
      </trkpt>
      <trkpt lat="43.6944" lon="-1.27488">
        <ele>42.200000762939</ele>
        <time>2013-04-21T06:34:26.000Z</time>
      </trkpt>
      <trkpt lat="43.69442" lon="-1.27489">
        <ele>42.200000762939</ele>
        <time>2013-04-21T06:34:27.000Z</time>
      </trkpt>
      <trkpt lat="43.69452" lon="-1.27491">
        <ele>42.400001525879</ele>
        <time>2013-04-21T06:34:33.000Z</time>
      </trkpt>
      <trkpt lat="43.69456" lon="-1.27493">
        <ele>42.400001525879</ele>
        <time>2013-04-21T06:34:38.000Z</time>
      </trkpt>
      <trkpt lat="43.69462" lon="-1.27494">
        <ele>42.400001525879</ele>
        <time>2013-04-21T06:34:43.000Z</time>
      </trkpt>
      <trkpt lat="43.69469" lon="-1.27494">
        <ele>42.599998474121</ele>
        <time>2013-04-21T06:34:48.000Z</time>
      </trkpt>
      <trkpt lat="43.69474" lon="-1.27505">
        <ele>42.599998474121</ele>
        <time>2013-04-21T06:34:53.000Z</time>
      </trkpt>
      <trkpt lat="43.69475" lon="-1.27516">
        <ele>42.400001525879</ele>
        <time>2013-04-21T06:34:59.000Z</time>
      </trkpt>
      <trkpt lat="43.6948" lon="-1.27532">
        <ele>42.400001525879</ele>
        <time>2013-04-21T06:35:06.000Z</time>
      </trkpt>
      <trkpt lat="43.69484" lon="-1.27542">
        <ele>42.400001525879</ele>
        <time>2013-04-21T06:35:11.000Z</time>
      </trkpt>
      <trkpt lat="43.69489" lon="-1.27555">
        <ele>42.200000762939</ele>
        <time>2013-04-21T06:35:17.000Z</time>
      </trkpt>
      <trkpt lat="43.69492" lon="-1.27566">
        <ele>42</ele>
        <time>2013-04-21T06:35:22.000Z</time>
      </trkpt>
      <trkpt lat="43.69494" lon="-1.2757">
        <ele>42</ele>
        <time>2013-04-21T06:35:24.000Z</time>
      </trkpt>
      <trkpt lat="43.69497" lon="-1.27579">
        <ele>42</ele>
        <time>2013-04-21T06:35:28.000Z</time>
      </trkpt>
      <trkpt lat="43.69499" lon="-1.27582">
        <ele>42</ele>
        <time>2013-04-21T06:35:29.000Z</time>
      </trkpt>
      <trkpt lat="43.69501" lon="-1.27589">
        <ele>42</ele>
        <time>2013-04-21T06:35:32.000Z</time>
      </trkpt>
      <trkpt lat="43.69509" lon="-1.27604">
        <ele>42.400001525879</ele>
        <time>2013-04-21T06:35:38.000Z</time>
      </trkpt>
      <trkpt lat="43.69511" lon="-1.27609">
        <ele>42.400001525879</ele>
        <time>2013-04-21T06:35:39.000Z</time>
      </trkpt>
      <trkpt lat="43.69515" lon="-1.27619">
        <ele>42.599998474121</ele>
        <time>2013-04-21T06:35:43.000Z</time>
      </trkpt>
      <trkpt lat="43.6952" lon="-1.27631">
        <ele>42.799999237061</ele>
        <time>2013-04-21T06:35:48.000Z</time>
      </trkpt>
      <trkpt lat="43.69523" lon="-1.27643">
        <ele>43</ele>
        <time>2013-04-21T06:35:53.000Z</time>
      </trkpt>
      <trkpt lat="43.69525" lon="-1.27645">
        <ele>43</ele>
        <time>2013-04-21T06:35:54.000Z</time>
      </trkpt>
      <trkpt lat="43.69531" lon="-1.27658">
        <ele>43.200000762939</ele>
        <time>2013-04-21T06:35:59.000Z</time>
      </trkpt>
      <trkpt lat="43.69534" lon="-1.27666">
        <ele>43.400001525879</ele>
        <time>2013-04-21T06:36:03.000Z</time>
      </trkpt>
      <trkpt lat="43.69541" lon="-1.2768">
        <ele>43.599998474121</ele>
        <time>2013-04-21T06:36:09.000Z</time>
      </trkpt>
      <trkpt lat="43.69548" lon="-1.27681">
        <ele>43.599998474121</ele>
        <time>2013-04-21T06:36:14.000Z</time>
      </trkpt>
      <trkpt lat="43.69555" lon="-1.27679">
        <ele>43.599998474121</ele>
        <time>2013-04-21T06:36:17.000Z</time>
      </trkpt>
      <trkpt lat="43.69558" lon="-1.27677">
        <ele>43.599998474121</ele>
        <time>2013-04-21T06:36:19.000Z</time>
      </trkpt>
      <trkpt lat="43.69562" lon="-1.27674">
        <ele>43.599998474121</ele>
        <time>2013-04-21T06:36:21.000Z</time>
      </trkpt>
      <trkpt lat="43.69564" lon="-1.27674">
        <ele>43.799999237061</ele>
        <time>2013-04-21T06:36:23.000Z</time>
      </trkpt>
      <trkpt lat="43.69566" lon="-1.27675">
        <ele>43.799999237061</ele>
        <time>2013-04-21T06:36:25.000Z</time>
      </trkpt>
      <trkpt lat="43.69568" lon="-1.27677">
        <ele>43.799999237061</ele>
        <time>2013-04-21T06:36:31.000Z</time>
      </trkpt>
      <trkpt lat="43.69569" lon="-1.27679">
        <ele>43.799999237061</ele>
        <time>2013-04-21T06:36:32.000Z</time>
      </trkpt>
      <trkpt lat="43.69571" lon="-1.27685">
        <ele>43.799999237061</ele>
        <time>2013-04-21T06:36:35.000Z</time>
      </trkpt>
      <trkpt lat="43.69578" lon="-1.2768">
        <ele>43.799999237061</ele>
        <time>2013-04-21T06:36:39.000Z</time>
      </trkpt>
      <trkpt lat="43.69582" lon="-1.27676">
        <ele>43.799999237061</ele>
        <time>2013-04-21T06:36:41.000Z</time>
      </trkpt>
      <trkpt lat="43.69588" lon="-1.27674">
        <ele>44</ele>
        <time>2013-04-21T06:36:44.000Z</time>
      </trkpt>
      <trkpt lat="43.69595" lon="-1.27681">
        <ele>44</ele>
        <time>2013-04-21T06:36:48.000Z</time>
      </trkpt>
      <trkpt lat="43.69597" lon="-1.27682">
        <ele>44</ele>
        <time>2013-04-21T06:36:49.000Z</time>
      </trkpt>
      <trkpt lat="43.6961" lon="-1.27684">
        <ele>44</ele>
        <time>2013-04-21T06:36:54.000Z</time>
      </trkpt>
      <trkpt lat="43.69619" lon="-1.27685">
        <ele>44</ele>
        <time>2013-04-21T06:36:58.000Z</time>
      </trkpt>
      <trkpt lat="43.69627" lon="-1.27699">
        <ele>44</ele>
        <time>2013-04-21T06:37:03.000Z</time>
      </trkpt>
      <trkpt lat="43.69635" lon="-1.27711">
        <ele>44</ele>
        <time>2013-04-21T06:37:08.000Z</time>
      </trkpt>
      <trkpt lat="43.69641" lon="-1.27727">
        <ele>44</ele>
        <time>2013-04-21T06:37:14.000Z</time>
      </trkpt>
      <trkpt lat="43.69647" lon="-1.27746">
        <ele>44</ele>
        <time>2013-04-21T06:37:20.000Z</time>
      </trkpt>
      <trkpt lat="43.69653" lon="-1.27761">
        <ele>44.200000762939</ele>
        <time>2013-04-21T06:37:25.000Z</time>
      </trkpt>
      <trkpt lat="43.69656" lon="-1.27774">
        <ele>44.400001525879</ele>
        <time>2013-04-21T06:37:30.000Z</time>
      </trkpt>
      <trkpt lat="43.69663" lon="-1.2779">
        <ele>44.799999237061</ele>
        <time>2013-04-21T06:37:35.000Z</time>
      </trkpt>
      <trkpt lat="43.69669" lon="-1.27795">
        <ele>45</ele>
        <time>2013-04-21T06:37:38.000Z</time>
      </trkpt>
      <trkpt lat="43.69671" lon="-1.27796">
        <ele>45.200000762939</ele>
        <time>2013-04-21T06:37:39.000Z</time>
      </trkpt>
      <trkpt lat="43.69685" lon="-1.27801">
        <ele>46</ele>
        <time>2013-04-21T06:37:45.000Z</time>
      </trkpt>
      <trkpt lat="43.69686" lon="-1.27803">
        <ele>46.200000762939</ele>
        <time>2013-04-21T06:37:47.000Z</time>
      </trkpt>
      <trkpt lat="43.69686" lon="-1.27802">
        <ele>46.200000762939</ele>
        <time>2013-04-21T06:37:49.000Z</time>
      </trkpt>
      <trkpt lat="43.69687" lon="-1.27799">
        <ele>46</ele>
        <time>2013-04-21T06:37:54.000Z</time>
      </trkpt>
      <trkpt lat="43.69684" lon="-1.27799">
        <ele>45.799999237061</ele>
        <time>2013-04-21T06:38:34.000Z</time>
      </trkpt>
      <trkpt lat="43.69685" lon="-1.27799">
        <ele>46</ele>
        <time>2013-04-21T06:38:40.000Z</time>
      </trkpt>
      <trkpt lat="43.69691" lon="-1.27803">
        <ele>46.400001525879</ele>
        <time>2013-04-21T06:38:44.000Z</time>
      </trkpt>
      <trkpt lat="43.69704" lon="-1.27807">
        <ele>47.200000762939</ele>
        <time>2013-04-21T06:38:49.000Z</time>
      </trkpt>
      <trkpt lat="43.6972" lon="-1.2781">
        <ele>48.200000762939</ele>
        <time>2013-04-21T06:38:55.000Z</time>
      </trkpt>
      <trkpt lat="43.69732" lon="-1.27814">
        <ele>49.200000762939</ele>
        <time>2013-04-21T06:39:00.000Z</time>
      </trkpt>
      <trkpt lat="43.69745" lon="-1.27816">
        <ele>50.200000762939</ele>
        <time>2013-04-21T06:39:05.000Z</time>
      </trkpt>
      <trkpt lat="43.69757" lon="-1.27819">
        <ele>51</ele>
        <time>2013-04-21T06:39:10.000Z</time>
      </trkpt>
      <trkpt lat="43.69773" lon="-1.27822">
        <ele>52</ele>
        <time>2013-04-21T06:39:16.000Z</time>
      </trkpt>
      <trkpt lat="43.69787" lon="-1.27825">
        <ele>52.799999237061</ele>
        <time>2013-04-21T06:39:22.000Z</time>
      </trkpt>
      <trkpt lat="43.69802" lon="-1.2783">
        <ele>53.599998474121</ele>
        <time>2013-04-21T06:39:28.000Z</time>
      </trkpt>
      <trkpt lat="43.69816" lon="-1.27835">
        <ele>54.400001525879</ele>
        <time>2013-04-21T06:39:34.000Z</time>
      </trkpt>
      <trkpt lat="43.69831" lon="-1.27845">
        <ele>55</ele>
        <time>2013-04-21T06:39:40.000Z</time>
      </trkpt>
      <trkpt lat="43.69842" lon="-1.27853">
        <ele>55.200000762939</ele>
        <time>2013-04-21T06:39:45.000Z</time>
      </trkpt>
      <trkpt lat="43.69861" lon="-1.27865">
        <ele>55.200000762939</ele>
        <time>2013-04-21T06:39:53.000Z</time>
      </trkpt>
      <trkpt lat="43.69872" lon="-1.27871">
        <ele>55.200000762939</ele>
        <time>2013-04-21T06:39:58.000Z</time>
      </trkpt>
      <trkpt lat="43.69889" lon="-1.27884">
        <ele>55.200000762939</ele>
        <time>2013-04-21T06:40:06.000Z</time>
      </trkpt>
      <trkpt lat="43.69899" lon="-1.27892">
        <ele>55</ele>
        <time>2013-04-21T06:40:11.000Z</time>
      </trkpt>
      <trkpt lat="43.69909" lon="-1.27903">
        <ele>55</ele>
        <time>2013-04-21T06:40:17.000Z</time>
      </trkpt>
      <trkpt lat="43.69919" lon="-1.27913">
        <ele>55</ele>
        <time>2013-04-21T06:40:22.000Z</time>
      </trkpt>
      <trkpt lat="43.6993" lon="-1.27924">
        <ele>54.799999237061</ele>
        <time>2013-04-21T06:40:28.000Z</time>
      </trkpt>
      <trkpt lat="43.69941" lon="-1.27936">
        <ele>54.799999237061</ele>
        <time>2013-04-21T06:40:34.000Z</time>
      </trkpt>
      <trkpt lat="43.69953" lon="-1.27951">
        <ele>54.599998474121</ele>
        <time>2013-04-21T06:40:41.000Z</time>
      </trkpt>
      <trkpt lat="43.69964" lon="-1.27963">
        <ele>54.599998474121</ele>
        <time>2013-04-21T06:40:47.000Z</time>
      </trkpt>
      <trkpt lat="43.69978" lon="-1.27978">
        <ele>54.799999237061</ele>
        <time>2013-04-21T06:40:54.000Z</time>
      </trkpt>
      <trkpt lat="43.69989" lon="-1.27992">
        <ele>54.799999237061</ele>
        <time>2013-04-21T06:41:00.000Z</time>
      </trkpt>
      <trkpt lat="43.70002" lon="-1.28007">
        <ele>54.799999237061</ele>
        <time>2013-04-21T06:41:07.000Z</time>
      </trkpt>
      <trkpt lat="43.70013" lon="-1.2802">
        <ele>54.799999237061</ele>
        <time>2013-04-21T06:41:13.000Z</time>
      </trkpt>
      <trkpt lat="43.70025" lon="-1.28036">
        <ele>54.599998474121</ele>
        <time>2013-04-21T06:41:20.000Z</time>
      </trkpt>
      <trkpt lat="43.70034" lon="-1.28052">
        <ele>54.400001525879</ele>
        <time>2013-04-21T06:41:26.000Z</time>
      </trkpt>
      <trkpt lat="43.70044" lon="-1.28068">
        <ele>54</ele>
        <time>2013-04-21T06:41:32.000Z</time>
      </trkpt>
      <trkpt lat="43.70054" lon="-1.28083">
        <ele>53.599998474121</ele>
        <time>2013-04-21T06:41:38.000Z</time>
      </trkpt>
      <trkpt lat="43.70064" lon="-1.28101">
        <ele>52.200000762939</ele>
        <time>2013-04-21T06:41:45.000Z</time>
      </trkpt>
      <trkpt lat="43.7007" lon="-1.28111">
        <ele>51.200000762939</ele>
        <time>2013-04-21T06:41:49.000Z</time>
      </trkpt>
      <trkpt lat="43.70072" lon="-1.28112">
        <ele>51.200000762939</ele>
        <time>2013-04-21T06:41:50.000Z</time>
      </trkpt>
      <trkpt lat="43.70077" lon="-1.2812">
        <ele>50.400001525879</ele>
        <time>2013-04-21T06:41:53.000Z</time>
      </trkpt>
      <trkpt lat="43.7008" lon="-1.2812">
        <ele>50.400001525879</ele>
        <time>2013-04-21T06:41:54.000Z</time>
      </trkpt>
      <trkpt lat="43.70082" lon="-1.28119">
        <ele>50.400001525879</ele>
        <time>2013-04-21T06:41:55.000Z</time>
      </trkpt>
      <trkpt lat="43.70089" lon="-1.2811">
        <ele>51.200000762939</ele>
        <time>2013-04-21T06:41:58.000Z</time>
      </trkpt>
      <trkpt lat="43.7009" lon="-1.28107">
        <ele>51.599998474121</ele>
        <time>2013-04-21T06:41:59.000Z</time>
      </trkpt>
      <trkpt lat="43.70098" lon="-1.28101">
        <ele>52.400001525879</ele>
        <time>2013-04-21T06:42:03.000Z</time>
      </trkpt>
      <trkpt lat="43.70101" lon="-1.28101">
        <ele>52.599998474121</ele>
        <time>2013-04-21T06:42:04.000Z</time>
      </trkpt>
      <trkpt lat="43.70112" lon="-1.28103">
        <ele>53</ele>
        <time>2013-04-21T06:42:09.000Z</time>
      </trkpt>
      <trkpt lat="43.70126" lon="-1.28104">
        <ele>53.799999237061</ele>
        <time>2013-04-21T06:42:15.000Z</time>
      </trkpt>
      <trkpt lat="43.70142" lon="-1.28103">
        <ele>54.599998474121</ele>
        <time>2013-04-21T06:42:22.000Z</time>
      </trkpt>
      <trkpt lat="43.70155" lon="-1.28103">
        <ele>55.200000762939</ele>
        <time>2013-04-21T06:42:27.000Z</time>
      </trkpt>
      <trkpt lat="43.70172" lon="-1.28103">
        <ele>56</ele>
        <time>2013-04-21T06:42:34.000Z</time>
      </trkpt>
      <trkpt lat="43.70189" lon="-1.28103">
        <ele>56</ele>
        <time>2013-04-21T06:42:41.000Z</time>
      </trkpt>
      <trkpt lat="43.70208" lon="-1.28104">
        <ele>56.200000762939</ele>
        <time>2013-04-21T06:42:49.000Z</time>
      </trkpt>
      <trkpt lat="43.70225" lon="-1.28104">
        <ele>56.200000762939</ele>
        <time>2013-04-21T06:42:56.000Z</time>
      </trkpt>
      <trkpt lat="43.70238" lon="-1.28104">
        <ele>56.400001525879</ele>
        <time>2013-04-21T06:43:01.000Z</time>
      </trkpt>
      <trkpt lat="43.70254" lon="-1.28104">
        <ele>56.400001525879</ele>
        <time>2013-04-21T06:43:08.000Z</time>
      </trkpt>
      <trkpt lat="43.70268" lon="-1.28105">
        <ele>56</ele>
        <time>2013-04-21T06:43:14.000Z</time>
      </trkpt>
      <trkpt lat="43.7028" lon="-1.28106">
        <ele>55.799999237061</ele>
        <time>2013-04-21T06:43:19.000Z</time>
      </trkpt>
      <trkpt lat="43.70294" lon="-1.28106">
        <ele>55.400001525879</ele>
        <time>2013-04-21T06:43:25.000Z</time>
      </trkpt>
      <trkpt lat="43.70307" lon="-1.28106">
        <ele>55.200000762939</ele>
        <time>2013-04-21T06:43:30.000Z</time>
      </trkpt>
      <trkpt lat="43.70323" lon="-1.28106">
        <ele>54.799999237061</ele>
        <time>2013-04-21T06:43:37.000Z</time>
      </trkpt>
      <trkpt lat="43.7034" lon="-1.28107">
        <ele>54.799999237061</ele>
        <time>2013-04-21T06:43:44.000Z</time>
      </trkpt>
      <trkpt lat="43.70355" lon="-1.28107">
        <ele>55</ele>
        <time>2013-04-21T06:43:50.000Z</time>
      </trkpt>
      <trkpt lat="43.70372" lon="-1.28107">
        <ele>55.400001525879</ele>
        <time>2013-04-21T06:43:57.000Z</time>
      </trkpt>
      <trkpt lat="43.70387" lon="-1.28107">
        <ele>55.799999237061</ele>
        <time>2013-04-21T06:44:03.000Z</time>
      </trkpt>
      <trkpt lat="43.70397" lon="-1.28107">
        <ele>56</ele>
        <time>2013-04-21T06:44:07.000Z</time>
      </trkpt>
      <trkpt lat="43.70409" lon="-1.28107">
        <ele>56.200000762939</ele>
        <time>2013-04-21T06:44:12.000Z</time>
      </trkpt>
      <trkpt lat="43.70424" lon="-1.28108">
        <ele>56.400001525879</ele>
        <time>2013-04-21T06:44:18.000Z</time>
      </trkpt>
      <trkpt lat="43.70438" lon="-1.28108">
        <ele>56.799999237061</ele>
        <time>2013-04-21T06:44:24.000Z</time>
      </trkpt>
      <trkpt lat="43.70455" lon="-1.28107">
        <ele>57</ele>
        <time>2013-04-21T06:44:31.000Z</time>
      </trkpt>
      <trkpt lat="43.70474" lon="-1.28108">
        <ele>57.400001525879</ele>
        <time>2013-04-21T06:44:39.000Z</time>
      </trkpt>
      <trkpt lat="43.70489" lon="-1.28108">
        <ele>57.599998474121</ele>
        <time>2013-04-21T06:44:45.000Z</time>
      </trkpt>
      <trkpt lat="43.70504" lon="-1.28108">
        <ele>58</ele>
        <time>2013-04-21T06:44:51.000Z</time>
      </trkpt>
      <trkpt lat="43.70518" lon="-1.28109">
        <ele>58</ele>
        <time>2013-04-21T06:44:57.000Z</time>
      </trkpt>
      <trkpt lat="43.70532" lon="-1.28109">
        <ele>58</ele>
        <time>2013-04-21T06:45:03.000Z</time>
      </trkpt>
      <trkpt lat="43.70552" lon="-1.28108">
        <ele>58.200000762939</ele>
        <time>2013-04-21T06:45:11.000Z</time>
      </trkpt>
      <trkpt lat="43.7057" lon="-1.28109">
        <ele>58.200000762939</ele>
        <time>2013-04-21T06:45:19.000Z</time>
      </trkpt>
      <trkpt lat="43.70578" lon="-1.28109">
        <ele>58.200000762939</ele>
        <time>2013-04-21T06:45:22.000Z</time>
      </trkpt>
      <trkpt lat="43.70585" lon="-1.28109">
        <ele>58.400001525879</ele>
        <time>2013-04-21T06:45:25.000Z</time>
      </trkpt>
      <trkpt lat="43.70592" lon="-1.28105">
        <ele>58.599998474121</ele>
        <time>2013-04-21T06:45:28.000Z</time>
      </trkpt>
      <trkpt lat="43.70594" lon="-1.281">
        <ele>58.799999237061</ele>
        <time>2013-04-21T06:45:30.000Z</time>
      </trkpt>
      <trkpt lat="43.70594" lon="-1.28093">
        <ele>59</ele>
        <time>2013-04-21T06:45:32.000Z</time>
      </trkpt>
      <trkpt lat="43.70593" lon="-1.28083">
        <ele>59.200000762939</ele>
        <time>2013-04-21T06:45:35.000Z</time>
      </trkpt>
      <trkpt lat="43.70589" lon="-1.28063">
        <ele>59.200000762939</ele>
        <time>2013-04-21T06:45:41.000Z</time>
      </trkpt>
      <trkpt lat="43.70587" lon="-1.28044">
        <ele>59.400001525879</ele>
        <time>2013-04-21T06:45:47.000Z</time>
      </trkpt>
      <trkpt lat="43.70583" lon="-1.28019">
        <ele>59.599998474121</ele>
        <time>2013-04-21T06:45:55.000Z</time>
      </trkpt>
      <trkpt lat="43.70581" lon="-1.27999">
        <ele>59.799999237061</ele>
        <time>2013-04-21T06:46:01.000Z</time>
      </trkpt>
      <trkpt lat="43.70579" lon="-1.27979">
        <ele>59.799999237061</ele>
        <time>2013-04-21T06:46:07.000Z</time>
      </trkpt>
      <trkpt lat="43.70576" lon="-1.27958">
        <ele>59.799999237061</ele>
        <time>2013-04-21T06:46:14.000Z</time>
      </trkpt>
      <trkpt lat="43.70574" lon="-1.27941">
        <ele>59.799999237061</ele>
        <time>2013-04-21T06:46:19.000Z</time>
      </trkpt>
      <trkpt lat="43.70572" lon="-1.27925">
        <ele>59.799999237061</ele>
        <time>2013-04-21T06:46:24.000Z</time>
      </trkpt>
      <trkpt lat="43.70569" lon="-1.27905">
        <ele>59.799999237061</ele>
        <time>2013-04-21T06:46:30.000Z</time>
      </trkpt>
      <trkpt lat="43.70567" lon="-1.27881">
        <ele>59.799999237061</ele>
        <time>2013-04-21T06:46:37.000Z</time>
      </trkpt>
      <trkpt lat="43.70565" lon="-1.27864">
        <ele>59.799999237061</ele>
        <time>2013-04-21T06:46:42.000Z</time>
      </trkpt>
      <trkpt lat="43.70561" lon="-1.2784">
        <ele>59.799999237061</ele>
        <time>2013-04-21T06:46:49.000Z</time>
      </trkpt>
      <trkpt lat="43.70559" lon="-1.27824">
        <ele>60</ele>
        <time>2013-04-21T06:46:54.000Z</time>
      </trkpt>
      <trkpt lat="43.70556" lon="-1.27804">
        <ele>60</ele>
        <time>2013-04-21T06:47:00.000Z</time>
      </trkpt>
      <trkpt lat="43.70554" lon="-1.27787">
        <ele>60</ele>
        <time>2013-04-21T06:47:05.000Z</time>
      </trkpt>
      <trkpt lat="43.70551" lon="-1.27761">
        <ele>60.200000762939</ele>
        <time>2013-04-21T06:47:13.000Z</time>
      </trkpt>
      <trkpt lat="43.70548" lon="-1.27738">
        <ele>60</ele>
        <time>2013-04-21T06:47:20.000Z</time>
      </trkpt>
      <trkpt lat="43.70546" lon="-1.27722">
        <ele>59.799999237061</ele>
        <time>2013-04-21T06:47:25.000Z</time>
      </trkpt>
      <trkpt lat="43.70544" lon="-1.27698">
        <ele>59.599998474121</ele>
        <time>2013-04-21T06:47:32.000Z</time>
      </trkpt>
      <trkpt lat="43.70541" lon="-1.2768">
        <ele>59.400001525879</ele>
        <time>2013-04-21T06:47:38.000Z</time>
      </trkpt>
      <trkpt lat="43.70539" lon="-1.27664">
        <ele>59.400001525879</ele>
        <time>2013-04-21T06:47:43.000Z</time>
      </trkpt>
      <trkpt lat="43.70536" lon="-1.27642">
        <ele>58.599998474121</ele>
        <time>2013-04-21T06:47:50.000Z</time>
      </trkpt>
      <trkpt lat="43.70534" lon="-1.2762">
        <ele>58</ele>
        <time>2013-04-21T06:47:57.000Z</time>
      </trkpt>
      <trkpt lat="43.70531" lon="-1.27597">
        <ele>57.200000762939</ele>
        <time>2013-04-21T06:48:04.000Z</time>
      </trkpt>
      <trkpt lat="43.70529" lon="-1.27577">
        <ele>56.400001525879</ele>
        <time>2013-04-21T06:48:10.000Z</time>
      </trkpt>
      <trkpt lat="43.70526" lon="-1.2755">
        <ele>54.799999237061</ele>
        <time>2013-04-21T06:48:18.000Z</time>
      </trkpt>
      <trkpt lat="43.7053" lon="-1.2754">
        <ele>54.599998474121</ele>
        <time>2013-04-21T06:48:22.000Z</time>
      </trkpt>
      <trkpt lat="43.70532" lon="-1.27538">
        <ele>54.599998474121</ele>
        <time>2013-04-21T06:48:23.000Z</time>
      </trkpt>
      <trkpt lat="43.70547" lon="-1.2753">
        <ele>55.200000762939</ele>
        <time>2013-04-21T06:48:30.000Z</time>
      </trkpt>
      <trkpt lat="43.70564" lon="-1.2752">
        <ele>55.799999237061</ele>
        <time>2013-04-21T06:48:38.000Z</time>
      </trkpt>
      <trkpt lat="43.70566" lon="-1.27519">
        <ele>55.799999237061</ele>
        <time>2013-04-21T06:48:39.000Z</time>
      </trkpt>
      <trkpt lat="43.70578" lon="-1.27513">
        <ele>56.200000762939</ele>
        <time>2013-04-21T06:48:44.000Z</time>
      </trkpt>
      <trkpt lat="43.70596" lon="-1.27502">
        <ele>56.599998474121</ele>
        <time>2013-04-21T06:48:52.000Z</time>
      </trkpt>
      <trkpt lat="43.70608" lon="-1.27495">
        <ele>56.799999237061</ele>
        <time>2013-04-21T06:48:58.000Z</time>
      </trkpt>
      <trkpt lat="43.70622" lon="-1.27487">
        <ele>56.799999237061</ele>
        <time>2013-04-21T06:49:04.000Z</time>
      </trkpt>
      <trkpt lat="43.70635" lon="-1.2748">
        <ele>56.799999237061</ele>
        <time>2013-04-21T06:49:10.000Z</time>
      </trkpt>
      <trkpt lat="43.70648" lon="-1.27473">
        <ele>56.599998474121</ele>
        <time>2013-04-21T06:49:16.000Z</time>
      </trkpt>
      <trkpt lat="43.70662" lon="-1.27465">
        <ele>56.400001525879</ele>
        <time>2013-04-21T06:49:22.000Z</time>
      </trkpt>
      <trkpt lat="43.70675" lon="-1.27458">
        <ele>55.400001525879</ele>
        <time>2013-04-21T06:49:28.000Z</time>
      </trkpt>
      <trkpt lat="43.7069" lon="-1.27449">
        <ele>53.799999237061</ele>
        <time>2013-04-21T06:49:35.000Z</time>
      </trkpt>
      <trkpt lat="43.70703" lon="-1.27441">
        <ele>52.599998474121</ele>
        <time>2013-04-21T06:49:41.000Z</time>
      </trkpt>
      <trkpt lat="43.70714" lon="-1.27435">
        <ele>51.599998474121</ele>
        <time>2013-04-21T06:49:46.000Z</time>
      </trkpt>
      <trkpt lat="43.70729" lon="-1.27426">
        <ele>50.400001525879</ele>
        <time>2013-04-21T06:49:53.000Z</time>
      </trkpt>
      <trkpt lat="43.70743" lon="-1.27418">
        <ele>49.200000762939</ele>
        <time>2013-04-21T06:50:00.000Z</time>
      </trkpt>
      <trkpt lat="43.70755" lon="-1.27413">
        <ele>49</ele>
        <time>2013-04-21T06:50:05.000Z</time>
      </trkpt>
      <trkpt lat="43.70768" lon="-1.27407">
        <ele>49.200000762939</ele>
        <time>2013-04-21T06:50:11.000Z</time>
      </trkpt>
      <trkpt lat="43.70779" lon="-1.274">
        <ele>49.400001525879</ele>
        <time>2013-04-21T06:50:16.000Z</time>
      </trkpt>
      <trkpt lat="43.7079" lon="-1.27394">
        <ele>49.599998474121</ele>
        <time>2013-04-21T06:50:21.000Z</time>
      </trkpt>
      <trkpt lat="43.70803" lon="-1.27386">
        <ele>49.799999237061</ele>
        <time>2013-04-21T06:50:27.000Z</time>
      </trkpt>
      <trkpt lat="43.70817" lon="-1.27379">
        <ele>49.799999237061</ele>
        <time>2013-04-21T06:50:33.000Z</time>
      </trkpt>
      <trkpt lat="43.70829" lon="-1.27372">
        <ele>50</ele>
        <time>2013-04-21T06:50:39.000Z</time>
      </trkpt>
      <trkpt lat="43.70841" lon="-1.27366">
        <ele>50.200000762939</ele>
        <time>2013-04-21T06:50:44.000Z</time>
      </trkpt>
      <trkpt lat="43.70855" lon="-1.27358">
        <ele>50.400001525879</ele>
        <time>2013-04-21T06:50:51.000Z</time>
      </trkpt>
      <trkpt lat="43.70864" lon="-1.27353">
        <ele>50.599998474121</ele>
        <time>2013-04-21T06:50:56.000Z</time>
      </trkpt>
      <trkpt lat="43.70881" lon="-1.27343">
        <ele>50.799999237061</ele>
        <time>2013-04-21T06:51:03.000Z</time>
      </trkpt>
      <trkpt lat="43.70897" lon="-1.27335">
        <ele>50.799999237061</ele>
        <time>2013-04-21T06:51:10.000Z</time>
      </trkpt>
      <trkpt lat="43.70914" lon="-1.27325">
        <ele>51</ele>
        <time>2013-04-21T06:51:17.000Z</time>
      </trkpt>
      <trkpt lat="43.70924" lon="-1.27319">
        <ele>51</ele>
        <time>2013-04-21T06:51:22.000Z</time>
      </trkpt>
      <trkpt lat="43.70937" lon="-1.27311">
        <ele>51</ele>
        <time>2013-04-21T06:51:28.000Z</time>
      </trkpt>
      <trkpt lat="43.70948" lon="-1.27305">
        <ele>51</ele>
        <time>2013-04-21T06:51:33.000Z</time>
      </trkpt>
      <trkpt lat="43.70962" lon="-1.27298">
        <ele>51</ele>
        <time>2013-04-21T06:51:39.000Z</time>
      </trkpt>
      <trkpt lat="43.70972" lon="-1.27293">
        <ele>51</ele>
        <time>2013-04-21T06:51:44.000Z</time>
      </trkpt>
      <trkpt lat="43.70987" lon="-1.27283">
        <ele>51.200000762939</ele>
        <time>2013-04-21T06:51:51.000Z</time>
      </trkpt>
      <trkpt lat="43.70997" lon="-1.27278">
        <ele>51.200000762939</ele>
        <time>2013-04-21T06:51:55.000Z</time>
      </trkpt>
      <trkpt lat="43.71007" lon="-1.27272">
        <ele>51.400001525879</ele>
        <time>2013-04-21T06:52:00.000Z</time>
      </trkpt>
      <trkpt lat="43.7101" lon="-1.27267">
        <ele>51.599998474121</ele>
        <time>2013-04-21T06:52:02.000Z</time>
      </trkpt>
      <trkpt lat="43.71011" lon="-1.27261">
        <ele>51.799999237061</ele>
        <time>2013-04-21T06:52:04.000Z</time>
      </trkpt>
      <trkpt lat="43.7101" lon="-1.27254">
        <ele>52</ele>
        <time>2013-04-21T06:52:07.000Z</time>
      </trkpt>
      <trkpt lat="43.71011" lon="-1.27244">
        <ele>52.200000762939</ele>
        <time>2013-04-21T06:52:10.000Z</time>
      </trkpt>
      <trkpt lat="43.71008" lon="-1.2723">
        <ele>52.400001525879</ele>
        <time>2013-04-21T06:52:15.000Z</time>
      </trkpt>
      <trkpt lat="43.71009" lon="-1.27227">
        <ele>52.400001525879</ele>
        <time>2013-04-21T06:52:16.000Z</time>
      </trkpt>
      <trkpt lat="43.71013" lon="-1.27222">
        <ele>52.599998474121</ele>
        <time>2013-04-21T06:52:20.000Z</time>
      </trkpt>
      <trkpt lat="43.71014" lon="-1.27223">
        <ele>52.599998474121</ele>
        <time>2013-04-21T06:52:21.000Z</time>
      </trkpt>
      <trkpt lat="43.71016" lon="-1.27226">
        <ele>52.599998474121</ele>
        <time>2013-04-21T06:52:24.000Z</time>
      </trkpt>
      <trkpt lat="43.71018" lon="-1.27227">
        <ele>52.400001525879</ele>
        <time>2013-04-21T06:52:25.000Z</time>
      </trkpt>
      <trkpt lat="43.7102" lon="-1.27229">
        <ele>52.400001525879</ele>
        <time>2013-04-21T06:52:29.000Z</time>
      </trkpt>
      <trkpt lat="43.71023" lon="-1.27231">
        <ele>52.400001525879</ele>
        <time>2013-04-21T06:52:34.000Z</time>
      </trkpt>
      <trkpt lat="43.71025" lon="-1.27232">
        <ele>52.400001525879</ele>
        <time>2013-04-21T06:52:36.000Z</time>
      </trkpt>
      <trkpt lat="43.71028" lon="-1.27237">
        <ele>52.400001525879</ele>
        <time>2013-04-21T06:52:41.000Z</time>
      </trkpt>
      <trkpt lat="43.71029" lon="-1.27238">
        <ele>52.400001525879</ele>
        <time>2013-04-21T06:52:42.000Z</time>
      </trkpt>
      <trkpt lat="43.71031" lon="-1.27239">
        <ele>52.400001525879</ele>
        <time>2013-04-21T06:52:45.000Z</time>
      </trkpt>
      <trkpt lat="43.71033" lon="-1.27239">
        <ele>52.400001525879</ele>
        <time>2013-04-21T06:52:47.000Z</time>
      </trkpt>
      <trkpt lat="43.71039" lon="-1.27243">
        <ele>52.400001525879</ele>
        <time>2013-04-21T06:52:53.000Z</time>
      </trkpt>
      <trkpt lat="43.71043" lon="-1.27245">
        <ele>52.400001525879</ele>
        <time>2013-04-21T06:52:58.000Z</time>
      </trkpt>
      <trkpt lat="43.71046" lon="-1.27246">
        <ele>52.400001525879</ele>
        <time>2013-04-21T06:53:00.000Z</time>
      </trkpt>
      <trkpt lat="43.71056" lon="-1.2725">
        <ele>52.599998474121</ele>
        <time>2013-04-21T06:53:06.000Z</time>
      </trkpt>
      <trkpt lat="43.71066" lon="-1.27258">
        <ele>52.599998474121</ele>
        <time>2013-04-21T06:53:12.000Z</time>
      </trkpt>
      <trkpt lat="43.71078" lon="-1.27261">
        <ele>52.599998474121</ele>
        <time>2013-04-21T06:53:17.000Z</time>
      </trkpt>
      <trkpt lat="43.7109" lon="-1.27266">
        <ele>52.400001525879</ele>
        <time>2013-04-21T06:53:23.000Z</time>
      </trkpt>
      <trkpt lat="43.71104" lon="-1.27275">
        <ele>52</ele>
        <time>2013-04-21T06:53:29.000Z</time>
      </trkpt>
      <trkpt lat="43.71114" lon="-1.27281">
        <ele>51.799999237061</ele>
        <time>2013-04-21T06:53:34.000Z</time>
      </trkpt>
      <trkpt lat="43.71124" lon="-1.27292">
        <ele>51.400001525879</ele>
        <time>2013-04-21T06:53:39.000Z</time>
      </trkpt>
      <trkpt lat="43.71134" lon="-1.27307">
        <ele>51</ele>
        <time>2013-04-21T06:53:44.000Z</time>
      </trkpt>
      <trkpt lat="43.71142" lon="-1.27323">
        <ele>50.400001525879</ele>
        <time>2013-04-21T06:53:50.000Z</time>
      </trkpt>
      <trkpt lat="43.71148" lon="-1.2734">
        <ele>50</ele>
        <time>2013-04-21T06:53:55.000Z</time>
      </trkpt>
      <trkpt lat="43.71156" lon="-1.27351">
        <ele>49.799999237061</ele>
        <time>2013-04-21T06:54:00.000Z</time>
      </trkpt>
      <trkpt lat="43.71163" lon="-1.27361">
        <ele>49.599998474121</ele>
        <time>2013-04-21T06:54:04.000Z</time>
      </trkpt>
      <trkpt lat="43.71177" lon="-1.2738">
        <ele>49.599998474121</ele>
        <time>2013-04-21T06:54:12.000Z</time>
      </trkpt>
      <trkpt lat="43.71187" lon="-1.27391">
        <ele>49.799999237061</ele>
        <time>2013-04-21T06:54:17.000Z</time>
      </trkpt>
      <trkpt lat="43.71198" lon="-1.274">
        <ele>50.200000762939</ele>
        <time>2013-04-21T06:54:22.000Z</time>
      </trkpt>
      <trkpt lat="43.7121" lon="-1.27411">
        <ele>50.400001525879</ele>
        <time>2013-04-21T06:54:28.000Z</time>
      </trkpt>
      <trkpt lat="43.7122" lon="-1.27424">
        <ele>50.599998474121</ele>
        <time>2013-04-21T06:54:34.000Z</time>
      </trkpt>
      <trkpt lat="43.71229" lon="-1.27435">
        <ele>50.799999237061</ele>
        <time>2013-04-21T06:54:39.000Z</time>
      </trkpt>
      <trkpt lat="43.71241" lon="-1.27452">
        <ele>50.799999237061</ele>
        <time>2013-04-21T06:54:46.000Z</time>
      </trkpt>
      <trkpt lat="43.71252" lon="-1.27465">
        <ele>50.799999237061</ele>
        <time>2013-04-21T06:54:52.000Z</time>
      </trkpt>
      <trkpt lat="43.7126" lon="-1.27475">
        <ele>50.599998474121</ele>
        <time>2013-04-21T06:54:56.000Z</time>
      </trkpt>
      <trkpt lat="43.71269" lon="-1.27485">
        <ele>50.599998474121</ele>
        <time>2013-04-21T06:55:01.000Z</time>
      </trkpt>
      <trkpt lat="43.71277" lon="-1.27497">
        <ele>50.599998474121</ele>
        <time>2013-04-21T06:55:06.000Z</time>
      </trkpt>
      <trkpt lat="43.7128" lon="-1.27501">
        <ele>50.599998474121</ele>
        <time>2013-04-21T06:55:08.000Z</time>
      </trkpt>
      <trkpt lat="43.71286" lon="-1.27511">
        <ele>50.799999237061</ele>
        <time>2013-04-21T06:55:12.000Z</time>
      </trkpt>
      <trkpt lat="43.71297" lon="-1.27525">
        <ele>51.200000762939</ele>
        <time>2013-04-21T06:55:18.000Z</time>
      </trkpt>
      <trkpt lat="43.71307" lon="-1.2754">
        <ele>51.400001525879</ele>
        <time>2013-04-21T06:55:24.000Z</time>
      </trkpt>
      <trkpt lat="43.71319" lon="-1.27553">
        <ele>51.599998474121</ele>
        <time>2013-04-21T06:55:31.000Z</time>
      </trkpt>
      <trkpt lat="43.71335" lon="-1.27561">
        <ele>51.799999237061</ele>
        <time>2013-04-21T06:55:38.000Z</time>
      </trkpt>
      <trkpt lat="43.71347" lon="-1.27567">
        <ele>51.599998474121</ele>
        <time>2013-04-21T06:55:44.000Z</time>
      </trkpt>
      <trkpt lat="43.71358" lon="-1.27576">
        <ele>51.200000762939</ele>
        <time>2013-04-21T06:55:49.000Z</time>
      </trkpt>
      <trkpt lat="43.71369" lon="-1.27586">
        <ele>51</ele>
        <time>2013-04-21T06:55:54.000Z</time>
      </trkpt>
      <trkpt lat="43.71376" lon="-1.27596">
        <ele>50.799999237061</ele>
        <time>2013-04-21T06:55:58.000Z</time>
      </trkpt>
      <trkpt lat="43.71384" lon="-1.27608">
        <ele>50.400001525879</ele>
        <time>2013-04-21T06:56:03.000Z</time>
      </trkpt>
      <trkpt lat="43.71395" lon="-1.27619">
        <ele>50.200000762939</ele>
        <time>2013-04-21T06:56:09.000Z</time>
      </trkpt>
      <trkpt lat="43.71405" lon="-1.27624">
        <ele>50</ele>
        <time>2013-04-21T06:56:14.000Z</time>
      </trkpt>
      <trkpt lat="43.71405" lon="-1.27617">
        <ele>50</ele>
        <time>2013-04-21T06:56:18.000Z</time>
      </trkpt>
      <trkpt lat="43.71401" lon="-1.27609">
        <ele>50.200000762939</ele>
        <time>2013-04-21T06:56:22.000Z</time>
      </trkpt>
      <trkpt lat="43.714" lon="-1.27606">
        <ele>50.200000762939</ele>
        <time>2013-04-21T06:56:23.000Z</time>
      </trkpt>
      <trkpt lat="43.71392" lon="-1.2759">
        <ele>50.400001525879</ele>
        <time>2013-04-21T06:56:29.000Z</time>
      </trkpt>
      <trkpt lat="43.71389" lon="-1.27574">
        <ele>50.599998474121</ele>
        <time>2013-04-21T06:56:34.000Z</time>
      </trkpt>
      <trkpt lat="43.71383" lon="-1.27556">
        <ele>50.799999237061</ele>
        <time>2013-04-21T06:56:40.000Z</time>
      </trkpt>
      <trkpt lat="43.71378" lon="-1.27545">
        <ele>50.799999237061</ele>
        <time>2013-04-21T06:56:44.000Z</time>
      </trkpt>
      <trkpt lat="43.71377" lon="-1.27542">
        <ele>50.799999237061</ele>
        <time>2013-04-21T06:56:45.000Z</time>
      </trkpt>
      <trkpt lat="43.71376" lon="-1.27532">
        <ele>50.799999237061</ele>
        <time>2013-04-21T06:56:48.000Z</time>
      </trkpt>
      <trkpt lat="43.71365" lon="-1.27517">
        <ele>51.200000762939</ele>
        <time>2013-04-21T06:56:54.000Z</time>
      </trkpt>
      <trkpt lat="43.71363" lon="-1.27501">
        <ele>51.200000762939</ele>
        <time>2013-04-21T06:56:59.000Z</time>
      </trkpt>
      <trkpt lat="43.71356" lon="-1.27486">
        <ele>51.200000762939</ele>
        <time>2013-04-21T06:57:05.000Z</time>
      </trkpt>
      <trkpt lat="43.7135" lon="-1.27475">
        <ele>51.400001525879</ele>
        <time>2013-04-21T06:57:10.000Z</time>
      </trkpt>
      <trkpt lat="43.71343" lon="-1.27462">
        <ele>51.400001525879</ele>
        <time>2013-04-21T06:57:16.000Z</time>
      </trkpt>
      <trkpt lat="43.71335" lon="-1.27448">
        <ele>51.200000762939</ele>
        <time>2013-04-21T06:57:22.000Z</time>
      </trkpt>
      <trkpt lat="43.71327" lon="-1.27432">
        <ele>51.200000762939</ele>
        <time>2013-04-21T06:57:29.000Z</time>
      </trkpt>
      <trkpt lat="43.71321" lon="-1.27416">
        <ele>51</ele>
        <time>2013-04-21T06:57:34.000Z</time>
      </trkpt>
      <trkpt lat="43.71313" lon="-1.274">
        <ele>51.200000762939</ele>
        <time>2013-04-21T06:57:39.000Z</time>
      </trkpt>
      <trkpt lat="43.71308" lon="-1.27386">
        <ele>51.200000762939</ele>
        <time>2013-04-21T06:57:44.000Z</time>
      </trkpt>
      <trkpt lat="43.71301" lon="-1.27368">
        <ele>51.200000762939</ele>
        <time>2013-04-21T06:57:50.000Z</time>
      </trkpt>
      <trkpt lat="43.71296" lon="-1.27353">
        <ele>51.400001525879</ele>
        <time>2013-04-21T06:57:55.000Z</time>
      </trkpt>
      <trkpt lat="43.71288" lon="-1.27339">
        <ele>51.400001525879</ele>
        <time>2013-04-21T06:58:00.000Z</time>
      </trkpt>
      <trkpt lat="43.7128" lon="-1.27324">
        <ele>51.599998474121</ele>
        <time>2013-04-21T06:58:05.000Z</time>
      </trkpt>
      <trkpt lat="43.71275" lon="-1.2731">
        <ele>51.599998474121</ele>
        <time>2013-04-21T06:58:10.000Z</time>
      </trkpt>
      <trkpt lat="43.7127" lon="-1.27295">
        <ele>51.599998474121</ele>
        <time>2013-04-21T06:58:15.000Z</time>
      </trkpt>
      <trkpt lat="43.71264" lon="-1.27276">
        <ele>51.799999237061</ele>
        <time>2013-04-21T06:58:21.000Z</time>
      </trkpt>
      <trkpt lat="43.71256" lon="-1.27255">
        <ele>51.799999237061</ele>
        <time>2013-04-21T06:58:27.000Z</time>
      </trkpt>
      <trkpt lat="43.71249" lon="-1.27238">
        <ele>51.799999237061</ele>
        <time>2013-04-21T06:58:33.000Z</time>
      </trkpt>
      <trkpt lat="43.71244" lon="-1.27227">
        <ele>51.599998474121</ele>
        <time>2013-04-21T06:58:37.000Z</time>
      </trkpt>
      <trkpt lat="43.71237" lon="-1.27212">
        <ele>51.599998474121</ele>
        <time>2013-04-21T06:58:42.000Z</time>
      </trkpt>
      <trkpt lat="43.71237" lon="-1.27199">
        <ele>51.400001525879</ele>
        <time>2013-04-21T06:58:46.000Z</time>
      </trkpt>
      <trkpt lat="43.71242" lon="-1.27187">
        <ele>51.200000762939</ele>
        <time>2013-04-21T06:58:50.000Z</time>
      </trkpt>
      <trkpt lat="43.71254" lon="-1.27173">
        <ele>50.799999237061</ele>
        <time>2013-04-21T06:58:56.000Z</time>
      </trkpt>
      <trkpt lat="43.71259" lon="-1.27165">
        <ele>50.599998474121</ele>
        <time>2013-04-21T06:59:00.000Z</time>
      </trkpt>
      <trkpt lat="43.71266" lon="-1.27152">
        <ele>50.599998474121</ele>
        <time>2013-04-21T06:59:05.000Z</time>
      </trkpt>
      <trkpt lat="43.71273" lon="-1.2714">
        <ele>50.400001525879</ele>
        <time>2013-04-21T06:59:10.000Z</time>
      </trkpt>
      <trkpt lat="43.71284" lon="-1.27125">
        <ele>50.200000762939</ele>
        <time>2013-04-21T06:59:16.000Z</time>
      </trkpt>
      <trkpt lat="43.7129" lon="-1.27114">
        <ele>50.200000762939</ele>
        <time>2013-04-21T06:59:20.000Z</time>
      </trkpt>
      <trkpt lat="43.713" lon="-1.27097">
        <ele>50.200000762939</ele>
        <time>2013-04-21T06:59:26.000Z</time>
      </trkpt>
      <trkpt lat="43.71307" lon="-1.27083">
        <ele>50.200000762939</ele>
        <time>2013-04-21T06:59:31.000Z</time>
      </trkpt>
      <trkpt lat="43.71317" lon="-1.27067">
        <ele>50.200000762939</ele>
        <time>2013-04-21T06:59:37.000Z</time>
      </trkpt>
      <trkpt lat="43.71326" lon="-1.27052">
        <ele>50.400001525879</ele>
        <time>2013-04-21T06:59:43.000Z</time>
      </trkpt>
      <trkpt lat="43.71336" lon="-1.27037">
        <ele>50.400001525879</ele>
        <time>2013-04-21T06:59:49.000Z</time>
      </trkpt>
      <trkpt lat="43.71344" lon="-1.27026">
        <ele>50.400001525879</ele>
        <time>2013-04-21T06:59:54.000Z</time>
      </trkpt>
      <trkpt lat="43.71351" lon="-1.27012">
        <ele>50.400001525879</ele>
        <time>2013-04-21T06:59:59.000Z</time>
      </trkpt>
      <trkpt lat="43.71358" lon="-1.26998">
        <ele>50.400001525879</ele>
        <time>2013-04-21T07:00:04.000Z</time>
      </trkpt>
      <trkpt lat="43.71365" lon="-1.2698">
        <ele>50.799999237061</ele>
        <time>2013-04-21T07:00:10.000Z</time>
      </trkpt>
      <trkpt lat="43.71371" lon="-1.26966">
        <ele>51</ele>
        <time>2013-04-21T07:00:15.000Z</time>
      </trkpt>
      <trkpt lat="43.71383" lon="-1.2695">
        <ele>51.200000762939</ele>
        <time>2013-04-21T07:00:21.000Z</time>
      </trkpt>
      <trkpt lat="43.71394" lon="-1.26935">
        <ele>51.599998474121</ele>
        <time>2013-04-21T07:00:27.000Z</time>
      </trkpt>
      <trkpt lat="43.71404" lon="-1.26918">
        <ele>52</ele>
        <time>2013-04-21T07:00:33.000Z</time>
      </trkpt>
      <trkpt lat="43.71407" lon="-1.26898">
        <ele>53</ele>
        <time>2013-04-21T07:00:39.000Z</time>
      </trkpt>
      <trkpt lat="43.71401" lon="-1.26881">
        <ele>54</ele>
        <time>2013-04-21T07:00:45.000Z</time>
      </trkpt>
      <trkpt lat="43.71394" lon="-1.2687">
        <ele>54.599998474121</ele>
        <time>2013-04-21T07:00:49.000Z</time>
      </trkpt>
      <trkpt lat="43.71386" lon="-1.26855">
        <ele>55.200000762939</ele>
        <time>2013-04-21T07:00:54.000Z</time>
      </trkpt>
      <trkpt lat="43.71379" lon="-1.26838">
        <ele>55.799999237061</ele>
        <time>2013-04-21T07:00:59.000Z</time>
      </trkpt>
      <trkpt lat="43.71369" lon="-1.26819">
        <ele>56.400001525879</ele>
        <time>2013-04-21T07:01:06.000Z</time>
      </trkpt>
      <trkpt lat="43.71361" lon="-1.26801">
        <ele>56.799999237061</ele>
        <time>2013-04-21T07:01:12.000Z</time>
      </trkpt>
      <trkpt lat="43.71354" lon="-1.26783">
        <ele>57.400001525879</ele>
        <time>2013-04-21T07:01:18.000Z</time>
      </trkpt>
      <trkpt lat="43.71347" lon="-1.26765">
        <ele>57.799999237061</ele>
        <time>2013-04-21T07:01:24.000Z</time>
      </trkpt>
      <trkpt lat="43.71339" lon="-1.26747">
        <ele>58.200000762939</ele>
        <time>2013-04-21T07:01:30.000Z</time>
      </trkpt>
      <trkpt lat="43.71331" lon="-1.26729">
        <ele>58.599998474121</ele>
        <time>2013-04-21T07:01:36.000Z</time>
      </trkpt>
      <trkpt lat="43.71325" lon="-1.26715">
        <ele>58.799999237061</ele>
        <time>2013-04-21T07:01:41.000Z</time>
      </trkpt>
      <trkpt lat="43.71319" lon="-1.267">
        <ele>59</ele>
        <time>2013-04-21T07:01:46.000Z</time>
      </trkpt>
      <trkpt lat="43.71314" lon="-1.26686">
        <ele>59.200000762939</ele>
        <time>2013-04-21T07:01:51.000Z</time>
      </trkpt>
      <trkpt lat="43.7131" lon="-1.26669">
        <ele>59.400001525879</ele>
        <time>2013-04-21T07:01:57.000Z</time>
      </trkpt>
      <trkpt lat="43.71312" lon="-1.26662">
        <ele>59.799999237061</ele>
        <time>2013-04-21T07:02:03.000Z</time>
      </trkpt>
      <trkpt lat="43.71311" lon="-1.26662">
        <ele>59.799999237061</ele>
        <time>2013-04-21T07:02:13.000Z</time>
      </trkpt>
      <trkpt lat="43.71309" lon="-1.26664">
        <ele>59.599998474121</ele>
        <time>2013-04-21T07:02:47.000Z</time>
      </trkpt>
      <trkpt lat="43.71311" lon="-1.26662">
        <ele>59.799999237061</ele>
        <time>2013-04-21T07:02:54.000Z</time>
      </trkpt>
      <trkpt lat="43.71308" lon="-1.26659">
        <ele>59.599998474121</ele>
        <time>2013-04-21T07:04:00.000Z</time>
      </trkpt>
      <trkpt lat="43.7131" lon="-1.26653">
        <ele>60</ele>
        <time>2013-04-21T07:04:14.000Z</time>
      </trkpt>
      <trkpt lat="43.71314" lon="-1.26639">
        <ele>60.799999237061</ele>
        <time>2013-04-21T07:04:19.000Z</time>
      </trkpt>
      <trkpt lat="43.71314" lon="-1.26637">
        <ele>60.799999237061</ele>
        <time>2013-04-21T07:04:20.000Z</time>
      </trkpt>
      <trkpt lat="43.71316" lon="-1.2663">
        <ele>61.200000762939</ele>
        <time>2013-04-21T07:04:23.000Z</time>
      </trkpt>
      <trkpt lat="43.71319" lon="-1.26622">
        <ele>61.599998474121</ele>
        <time>2013-04-21T07:04:26.000Z</time>
      </trkpt>
      <trkpt lat="43.7132" lon="-1.26614">
        <ele>62</ele>
        <time>2013-04-21T07:04:29.000Z</time>
      </trkpt>
      <trkpt lat="43.7132" lon="-1.2661">
        <ele>62.200000762939</ele>
        <time>2013-04-21T07:04:31.000Z</time>
      </trkpt>
      <trkpt lat="43.71318" lon="-1.26601">
        <ele>62.400001525879</ele>
        <time>2013-04-21T07:04:34.000Z</time>
      </trkpt>
      <trkpt lat="43.71314" lon="-1.26586">
        <ele>62.599998474121</ele>
        <time>2013-04-21T07:04:40.000Z</time>
      </trkpt>
      <trkpt lat="43.71314" lon="-1.26583">
        <ele>62.799999237061</ele>
        <time>2013-04-21T07:04:41.000Z</time>
      </trkpt>
      <trkpt lat="43.71314" lon="-1.26563">
        <ele>63</ele>
        <time>2013-04-21T07:04:47.000Z</time>
      </trkpt>
      <trkpt lat="43.7131" lon="-1.26538">
        <ele>63.400001525879</ele>
        <time>2013-04-21T07:04:54.000Z</time>
      </trkpt>
      <trkpt lat="43.71309" lon="-1.26532">
        <ele>63.400001525879</ele>
        <time>2013-04-21T07:04:56.000Z</time>
      </trkpt>
      <trkpt lat="43.71309" lon="-1.26525">
        <ele>63.599998474121</ele>
        <time>2013-04-21T07:04:58.000Z</time>
      </trkpt>
      <trkpt lat="43.71306" lon="-1.26512">
        <ele>63.599998474121</ele>
        <time>2013-04-21T07:05:03.000Z</time>
      </trkpt>
      <trkpt lat="43.71313" lon="-1.26507">
        <ele>64</ele>
        <time>2013-04-21T07:05:07.000Z</time>
      </trkpt>
      <trkpt lat="43.71319" lon="-1.26502">
        <ele>64.400001525879</ele>
        <time>2013-04-21T07:05:11.000Z</time>
      </trkpt>
      <trkpt lat="43.7132" lon="-1.265">
        <ele>64.400001525879</ele>
        <time>2013-04-21T07:05:12.000Z</time>
      </trkpt>
      <trkpt lat="43.71324" lon="-1.26488">
        <ele>64.800003051758</ele>
        <time>2013-04-21T07:05:18.000Z</time>
      </trkpt>
      <trkpt lat="43.71328" lon="-1.26479">
        <ele>65.199996948242</ele>
        <time>2013-04-21T07:05:23.000Z</time>
      </trkpt>
      <trkpt lat="43.71335" lon="-1.26463">
        <ele>65.800003051758</ele>
        <time>2013-04-21T07:05:30.000Z</time>
      </trkpt>
      <trkpt lat="43.7134" lon="-1.26454">
        <ele>66.400001525879</ele>
        <time>2013-04-21T07:05:35.000Z</time>
      </trkpt>
      <trkpt lat="43.7134" lon="-1.26451">
        <ele>66.400001525879</ele>
        <time>2013-04-21T07:05:36.000Z</time>
      </trkpt>
      <trkpt lat="43.71343" lon="-1.26446">
        <ele>66.800003051758</ele>
        <time>2013-04-21T07:05:39.000Z</time>
      </trkpt>
      <trkpt lat="43.71344" lon="-1.26444">
        <ele>67</ele>
        <time>2013-04-21T07:05:40.000Z</time>
      </trkpt>
      <trkpt lat="43.71351" lon="-1.26435">
        <ele>67.599998474121</ele>
        <time>2013-04-21T07:05:46.000Z</time>
      </trkpt>
      <trkpt lat="43.71358" lon="-1.26424">
        <ele>68.599998474121</ele>
        <time>2013-04-21T07:05:52.000Z</time>
      </trkpt>
      <trkpt lat="43.71363" lon="-1.26418">
        <ele>69.400001525879</ele>
        <time>2013-04-21T07:05:54.000Z</time>
      </trkpt>
      <trkpt lat="43.71368" lon="-1.26408">
        <ele>69.599998474121</ele>
        <time>2013-04-21T07:05:57.000Z</time>
      </trkpt>
      <trkpt lat="43.71374" lon="-1.26391">
        <ele>69.800003051758</ele>
        <time>2013-04-21T07:06:02.000Z</time>
      </trkpt>
      <trkpt lat="43.71378" lon="-1.26375">
        <ele>69.800003051758</ele>
        <time>2013-04-21T07:06:07.000Z</time>
      </trkpt>
      <trkpt lat="43.7138" lon="-1.26354">
        <ele>69.599998474121</ele>
        <time>2013-04-21T07:06:13.000Z</time>
      </trkpt>
      <trkpt lat="43.71383" lon="-1.26343">
        <ele>69.599998474121</ele>
        <time>2013-04-21T07:06:16.000Z</time>
      </trkpt>
      <trkpt lat="43.71382" lon="-1.26338">
        <ele>69.400001525879</ele>
        <time>2013-04-21T07:06:18.000Z</time>
      </trkpt>
      <trkpt lat="43.71383" lon="-1.26329">
        <ele>69.400001525879</ele>
        <time>2013-04-21T07:06:21.000Z</time>
      </trkpt>
      <trkpt lat="43.71384" lon="-1.26321">
        <ele>69.199996948242</ele>
        <time>2013-04-21T07:06:23.000Z</time>
      </trkpt>
      <trkpt lat="43.71389" lon="-1.26301">
        <ele>68.800003051758</ele>
        <time>2013-04-21T07:06:29.000Z</time>
      </trkpt>
      <trkpt lat="43.71392" lon="-1.26286">
        <ele>68.400001525879</ele>
        <time>2013-04-21T07:06:34.000Z</time>
      </trkpt>
      <trkpt lat="43.71394" lon="-1.26266">
        <ele>67.800003051758</ele>
        <time>2013-04-21T07:06:39.000Z</time>
      </trkpt>
      <trkpt lat="43.71399" lon="-1.26258">
        <ele>67.400001525879</ele>
        <time>2013-04-21T07:06:43.000Z</time>
      </trkpt>
      <trkpt lat="43.71402" lon="-1.26259">
        <ele>67.400001525879</ele>
        <time>2013-04-21T07:06:46.000Z</time>
      </trkpt>
      <trkpt lat="43.71405" lon="-1.2626">
        <ele>67.599998474121</ele>
        <time>2013-04-21T07:06:48.000Z</time>
      </trkpt>
      <trkpt lat="43.71413" lon="-1.26261">
        <ele>67.599998474121</ele>
        <time>2013-04-21T07:06:52.000Z</time>
      </trkpt>
      <trkpt lat="43.71415" lon="-1.26261">
        <ele>67.599998474121</ele>
        <time>2013-04-21T07:06:53.000Z</time>
      </trkpt>
      <trkpt lat="43.71426" lon="-1.26259">
        <ele>67.400001525879</ele>
        <time>2013-04-21T07:06:58.000Z</time>
      </trkpt>
      <trkpt lat="43.71439" lon="-1.2626">
        <ele>67.199996948242</ele>
        <time>2013-04-21T07:07:04.000Z</time>
      </trkpt>
      <trkpt lat="43.7145" lon="-1.26262">
        <ele>67.199996948242</ele>
        <time>2013-04-21T07:07:09.000Z</time>
      </trkpt>
      <trkpt lat="43.71462" lon="-1.26267">
        <ele>67.400001525879</ele>
        <time>2013-04-21T07:07:15.000Z</time>
      </trkpt>
      <trkpt lat="43.71469" lon="-1.26274">
        <ele>67.800003051758</ele>
        <time>2013-04-21T07:07:20.000Z</time>
      </trkpt>
      <trkpt lat="43.71473" lon="-1.26284">
        <ele>68.199996948242</ele>
        <time>2013-04-21T07:07:25.000Z</time>
      </trkpt>
      <trkpt lat="43.71474" lon="-1.26288">
        <ele>68.400001525879</ele>
        <time>2013-04-21T07:07:27.000Z</time>
      </trkpt>
      <trkpt lat="43.71473" lon="-1.26301">
        <ele>69.400001525879</ele>
        <time>2013-04-21T07:07:31.000Z</time>
      </trkpt>
      <trkpt lat="43.71471" lon="-1.26313">
        <ele>70</ele>
        <time>2013-04-21T07:07:35.000Z</time>
      </trkpt>
      <trkpt lat="43.71468" lon="-1.26327">
        <ele>71</ele>
        <time>2013-04-21T07:07:40.000Z</time>
      </trkpt>
      <trkpt lat="43.71466" lon="-1.26336">
        <ele>71.400001525879</ele>
        <time>2013-04-21T07:07:43.000Z</time>
      </trkpt>
      <trkpt lat="43.71464" lon="-1.26345">
        <ele>71.800003051758</ele>
        <time>2013-04-21T07:07:46.000Z</time>
      </trkpt>
      <trkpt lat="43.71461" lon="-1.2636">
        <ele>72.400001525879</ele>
        <time>2013-04-21T07:07:52.000Z</time>
      </trkpt>
      <trkpt lat="43.71459" lon="-1.26374">
        <ele>72.800003051758</ele>
        <time>2013-04-21T07:07:58.000Z</time>
      </trkpt>
      <trkpt lat="43.71458" lon="-1.2638">
        <ele>73</ele>
        <time>2013-04-21T07:08:00.000Z</time>
      </trkpt>
      <trkpt lat="43.71457" lon="-1.26385">
        <ele>73.199996948242</ele>
        <time>2013-04-21T07:08:02.000Z</time>
      </trkpt>
      <trkpt lat="43.71455" lon="-1.26397">
        <ele>73.599998474121</ele>
        <time>2013-04-21T07:08:07.000Z</time>
      </trkpt>
      <trkpt lat="43.71454" lon="-1.26399">
        <ele>73.800003051758</ele>
        <time>2013-04-21T07:08:08.000Z</time>
      </trkpt>
      <trkpt lat="43.71453" lon="-1.26404">
        <ele>74</ele>
        <time>2013-04-21T07:08:10.000Z</time>
      </trkpt>
      <trkpt lat="43.71454" lon="-1.26409">
        <ele>74</ele>
        <time>2013-04-21T07:08:12.000Z</time>
      </trkpt>
      <trkpt lat="43.71454" lon="-1.2642">
        <ele>74.199996948242</ele>
        <time>2013-04-21T07:08:16.000Z</time>
      </trkpt>
      <trkpt lat="43.71455" lon="-1.26425">
        <ele>73.800003051758</ele>
        <time>2013-04-21T07:08:18.000Z</time>
      </trkpt>
      <trkpt lat="43.71455" lon="-1.26432">
        <ele>73.400001525879</ele>
        <time>2013-04-21T07:08:21.000Z</time>
      </trkpt>
      <trkpt lat="43.71454" lon="-1.26441">
        <ele>72.800003051758</ele>
        <time>2013-04-21T07:08:25.000Z</time>
      </trkpt>
      <trkpt lat="43.71452" lon="-1.26443">
        <ele>72.599998474121</ele>
        <time>2013-04-21T07:08:26.000Z</time>
      </trkpt>
      <trkpt lat="43.71449" lon="-1.26447">
        <ele>72.199996948242</ele>
        <time>2013-04-21T07:08:28.000Z</time>
      </trkpt>
      <trkpt lat="43.71444" lon="-1.26457">
        <ele>71.400001525879</ele>
        <time>2013-04-21T07:08:32.000Z</time>
      </trkpt>
      <trkpt lat="43.71436" lon="-1.26467">
        <ele>70.199996948242</ele>
        <time>2013-04-21T07:08:37.000Z</time>
      </trkpt>
      <trkpt lat="43.71431" lon="-1.26482">
        <ele>69</ele>
        <time>2013-04-21T07:08:42.000Z</time>
      </trkpt>
      <trkpt lat="43.71431" lon="-1.26501">
        <ele>67.599998474121</ele>
        <time>2013-04-21T07:08:49.000Z</time>
      </trkpt>
      <trkpt lat="43.71427" lon="-1.26519">
        <ele>66.400001525879</ele>
        <time>2013-04-21T07:08:54.000Z</time>
      </trkpt>
      <trkpt lat="43.7143" lon="-1.26524">
        <ele>66.199996948242</ele>
        <time>2013-04-21T07:08:56.000Z</time>
      </trkpt>
      <trkpt lat="43.71432" lon="-1.26527">
        <ele>66.199996948242</ele>
        <time>2013-04-21T07:08:58.000Z</time>
      </trkpt>
      <trkpt lat="43.71436" lon="-1.26529">
        <ele>66.199996948242</ele>
        <time>2013-04-21T07:09:00.000Z</time>
      </trkpt>
      <trkpt lat="43.71441" lon="-1.26529">
        <ele>66.400001525879</ele>
        <time>2013-04-21T07:09:02.000Z</time>
      </trkpt>
      <trkpt lat="43.71451" lon="-1.26529">
        <ele>66.800003051758</ele>
        <time>2013-04-21T07:09:07.000Z</time>
      </trkpt>
      <trkpt lat="43.71455" lon="-1.26531">
        <ele>67</ele>
        <time>2013-04-21T07:09:09.000Z</time>
      </trkpt>
      <trkpt lat="43.71459" lon="-1.2653">
        <ele>67.199996948242</ele>
        <time>2013-04-21T07:09:12.000Z</time>
      </trkpt>
      <trkpt lat="43.71465" lon="-1.26528">
        <ele>67.400001525879</ele>
        <time>2013-04-21T07:09:16.000Z</time>
      </trkpt>
      <trkpt lat="43.71474" lon="-1.26523">
        <ele>68.199996948242</ele>
        <time>2013-04-21T07:09:20.000Z</time>
      </trkpt>
      <trkpt lat="43.71477" lon="-1.26521">
        <ele>68.400001525879</ele>
        <time>2013-04-21T07:09:22.000Z</time>
      </trkpt>
      <trkpt lat="43.7148" lon="-1.26519">
        <ele>68.599998474121</ele>
        <time>2013-04-21T07:09:24.000Z</time>
      </trkpt>
      <trkpt lat="43.71484" lon="-1.26515">
        <ele>69.199996948242</ele>
        <time>2013-04-21T07:09:27.000Z</time>
      </trkpt>
      <trkpt lat="43.71487" lon="-1.26514">
        <ele>69.400001525879</ele>
        <time>2013-04-21T07:09:29.000Z</time>
      </trkpt>
      <trkpt lat="43.71492" lon="-1.26507">
        <ele>70</ele>
        <time>2013-04-21T07:09:33.000Z</time>
      </trkpt>
      <trkpt lat="43.71497" lon="-1.26503">
        <ele>70.599998474121</ele>
        <time>2013-04-21T07:09:36.000Z</time>
      </trkpt>
      <trkpt lat="43.71501" lon="-1.265">
        <ele>70.800003051758</ele>
        <time>2013-04-21T07:09:38.000Z</time>
      </trkpt>
      <trkpt lat="43.71505" lon="-1.26496">
        <ele>71.199996948242</ele>
        <time>2013-04-21T07:09:42.000Z</time>
      </trkpt>
      <trkpt lat="43.71508" lon="-1.26494">
        <ele>71.400001525879</ele>
        <time>2013-04-21T07:09:44.000Z</time>
      </trkpt>
      <trkpt lat="43.71511" lon="-1.26491">
        <ele>71.400001525879</ele>
        <time>2013-04-21T07:09:47.000Z</time>
      </trkpt>
      <trkpt lat="43.71515" lon="-1.26488">
        <ele>71.599998474121</ele>
        <time>2013-04-21T07:09:50.000Z</time>
      </trkpt>
      <trkpt lat="43.71525" lon="-1.2648">
        <ele>72</ele>
        <time>2013-04-21T07:09:56.000Z</time>
      </trkpt>
      <trkpt lat="43.71534" lon="-1.26472">
        <ele>72.199996948242</ele>
        <time>2013-04-21T07:10:02.000Z</time>
      </trkpt>
      <trkpt lat="43.71536" lon="-1.26469">
        <ele>72.199996948242</ele>
        <time>2013-04-21T07:10:04.000Z</time>
      </trkpt>
      <trkpt lat="43.7154" lon="-1.26467">
        <ele>72.199996948242</ele>
        <time>2013-04-21T07:10:07.000Z</time>
      </trkpt>
      <trkpt lat="43.71541" lon="-1.26467">
        <ele>72.199996948242</ele>
        <time>2013-04-21T07:10:08.000Z</time>
      </trkpt>
      <trkpt lat="43.71542" lon="-1.26466">
        <ele>72.199996948242</ele>
        <time>2013-04-21T07:10:09.000Z</time>
      </trkpt>
      <trkpt lat="43.71544" lon="-1.26464">
        <ele>72</ele>
        <time>2013-04-21T07:10:11.000Z</time>
      </trkpt>
      <trkpt lat="43.71546" lon="-1.26462">
        <ele>72</ele>
        <time>2013-04-21T07:10:18.000Z</time>
      </trkpt>
      <trkpt lat="43.71547" lon="-1.26462">
        <ele>72</ele>
        <time>2013-04-21T07:10:28.000Z</time>
      </trkpt>
      <trkpt lat="43.71549" lon="-1.26462">
        <ele>72</ele>
        <time>2013-04-21T07:10:30.000Z</time>
      </trkpt>
      <trkpt lat="43.71551" lon="-1.26459">
        <ele>72</ele>
        <time>2013-04-21T07:10:34.000Z</time>
      </trkpt>
      <trkpt lat="43.71549" lon="-1.2646">
        <ele>72</ele>
        <time>2013-04-21T07:10:42.000Z</time>
      </trkpt>
      <trkpt lat="43.71549" lon="-1.26461">
        <ele>72</ele>
        <time>2013-04-21T07:10:51.000Z</time>
      </trkpt>
      <trkpt lat="43.71549" lon="-1.26464">
        <ele>72</ele>
        <time>2013-04-21T07:11:18.000Z</time>
      </trkpt>
      <trkpt lat="43.71553" lon="-1.26459">
        <ele>72</ele>
        <time>2013-04-21T07:11:27.000Z</time>
      </trkpt>
      <trkpt lat="43.71555" lon="-1.26457">
        <ele>71.800003051758</ele>
        <time>2013-04-21T07:11:29.000Z</time>
      </trkpt>
      <trkpt lat="43.71561" lon="-1.26449">
        <ele>71.599998474121</ele>
        <time>2013-04-21T07:11:35.000Z</time>
      </trkpt>
      <trkpt lat="43.71562" lon="-1.26448">
        <ele>71.599998474121</ele>
        <time>2013-04-21T07:11:36.000Z</time>
      </trkpt>
      <trkpt lat="43.71566" lon="-1.26441">
        <ele>71.400001525879</ele>
        <time>2013-04-21T07:11:40.000Z</time>
      </trkpt>
      <trkpt lat="43.71574" lon="-1.26434">
        <ele>71</ele>
        <time>2013-04-21T07:11:45.000Z</time>
      </trkpt>
      <trkpt lat="43.71588" lon="-1.26422">
        <ele>70</ele>
        <time>2013-04-21T07:11:51.000Z</time>
      </trkpt>
      <trkpt lat="43.716" lon="-1.26411">
        <ele>69.400001525879</ele>
        <time>2013-04-21T07:11:57.000Z</time>
      </trkpt>
      <trkpt lat="43.71611" lon="-1.26401">
        <ele>68.400001525879</ele>
        <time>2013-04-21T07:12:02.000Z</time>
      </trkpt>
      <trkpt lat="43.71628" lon="-1.2639">
        <ele>67.199996948242</ele>
        <time>2013-04-21T07:12:08.000Z</time>
      </trkpt>
      <trkpt lat="43.71637" lon="-1.26382">
        <ele>66.400001525879</ele>
        <time>2013-04-21T07:12:12.000Z</time>
      </trkpt>
      <trkpt lat="43.71648" lon="-1.26373">
        <ele>65.199996948242</ele>
        <time>2013-04-21T07:12:17.000Z</time>
      </trkpt>
      <trkpt lat="43.71653" lon="-1.2637">
        <ele>64.800003051758</ele>
        <time>2013-04-21T07:12:19.000Z</time>
      </trkpt>
      <trkpt lat="43.71659" lon="-1.26364">
        <ele>64.199996948242</ele>
        <time>2013-04-21T07:12:22.000Z</time>
      </trkpt>
      <trkpt lat="43.71666" lon="-1.26356">
        <ele>63</ele>
        <time>2013-04-21T07:12:28.000Z</time>
      </trkpt>
      <trkpt lat="43.71675" lon="-1.26346">
        <ele>61.799999237061</ele>
        <time>2013-04-21T07:12:34.000Z</time>
      </trkpt>
      <trkpt lat="43.71688" lon="-1.26335">
        <ele>60</ele>
        <time>2013-04-21T07:12:39.000Z</time>
      </trkpt>
      <trkpt lat="43.71693" lon="-1.26332">
        <ele>59.599998474121</ele>
        <time>2013-04-21T07:12:41.000Z</time>
      </trkpt>
      <trkpt lat="43.71698" lon="-1.26331">
        <ele>59.200000762939</ele>
        <time>2013-04-21T07:12:43.000Z</time>
      </trkpt>
      <trkpt lat="43.71704" lon="-1.26331">
        <ele>59</ele>
        <time>2013-04-21T07:12:45.000Z</time>
      </trkpt>
      <trkpt lat="43.71719" lon="-1.26334">
        <ele>58.400001525879</ele>
        <time>2013-04-21T07:12:50.000Z</time>
      </trkpt>
      <trkpt lat="43.71734" lon="-1.26338">
        <ele>58.200000762939</ele>
        <time>2013-04-21T07:12:56.000Z</time>
      </trkpt>
      <trkpt lat="43.71741" lon="-1.26345">
        <ele>58.799999237061</ele>
        <time>2013-04-21T07:13:00.000Z</time>
      </trkpt>
      <trkpt lat="43.71741" lon="-1.2635">
        <ele>59.400001525879</ele>
        <time>2013-04-21T07:13:02.000Z</time>
      </trkpt>
      <trkpt lat="43.7174" lon="-1.26363">
        <ele>61.200000762939</ele>
        <time>2013-04-21T07:13:07.000Z</time>
      </trkpt>
      <trkpt lat="43.71737" lon="-1.26377">
        <ele>63</ele>
        <time>2013-04-21T07:13:12.000Z</time>
      </trkpt>
      <trkpt lat="43.71733" lon="-1.26389">
        <ele>64.599998474121</ele>
        <time>2013-04-21T07:13:17.000Z</time>
      </trkpt>
      <trkpt lat="43.71731" lon="-1.26394">
        <ele>65.400001525879</ele>
        <time>2013-04-21T07:13:19.000Z</time>
      </trkpt>
      <trkpt lat="43.71726" lon="-1.264">
        <ele>66.199996948242</ele>
        <time>2013-04-21T07:13:22.000Z</time>
      </trkpt>
      <trkpt lat="43.71724" lon="-1.26402">
        <ele>66.400001525879</ele>
        <time>2013-04-21T07:13:23.000Z</time>
      </trkpt>
      <trkpt lat="43.7172" lon="-1.26408">
        <ele>67.199996948242</ele>
        <time>2013-04-21T07:13:26.000Z</time>
      </trkpt>
      <trkpt lat="43.71715" lon="-1.26418">
        <ele>68.400001525879</ele>
        <time>2013-04-21T07:13:30.000Z</time>
      </trkpt>
      <trkpt lat="43.71713" lon="-1.26419">
        <ele>68.400001525879</ele>
        <time>2013-04-21T07:13:31.000Z</time>
      </trkpt>
      <trkpt lat="43.7171" lon="-1.26422">
        <ele>68.599998474121</ele>
        <time>2013-04-21T07:13:33.000Z</time>
      </trkpt>
      <trkpt lat="43.71707" lon="-1.2643">
        <ele>69</ele>
        <time>2013-04-21T07:13:36.000Z</time>
      </trkpt>
      <trkpt lat="43.71705" lon="-1.26443">
        <ele>69.800003051758</ele>
        <time>2013-04-21T07:13:41.000Z</time>
      </trkpt>
      <trkpt lat="43.71705" lon="-1.26446">
        <ele>69.800003051758</ele>
        <time>2013-04-21T07:13:42.000Z</time>
      </trkpt>
      <trkpt lat="43.71703" lon="-1.26461">
        <ele>70.599998474121</ele>
        <time>2013-04-21T07:13:48.000Z</time>
      </trkpt>
      <trkpt lat="43.71699" lon="-1.26471">
        <ele>71.199996948242</ele>
        <time>2013-04-21T07:13:53.000Z</time>
      </trkpt>
      <trkpt lat="43.71688" lon="-1.26479">
        <ele>72</ele>
        <time>2013-04-21T07:13:59.000Z</time>
      </trkpt>
      <trkpt lat="43.71679" lon="-1.26488">
        <ele>72.800003051758</ele>
        <time>2013-04-21T07:14:05.000Z</time>
      </trkpt>
      <trkpt lat="43.71672" lon="-1.26498">
        <ele>73.599998474121</ele>
        <time>2013-04-21T07:14:11.000Z</time>
      </trkpt>
      <trkpt lat="43.71663" lon="-1.26509">
        <ele>73.199996948242</ele>
        <time>2013-04-21T07:14:18.000Z</time>
      </trkpt>
      <trkpt lat="43.71662" lon="-1.26514">
        <ele>72.800003051758</ele>
        <time>2013-04-21T07:14:21.000Z</time>
      </trkpt>
      <trkpt lat="43.71662" lon="-1.2652">
        <ele>72.400001525879</ele>
        <time>2013-04-21T07:14:23.000Z</time>
      </trkpt>
      <trkpt lat="43.71669" lon="-1.26528">
        <ele>71.800003051758</ele>
        <time>2013-04-21T07:14:27.000Z</time>
      </trkpt>
      <trkpt lat="43.71677" lon="-1.26534">
        <ele>71</ele>
        <time>2013-04-21T07:14:32.000Z</time>
      </trkpt>
      <trkpt lat="43.71685" lon="-1.26538">
        <ele>70.199996948242</ele>
        <time>2013-04-21T07:14:36.000Z</time>
      </trkpt>
      <trkpt lat="43.71693" lon="-1.26545">
        <ele>69.199996948242</ele>
        <time>2013-04-21T07:14:41.000Z</time>
      </trkpt>
      <trkpt lat="43.71699" lon="-1.26557">
        <ele>67.800003051758</ele>
        <time>2013-04-21T07:14:47.000Z</time>
      </trkpt>
      <trkpt lat="43.717" lon="-1.26571">
        <ele>66.599998474121</ele>
        <time>2013-04-21T07:14:52.000Z</time>
      </trkpt>
      <trkpt lat="43.71701" lon="-1.26574">
        <ele>66.199996948242</ele>
        <time>2013-04-21T07:14:53.000Z</time>
      </trkpt>
      <trkpt lat="43.71704" lon="-1.26584">
        <ele>65.199996948242</ele>
        <time>2013-04-21T07:14:57.000Z</time>
      </trkpt>
      <trkpt lat="43.71705" lon="-1.26587">
        <ele>65</ele>
        <time>2013-04-21T07:14:58.000Z</time>
      </trkpt>
      <trkpt lat="43.71708" lon="-1.26595">
        <ele>64</ele>
        <time>2013-04-21T07:15:01.000Z</time>
      </trkpt>
      <trkpt lat="43.71709" lon="-1.26597">
        <ele>63.799999237061</ele>
        <time>2013-04-21T07:15:02.000Z</time>
      </trkpt>
      <trkpt lat="43.71711" lon="-1.26605">
        <ele>63.200000762939</ele>
        <time>2013-04-21T07:15:05.000Z</time>
      </trkpt>
      <trkpt lat="43.71714" lon="-1.26612">
        <ele>62.400001525879</ele>
        <time>2013-04-21T07:15:07.000Z</time>
      </trkpt>
      <trkpt lat="43.71721" lon="-1.26623">
        <ele>61</ele>
        <time>2013-04-21T07:15:12.000Z</time>
      </trkpt>
      <trkpt lat="43.71724" lon="-1.2663">
        <ele>60.200000762939</ele>
        <time>2013-04-21T07:15:15.000Z</time>
      </trkpt>
      <trkpt lat="43.71726" lon="-1.26632">
        <ele>60</ele>
        <time>2013-04-21T07:15:16.000Z</time>
      </trkpt>
      <trkpt lat="43.71733" lon="-1.26634">
        <ele>59.200000762939</ele>
        <time>2013-04-21T07:15:20.000Z</time>
      </trkpt>
      <trkpt lat="43.71739" lon="-1.26629">
        <ele>59</ele>
        <time>2013-04-21T07:15:25.000Z</time>
      </trkpt>
      <trkpt lat="43.7174" lon="-1.2663">
        <ele>58.799999237061</ele>
        <time>2013-04-21T07:15:26.000Z</time>
      </trkpt>
      <trkpt lat="43.71743" lon="-1.2663">
        <ele>58.599998474121</ele>
        <time>2013-04-21T07:15:29.000Z</time>
      </trkpt>
      <trkpt lat="43.71745" lon="-1.26629">
        <ele>58.599998474121</ele>
        <time>2013-04-21T07:15:32.000Z</time>
      </trkpt>
      <trkpt lat="43.71751" lon="-1.26624">
        <ele>58.400001525879</ele>
        <time>2013-04-21T07:15:35.000Z</time>
      </trkpt>
      <trkpt lat="43.71759" lon="-1.26618">
        <ele>58.400001525879</ele>
        <time>2013-04-21T07:15:41.000Z</time>
      </trkpt>
      <trkpt lat="43.71768" lon="-1.26613">
        <ele>58.400001525879</ele>
        <time>2013-04-21T07:15:46.000Z</time>
      </trkpt>
      <trkpt lat="43.71776" lon="-1.26607">
        <ele>58.400001525879</ele>
        <time>2013-04-21T07:15:51.000Z</time>
      </trkpt>
      <trkpt lat="43.71784" lon="-1.26601">
        <ele>58.200000762939</ele>
        <time>2013-04-21T07:15:56.000Z</time>
      </trkpt>
      <trkpt lat="43.71788" lon="-1.26598">
        <ele>58.200000762939</ele>
        <time>2013-04-21T07:15:58.000Z</time>
      </trkpt>
      <trkpt lat="43.71793" lon="-1.26594">
        <ele>58.200000762939</ele>
        <time>2013-04-21T07:16:01.000Z</time>
      </trkpt>
      <trkpt lat="43.71801" lon="-1.26587">
        <ele>58</ele>
        <time>2013-04-21T07:16:06.000Z</time>
      </trkpt>
      <trkpt lat="43.71809" lon="-1.2658">
        <ele>57.799999237061</ele>
        <time>2013-04-21T07:16:11.000Z</time>
      </trkpt>
      <trkpt lat="43.71813" lon="-1.26576">
        <ele>57.799999237061</ele>
        <time>2013-04-21T07:16:14.000Z</time>
      </trkpt>
      <trkpt lat="43.71815" lon="-1.26573">
        <ele>57.799999237061</ele>
        <time>2013-04-21T07:16:16.000Z</time>
      </trkpt>
      <trkpt lat="43.71819" lon="-1.26569">
        <ele>57.599998474121</ele>
        <time>2013-04-21T07:16:19.000Z</time>
      </trkpt>
      <trkpt lat="43.71821" lon="-1.26566">
        <ele>57.599998474121</ele>
        <time>2013-04-21T07:16:21.000Z</time>
      </trkpt>
      <trkpt lat="43.71829" lon="-1.26559">
        <ele>57.200000762939</ele>
        <time>2013-04-21T07:16:27.000Z</time>
      </trkpt>
      <trkpt lat="43.71835" lon="-1.26549">
        <ele>57.200000762939</ele>
        <time>2013-04-21T07:16:32.000Z</time>
      </trkpt>
      <trkpt lat="43.71839" lon="-1.26549">
        <ele>57.200000762939</ele>
        <time>2013-04-21T07:16:33.000Z</time>
      </trkpt>
      <trkpt lat="43.71849" lon="-1.26548">
        <ele>57.200000762939</ele>
        <time>2013-04-21T07:16:36.000Z</time>
      </trkpt>
      <trkpt lat="43.71851" lon="-1.26549">
        <ele>57</ele>
        <time>2013-04-21T07:16:37.000Z</time>
      </trkpt>
      <trkpt lat="43.71851" lon="-1.26551">
        <ele>57</ele>
        <time>2013-04-21T07:16:38.000Z</time>
      </trkpt>
      <trkpt lat="43.71854" lon="-1.2656">
        <ele>56.799999237061</ele>
        <time>2013-04-21T07:16:42.000Z</time>
      </trkpt>
      <trkpt lat="43.71856" lon="-1.26564">
        <ele>56.599998474121</ele>
        <time>2013-04-21T07:16:44.000Z</time>
      </trkpt>
      <trkpt lat="43.71863" lon="-1.26576">
        <ele>56.400001525879</ele>
        <time>2013-04-21T07:16:50.000Z</time>
      </trkpt>
      <trkpt lat="43.71871" lon="-1.26589">
        <ele>56.200000762939</ele>
        <time>2013-04-21T07:16:56.000Z</time>
      </trkpt>
      <trkpt lat="43.71873" lon="-1.26593">
        <ele>56.200000762939</ele>
        <time>2013-04-21T07:16:59.000Z</time>
      </trkpt>
      <trkpt lat="43.71876" lon="-1.26602">
        <ele>56</ele>
        <time>2013-04-21T07:17:03.000Z</time>
      </trkpt>
      <trkpt lat="43.71882" lon="-1.26616">
        <ele>55.799999237061</ele>
        <time>2013-04-21T07:17:09.000Z</time>
      </trkpt>
      <trkpt lat="43.71887" lon="-1.26628">
        <ele>55.599998474121</ele>
        <time>2013-04-21T07:17:14.000Z</time>
      </trkpt>
      <trkpt lat="43.71894" lon="-1.26639">
        <ele>55.599998474121</ele>
        <time>2013-04-21T07:17:19.000Z</time>
      </trkpt>
      <trkpt lat="43.71901" lon="-1.26649">
        <ele>55.599998474121</ele>
        <time>2013-04-21T07:17:24.000Z</time>
      </trkpt>
      <trkpt lat="43.71907" lon="-1.26657">
        <ele>55.599998474121</ele>
        <time>2013-04-21T07:17:28.000Z</time>
      </trkpt>
      <trkpt lat="43.71914" lon="-1.26667">
        <ele>55.799999237061</ele>
        <time>2013-04-21T07:17:33.000Z</time>
      </trkpt>
      <trkpt lat="43.71924" lon="-1.26676">
        <ele>56</ele>
        <time>2013-04-21T07:17:39.000Z</time>
      </trkpt>
      <trkpt lat="43.71933" lon="-1.26683">
        <ele>56.200000762939</ele>
        <time>2013-04-21T07:17:45.000Z</time>
      </trkpt>
      <trkpt lat="43.71937" lon="-1.26685">
        <ele>56.400001525879</ele>
        <time>2013-04-21T07:17:48.000Z</time>
      </trkpt>
      <trkpt lat="43.71939" lon="-1.26687">
        <ele>56.400001525879</ele>
        <time>2013-04-21T07:17:49.000Z</time>
      </trkpt>
      <trkpt lat="43.71948" lon="-1.26696">
        <ele>56.599998474121</ele>
        <time>2013-04-21T07:17:54.000Z</time>
      </trkpt>
      <trkpt lat="43.71951" lon="-1.26698">
        <ele>56.599998474121</ele>
        <time>2013-04-21T07:17:55.000Z</time>
      </trkpt>
      <trkpt lat="43.71958" lon="-1.26703">
        <ele>56.799999237061</ele>
        <time>2013-04-21T07:17:59.000Z</time>
      </trkpt>
      <trkpt lat="43.71967" lon="-1.26716">
        <ele>56.799999237061</ele>
        <time>2013-04-21T07:18:05.000Z</time>
      </trkpt>
      <trkpt lat="43.71971" lon="-1.2673">
        <ele>56.599998474121</ele>
        <time>2013-04-21T07:18:10.000Z</time>
      </trkpt>
      <trkpt lat="43.71978" lon="-1.26748">
        <ele>56.400001525879</ele>
        <time>2013-04-21T07:18:16.000Z</time>
      </trkpt>
      <trkpt lat="43.71982" lon="-1.2676">
        <ele>56.400001525879</ele>
        <time>2013-04-21T07:18:21.000Z</time>
      </trkpt>
      <trkpt lat="43.71976" lon="-1.26769">
        <ele>56.200000762939</ele>
        <time>2013-04-21T07:18:25.000Z</time>
      </trkpt>
      <trkpt lat="43.71964" lon="-1.26781">
        <ele>55.799999237061</ele>
        <time>2013-04-21T07:18:30.000Z</time>
      </trkpt>
      <trkpt lat="43.71951" lon="-1.26795">
        <ele>55.400001525879</ele>
        <time>2013-04-21T07:18:36.000Z</time>
      </trkpt>
      <trkpt lat="43.71943" lon="-1.26811">
        <ele>55</ele>
        <time>2013-04-21T07:18:42.000Z</time>
      </trkpt>
      <trkpt lat="43.71936" lon="-1.2683">
        <ele>54.599998474121</ele>
        <time>2013-04-21T07:18:48.000Z</time>
      </trkpt>
      <trkpt lat="43.71928" lon="-1.26853">
        <ele>54.599998474121</ele>
        <time>2013-04-21T07:18:55.000Z</time>
      </trkpt>
      <trkpt lat="43.71928" lon="-1.26855">
        <ele>54.599998474121</ele>
        <time>2013-04-21T07:18:56.000Z</time>
      </trkpt>
      <trkpt lat="43.71921" lon="-1.26872">
        <ele>54.400001525879</ele>
        <time>2013-04-21T07:19:02.000Z</time>
      </trkpt>
      <trkpt lat="43.71919" lon="-1.26883">
        <ele>54.599998474121</ele>
        <time>2013-04-21T07:19:07.000Z</time>
      </trkpt>
      <trkpt lat="43.71914" lon="-1.26898">
        <ele>54.599998474121</ele>
        <time>2013-04-21T07:19:13.000Z</time>
      </trkpt>
      <trkpt lat="43.7191" lon="-1.26912">
        <ele>54.599998474121</ele>
        <time>2013-04-21T07:19:18.000Z</time>
      </trkpt>
      <trkpt lat="43.71902" lon="-1.26936">
        <ele>55.599998474121</ele>
        <time>2013-04-21T07:19:26.000Z</time>
      </trkpt>
      <trkpt lat="43.71901" lon="-1.26939">
        <ele>55.599998474121</ele>
        <time>2013-04-21T07:19:27.000Z</time>
      </trkpt>
      <trkpt lat="43.71895" lon="-1.26959">
        <ele>56.599998474121</ele>
        <time>2013-04-21T07:19:34.000Z</time>
      </trkpt>
      <trkpt lat="43.71889" lon="-1.26977">
        <ele>57.200000762939</ele>
        <time>2013-04-21T07:19:40.000Z</time>
      </trkpt>
      <trkpt lat="43.71885" lon="-1.2699">
        <ele>57.599998474121</ele>
        <time>2013-04-21T07:19:45.000Z</time>
      </trkpt>
      <trkpt lat="43.71883" lon="-1.26996">
        <ele>57.599998474121</ele>
        <time>2013-04-21T07:19:48.000Z</time>
      </trkpt>
      <trkpt lat="43.71883" lon="-1.26997">
        <ele>57.799999237061</ele>
        <time>2013-04-21T07:19:49.000Z</time>
      </trkpt>
      <trkpt lat="43.71884" lon="-1.27">
        <ele>58</ele>
        <time>2013-04-21T07:19:52.000Z</time>
      </trkpt>
      <trkpt lat="43.71883" lon="-1.27001">
        <ele>58</ele>
        <time>2013-04-21T07:19:53.000Z</time>
      </trkpt>
      <trkpt lat="43.71883" lon="-1.27002">
        <ele>58</ele>
        <time>2013-04-21T07:19:55.000Z</time>
      </trkpt>
      <trkpt lat="43.71882" lon="-1.27008">
        <ele>58</ele>
        <time>2013-04-21T07:20:01.000Z</time>
      </trkpt>
      <trkpt lat="43.71879" lon="-1.27015">
        <ele>58</ele>
        <time>2013-04-21T07:20:07.000Z</time>
      </trkpt>
      <trkpt lat="43.71878" lon="-1.27018">
        <ele>58.200000762939</ele>
        <time>2013-04-21T07:20:12.000Z</time>
      </trkpt>
      <trkpt lat="43.71877" lon="-1.27019">
        <ele>58</ele>
        <time>2013-04-21T07:20:13.000Z</time>
      </trkpt>
      <trkpt lat="43.71875" lon="-1.2702">
        <ele>58</ele>
        <time>2013-04-21T07:20:16.000Z</time>
      </trkpt>
      <trkpt lat="43.71872" lon="-1.27022">
        <ele>58</ele>
        <time>2013-04-21T07:20:23.000Z</time>
      </trkpt>
      <trkpt lat="43.71876" lon="-1.27021">
        <ele>58</ele>
        <time>2013-04-21T07:20:29.000Z</time>
      </trkpt>
      <trkpt lat="43.71879" lon="-1.27019">
        <ele>58.200000762939</ele>
        <time>2013-04-21T07:20:32.000Z</time>
      </trkpt>
      <trkpt lat="43.71881" lon="-1.2702">
        <ele>58.400001525879</ele>
        <time>2013-04-21T07:20:35.000Z</time>
      </trkpt>
      <trkpt lat="43.71881" lon="-1.2702">
        <ele>58.400001525879</ele>
        <time>2013-04-21T07:20:36.000Z</time>
      </trkpt>
      <trkpt lat="43.71882" lon="-1.27023">
        <ele>58.599998474121</ele>
        <time>2013-04-21T07:20:41.000Z</time>
      </trkpt>
      <trkpt lat="43.71885" lon="-1.27028">
        <ele>58.799999237061</ele>
        <time>2013-04-21T07:20:47.000Z</time>
      </trkpt>
      <trkpt lat="43.71886" lon="-1.27029">
        <ele>58.799999237061</ele>
        <time>2013-04-21T07:20:54.000Z</time>
      </trkpt>
      <trkpt lat="43.71884" lon="-1.27033">
        <ele>58.799999237061</ele>
        <time>2013-04-21T07:21:00.000Z</time>
      </trkpt>
      <trkpt lat="43.71884" lon="-1.27034">
        <ele>58.799999237061</ele>
        <time>2013-04-21T07:21:01.000Z</time>
      </trkpt>
      <trkpt lat="43.71882" lon="-1.27038">
        <ele>58.799999237061</ele>
        <time>2013-04-21T07:21:06.000Z</time>
      </trkpt>
      <trkpt lat="43.71881" lon="-1.27039">
        <ele>59</ele>
        <time>2013-04-21T07:21:07.000Z</time>
      </trkpt>
      <trkpt lat="43.71878" lon="-1.27042">
        <ele>58.799999237061</ele>
        <time>2013-04-21T07:21:13.000Z</time>
      </trkpt>
      <trkpt lat="43.71874" lon="-1.2704">
        <ele>58.599998474121</ele>
        <time>2013-04-21T07:21:19.000Z</time>
      </trkpt>
      <trkpt lat="43.71869" lon="-1.27036">
        <ele>58.200000762939</ele>
        <time>2013-04-21T07:21:24.000Z</time>
      </trkpt>
      <trkpt lat="43.71868" lon="-1.27037">
        <ele>58.200000762939</ele>
        <time>2013-04-21T07:21:25.000Z</time>
      </trkpt>
      <trkpt lat="43.71865" lon="-1.27038">
        <ele>58</ele>
        <time>2013-04-21T07:21:28.000Z</time>
      </trkpt>
      <trkpt lat="43.71865" lon="-1.27041">
        <ele>58</ele>
        <time>2013-04-21T07:21:30.000Z</time>
      </trkpt>
      <trkpt lat="43.71865" lon="-1.27043">
        <ele>58.200000762939</ele>
        <time>2013-04-21T07:21:32.000Z</time>
      </trkpt>
      <trkpt lat="43.71863" lon="-1.27046">
        <ele>58.200000762939</ele>
        <time>2013-04-21T07:21:36.000Z</time>
      </trkpt>
      <trkpt lat="43.71863" lon="-1.27048">
        <ele>58.200000762939</ele>
        <time>2013-04-21T07:21:38.000Z</time>
      </trkpt>
      <trkpt lat="43.71862" lon="-1.27053">
        <ele>58.400001525879</ele>
        <time>2013-04-21T07:21:42.000Z</time>
      </trkpt>
      <trkpt lat="43.71861" lon="-1.27057">
        <ele>58.400001525879</ele>
        <time>2013-04-21T07:21:45.000Z</time>
      </trkpt>
      <trkpt lat="43.71859" lon="-1.27061">
        <ele>58.400001525879</ele>
        <time>2013-04-21T07:21:49.000Z</time>
      </trkpt>
      <trkpt lat="43.71859" lon="-1.27062">
        <ele>58.400001525879</ele>
        <time>2013-04-21T07:21:50.000Z</time>
      </trkpt>
      <trkpt lat="43.71856" lon="-1.27065">
        <ele>58.400001525879</ele>
        <time>2013-04-21T07:21:56.000Z</time>
      </trkpt>
      <trkpt lat="43.71851" lon="-1.27073">
        <ele>58.400001525879</ele>
        <time>2013-04-21T07:22:03.000Z</time>
      </trkpt>
      <trkpt lat="43.71849" lon="-1.2708">
        <ele>58.599998474121</ele>
        <time>2013-04-21T07:22:08.000Z</time>
      </trkpt>
      <trkpt lat="43.71845" lon="-1.27091">
        <ele>58.799999237061</ele>
        <time>2013-04-21T07:22:13.000Z</time>
      </trkpt>
      <trkpt lat="43.7184" lon="-1.27108">
        <ele>59.400001525879</ele>
        <time>2013-04-21T07:22:18.000Z</time>
      </trkpt>
      <trkpt lat="43.71837" lon="-1.2712">
        <ele>59.799999237061</ele>
        <time>2013-04-21T07:22:22.000Z</time>
      </trkpt>
      <trkpt lat="43.71831" lon="-1.27139">
        <ele>60.200000762939</ele>
        <time>2013-04-21T07:22:28.000Z</time>
      </trkpt>
      <trkpt lat="43.71826" lon="-1.2716">
        <ele>60.599998474121</ele>
        <time>2013-04-21T07:22:34.000Z</time>
      </trkpt>
      <trkpt lat="43.71818" lon="-1.27176">
        <ele>60.200000762939</ele>
        <time>2013-04-21T07:22:40.000Z</time>
      </trkpt>
      <trkpt lat="43.71812" lon="-1.2719">
        <ele>59.400001525879</ele>
        <time>2013-04-21T07:22:45.000Z</time>
      </trkpt>
      <trkpt lat="43.71802" lon="-1.27215">
        <ele>58.400001525879</ele>
        <time>2013-04-21T07:22:52.000Z</time>
      </trkpt>
      <trkpt lat="43.71797" lon="-1.27233">
        <ele>58</ele>
        <time>2013-04-21T07:22:57.000Z</time>
      </trkpt>
      <trkpt lat="43.71793" lon="-1.27253">
        <ele>57.400001525879</ele>
        <time>2013-04-21T07:23:03.000Z</time>
      </trkpt>
      <trkpt lat="43.71788" lon="-1.27272">
        <ele>56</ele>
        <time>2013-04-21T07:23:09.000Z</time>
      </trkpt>
      <trkpt lat="43.71785" lon="-1.27283">
        <ele>55.400001525879</ele>
        <time>2013-04-21T07:23:13.000Z</time>
      </trkpt>
      <trkpt lat="43.7178" lon="-1.27305">
        <ele>54</ele>
        <time>2013-04-21T07:23:20.000Z</time>
      </trkpt>
      <trkpt lat="43.71775" lon="-1.27325">
        <ele>53</ele>
        <time>2013-04-21T07:23:26.000Z</time>
      </trkpt>
      <trkpt lat="43.71769" lon="-1.27344">
        <ele>52.200000762939</ele>
        <time>2013-04-21T07:23:32.000Z</time>
      </trkpt>
      <trkpt lat="43.71762" lon="-1.27362">
        <ele>51.599998474121</ele>
        <time>2013-04-21T07:23:38.000Z</time>
      </trkpt>
      <trkpt lat="43.71756" lon="-1.27373">
        <ele>51</ele>
        <time>2013-04-21T07:23:42.000Z</time>
      </trkpt>
      <trkpt lat="43.71749" lon="-1.27392">
        <ele>50.599998474121</ele>
        <time>2013-04-21T07:23:49.000Z</time>
      </trkpt>
      <trkpt lat="43.71742" lon="-1.2741">
        <ele>50.200000762939</ele>
        <time>2013-04-21T07:23:55.000Z</time>
      </trkpt>
      <trkpt lat="43.71737" lon="-1.27429">
        <ele>50</ele>
        <time>2013-04-21T07:24:01.000Z</time>
      </trkpt>
      <trkpt lat="43.7173" lon="-1.27452">
        <ele>50</ele>
        <time>2013-04-21T07:24:08.000Z</time>
      </trkpt>
      <trkpt lat="43.71729" lon="-1.27456">
        <ele>50</ele>
        <time>2013-04-21T07:24:09.000Z</time>
      </trkpt>
      <trkpt lat="43.71724" lon="-1.27467">
        <ele>50</ele>
        <time>2013-04-21T07:24:13.000Z</time>
      </trkpt>
      <trkpt lat="43.71718" lon="-1.27486">
        <ele>50</ele>
        <time>2013-04-21T07:24:19.000Z</time>
      </trkpt>
      <trkpt lat="43.71711" lon="-1.27507">
        <ele>50</ele>
        <time>2013-04-21T07:24:26.000Z</time>
      </trkpt>
      <trkpt lat="43.71705" lon="-1.27524">
        <ele>50.400001525879</ele>
        <time>2013-04-21T07:24:31.000Z</time>
      </trkpt>
      <trkpt lat="43.71699" lon="-1.27541">
        <ele>50.799999237061</ele>
        <time>2013-04-21T07:24:37.000Z</time>
      </trkpt>
      <trkpt lat="43.71691" lon="-1.27564">
        <ele>51.200000762939</ele>
        <time>2013-04-21T07:24:44.000Z</time>
      </trkpt>
      <trkpt lat="43.71684" lon="-1.27585">
        <ele>51.200000762939</ele>
        <time>2013-04-21T07:24:50.000Z</time>
      </trkpt>
      <trkpt lat="43.71678" lon="-1.27608">
        <ele>50.799999237061</ele>
        <time>2013-04-21T07:24:57.000Z</time>
      </trkpt>
      <trkpt lat="43.71672" lon="-1.27627">
        <ele>50.599998474121</ele>
        <time>2013-04-21T07:25:03.000Z</time>
      </trkpt>
      <trkpt lat="43.71666" lon="-1.27642">
        <ele>50.200000762939</ele>
        <time>2013-04-21T07:25:08.000Z</time>
      </trkpt>
      <trkpt lat="43.7166" lon="-1.27658">
        <ele>50</ele>
        <time>2013-04-21T07:25:13.000Z</time>
      </trkpt>
      <trkpt lat="43.71655" lon="-1.27674">
        <ele>49.599998474121</ele>
        <time>2013-04-21T07:25:18.000Z</time>
      </trkpt>
      <trkpt lat="43.71654" lon="-1.27686">
        <ele>49.400001525879</ele>
        <time>2013-04-21T07:25:22.000Z</time>
      </trkpt>
      <trkpt lat="43.71652" lon="-1.27701">
        <ele>49</ele>
        <time>2013-04-21T07:25:27.000Z</time>
      </trkpt>
      <trkpt lat="43.71648" lon="-1.27718">
        <ele>48.799999237061</ele>
        <time>2013-04-21T07:25:33.000Z</time>
      </trkpt>
      <trkpt lat="43.71642" lon="-1.27737">
        <ele>48.400001525879</ele>
        <time>2013-04-21T07:25:39.000Z</time>
      </trkpt>
      <trkpt lat="43.71637" lon="-1.27754">
        <ele>48.400001525879</ele>
        <time>2013-04-21T07:25:44.000Z</time>
      </trkpt>
      <trkpt lat="43.71632" lon="-1.27764">
        <ele>48.599998474121</ele>
        <time>2013-04-21T07:25:48.000Z</time>
      </trkpt>
      <trkpt lat="43.71628" lon="-1.27782">
        <ele>48.799999237061</ele>
        <time>2013-04-21T07:25:54.000Z</time>
      </trkpt>
      <trkpt lat="43.71622" lon="-1.27794">
        <ele>49</ele>
        <time>2013-04-21T07:25:58.000Z</time>
      </trkpt>
      <trkpt lat="43.71622" lon="-1.27798">
        <ele>49</ele>
        <time>2013-04-21T07:25:59.000Z</time>
      </trkpt>
      <trkpt lat="43.7162" lon="-1.27807">
        <ele>49</ele>
        <time>2013-04-21T07:26:02.000Z</time>
      </trkpt>
      <trkpt lat="43.71614" lon="-1.27819">
        <ele>49.200000762939</ele>
        <time>2013-04-21T07:26:06.000Z</time>
      </trkpt>
      <trkpt lat="43.71614" lon="-1.27823">
        <ele>49.200000762939</ele>
        <time>2013-04-21T07:26:07.000Z</time>
      </trkpt>
      <trkpt lat="43.71608" lon="-1.27835">
        <ele>49.200000762939</ele>
        <time>2013-04-21T07:26:12.000Z</time>
      </trkpt>
      <trkpt lat="43.71605" lon="-1.27844">
        <ele>49.400001525879</ele>
        <time>2013-04-21T07:26:17.000Z</time>
      </trkpt>
      <trkpt lat="43.71602" lon="-1.27852">
        <ele>49.400001525879</ele>
        <time>2013-04-21T07:26:24.000Z</time>
      </trkpt>
      <trkpt lat="43.716" lon="-1.27855">
        <ele>49.400001525879</ele>
        <time>2013-04-21T07:26:28.000Z</time>
      </trkpt>
      <trkpt lat="43.71596" lon="-1.27869">
        <ele>49.599998474121</ele>
        <time>2013-04-21T07:26:33.000Z</time>
      </trkpt>
      <trkpt lat="43.7159" lon="-1.27889">
        <ele>49.799999237061</ele>
        <time>2013-04-21T07:26:40.000Z</time>
      </trkpt>
      <trkpt lat="43.7158" lon="-1.27912">
        <ele>49.799999237061</ele>
        <time>2013-04-21T07:26:48.000Z</time>
      </trkpt>
      <trkpt lat="43.71578" lon="-1.27924">
        <ele>49.599998474121</ele>
        <time>2013-04-21T07:26:52.000Z</time>
      </trkpt>
      <trkpt lat="43.71574" lon="-1.27934">
        <ele>49.400001525879</ele>
        <time>2013-04-21T07:26:56.000Z</time>
      </trkpt>
      <trkpt lat="43.71573" lon="-1.27937">
        <ele>49.400001525879</ele>
        <time>2013-04-21T07:26:57.000Z</time>
      </trkpt>
      <trkpt lat="43.71569" lon="-1.2795">
        <ele>49</ele>
        <time>2013-04-21T07:27:01.000Z</time>
      </trkpt>
      <trkpt lat="43.71566" lon="-1.27963">
        <ele>48.799999237061</ele>
        <time>2013-04-21T07:27:05.000Z</time>
      </trkpt>
      <trkpt lat="43.71559" lon="-1.27985">
        <ele>48.400001525879</ele>
        <time>2013-04-21T07:27:12.000Z</time>
      </trkpt>
      <trkpt lat="43.71554" lon="-1.28">
        <ele>48.200000762939</ele>
        <time>2013-04-21T07:27:17.000Z</time>
      </trkpt>
      <trkpt lat="43.71548" lon="-1.28013">
        <ele>48.400001525879</ele>
        <time>2013-04-21T07:27:22.000Z</time>
      </trkpt>
      <trkpt lat="43.71543" lon="-1.28027">
        <ele>48.599998474121</ele>
        <time>2013-04-21T07:27:27.000Z</time>
      </trkpt>
      <trkpt lat="43.71538" lon="-1.28042">
        <ele>48.799999237061</ele>
        <time>2013-04-21T07:27:32.000Z</time>
      </trkpt>
      <trkpt lat="43.71532" lon="-1.28059">
        <ele>49</ele>
        <time>2013-04-21T07:27:37.000Z</time>
      </trkpt>
      <trkpt lat="43.71526" lon="-1.28077">
        <ele>49.400001525879</ele>
        <time>2013-04-21T07:27:42.000Z</time>
      </trkpt>
      <trkpt lat="43.71517" lon="-1.28102">
        <ele>49</ele>
        <time>2013-04-21T07:27:49.000Z</time>
      </trkpt>
      <trkpt lat="43.71509" lon="-1.28122">
        <ele>48.200000762939</ele>
        <time>2013-04-21T07:27:55.000Z</time>
      </trkpt>
      <trkpt lat="43.71503" lon="-1.28139">
        <ele>47.599998474121</ele>
        <time>2013-04-21T07:28:00.000Z</time>
      </trkpt>
      <trkpt lat="43.71499" lon="-1.28154">
        <ele>47.200000762939</ele>
        <time>2013-04-21T07:28:05.000Z</time>
      </trkpt>
      <trkpt lat="43.71494" lon="-1.28174">
        <ele>46.799999237061</ele>
        <time>2013-04-21T07:28:11.000Z</time>
      </trkpt>
      <trkpt lat="43.7149" lon="-1.2819">
        <ele>46.599998474121</ele>
        <time>2013-04-21T07:28:16.000Z</time>
      </trkpt>
      <trkpt lat="43.71484" lon="-1.28207">
        <ele>46.599998474121</ele>
        <time>2013-04-21T07:28:22.000Z</time>
      </trkpt>
      <trkpt lat="43.71479" lon="-1.28222">
        <ele>46.400001525879</ele>
        <time>2013-04-21T07:28:27.000Z</time>
      </trkpt>
      <trkpt lat="43.71473" lon="-1.28243">
        <ele>46.200000762939</ele>
        <time>2013-04-21T07:28:34.000Z</time>
      </trkpt>
      <trkpt lat="43.71468" lon="-1.28262">
        <ele>46.200000762939</ele>
        <time>2013-04-21T07:28:39.000Z</time>
      </trkpt>
      <trkpt lat="43.71462" lon="-1.28278">
        <ele>46</ele>
        <time>2013-04-21T07:28:44.000Z</time>
      </trkpt>
      <trkpt lat="43.71457" lon="-1.28295">
        <ele>45.799999237061</ele>
        <time>2013-04-21T07:28:50.000Z</time>
      </trkpt>
      <trkpt lat="43.7145" lon="-1.28316">
        <ele>45.599998474121</ele>
        <time>2013-04-21T07:28:56.000Z</time>
      </trkpt>
      <trkpt lat="43.71442" lon="-1.28332">
        <ele>45.200000762939</ele>
        <time>2013-04-21T07:29:02.000Z</time>
      </trkpt>
      <trkpt lat="43.71429" lon="-1.28345">
        <ele>45</ele>
        <time>2013-04-21T07:29:08.000Z</time>
      </trkpt>
      <trkpt lat="43.71417" lon="-1.2835">
        <ele>45</ele>
        <time>2013-04-21T07:29:13.000Z</time>
      </trkpt>
      <trkpt lat="43.71405" lon="-1.28357">
        <ele>45</ele>
        <time>2013-04-21T07:29:19.000Z</time>
      </trkpt>
      <trkpt lat="43.71391" lon="-1.28363">
        <ele>45</ele>
        <time>2013-04-21T07:29:25.000Z</time>
      </trkpt>
      <trkpt lat="43.7138" lon="-1.28367">
        <ele>45.200000762939</ele>
        <time>2013-04-21T07:29:30.000Z</time>
      </trkpt>
      <trkpt lat="43.71366" lon="-1.28373">
        <ele>45.200000762939</ele>
        <time>2013-04-21T07:29:36.000Z</time>
      </trkpt>
      <trkpt lat="43.71354" lon="-1.28375">
        <ele>45.200000762939</ele>
        <time>2013-04-21T07:29:41.000Z</time>
      </trkpt>
      <trkpt lat="43.71352" lon="-1.28374">
        <ele>45.200000762939</ele>
        <time>2013-04-21T07:29:42.000Z</time>
      </trkpt>
      <trkpt lat="43.71348" lon="-1.28364">
        <ele>45.400001525879</ele>
        <time>2013-04-21T07:29:45.000Z</time>
      </trkpt>
      <trkpt lat="43.71342" lon="-1.28352">
        <ele>45.599998474121</ele>
        <time>2013-04-21T07:29:49.000Z</time>
      </trkpt>
      <trkpt lat="43.71332" lon="-1.28343">
        <ele>45.799999237061</ele>
        <time>2013-04-21T07:29:54.000Z</time>
      </trkpt>
      <trkpt lat="43.71322" lon="-1.28335">
        <ele>45.799999237061</ele>
        <time>2013-04-21T07:30:01.000Z</time>
      </trkpt>
      <trkpt lat="43.71311" lon="-1.28324">
        <ele>45.799999237061</ele>
        <time>2013-04-21T07:30:09.000Z</time>
      </trkpt>
      <trkpt lat="43.71302" lon="-1.28314">
        <ele>45.799999237061</ele>
        <time>2013-04-21T07:30:15.000Z</time>
      </trkpt>
      <trkpt lat="43.71296" lon="-1.28309">
        <ele>45.799999237061</ele>
        <time>2013-04-21T07:30:18.000Z</time>
      </trkpt>
      <trkpt lat="43.71293" lon="-1.28306">
        <ele>45.799999237061</ele>
        <time>2013-04-21T07:30:20.000Z</time>
      </trkpt>
      <trkpt lat="43.71288" lon="-1.28304">
        <ele>46</ele>
        <time>2013-04-21T07:30:22.000Z</time>
      </trkpt>
      <trkpt lat="43.71284" lon="-1.28301">
        <ele>46</ele>
        <time>2013-04-21T07:30:24.000Z</time>
      </trkpt>
      <trkpt lat="43.71274" lon="-1.28293">
        <ele>46</ele>
        <time>2013-04-21T07:30:31.000Z</time>
      </trkpt>
      <trkpt lat="43.71264" lon="-1.28287">
        <ele>46</ele>
        <time>2013-04-21T07:30:37.000Z</time>
      </trkpt>
      <trkpt lat="43.71251" lon="-1.28276">
        <ele>46.200000762939</ele>
        <time>2013-04-21T07:30:43.000Z</time>
      </trkpt>
      <trkpt lat="43.71239" lon="-1.28264">
        <ele>47</ele>
        <time>2013-04-21T07:30:49.000Z</time>
      </trkpt>
      <trkpt lat="43.71232" lon="-1.28257">
        <ele>47.400001525879</ele>
        <time>2013-04-21T07:30:53.000Z</time>
      </trkpt>
      <trkpt lat="43.71223" lon="-1.28249">
        <ele>48</ele>
        <time>2013-04-21T07:30:58.000Z</time>
      </trkpt>
      <trkpt lat="43.71213" lon="-1.28242">
        <ele>48.400001525879</ele>
        <time>2013-04-21T07:31:03.000Z</time>
      </trkpt>
      <trkpt lat="43.712" lon="-1.28233">
        <ele>49.200000762939</ele>
        <time>2013-04-21T07:31:09.000Z</time>
      </trkpt>
      <trkpt lat="43.71197" lon="-1.28233">
        <ele>49.400001525879</ele>
        <time>2013-04-21T07:31:10.000Z</time>
      </trkpt>
      <trkpt lat="43.71188" lon="-1.28237">
        <ele>49.599998474121</ele>
        <time>2013-04-21T07:31:14.000Z</time>
      </trkpt>
      <trkpt lat="43.71174" lon="-1.28246">
        <ele>49.799999237061</ele>
        <time>2013-04-21T07:31:20.000Z</time>
      </trkpt>
      <trkpt lat="43.71162" lon="-1.28253">
        <ele>50</ele>
        <time>2013-04-21T07:31:25.000Z</time>
      </trkpt>
      <trkpt lat="43.71152" lon="-1.2826">
        <ele>50.400001525879</ele>
        <time>2013-04-21T07:31:30.000Z</time>
      </trkpt>
      <trkpt lat="43.71138" lon="-1.28267">
        <ele>50.599998474121</ele>
        <time>2013-04-21T07:31:36.000Z</time>
      </trkpt>
      <trkpt lat="43.71127" lon="-1.28274">
        <ele>50.799999237061</ele>
        <time>2013-04-21T07:31:41.000Z</time>
      </trkpt>
      <trkpt lat="43.71117" lon="-1.28281">
        <ele>51</ele>
        <time>2013-04-21T07:31:46.000Z</time>
      </trkpt>
      <trkpt lat="43.71106" lon="-1.28288">
        <ele>50.799999237061</ele>
        <time>2013-04-21T07:31:51.000Z</time>
      </trkpt>
      <trkpt lat="43.71094" lon="-1.28296">
        <ele>50.799999237061</ele>
        <time>2013-04-21T07:31:56.000Z</time>
      </trkpt>
      <trkpt lat="43.71082" lon="-1.28303">
        <ele>50.799999237061</ele>
        <time>2013-04-21T07:32:02.000Z</time>
      </trkpt>
      <trkpt lat="43.71067" lon="-1.28311">
        <ele>51.200000762939</ele>
        <time>2013-04-21T07:32:09.000Z</time>
      </trkpt>
      <trkpt lat="43.71051" lon="-1.28318">
        <ele>51.799999237061</ele>
        <time>2013-04-21T07:32:16.000Z</time>
      </trkpt>
      <trkpt lat="43.7104" lon="-1.28323">
        <ele>52.200000762939</ele>
        <time>2013-04-21T07:32:21.000Z</time>
      </trkpt>
      <trkpt lat="43.71028" lon="-1.2833">
        <ele>52.599998474121</ele>
        <time>2013-04-21T07:32:27.000Z</time>
      </trkpt>
      <trkpt lat="43.71014" lon="-1.28337">
        <ele>52.799999237061</ele>
        <time>2013-04-21T07:32:33.000Z</time>
      </trkpt>
      <trkpt lat="43.71003" lon="-1.28344">
        <ele>53</ele>
        <time>2013-04-21T07:32:38.000Z</time>
      </trkpt>
      <trkpt lat="43.7099" lon="-1.28351">
        <ele>52.599998474121</ele>
        <time>2013-04-21T07:32:44.000Z</time>
      </trkpt>
      <trkpt lat="43.70976" lon="-1.28359">
        <ele>52</ele>
        <time>2013-04-21T07:32:50.000Z</time>
      </trkpt>
      <trkpt lat="43.70966" lon="-1.28365">
        <ele>51.599998474121</ele>
        <time>2013-04-21T07:32:55.000Z</time>
      </trkpt>
      <trkpt lat="43.70953" lon="-1.28373">
        <ele>50.799999237061</ele>
        <time>2013-04-21T07:33:01.000Z</time>
      </trkpt>
      <trkpt lat="43.70939" lon="-1.28383">
        <ele>49.799999237061</ele>
        <time>2013-04-21T07:33:08.000Z</time>
      </trkpt>
      <trkpt lat="43.70934" lon="-1.28389">
        <ele>49</ele>
        <time>2013-04-21T07:33:11.000Z</time>
      </trkpt>
      <trkpt lat="43.70934" lon="-1.28391">
        <ele>48.799999237061</ele>
        <time>2013-04-21T07:33:12.000Z</time>
      </trkpt>
      <trkpt lat="43.70934" lon="-1.28402">
        <ele>47.799999237061</ele>
        <time>2013-04-21T07:33:17.000Z</time>
      </trkpt>
      <trkpt lat="43.70935" lon="-1.28408">
        <ele>47.200000762939</ele>
        <time>2013-04-21T07:33:19.000Z</time>
      </trkpt>
      <trkpt lat="43.70935" lon="-1.28417">
        <ele>46.400001525879</ele>
        <time>2013-04-21T07:33:23.000Z</time>
      </trkpt>
      <trkpt lat="43.70936" lon="-1.28431">
        <ele>46.200000762939</ele>
        <time>2013-04-21T07:33:28.000Z</time>
      </trkpt>
      <trkpt lat="43.70937" lon="-1.28441">
        <ele>46</ele>
        <time>2013-04-21T07:33:32.000Z</time>
      </trkpt>
      <trkpt lat="43.70938" lon="-1.28445">
        <ele>46</ele>
        <time>2013-04-21T07:33:33.000Z</time>
      </trkpt>
      <trkpt lat="43.7094" lon="-1.28461">
        <ele>45.799999237061</ele>
        <time>2013-04-21T07:33:38.000Z</time>
      </trkpt>
      <trkpt lat="43.70941" lon="-1.28472">
        <ele>45.599998474121</ele>
        <time>2013-04-21T07:33:42.000Z</time>
      </trkpt>
      <trkpt lat="43.70945" lon="-1.2849">
        <ele>45.400001525879</ele>
        <time>2013-04-21T07:33:48.000Z</time>
      </trkpt>
      <trkpt lat="43.70947" lon="-1.28505">
        <ele>45.400001525879</ele>
        <time>2013-04-21T07:33:54.000Z</time>
      </trkpt>
      <trkpt lat="43.70948" lon="-1.28508">
        <ele>45.400001525879</ele>
        <time>2013-04-21T07:33:55.000Z</time>
      </trkpt>
      <trkpt lat="43.70949" lon="-1.28516">
        <ele>45.400001525879</ele>
        <time>2013-04-21T07:33:58.000Z</time>
      </trkpt>
      <trkpt lat="43.70949" lon="-1.28519">
        <ele>45.599998474121</ele>
        <time>2013-04-21T07:33:59.000Z</time>
      </trkpt>
      <trkpt lat="43.70952" lon="-1.28534">
        <ele>45.799999237061</ele>
        <time>2013-04-21T07:34:04.000Z</time>
      </trkpt>
      <trkpt lat="43.70952" lon="-1.28548">
        <ele>45.799999237061</ele>
        <time>2013-04-21T07:34:09.000Z</time>
      </trkpt>
      <trkpt lat="43.70952" lon="-1.28551">
        <ele>46</ele>
        <time>2013-04-21T07:34:10.000Z</time>
      </trkpt>
      <trkpt lat="43.70952" lon="-1.2856">
        <ele>46</ele>
        <time>2013-04-21T07:34:13.000Z</time>
      </trkpt>
      <trkpt lat="43.70954" lon="-1.28574">
        <ele>46.200000762939</ele>
        <time>2013-04-21T07:34:18.000Z</time>
      </trkpt>
      <trkpt lat="43.70955" lon="-1.28584">
        <ele>46.400001525879</ele>
        <time>2013-04-21T07:34:22.000Z</time>
      </trkpt>
      <trkpt lat="43.70955" lon="-1.28587">
        <ele>46.599998474121</ele>
        <time>2013-04-21T07:34:23.000Z</time>
      </trkpt>
      <trkpt lat="43.70956" lon="-1.28609">
        <ele>48.400001525879</ele>
        <time>2013-04-21T07:34:30.000Z</time>
      </trkpt>
      <trkpt lat="43.70955" lon="-1.28618">
        <ele>49</ele>
        <time>2013-04-21T07:34:33.000Z</time>
      </trkpt>
      <trkpt lat="43.70954" lon="-1.28621">
        <ele>49.200000762939</ele>
        <time>2013-04-21T07:34:34.000Z</time>
      </trkpt>
      <trkpt lat="43.70944" lon="-1.28633">
        <ele>50</ele>
        <time>2013-04-21T07:34:39.000Z</time>
      </trkpt>
      <trkpt lat="43.70934" lon="-1.28637">
        <ele>50</ele>
        <time>2013-04-21T07:34:43.000Z</time>
      </trkpt>
      <trkpt lat="43.70932" lon="-1.28638">
        <ele>50.200000762939</ele>
        <time>2013-04-21T07:34:44.000Z</time>
      </trkpt>
      <trkpt lat="43.70921" lon="-1.28643">
        <ele>50.200000762939</ele>
        <time>2013-04-21T07:34:49.000Z</time>
      </trkpt>
      <trkpt lat="43.70909" lon="-1.28648">
        <ele>50.400001525879</ele>
        <time>2013-04-21T07:34:56.000Z</time>
      </trkpt>
      <trkpt lat="43.70897" lon="-1.28651">
        <ele>50.599998474121</ele>
        <time>2013-04-21T07:35:02.000Z</time>
      </trkpt>
      <trkpt lat="43.70884" lon="-1.28653">
        <ele>50.599998474121</ele>
        <time>2013-04-21T07:35:08.000Z</time>
      </trkpt>
      <trkpt lat="43.7087" lon="-1.28657">
        <ele>50.599998474121</ele>
        <time>2013-04-21T07:35:15.000Z</time>
      </trkpt>
      <trkpt lat="43.70855" lon="-1.28661">
        <ele>50.799999237061</ele>
        <time>2013-04-21T07:35:22.000Z</time>
      </trkpt>
      <trkpt lat="43.70841" lon="-1.28664">
        <ele>50.799999237061</ele>
        <time>2013-04-21T07:35:29.000Z</time>
      </trkpt>
      <trkpt lat="43.7083" lon="-1.28667">
        <ele>50.799999237061</ele>
        <time>2013-04-21T07:35:34.000Z</time>
      </trkpt>
      <trkpt lat="43.70819" lon="-1.28669">
        <ele>50.599998474121</ele>
        <time>2013-04-21T07:35:39.000Z</time>
      </trkpt>
      <trkpt lat="43.70808" lon="-1.28672">
        <ele>50.599998474121</ele>
        <time>2013-04-21T07:35:44.000Z</time>
      </trkpt>
      <trkpt lat="43.70794" lon="-1.28677">
        <ele>50.400001525879</ele>
        <time>2013-04-21T07:35:50.000Z</time>
      </trkpt>
      <trkpt lat="43.70778" lon="-1.28682">
        <ele>50.400001525879</ele>
        <time>2013-04-21T07:35:57.000Z</time>
      </trkpt>
      <trkpt lat="43.70766" lon="-1.28684">
        <ele>50.400001525879</ele>
        <time>2013-04-21T07:36:02.000Z</time>
      </trkpt>
      <trkpt lat="43.70755" lon="-1.28686">
        <ele>50.400001525879</ele>
        <time>2013-04-21T07:36:07.000Z</time>
      </trkpt>
      <trkpt lat="43.70742" lon="-1.2869">
        <ele>50</ele>
        <time>2013-04-21T07:36:13.000Z</time>
      </trkpt>
      <trkpt lat="43.70729" lon="-1.28692">
        <ele>49.599998474121</ele>
        <time>2013-04-21T07:36:18.000Z</time>
      </trkpt>
      <trkpt lat="43.70714" lon="-1.28696">
        <ele>48.799999237061</ele>
        <time>2013-04-21T07:36:25.000Z</time>
      </trkpt>
      <trkpt lat="43.707" lon="-1.28699">
        <ele>48.200000762939</ele>
        <time>2013-04-21T07:36:31.000Z</time>
      </trkpt>
      <trkpt lat="43.70688" lon="-1.287">
        <ele>47.400001525879</ele>
        <time>2013-04-21T07:36:36.000Z</time>
      </trkpt>
      <trkpt lat="43.70676" lon="-1.28706">
        <ele>46.799999237061</ele>
        <time>2013-04-21T07:36:42.000Z</time>
      </trkpt>
      <trkpt lat="43.70664" lon="-1.2871">
        <ele>46.400001525879</ele>
        <time>2013-04-21T07:36:48.000Z</time>
      </trkpt>
      <trkpt lat="43.70656" lon="-1.28717">
        <ele>46.400001525879</ele>
        <time>2013-04-21T07:36:53.000Z</time>
      </trkpt>
      <trkpt lat="43.70646" lon="-1.28726">
        <ele>46.200000762939</ele>
        <time>2013-04-21T07:36:59.000Z</time>
      </trkpt>
      <trkpt lat="43.70639" lon="-1.28733">
        <ele>46.200000762939</ele>
        <time>2013-04-21T07:37:03.000Z</time>
      </trkpt>
      <trkpt lat="43.70631" lon="-1.28741">
        <ele>46</ele>
        <time>2013-04-21T07:37:08.000Z</time>
      </trkpt>
      <trkpt lat="43.7062" lon="-1.28754">
        <ele>45.599998474121</ele>
        <time>2013-04-21T07:37:14.000Z</time>
      </trkpt>
      <trkpt lat="43.70611" lon="-1.28764">
        <ele>45</ele>
        <time>2013-04-21T07:37:19.000Z</time>
      </trkpt>
      <trkpt lat="43.70604" lon="-1.28774">
        <ele>44.400001525879</ele>
        <time>2013-04-21T07:37:24.000Z</time>
      </trkpt>
      <trkpt lat="43.70593" lon="-1.28787">
        <ele>43.599998474121</ele>
        <time>2013-04-21T07:37:30.000Z</time>
      </trkpt>
      <trkpt lat="43.70581" lon="-1.28799">
        <ele>42.799999237061</ele>
        <time>2013-04-21T07:37:36.000Z</time>
      </trkpt>
      <trkpt lat="43.70572" lon="-1.28809">
        <ele>42.400001525879</ele>
        <time>2013-04-21T07:37:41.000Z</time>
      </trkpt>
      <trkpt lat="43.70559" lon="-1.28825">
        <ele>42.400001525879</ele>
        <time>2013-04-21T07:37:48.000Z</time>
      </trkpt>
      <trkpt lat="43.70547" lon="-1.28835">
        <ele>42.400001525879</ele>
        <time>2013-04-21T07:37:54.000Z</time>
      </trkpt>
      <trkpt lat="43.70538" lon="-1.28846">
        <ele>42.599998474121</ele>
        <time>2013-04-21T07:38:00.000Z</time>
      </trkpt>
      <trkpt lat="43.70528" lon="-1.28856">
        <ele>42.599998474121</ele>
        <time>2013-04-21T07:38:05.000Z</time>
      </trkpt>
      <trkpt lat="43.70519" lon="-1.28868">
        <ele>42.799999237061</ele>
        <time>2013-04-21T07:38:11.000Z</time>
      </trkpt>
      <trkpt lat="43.70511" lon="-1.28876">
        <ele>42.799999237061</ele>
        <time>2013-04-21T07:38:15.000Z</time>
      </trkpt>
      <trkpt lat="43.70502" lon="-1.28888">
        <ele>42.799999237061</ele>
        <time>2013-04-21T07:38:20.000Z</time>
      </trkpt>
      <trkpt lat="43.70501" lon="-1.28889">
        <ele>42.799999237061</ele>
        <time>2013-04-21T07:38:21.000Z</time>
      </trkpt>
      <trkpt lat="43.70496" lon="-1.28888">
        <ele>42.799999237061</ele>
        <time>2013-04-21T07:38:23.000Z</time>
      </trkpt>
      <trkpt lat="43.70491" lon="-1.28878">
        <ele>42.799999237061</ele>
        <time>2013-04-21T07:38:27.000Z</time>
      </trkpt>
      <trkpt lat="43.7049" lon="-1.28875">
        <ele>42.799999237061</ele>
        <time>2013-04-21T07:38:28.000Z</time>
      </trkpt>
      <trkpt lat="43.70488" lon="-1.28855">
        <ele>42.799999237061</ele>
        <time>2013-04-21T07:38:34.000Z</time>
      </trkpt>
      <trkpt lat="43.70485" lon="-1.28848">
        <ele>42.799999237061</ele>
        <time>2013-04-21T07:38:36.000Z</time>
      </trkpt>
      <trkpt lat="43.70483" lon="-1.28842">
        <ele>42.599998474121</ele>
        <time>2013-04-21T07:38:38.000Z</time>
      </trkpt>
      <trkpt lat="43.7048" lon="-1.28833">
        <ele>42.599998474121</ele>
        <time>2013-04-21T07:38:41.000Z</time>
      </trkpt>
      <trkpt lat="43.70477" lon="-1.28825">
        <ele>42.599998474121</ele>
        <time>2013-04-21T07:38:44.000Z</time>
      </trkpt>
      <trkpt lat="43.70471" lon="-1.2881">
        <ele>42.400001525879</ele>
        <time>2013-04-21T07:38:50.000Z</time>
      </trkpt>
      <trkpt lat="43.70467" lon="-1.28794">
        <ele>42.400001525879</ele>
        <time>2013-04-21T07:38:55.000Z</time>
      </trkpt>
      <trkpt lat="43.70461" lon="-1.28778">
        <ele>42.400001525879</ele>
        <time>2013-04-21T07:39:01.000Z</time>
      </trkpt>
      <trkpt lat="43.70454" lon="-1.2876">
        <ele>42.400001525879</ele>
        <time>2013-04-21T07:39:08.000Z</time>
      </trkpt>
      <trkpt lat="43.70445" lon="-1.28741">
        <ele>43.200000762939</ele>
        <time>2013-04-21T07:39:15.000Z</time>
      </trkpt>
      <trkpt lat="43.70438" lon="-1.28727">
        <ele>44.599998474121</ele>
        <time>2013-04-21T07:39:21.000Z</time>
      </trkpt>
      <trkpt lat="43.70427" lon="-1.28707">
        <ele>47</ele>
        <time>2013-04-21T07:39:29.000Z</time>
      </trkpt>
      <trkpt lat="43.70425" lon="-1.28704">
        <ele>47.400001525879</ele>
        <time>2013-04-21T07:39:30.000Z</time>
      </trkpt>
      <trkpt lat="43.70414" lon="-1.28692">
        <ele>49.200000762939</ele>
        <time>2013-04-21T07:39:36.000Z</time>
      </trkpt>
      <trkpt lat="43.704" lon="-1.28675">
        <ele>51.200000762939</ele>
        <time>2013-04-21T07:39:44.000Z</time>
      </trkpt>
      <trkpt lat="43.70387" lon="-1.28662">
        <ele>52.599998474121</ele>
        <time>2013-04-21T07:39:51.000Z</time>
      </trkpt>
      <trkpt lat="43.70378" lon="-1.28651">
        <ele>53.200000762939</ele>
        <time>2013-04-21T07:39:56.000Z</time>
      </trkpt>
      <trkpt lat="43.70367" lon="-1.28639">
        <ele>53.799999237061</ele>
        <time>2013-04-21T07:40:02.000Z</time>
      </trkpt>
      <trkpt lat="43.70354" lon="-1.28623">
        <ele>54.400001525879</ele>
        <time>2013-04-21T07:40:10.000Z</time>
      </trkpt>
      <trkpt lat="43.70345" lon="-1.28612">
        <ele>55</ele>
        <time>2013-04-21T07:40:15.000Z</time>
      </trkpt>
      <trkpt lat="43.70339" lon="-1.28602">
        <ele>55.200000762939</ele>
        <time>2013-04-21T07:40:20.000Z</time>
      </trkpt>
      <trkpt lat="43.70337" lon="-1.28599">
        <ele>55.400001525879</ele>
        <time>2013-04-21T07:40:23.000Z</time>
      </trkpt>
      <trkpt lat="43.70335" lon="-1.28597">
        <ele>55.400001525879</ele>
        <time>2013-04-21T07:40:26.000Z</time>
      </trkpt>
      <trkpt lat="43.70334" lon="-1.28597">
        <ele>55.400001525879</ele>
        <time>2013-04-21T07:40:27.000Z</time>
      </trkpt>
      <trkpt lat="43.70334" lon="-1.28596">
        <ele>55.400001525879</ele>
        <time>2013-04-21T07:40:28.000Z</time>
      </trkpt>
      <trkpt lat="43.70333" lon="-1.28596">
        <ele>55.400001525879</ele>
        <time>2013-04-21T07:40:31.000Z</time>
      </trkpt>
      <trkpt lat="43.70328" lon="-1.28595">
        <ele>55.400001525879</ele>
        <time>2013-04-21T07:41:00.000Z</time>
      </trkpt>
      <trkpt lat="43.70327" lon="-1.28596">
        <ele>55.400001525879</ele>
        <time>2013-04-21T07:41:01.000Z</time>
      </trkpt>
      <trkpt lat="43.70325" lon="-1.286">
        <ele>55.400001525879</ele>
        <time>2013-04-21T07:41:04.000Z</time>
      </trkpt>
      <trkpt lat="43.70324" lon="-1.28608">
        <ele>55</ele>
        <time>2013-04-21T07:41:07.000Z</time>
      </trkpt>
      <trkpt lat="43.70324" lon="-1.28613">
        <ele>54.799999237061</ele>
        <time>2013-04-21T07:41:09.000Z</time>
      </trkpt>
      <trkpt lat="43.70321" lon="-1.2862">
        <ele>54.599998474121</ele>
        <time>2013-04-21T07:41:12.000Z</time>
      </trkpt>
      <trkpt lat="43.70318" lon="-1.28631">
        <ele>54.200000762939</ele>
        <time>2013-04-21T07:41:16.000Z</time>
      </trkpt>
      <trkpt lat="43.70319" lon="-1.28642">
        <ele>54</ele>
        <time>2013-04-21T07:41:20.000Z</time>
      </trkpt>
      <trkpt lat="43.70319" lon="-1.28646">
        <ele>53.799999237061</ele>
        <time>2013-04-21T07:41:22.000Z</time>
      </trkpt>
      <trkpt lat="43.70316" lon="-1.28659">
        <ele>53.400001525879</ele>
        <time>2013-04-21T07:41:26.000Z</time>
      </trkpt>
      <trkpt lat="43.7031" lon="-1.28673">
        <ele>52.799999237061</ele>
        <time>2013-04-21T07:41:31.000Z</time>
      </trkpt>
      <trkpt lat="43.70299" lon="-1.28687">
        <ele>52.200000762939</ele>
        <time>2013-04-21T07:41:37.000Z</time>
      </trkpt>
      <trkpt lat="43.70293" lon="-1.28702">
        <ele>51.400001525879</ele>
        <time>2013-04-21T07:41:42.000Z</time>
      </trkpt>
      <trkpt lat="43.70285" lon="-1.28708">
        <ele>51.400001525879</ele>
        <time>2013-04-21T07:41:46.000Z</time>
      </trkpt>
      <trkpt lat="43.70284" lon="-1.28717">
        <ele>51</ele>
        <time>2013-04-21T07:41:49.000Z</time>
      </trkpt>
      <trkpt lat="43.70285" lon="-1.2872">
        <ele>50.799999237061</ele>
        <time>2013-04-21T07:41:50.000Z</time>
      </trkpt>
      <trkpt lat="43.7029" lon="-1.28738">
        <ele>49.599998474121</ele>
        <time>2013-04-21T07:41:56.000Z</time>
      </trkpt>
      <trkpt lat="43.70288" lon="-1.28743">
        <ele>49.599998474121</ele>
        <time>2013-04-21T07:41:58.000Z</time>
      </trkpt>
      <trkpt lat="43.70284" lon="-1.28749">
        <ele>49.599998474121</ele>
        <time>2013-04-21T07:42:00.000Z</time>
      </trkpt>
      <trkpt lat="43.70278" lon="-1.28758">
        <ele>49.400001525879</ele>
        <time>2013-04-21T07:42:04.000Z</time>
      </trkpt>
      <trkpt lat="43.70271" lon="-1.28765">
        <ele>49.599998474121</ele>
        <time>2013-04-21T07:42:08.000Z</time>
      </trkpt>
      <trkpt lat="43.70271" lon="-1.28767">
        <ele>49.400001525879</ele>
        <time>2013-04-21T07:42:09.000Z</time>
      </trkpt>
      <trkpt lat="43.7027" lon="-1.28775">
        <ele>49</ele>
        <time>2013-04-21T07:42:12.000Z</time>
      </trkpt>
      <trkpt lat="43.70271" lon="-1.28778">
        <ele>48.799999237061</ele>
        <time>2013-04-21T07:42:13.000Z</time>
      </trkpt>
      <trkpt lat="43.70272" lon="-1.28789">
        <ele>48</ele>
        <time>2013-04-21T07:42:18.000Z</time>
      </trkpt>
      <trkpt lat="43.70272" lon="-1.28792">
        <ele>48</ele>
        <time>2013-04-21T07:42:19.000Z</time>
      </trkpt>
      <trkpt lat="43.7027" lon="-1.28801">
        <ele>47.599998474121</ele>
        <time>2013-04-21T07:42:22.000Z</time>
      </trkpt>
      <trkpt lat="43.70268" lon="-1.28804">
        <ele>47.599998474121</ele>
        <time>2013-04-21T07:42:23.000Z</time>
      </trkpt>
      <trkpt lat="43.70259" lon="-1.28813">
        <ele>47.599998474121</ele>
        <time>2013-04-21T07:42:29.000Z</time>
      </trkpt>
      <trkpt lat="43.70253" lon="-1.28821">
        <ele>47.400001525879</ele>
        <time>2013-04-21T07:42:33.000Z</time>
      </trkpt>
      <trkpt lat="43.70243" lon="-1.28834">
        <ele>47.400001525879</ele>
        <time>2013-04-21T07:42:39.000Z</time>
      </trkpt>
      <trkpt lat="43.70234" lon="-1.28843">
        <ele>47.799999237061</ele>
        <time>2013-04-21T07:42:44.000Z</time>
      </trkpt>
      <trkpt lat="43.70232" lon="-1.28853">
        <ele>47.599998474121</ele>
        <time>2013-04-21T07:42:48.000Z</time>
      </trkpt>
      <trkpt lat="43.70232" lon="-1.28855">
        <ele>47.599998474121</ele>
        <time>2013-04-21T07:42:49.000Z</time>
      </trkpt>
      <trkpt lat="43.70231" lon="-1.28866">
        <ele>47.200000762939</ele>
        <time>2013-04-21T07:42:53.000Z</time>
      </trkpt>
      <trkpt lat="43.70228" lon="-1.28883">
        <ele>47</ele>
        <time>2013-04-21T07:42:58.000Z</time>
      </trkpt>
      <trkpt lat="43.70226" lon="-1.28886">
        <ele>47.200000762939</ele>
        <time>2013-04-21T07:42:59.000Z</time>
      </trkpt>
      <trkpt lat="43.7022" lon="-1.28893">
        <ele>47.400001525879</ele>
        <time>2013-04-21T07:43:02.000Z</time>
      </trkpt>
      <trkpt lat="43.70218" lon="-1.28895">
        <ele>47.599998474121</ele>
        <time>2013-04-21T07:43:03.000Z</time>
      </trkpt>
      <trkpt lat="43.70206" lon="-1.28906">
        <ele>48.400001525879</ele>
        <time>2013-04-21T07:43:09.000Z</time>
      </trkpt>
      <trkpt lat="43.70201" lon="-1.28918">
        <ele>48.599998474121</ele>
        <time>2013-04-21T07:43:13.000Z</time>
      </trkpt>
      <trkpt lat="43.70196" lon="-1.28935">
        <ele>49.400001525879</ele>
        <time>2013-04-21T07:43:18.000Z</time>
      </trkpt>
      <trkpt lat="43.70196" lon="-1.28942">
        <ele>49.599998474121</ele>
        <time>2013-04-21T07:43:20.000Z</time>
      </trkpt>
      <trkpt lat="43.70199" lon="-1.28948">
        <ele>49.400001525879</ele>
        <time>2013-04-21T07:43:22.000Z</time>
      </trkpt>
      <trkpt lat="43.70203" lon="-1.28955">
        <ele>49.200000762939</ele>
        <time>2013-04-21T07:43:25.000Z</time>
      </trkpt>
      <trkpt lat="43.70206" lon="-1.28959">
        <ele>49</ele>
        <time>2013-04-21T07:43:27.000Z</time>
      </trkpt>
      <trkpt lat="43.70211" lon="-1.28973">
        <ele>49</ele>
        <time>2013-04-21T07:43:32.000Z</time>
      </trkpt>
      <trkpt lat="43.70215" lon="-1.28985">
        <ele>49</ele>
        <time>2013-04-21T07:43:37.000Z</time>
      </trkpt>
      <trkpt lat="43.70223" lon="-1.28997">
        <ele>48.799999237061</ele>
        <time>2013-04-21T07:43:42.000Z</time>
      </trkpt>
      <trkpt lat="43.70233" lon="-1.29008">
        <ele>48.200000762939</ele>
        <time>2013-04-21T07:43:47.000Z</time>
      </trkpt>
      <trkpt lat="43.70243" lon="-1.29016">
        <ele>47.799999237061</ele>
        <time>2013-04-21T07:43:52.000Z</time>
      </trkpt>
      <trkpt lat="43.70246" lon="-1.29028">
        <ele>47.799999237061</ele>
        <time>2013-04-21T07:43:56.000Z</time>
      </trkpt>
      <trkpt lat="43.70246" lon="-1.29041">
        <ele>48</ele>
        <time>2013-04-21T07:44:01.000Z</time>
      </trkpt>
      <trkpt lat="43.7024" lon="-1.29056">
        <ele>48.599998474121</ele>
        <time>2013-04-21T07:44:06.000Z</time>
      </trkpt>
      <trkpt lat="43.70236" lon="-1.29064">
        <ele>49</ele>
        <time>2013-04-21T07:44:11.000Z</time>
      </trkpt>
      <trkpt lat="43.70227" lon="-1.29062">
        <ele>49.200000762939</ele>
        <time>2013-04-21T07:44:15.000Z</time>
      </trkpt>
      <trkpt lat="43.70217" lon="-1.29062">
        <ele>49.599998474121</ele>
        <time>2013-04-21T07:44:19.000Z</time>
      </trkpt>
      <trkpt lat="43.70212" lon="-1.29061">
        <ele>49.799999237061</ele>
        <time>2013-04-21T07:44:21.000Z</time>
      </trkpt>
      <trkpt lat="43.70197" lon="-1.29059">
        <ele>50.400001525879</ele>
        <time>2013-04-21T07:44:26.000Z</time>
      </trkpt>
      <trkpt lat="43.70186" lon="-1.29059">
        <ele>50.799999237061</ele>
        <time>2013-04-21T07:44:31.000Z</time>
      </trkpt>
      <trkpt lat="43.70172" lon="-1.29061">
        <ele>51.200000762939</ele>
        <time>2013-04-21T07:44:37.000Z</time>
      </trkpt>
      <trkpt lat="43.70163" lon="-1.2906">
        <ele>51.400001525879</ele>
        <time>2013-04-21T07:44:41.000Z</time>
      </trkpt>
      <trkpt lat="43.70151" lon="-1.29058">
        <ele>51.400001525879</ele>
        <time>2013-04-21T07:44:46.000Z</time>
      </trkpt>
      <trkpt lat="43.70138" lon="-1.29054">
        <ele>51.599998474121</ele>
        <time>2013-04-21T07:44:51.000Z</time>
      </trkpt>
      <trkpt lat="43.7013" lon="-1.29058">
        <ele>51.599998474121</ele>
        <time>2013-04-21T07:44:55.000Z</time>
      </trkpt>
      <trkpt lat="43.70127" lon="-1.29064">
        <ele>51.400001525879</ele>
        <time>2013-04-21T07:44:57.000Z</time>
      </trkpt>
      <trkpt lat="43.70125" lon="-1.29078">
        <ele>51</ele>
        <time>2013-04-21T07:45:01.000Z</time>
      </trkpt>
      <trkpt lat="43.70117" lon="-1.29084">
        <ele>51</ele>
        <time>2013-04-21T07:45:05.000Z</time>
      </trkpt>
      <trkpt lat="43.70115" lon="-1.29085">
        <ele>51</ele>
        <time>2013-04-21T07:45:06.000Z</time>
      </trkpt>
      <trkpt lat="43.70108" lon="-1.29095">
        <ele>51</ele>
        <time>2013-04-21T07:45:10.000Z</time>
      </trkpt>
      <trkpt lat="43.701" lon="-1.29106">
        <ele>51</ele>
        <time>2013-04-21T07:45:15.000Z</time>
      </trkpt>
      <trkpt lat="43.70091" lon="-1.29117">
        <ele>51</ele>
        <time>2013-04-21T07:45:20.000Z</time>
      </trkpt>
      <trkpt lat="43.70092" lon="-1.29134">
        <ele>51</ele>
        <time>2013-04-21T07:45:25.000Z</time>
      </trkpt>
      <trkpt lat="43.70091" lon="-1.29145">
        <ele>51</ele>
        <time>2013-04-21T07:45:29.000Z</time>
      </trkpt>
      <trkpt lat="43.7009" lon="-1.29148">
        <ele>51</ele>
        <time>2013-04-21T07:45:30.000Z</time>
      </trkpt>
      <trkpt lat="43.70081" lon="-1.29151">
        <ele>51</ele>
        <time>2013-04-21T07:45:34.000Z</time>
      </trkpt>
      <trkpt lat="43.70077" lon="-1.29153">
        <ele>51</ele>
        <time>2013-04-21T07:45:36.000Z</time>
      </trkpt>
      <trkpt lat="43.70069" lon="-1.29157">
        <ele>51</ele>
        <time>2013-04-21T07:45:40.000Z</time>
      </trkpt>
      <trkpt lat="43.70055" lon="-1.29168">
        <ele>51.200000762939</ele>
        <time>2013-04-21T07:45:47.000Z</time>
      </trkpt>
      <trkpt lat="43.7005" lon="-1.29173">
        <ele>51.400001525879</ele>
        <time>2013-04-21T07:45:51.000Z</time>
      </trkpt>
      <trkpt lat="43.70048" lon="-1.29173">
        <ele>51.400001525879</ele>
        <time>2013-04-21T07:45:52.000Z</time>
      </trkpt>
      <trkpt lat="43.70042" lon="-1.29182">
        <ele>51.599998474121</ele>
        <time>2013-04-21T07:45:57.000Z</time>
      </trkpt>
      <trkpt lat="43.70033" lon="-1.29195">
        <ele>52</ele>
        <time>2013-04-21T07:46:03.000Z</time>
      </trkpt>
      <trkpt lat="43.70023" lon="-1.29206">
        <ele>52.200000762939</ele>
        <time>2013-04-21T07:46:08.000Z</time>
      </trkpt>
      <trkpt lat="43.70022" lon="-1.29208">
        <ele>52.200000762939</ele>
        <time>2013-04-21T07:46:09.000Z</time>
      </trkpt>
      <trkpt lat="43.70021" lon="-1.29218">
        <ele>52.400001525879</ele>
        <time>2013-04-21T07:46:12.000Z</time>
      </trkpt>
      <trkpt lat="43.7002" lon="-1.29232">
        <ele>52.599998474121</ele>
        <time>2013-04-21T07:46:17.000Z</time>
      </trkpt>
      <trkpt lat="43.70016" lon="-1.29248">
        <ele>52.799999237061</ele>
        <time>2013-04-21T07:46:23.000Z</time>
      </trkpt>
      <trkpt lat="43.70006" lon="-1.2926">
        <ele>52.799999237061</ele>
        <time>2013-04-21T07:46:29.000Z</time>
      </trkpt>
      <trkpt lat="43.7" lon="-1.29272">
        <ele>52.599998474121</ele>
        <time>2013-04-21T07:46:34.000Z</time>
      </trkpt>
      <trkpt lat="43.69997" lon="-1.29287">
        <ele>52.400001525879</ele>
        <time>2013-04-21T07:46:39.000Z</time>
      </trkpt>
      <trkpt lat="43.69996" lon="-1.29304">
        <ele>52.200000762939</ele>
        <time>2013-04-21T07:46:44.000Z</time>
      </trkpt>
      <trkpt lat="43.69995" lon="-1.29323">
        <ele>52</ele>
        <time>2013-04-21T07:46:50.000Z</time>
      </trkpt>
      <trkpt lat="43.69993" lon="-1.29337">
        <ele>51.799999237061</ele>
        <time>2013-04-21T07:46:55.000Z</time>
      </trkpt>
      <trkpt lat="43.69992" lon="-1.29359">
        <ele>51.799999237061</ele>
        <time>2013-04-21T07:47:02.000Z</time>
      </trkpt>
      <trkpt lat="43.69991" lon="-1.29373">
        <ele>51.799999237061</ele>
        <time>2013-04-21T07:47:07.000Z</time>
      </trkpt>
      <trkpt lat="43.69987" lon="-1.29393">
        <ele>51.799999237061</ele>
        <time>2013-04-21T07:47:13.000Z</time>
      </trkpt>
      <trkpt lat="43.69989" lon="-1.29407">
        <ele>51.799999237061</ele>
        <time>2013-04-21T07:47:18.000Z</time>
      </trkpt>
      <trkpt lat="43.69984" lon="-1.29417">
        <ele>52</ele>
        <time>2013-04-21T07:47:22.000Z</time>
      </trkpt>
      <trkpt lat="43.69983" lon="-1.29432">
        <ele>52</ele>
        <time>2013-04-21T07:47:27.000Z</time>
      </trkpt>
      <trkpt lat="43.69989" lon="-1.29443">
        <ele>52.200000762939</ele>
        <time>2013-04-21T07:47:32.000Z</time>
      </trkpt>
      <trkpt lat="43.69986" lon="-1.29459">
        <ele>52.400001525879</ele>
        <time>2013-04-21T07:47:37.000Z</time>
      </trkpt>
      <trkpt lat="43.69978" lon="-1.29476">
        <ele>52.400001525879</ele>
        <time>2013-04-21T07:47:43.000Z</time>
      </trkpt>
      <trkpt lat="43.69976" lon="-1.29483">
        <ele>52.400001525879</ele>
        <time>2013-04-21T07:47:45.000Z</time>
      </trkpt>
      <trkpt lat="43.69977" lon="-1.29492">
        <ele>52.599998474121</ele>
        <time>2013-04-21T07:47:48.000Z</time>
      </trkpt>
      <trkpt lat="43.69978" lon="-1.29508">
        <ele>52.599998474121</ele>
        <time>2013-04-21T07:47:53.000Z</time>
      </trkpt>
      <trkpt lat="43.69979" lon="-1.29517">
        <ele>52.599998474121</ele>
        <time>2013-04-21T07:47:56.000Z</time>
      </trkpt>
      <trkpt lat="43.69979" lon="-1.29522">
        <ele>52.599998474121</ele>
        <time>2013-04-21T07:47:58.000Z</time>
      </trkpt>
      <trkpt lat="43.69978" lon="-1.29528">
        <ele>52.599998474121</ele>
        <time>2013-04-21T07:48:00.000Z</time>
      </trkpt>
      <trkpt lat="43.69976" lon="-1.29542">
        <ele>52.599998474121</ele>
        <time>2013-04-21T07:48:04.000Z</time>
      </trkpt>
      <trkpt lat="43.69973" lon="-1.29553">
        <ele>52.599998474121</ele>
        <time>2013-04-21T07:48:07.000Z</time>
      </trkpt>
      <trkpt lat="43.69974" lon="-1.29556">
        <ele>52.599998474121</ele>
        <time>2013-04-21T07:48:08.000Z</time>
      </trkpt>
      <trkpt lat="43.69973" lon="-1.29572">
        <ele>52.599998474121</ele>
        <time>2013-04-21T07:48:14.000Z</time>
      </trkpt>
      <trkpt lat="43.69972" lon="-1.29588">
        <ele>52.400001525879</ele>
        <time>2013-04-21T07:48:19.000Z</time>
      </trkpt>
      <trkpt lat="43.69973" lon="-1.29608">
        <ele>52</ele>
        <time>2013-04-21T07:48:25.000Z</time>
      </trkpt>
      <trkpt lat="43.69972" lon="-1.29626">
        <ele>51.799999237061</ele>
        <time>2013-04-21T07:48:31.000Z</time>
      </trkpt>
      <trkpt lat="43.69974" lon="-1.29635">
        <ele>51.599998474121</ele>
        <time>2013-04-21T07:48:35.000Z</time>
      </trkpt>
      <trkpt lat="43.69979" lon="-1.29652">
        <ele>51.200000762939</ele>
        <time>2013-04-21T07:48:41.000Z</time>
      </trkpt>
      <trkpt lat="43.69978" lon="-1.29666">
        <ele>51</ele>
        <time>2013-04-21T07:48:46.000Z</time>
      </trkpt>
      <trkpt lat="43.69977" lon="-1.29681">
        <ele>50.799999237061</ele>
        <time>2013-04-21T07:48:51.000Z</time>
      </trkpt>
      <trkpt lat="43.69972" lon="-1.29694">
        <ele>50.799999237061</ele>
        <time>2013-04-21T07:48:56.000Z</time>
      </trkpt>
      <trkpt lat="43.69963" lon="-1.29704">
        <ele>50.599998474121</ele>
        <time>2013-04-21T07:49:00.000Z</time>
      </trkpt>
      <trkpt lat="43.69962" lon="-1.29708">
        <ele>50.400001525879</ele>
        <time>2013-04-21T07:49:01.000Z</time>
      </trkpt>
      <trkpt lat="43.6996" lon="-1.29717">
        <ele>50.400001525879</ele>
        <time>2013-04-21T07:49:04.000Z</time>
      </trkpt>
      <trkpt lat="43.69956" lon="-1.29723">
        <ele>50.200000762939</ele>
        <time>2013-04-21T07:49:06.000Z</time>
      </trkpt>
      <trkpt lat="43.69954" lon="-1.29737">
        <ele>49.799999237061</ele>
        <time>2013-04-21T07:49:11.000Z</time>
      </trkpt>
      <trkpt lat="43.69959" lon="-1.29746">
        <ele>50</ele>
        <time>2013-04-21T07:49:15.000Z</time>
      </trkpt>
      <trkpt lat="43.69959" lon="-1.29749">
        <ele>50</ele>
        <time>2013-04-21T07:49:16.000Z</time>
      </trkpt>
      <trkpt lat="43.69956" lon="-1.29753">
        <ele>49.599998474121</ele>
        <time>2013-04-21T07:49:19.000Z</time>
      </trkpt>
      <trkpt lat="43.69947" lon="-1.29756">
        <ele>49.200000762939</ele>
        <time>2013-04-21T07:49:23.000Z</time>
      </trkpt>
      <trkpt lat="43.69946" lon="-1.29756">
        <ele>49</ele>
        <time>2013-04-21T07:49:24.000Z</time>
      </trkpt>
      <trkpt lat="43.69942" lon="-1.29757">
        <ele>48.799999237061</ele>
        <time>2013-04-21T07:49:26.000Z</time>
      </trkpt>
      <trkpt lat="43.69936" lon="-1.29762">
        <ele>48.400001525879</ele>
        <time>2013-04-21T07:49:29.000Z</time>
      </trkpt>
      <trkpt lat="43.69928" lon="-1.29765">
        <ele>48</ele>
        <time>2013-04-21T07:49:33.000Z</time>
      </trkpt>
      <trkpt lat="43.6992" lon="-1.29764">
        <ele>47.599998474121</ele>
        <time>2013-04-21T07:49:36.000Z</time>
      </trkpt>
      <trkpt lat="43.69918" lon="-1.29758">
        <ele>47.799999237061</ele>
        <time>2013-04-21T07:49:38.000Z</time>
      </trkpt>
      <trkpt lat="43.6991" lon="-1.29751">
        <ele>47</ele>
        <time>2013-04-21T07:49:42.000Z</time>
      </trkpt>
      <trkpt lat="43.69903" lon="-1.29746">
        <ele>46.400001525879</ele>
        <time>2013-04-21T07:49:45.000Z</time>
      </trkpt>
      <trkpt lat="43.69901" lon="-1.29746">
        <ele>46.200000762939</ele>
        <time>2013-04-21T07:49:46.000Z</time>
      </trkpt>
      <trkpt lat="43.69899" lon="-1.29746">
        <ele>45.799999237061</ele>
        <time>2013-04-21T07:49:47.000Z</time>
      </trkpt>
      <trkpt lat="43.69886" lon="-1.29752">
        <ele>44.200000762939</ele>
        <time>2013-04-21T07:49:53.000Z</time>
      </trkpt>
      <trkpt lat="43.69879" lon="-1.29761">
        <ele>43.200000762939</ele>
        <time>2013-04-21T07:49:58.000Z</time>
      </trkpt>
      <trkpt lat="43.69874" lon="-1.29769">
        <ele>42.400001525879</ele>
        <time>2013-04-21T07:50:02.000Z</time>
      </trkpt>
      <trkpt lat="43.69867" lon="-1.29771">
        <ele>41.599998474121</ele>
        <time>2013-04-21T07:50:06.000Z</time>
      </trkpt>
      <trkpt lat="43.69859" lon="-1.29775">
        <ele>40.599998474121</ele>
        <time>2013-04-21T07:50:10.000Z</time>
      </trkpt>
      <trkpt lat="43.69857" lon="-1.29776">
        <ele>40.400001525879</ele>
        <time>2013-04-21T07:50:11.000Z</time>
      </trkpt>
      <trkpt lat="43.69847" lon="-1.29781">
        <ele>39.400001525879</ele>
        <time>2013-04-21T07:50:16.000Z</time>
      </trkpt>
      <trkpt lat="43.69842" lon="-1.29785">
        <ele>38.799999237061</ele>
        <time>2013-04-21T07:50:19.000Z</time>
      </trkpt>
      <trkpt lat="43.69838" lon="-1.2979">
        <ele>38.400001525879</ele>
        <time>2013-04-21T07:50:22.000Z</time>
      </trkpt>
      <trkpt lat="43.69833" lon="-1.29794">
        <ele>37.799999237061</ele>
        <time>2013-04-21T07:50:25.000Z</time>
      </trkpt>
      <trkpt lat="43.69829" lon="-1.29796">
        <ele>37.799999237061</ele>
        <time>2013-04-21T07:50:27.000Z</time>
      </trkpt>
      <trkpt lat="43.69826" lon="-1.29796">
        <ele>37.799999237061</ele>
        <time>2013-04-21T07:50:29.000Z</time>
      </trkpt>
      <trkpt lat="43.69824" lon="-1.29794">
        <ele>37.799999237061</ele>
        <time>2013-04-21T07:50:31.000Z</time>
      </trkpt>
      <trkpt lat="43.69822" lon="-1.29792">
        <ele>37.799999237061</ele>
        <time>2013-04-21T07:50:36.000Z</time>
      </trkpt>
      <trkpt lat="43.69821" lon="-1.29792">
        <ele>37.599998474121</ele>
        <time>2013-04-21T07:50:37.000Z</time>
      </trkpt>
      <trkpt lat="43.6982" lon="-1.29795">
        <ele>37.599998474121</ele>
        <time>2013-04-21T07:50:40.000Z</time>
      </trkpt>
      <trkpt lat="43.69817" lon="-1.29797">
        <ele>37.599998474121</ele>
        <time>2013-04-21T07:50:43.000Z</time>
      </trkpt>
      <trkpt lat="43.69816" lon="-1.29798">
        <ele>37.599998474121</ele>
        <time>2013-04-21T07:50:44.000Z</time>
      </trkpt>
      <trkpt lat="43.69815" lon="-1.298">
        <ele>37.599998474121</ele>
        <time>2013-04-21T07:50:46.000Z</time>
      </trkpt>
      <trkpt lat="43.69812" lon="-1.29803">
        <ele>37.599998474121</ele>
        <time>2013-04-21T07:50:49.000Z</time>
      </trkpt>
      <trkpt lat="43.69805" lon="-1.29806">
        <ele>37.400001525879</ele>
        <time>2013-04-21T07:50:54.000Z</time>
      </trkpt>
      <trkpt lat="43.698" lon="-1.29813">
        <ele>37.400001525879</ele>
        <time>2013-04-21T07:50:58.000Z</time>
      </trkpt>
      <trkpt lat="43.69799" lon="-1.29817">
        <ele>37.400001525879</ele>
        <time>2013-04-21T07:51:00.000Z</time>
      </trkpt>
      <trkpt lat="43.69798" lon="-1.29823">
        <ele>37.400001525879</ele>
        <time>2013-04-21T07:51:02.000Z</time>
      </trkpt>
      <trkpt lat="43.69797" lon="-1.29834">
        <ele>37.400001525879</ele>
        <time>2013-04-21T07:51:06.000Z</time>
      </trkpt>
      <trkpt lat="43.69794" lon="-1.29838">
        <ele>37.599998474121</ele>
        <time>2013-04-21T07:51:08.000Z</time>
      </trkpt>
      <trkpt lat="43.69793" lon="-1.29845">
        <ele>37.799999237061</ele>
        <time>2013-04-21T07:51:13.000Z</time>
      </trkpt>
      <trkpt lat="43.69793" lon="-1.29846">
        <ele>37.799999237061</ele>
        <time>2013-04-21T07:51:14.000Z</time>
      </trkpt>
      <trkpt lat="43.69796" lon="-1.29852">
        <ele>38</ele>
        <time>2013-04-21T07:51:19.000Z</time>
      </trkpt>
      <trkpt lat="43.698" lon="-1.2986">
        <ele>38.400001525879</ele>
        <time>2013-04-21T07:51:25.000Z</time>
      </trkpt>
      <trkpt lat="43.69808" lon="-1.2986">
        <ele>38.400001525879</ele>
        <time>2013-04-21T07:51:30.000Z</time>
      </trkpt>
      <trkpt lat="43.6981" lon="-1.2986">
        <ele>38.400001525879</ele>
        <time>2013-04-21T07:51:34.000Z</time>
      </trkpt>
      <trkpt lat="43.69811" lon="-1.29861">
        <ele>38.400001525879</ele>
        <time>2013-04-21T07:51:35.000Z</time>
      </trkpt>
      <trkpt lat="43.69813" lon="-1.29864">
        <ele>38.400001525879</ele>
        <time>2013-04-21T07:51:38.000Z</time>
      </trkpt>
      <trkpt lat="43.69818" lon="-1.29865">
        <ele>38.400001525879</ele>
        <time>2013-04-21T07:51:42.000Z</time>
      </trkpt>
      <trkpt lat="43.69819" lon="-1.29864">
        <ele>38.400001525879</ele>
        <time>2013-04-21T07:51:43.000Z</time>
      </trkpt>
      <trkpt lat="43.69823" lon="-1.29868">
        <ele>38.400001525879</ele>
        <time>2013-04-21T07:51:48.000Z</time>
      </trkpt>
      <trkpt lat="43.69823" lon="-1.29873">
        <ele>38.400001525879</ele>
        <time>2013-04-21T07:51:50.000Z</time>
      </trkpt>
      <trkpt lat="43.69825" lon="-1.29877">
        <ele>38.599998474121</ele>
        <time>2013-04-21T07:51:52.000Z</time>
      </trkpt>
      <trkpt lat="43.69826" lon="-1.2988">
        <ele>38.599998474121</ele>
        <time>2013-04-21T07:51:53.000Z</time>
      </trkpt>
      <trkpt lat="43.6983" lon="-1.29891">
        <ele>38.599998474121</ele>
        <time>2013-04-21T07:51:58.000Z</time>
      </trkpt>
      <trkpt lat="43.6983" lon="-1.29895">
        <ele>38.799999237061</ele>
        <time>2013-04-21T07:52:01.000Z</time>
      </trkpt>
      <trkpt lat="43.6983" lon="-1.29896">
        <ele>38.799999237061</ele>
        <time>2013-04-21T07:52:02.000Z</time>
      </trkpt>
      <trkpt lat="43.69831" lon="-1.29903">
        <ele>38.799999237061</ele>
        <time>2013-04-21T07:52:06.000Z</time>
      </trkpt>
      <trkpt lat="43.6983" lon="-1.29911">
        <ele>39</ele>
        <time>2013-04-21T07:52:13.000Z</time>
      </trkpt>
      <trkpt lat="43.6983" lon="-1.29912">
        <ele>39</ele>
        <time>2013-04-21T07:52:14.000Z</time>
      </trkpt>
      <trkpt lat="43.69829" lon="-1.29913">
        <ele>39</ele>
        <time>2013-04-21T07:52:15.000Z</time>
      </trkpt>
      <trkpt lat="43.69829" lon="-1.29917">
        <ele>39</ele>
        <time>2013-04-21T07:52:19.000Z</time>
      </trkpt>
      <trkpt lat="43.69829" lon="-1.29919">
        <ele>39.200000762939</ele>
        <time>2013-04-21T07:52:21.000Z</time>
      </trkpt>
      <trkpt lat="43.69829" lon="-1.29924">
        <ele>39.400001525879</ele>
        <time>2013-04-21T07:52:24.000Z</time>
      </trkpt>
      <trkpt lat="43.69828" lon="-1.29924">
        <ele>39.400001525879</ele>
        <time>2013-04-21T07:52:25.000Z</time>
      </trkpt>
      <trkpt lat="43.69828" lon="-1.29925">
        <ele>39.400001525879</ele>
        <time>2013-04-21T07:52:26.000Z</time>
      </trkpt>
      <trkpt lat="43.69826" lon="-1.29928">
        <ele>39.599998474121</ele>
        <time>2013-04-21T07:52:28.000Z</time>
      </trkpt>
      <trkpt lat="43.69827" lon="-1.29936">
        <ele>39.799999237061</ele>
        <time>2013-04-21T07:52:33.000Z</time>
      </trkpt>
      <trkpt lat="43.69827" lon="-1.29939">
        <ele>40</ele>
        <time>2013-04-21T07:52:35.000Z</time>
      </trkpt>
      <trkpt lat="43.69827" lon="-1.29942">
        <ele>40</ele>
        <time>2013-04-21T07:52:37.000Z</time>
      </trkpt>
      <trkpt lat="43.69827" lon="-1.29946">
        <ele>40.200000762939</ele>
        <time>2013-04-21T07:52:39.000Z</time>
      </trkpt>
      <trkpt lat="43.69827" lon="-1.29953">
        <ele>40.400001525879</ele>
        <time>2013-04-21T07:52:42.000Z</time>
      </trkpt>
      <trkpt lat="43.69827" lon="-1.29957">
        <ele>40.599998474121</ele>
        <time>2013-04-21T07:52:44.000Z</time>
      </trkpt>
      <trkpt lat="43.69828" lon="-1.29964">
        <ele>40.799999237061</ele>
        <time>2013-04-21T07:52:46.000Z</time>
      </trkpt>
      <trkpt lat="43.69829" lon="-1.29971">
        <ele>41.200000762939</ele>
        <time>2013-04-21T07:52:48.000Z</time>
      </trkpt>
      <trkpt lat="43.69827" lon="-1.2999">
        <ele>41.799999237061</ele>
        <time>2013-04-21T07:52:54.000Z</time>
      </trkpt>
      <trkpt lat="43.69828" lon="-1.30008">
        <ele>42.200000762939</ele>
        <time>2013-04-21T07:53:00.000Z</time>
      </trkpt>
      <trkpt lat="43.69827" lon="-1.3001">
        <ele>42.200000762939</ele>
        <time>2013-04-21T07:53:01.000Z</time>
      </trkpt>
      <trkpt lat="43.69827" lon="-1.30019">
        <ele>42</ele>
        <time>2013-04-21T07:53:04.000Z</time>
      </trkpt>
      <trkpt lat="43.69828" lon="-1.30034">
        <ele>41.799999237061</ele>
        <time>2013-04-21T07:53:09.000Z</time>
      </trkpt>
      <trkpt lat="43.69827" lon="-1.30046">
        <ele>41.799999237061</ele>
        <time>2013-04-21T07:53:13.000Z</time>
      </trkpt>
      <trkpt lat="43.69825" lon="-1.30062">
        <ele>41.799999237061</ele>
        <time>2013-04-21T07:53:18.000Z</time>
      </trkpt>
      <trkpt lat="43.69824" lon="-1.3007">
        <ele>41.799999237061</ele>
        <time>2013-04-21T07:53:21.000Z</time>
      </trkpt>
      <trkpt lat="43.69824" lon="-1.30079">
        <ele>41.599998474121</ele>
        <time>2013-04-21T07:53:23.000Z</time>
      </trkpt>
      <trkpt lat="43.69822" lon="-1.30093">
        <ele>41.200000762939</ele>
        <time>2013-04-21T07:53:27.000Z</time>
      </trkpt>
      <trkpt lat="43.69826" lon="-1.30106">
        <ele>40.200000762939</ele>
        <time>2013-04-21T07:53:33.000Z</time>
      </trkpt>
      <trkpt lat="43.69825" lon="-1.30114">
        <ele>39.799999237061</ele>
        <time>2013-04-21T07:53:37.000Z</time>
      </trkpt>
      <trkpt lat="43.69827" lon="-1.30125">
        <ele>39</ele>
        <time>2013-04-21T07:53:42.000Z</time>
      </trkpt>
      <trkpt lat="43.69826" lon="-1.30139">
        <ele>38.400001525879</ele>
        <time>2013-04-21T07:53:48.000Z</time>
      </trkpt>
      <trkpt lat="43.69821" lon="-1.3015">
        <ele>38.200000762939</ele>
        <time>2013-04-21T07:53:53.000Z</time>
      </trkpt>
      <trkpt lat="43.69812" lon="-1.30162">
        <ele>38.599998474121</ele>
        <time>2013-04-21T07:53:58.000Z</time>
      </trkpt>
      <trkpt lat="43.69808" lon="-1.30171">
        <ele>39</ele>
        <time>2013-04-21T07:54:02.000Z</time>
      </trkpt>
      <trkpt lat="43.69806" lon="-1.30188">
        <ele>39</ele>
        <time>2013-04-21T07:54:07.000Z</time>
      </trkpt>
      <trkpt lat="43.69806" lon="-1.30195">
        <ele>39</ele>
        <time>2013-04-21T07:54:09.000Z</time>
      </trkpt>
      <trkpt lat="43.69806" lon="-1.30199">
        <ele>38.799999237061</ele>
        <time>2013-04-21T07:54:11.000Z</time>
      </trkpt>
      <trkpt lat="43.69813" lon="-1.30209">
        <ele>38.200000762939</ele>
        <time>2013-04-21T07:54:16.000Z</time>
      </trkpt>
      <trkpt lat="43.69813" lon="-1.30212">
        <ele>38</ele>
        <time>2013-04-21T07:54:17.000Z</time>
      </trkpt>
      <trkpt lat="43.69815" lon="-1.30217">
        <ele>37.799999237061</ele>
        <time>2013-04-21T07:54:19.000Z</time>
      </trkpt>
      <trkpt lat="43.69815" lon="-1.30224">
        <ele>37.799999237061</ele>
        <time>2013-04-21T07:54:21.000Z</time>
      </trkpt>
      <trkpt lat="43.69823" lon="-1.30233">
        <ele>37</ele>
        <time>2013-04-21T07:54:26.000Z</time>
      </trkpt>
      <trkpt lat="43.69824" lon="-1.30237">
        <ele>36.799999237061</ele>
        <time>2013-04-21T07:54:27.000Z</time>
      </trkpt>
      <trkpt lat="43.69828" lon="-1.30251">
        <ele>36.400001525879</ele>
        <time>2013-04-21T07:54:32.000Z</time>
      </trkpt>
      <trkpt lat="43.69826" lon="-1.30267">
        <ele>36.599998474121</ele>
        <time>2013-04-21T07:54:37.000Z</time>
      </trkpt>
      <trkpt lat="43.69823" lon="-1.3028">
        <ele>37</ele>
        <time>2013-04-21T07:54:42.000Z</time>
      </trkpt>
      <trkpt lat="43.69817" lon="-1.30293">
        <ele>37.599998474121</ele>
        <time>2013-04-21T07:54:48.000Z</time>
      </trkpt>
      <trkpt lat="43.6981" lon="-1.30307">
        <ele>38.400001525879</ele>
        <time>2013-04-21T07:54:54.000Z</time>
      </trkpt>
      <trkpt lat="43.69809" lon="-1.30313">
        <ele>38.400001525879</ele>
        <time>2013-04-21T07:54:56.000Z</time>
      </trkpt>
      <trkpt lat="43.69808" lon="-1.30329">
        <ele>38.599998474121</ele>
        <time>2013-04-21T07:55:00.000Z</time>
      </trkpt>
      <trkpt lat="43.69807" lon="-1.30346">
        <ele>38.400001525879</ele>
        <time>2013-04-21T07:55:06.000Z</time>
      </trkpt>
      <trkpt lat="43.69807" lon="-1.30353">
        <ele>38</ele>
        <time>2013-04-21T07:55:09.000Z</time>
      </trkpt>
      <trkpt lat="43.69806" lon="-1.30361">
        <ele>37.799999237061</ele>
        <time>2013-04-21T07:55:12.000Z</time>
      </trkpt>
      <trkpt lat="43.69807" lon="-1.30369">
        <ele>37.400001525879</ele>
        <time>2013-04-21T07:55:17.000Z</time>
      </trkpt>
      <trkpt lat="43.69809" lon="-1.3037">
        <ele>37.200000762939</ele>
        <time>2013-04-21T07:55:18.000Z</time>
      </trkpt>
      <trkpt lat="43.69813" lon="-1.30378">
        <ele>36.599998474121</ele>
        <time>2013-04-21T07:55:22.000Z</time>
      </trkpt>
      <trkpt lat="43.69812" lon="-1.30387">
        <ele>36.400001525879</ele>
        <time>2013-04-21T07:55:26.000Z</time>
      </trkpt>
      <trkpt lat="43.69814" lon="-1.30397">
        <ele>36</ele>
        <time>2013-04-21T07:55:31.000Z</time>
      </trkpt>
      <trkpt lat="43.69815" lon="-1.30398">
        <ele>35.799999237061</ele>
        <time>2013-04-21T07:55:32.000Z</time>
      </trkpt>
      <trkpt lat="43.69815" lon="-1.30399">
        <ele>35.799999237061</ele>
        <time>2013-04-21T07:55:33.000Z</time>
      </trkpt>
      <trkpt lat="43.69817" lon="-1.30402">
        <ele>35.599998474121</ele>
        <time>2013-04-21T07:55:36.000Z</time>
      </trkpt>
      <trkpt lat="43.6982" lon="-1.30406">
        <ele>35.200000762939</ele>
        <time>2013-04-21T07:55:38.000Z</time>
      </trkpt>
      <trkpt lat="43.69821" lon="-1.30408">
        <ele>35</ele>
        <time>2013-04-21T07:55:39.000Z</time>
      </trkpt>
      <trkpt lat="43.69822" lon="-1.30411">
        <ele>35</ele>
        <time>2013-04-21T07:55:41.000Z</time>
      </trkpt>
      <trkpt lat="43.69822" lon="-1.30419">
        <ele>34.599998474121</ele>
        <time>2013-04-21T07:55:47.000Z</time>
      </trkpt>
      <trkpt lat="43.69817" lon="-1.30425">
        <ele>35</ele>
        <time>2013-04-21T07:55:50.000Z</time>
      </trkpt>
      <trkpt lat="43.69814" lon="-1.3043">
        <ele>35.200000762939</ele>
        <time>2013-04-21T07:55:52.000Z</time>
      </trkpt>
      <trkpt lat="43.69807" lon="-1.30439">
        <ele>35.400001525879</ele>
        <time>2013-04-21T07:55:57.000Z</time>
      </trkpt>
      <trkpt lat="43.69801" lon="-1.30445">
        <ele>35.599998474121</ele>
        <time>2013-04-21T07:56:00.000Z</time>
      </trkpt>
      <trkpt lat="43.69799" lon="-1.30451">
        <ele>35.599998474121</ele>
        <time>2013-04-21T07:56:02.000Z</time>
      </trkpt>
      <trkpt lat="43.69801" lon="-1.30456">
        <ele>35.400001525879</ele>
        <time>2013-04-21T07:56:04.000Z</time>
      </trkpt>
      <trkpt lat="43.69803" lon="-1.30458">
        <ele>35.200000762939</ele>
        <time>2013-04-21T07:56:05.000Z</time>
      </trkpt>
      <trkpt lat="43.69803" lon="-1.3046">
        <ele>35.200000762939</ele>
        <time>2013-04-21T07:56:06.000Z</time>
      </trkpt>
      <trkpt lat="43.69806" lon="-1.30471">
        <ele>34.799999237061</ele>
        <time>2013-04-21T07:56:11.000Z</time>
      </trkpt>
      <trkpt lat="43.69807" lon="-1.3048">
        <ele>34.599998474121</ele>
        <time>2013-04-21T07:56:14.000Z</time>
      </trkpt>
      <trkpt lat="43.69808" lon="-1.30485">
        <ele>34.400001525879</ele>
        <time>2013-04-21T07:56:16.000Z</time>
      </trkpt>
      <trkpt lat="43.69808" lon="-1.305">
        <ele>34.200000762939</ele>
        <time>2013-04-21T07:56:22.000Z</time>
      </trkpt>
      <trkpt lat="43.69812" lon="-1.3051">
        <ele>34.400001525879</ele>
        <time>2013-04-21T07:56:27.000Z</time>
      </trkpt>
      <trkpt lat="43.69812" lon="-1.30513">
        <ele>34.400001525879</ele>
        <time>2013-04-21T07:56:28.000Z</time>
      </trkpt>
      <trkpt lat="43.69812" lon="-1.30521">
        <ele>34.599998474121</ele>
        <time>2013-04-21T07:56:31.000Z</time>
      </trkpt>
      <trkpt lat="43.69815" lon="-1.30533">
        <ele>34.799999237061</ele>
        <time>2013-04-21T07:56:35.000Z</time>
      </trkpt>
      <trkpt lat="43.69816" lon="-1.30536">
        <ele>34.799999237061</ele>
        <time>2013-04-21T07:56:36.000Z</time>
      </trkpt>
      <trkpt lat="43.69815" lon="-1.30539">
        <ele>34.799999237061</ele>
        <time>2013-04-21T07:56:37.000Z</time>
      </trkpt>
      <trkpt lat="43.69817" lon="-1.30547">
        <ele>35</ele>
        <time>2013-04-21T07:56:40.000Z</time>
      </trkpt>
      <trkpt lat="43.69817" lon="-1.30553">
        <ele>35.200000762939</ele>
        <time>2013-04-21T07:56:42.000Z</time>
      </trkpt>
      <trkpt lat="43.69817" lon="-1.3056">
        <ele>35.200000762939</ele>
        <time>2013-04-21T07:56:44.000Z</time>
      </trkpt>
      <trkpt lat="43.69817" lon="-1.30573">
        <ele>35.599998474121</ele>
        <time>2013-04-21T07:56:48.000Z</time>
      </trkpt>
      <trkpt lat="43.69815" lon="-1.30576">
        <ele>35.599998474121</ele>
        <time>2013-04-21T07:56:49.000Z</time>
      </trkpt>
      <trkpt lat="43.6981" lon="-1.30593">
        <ele>35.200000762939</ele>
        <time>2013-04-21T07:56:56.000Z</time>
      </trkpt>
      <trkpt lat="43.69809" lon="-1.30606">
        <ele>34.799999237061</ele>
        <time>2013-04-21T07:57:00.000Z</time>
      </trkpt>
      <trkpt lat="43.69808" lon="-1.30608">
        <ele>34.799999237061</ele>
        <time>2013-04-21T07:57:01.000Z</time>
      </trkpt>
      <trkpt lat="43.69807" lon="-1.30619">
        <ele>34.400001525879</ele>
        <time>2013-04-21T07:57:05.000Z</time>
      </trkpt>
      <trkpt lat="43.69806" lon="-1.3062">
        <ele>34.200000762939</ele>
        <time>2013-04-21T07:57:06.000Z</time>
      </trkpt>
      <trkpt lat="43.69801" lon="-1.30621">
        <ele>34.200000762939</ele>
        <time>2013-04-21T07:57:10.000Z</time>
      </trkpt>
      <trkpt lat="43.69794" lon="-1.30624">
        <ele>34</ele>
        <time>2013-04-21T07:57:15.000Z</time>
      </trkpt>
      <trkpt lat="43.69792" lon="-1.30623">
        <ele>34</ele>
        <time>2013-04-21T07:57:16.000Z</time>
      </trkpt>
      <trkpt lat="43.69786" lon="-1.30623">
        <ele>34</ele>
        <time>2013-04-21T07:57:19.000Z</time>
      </trkpt>
      <trkpt lat="43.69781" lon="-1.30621">
        <ele>34</ele>
        <time>2013-04-21T07:57:23.000Z</time>
      </trkpt>
      <trkpt lat="43.6978" lon="-1.30621">
        <ele>33.799999237061</ele>
        <time>2013-04-21T07:57:24.000Z</time>
      </trkpt>
      <trkpt lat="43.69775" lon="-1.30622">
        <ele>33.799999237061</ele>
        <time>2013-04-21T07:57:27.000Z</time>
      </trkpt>
      <trkpt lat="43.6977" lon="-1.30625">
        <ele>33.599998474121</ele>
        <time>2013-04-21T07:57:29.000Z</time>
      </trkpt>
      <trkpt lat="43.69765" lon="-1.30637">
        <ele>33.200000762939</ele>
        <time>2013-04-21T07:57:34.000Z</time>
      </trkpt>
      <trkpt lat="43.69755" lon="-1.30641">
        <ele>32.799999237061</ele>
        <time>2013-04-21T07:57:38.000Z</time>
      </trkpt>
      <trkpt lat="43.69753" lon="-1.30642">
        <ele>32.799999237061</ele>
        <time>2013-04-21T07:57:39.000Z</time>
      </trkpt>
      <trkpt lat="43.69739" lon="-1.30641">
        <ele>32.599998474121</ele>
        <time>2013-04-21T07:57:45.000Z</time>
      </trkpt>
      <trkpt lat="43.69725" lon="-1.3064">
        <ele>32.400001525879</ele>
        <time>2013-04-21T07:57:51.000Z</time>
      </trkpt>
      <trkpt lat="43.69712" lon="-1.30639">
        <ele>32.200000762939</ele>
        <time>2013-04-21T07:57:56.000Z</time>
      </trkpt>
      <trkpt lat="43.69707" lon="-1.30638">
        <ele>32</ele>
        <time>2013-04-21T07:57:59.000Z</time>
      </trkpt>
      <trkpt lat="43.69706" lon="-1.30637">
        <ele>32</ele>
        <time>2013-04-21T07:58:01.000Z</time>
      </trkpt>
      <trkpt lat="43.69704" lon="-1.30636">
        <ele>32</ele>
        <time>2013-04-21T07:58:07.000Z</time>
      </trkpt>
      <trkpt lat="43.69705" lon="-1.30638">
        <ele>32</ele>
        <time>2013-04-21T07:58:17.000Z</time>
      </trkpt>
      <trkpt lat="43.69703" lon="-1.30638">
        <ele>32</ele>
        <time>2013-04-21T07:58:26.000Z</time>
      </trkpt>
      <trkpt lat="43.69704" lon="-1.30636">
        <ele>32</ele>
        <time>2013-04-21T07:58:37.000Z</time>
      </trkpt>
      <trkpt lat="43.69704" lon="-1.30636">
        <ele>32</ele>
        <time>2013-04-21T07:58:48.000Z</time>
      </trkpt>
      <trkpt lat="43.69701" lon="-1.30635">
        <ele>32</ele>
        <time>2013-04-21T07:59:02.000Z</time>
      </trkpt>
      <trkpt lat="43.69702" lon="-1.30636">
        <ele>32</ele>
        <time>2013-04-21T07:59:24.000Z</time>
      </trkpt>
      <trkpt lat="43.69702" lon="-1.30636">
        <ele>32</ele>
        <time>2013-04-21T07:59:39.000Z</time>
      </trkpt>
      <trkpt lat="43.69699" lon="-1.30638">
        <ele>32</ele>
        <time>2013-04-21T08:00:38.000Z</time>
      </trkpt>
      <trkpt lat="43.697" lon="-1.30637">
        <ele>32</ele>
        <time>2013-04-21T08:00:46.000Z</time>
      </trkpt>
      <trkpt lat="43.697" lon="-1.30638">
        <ele>32</ele>
        <time>2013-04-21T08:00:57.000Z</time>
      </trkpt>
      <trkpt lat="43.69699" lon="-1.30639">
        <ele>31.799999237061</ele>
        <time>2013-04-21T08:01:03.000Z</time>
      </trkpt>
      <trkpt lat="43.69698" lon="-1.30639">
        <ele>31.799999237061</ele>
        <time>2013-04-21T08:01:10.000Z</time>
      </trkpt>
      <trkpt lat="43.69695" lon="-1.3064">
        <ele>31.799999237061</ele>
        <time>2013-04-21T08:01:18.000Z</time>
      </trkpt>
      <trkpt lat="43.69693" lon="-1.30642">
        <ele>31.60000038147</ele>
        <time>2013-04-21T08:01:23.000Z</time>
      </trkpt>
      <trkpt lat="43.69695" lon="-1.30639">
        <ele>31.799999237061</ele>
        <time>2013-04-21T08:01:41.000Z</time>
      </trkpt>
      <trkpt lat="43.69693" lon="-1.30654">
        <ele>31.39999961853</ele>
        <time>2013-04-21T08:01:59.000Z</time>
      </trkpt>
      <trkpt lat="43.69695" lon="-1.30676">
        <ele>31</ele>
        <time>2013-04-21T08:02:05.000Z</time>
      </trkpt>
      <trkpt lat="43.69699" lon="-1.30697">
        <ele>30.799999237061</ele>
        <time>2013-04-21T08:02:11.000Z</time>
      </trkpt>
      <trkpt lat="43.69704" lon="-1.30717">
        <ele>30.39999961853</ele>
        <time>2013-04-21T08:02:17.000Z</time>
      </trkpt>
      <trkpt lat="43.69709" lon="-1.30738">
        <ele>30.200000762939</ele>
        <time>2013-04-21T08:02:23.000Z</time>
      </trkpt>
      <trkpt lat="43.69711" lon="-1.30751">
        <ele>29.799999237061</ele>
        <time>2013-04-21T08:02:27.000Z</time>
      </trkpt>
      <trkpt lat="43.69715" lon="-1.30768">
        <ele>29.60000038147</ele>
        <time>2013-04-21T08:02:32.000Z</time>
      </trkpt>
      <trkpt lat="43.69719" lon="-1.30784">
        <ele>29.39999961853</ele>
        <time>2013-04-21T08:02:37.000Z</time>
      </trkpt>
      <trkpt lat="43.69723" lon="-1.30804">
        <ele>29.200000762939</ele>
        <time>2013-04-21T08:02:43.000Z</time>
      </trkpt>
      <trkpt lat="43.69726" lon="-1.30817">
        <ele>29</ele>
        <time>2013-04-21T08:02:47.000Z</time>
      </trkpt>
      <trkpt lat="43.6973" lon="-1.30836">
        <ele>28.799999237061</ele>
        <time>2013-04-21T08:02:52.000Z</time>
      </trkpt>
      <trkpt lat="43.69731" lon="-1.30847">
        <ele>28.799999237061</ele>
        <time>2013-04-21T08:02:55.000Z</time>
      </trkpt>
      <trkpt lat="43.69733" lon="-1.30855">
        <ele>28.60000038147</ele>
        <time>2013-04-21T08:02:57.000Z</time>
      </trkpt>
      <trkpt lat="43.69735" lon="-1.30873">
        <ele>28.60000038147</ele>
        <time>2013-04-21T08:03:02.000Z</time>
      </trkpt>
      <trkpt lat="43.69738" lon="-1.30894">
        <ele>28.200000762939</ele>
        <time>2013-04-21T08:03:08.000Z</time>
      </trkpt>
      <trkpt lat="43.69741" lon="-1.30906">
        <ele>28.200000762939</ele>
        <time>2013-04-21T08:03:12.000Z</time>
      </trkpt>
      <trkpt lat="43.69743" lon="-1.30925">
        <ele>27.799999237061</ele>
        <time>2013-04-21T08:03:17.000Z</time>
      </trkpt>
      <trkpt lat="43.69746" lon="-1.30947">
        <ele>27</ele>
        <time>2013-04-21T08:03:23.000Z</time>
      </trkpt>
      <trkpt lat="43.69749" lon="-1.30969">
        <ele>26</ele>
        <time>2013-04-21T08:03:29.000Z</time>
      </trkpt>
      <trkpt lat="43.69752" lon="-1.30994">
        <ele>25.200000762939</ele>
        <time>2013-04-21T08:03:36.000Z</time>
      </trkpt>
      <trkpt lat="43.69755" lon="-1.3102">
        <ele>25.200000762939</ele>
        <time>2013-04-21T08:03:43.000Z</time>
      </trkpt>
      <trkpt lat="43.6976" lon="-1.31045">
        <ele>25.39999961853</ele>
        <time>2013-04-21T08:03:50.000Z</time>
      </trkpt>
      <trkpt lat="43.69764" lon="-1.31063">
        <ele>25.39999961853</ele>
        <time>2013-04-21T08:03:55.000Z</time>
      </trkpt>
      <trkpt lat="43.69767" lon="-1.31075">
        <ele>25.39999961853</ele>
        <time>2013-04-21T08:03:59.000Z</time>
      </trkpt>
      <trkpt lat="43.69772" lon="-1.31097">
        <ele>25.60000038147</ele>
        <time>2013-04-21T08:04:06.000Z</time>
      </trkpt>
      <trkpt lat="43.69769" lon="-1.3111">
        <ele>25.799999237061</ele>
        <time>2013-04-21T08:04:10.000Z</time>
      </trkpt>
      <trkpt lat="43.69761" lon="-1.31122">
        <ele>26.200000762939</ele>
        <time>2013-04-21T08:04:15.000Z</time>
      </trkpt>
      <trkpt lat="43.69752" lon="-1.31132">
        <ele>26.60000038147</ele>
        <time>2013-04-21T08:04:20.000Z</time>
      </trkpt>
      <trkpt lat="43.69743" lon="-1.31141">
        <ele>27.200000762939</ele>
        <time>2013-04-21T08:04:24.000Z</time>
      </trkpt>
      <trkpt lat="43.69732" lon="-1.31152">
        <ele>27.799999237061</ele>
        <time>2013-04-21T08:04:29.000Z</time>
      </trkpt>
      <trkpt lat="43.6972" lon="-1.31166">
        <ele>28.60000038147</ele>
        <time>2013-04-21T08:04:35.000Z</time>
      </trkpt>
      <trkpt lat="43.69711" lon="-1.31175">
        <ele>29</ele>
        <time>2013-04-21T08:04:40.000Z</time>
      </trkpt>
      <trkpt lat="43.69702" lon="-1.31184">
        <ele>29.39999961853</ele>
        <time>2013-04-21T08:04:45.000Z</time>
      </trkpt>
      <trkpt lat="43.69693" lon="-1.31195">
        <ele>29.799999237061</ele>
        <time>2013-04-21T08:04:50.000Z</time>
      </trkpt>
      <trkpt lat="43.69692" lon="-1.31197">
        <ele>30</ele>
        <time>2013-04-21T08:04:51.000Z</time>
      </trkpt>
      <trkpt lat="43.69679" lon="-1.31209">
        <ele>30.60000038147</ele>
        <time>2013-04-21T08:04:57.000Z</time>
      </trkpt>
      <trkpt lat="43.69668" lon="-1.31217">
        <ele>31</ele>
        <time>2013-04-21T08:05:02.000Z</time>
      </trkpt>
      <trkpt lat="43.69657" lon="-1.3123">
        <ele>31.60000038147</ele>
        <time>2013-04-21T08:05:08.000Z</time>
      </trkpt>
      <trkpt lat="43.69646" lon="-1.31244">
        <ele>32</ele>
        <time>2013-04-21T08:05:14.000Z</time>
      </trkpt>
      <trkpt lat="43.69637" lon="-1.31254">
        <ele>32.200000762939</ele>
        <time>2013-04-21T08:05:19.000Z</time>
      </trkpt>
      <trkpt lat="43.69624" lon="-1.31267">
        <ele>32.200000762939</ele>
        <time>2013-04-21T08:05:25.000Z</time>
      </trkpt>
      <trkpt lat="43.69611" lon="-1.31282">
        <ele>32</ele>
        <time>2013-04-21T08:05:32.000Z</time>
      </trkpt>
      <trkpt lat="43.69598" lon="-1.31295">
        <ele>32</ele>
        <time>2013-04-21T08:05:38.000Z</time>
      </trkpt>
      <trkpt lat="43.69586" lon="-1.31305">
        <ele>32.200000762939</ele>
        <time>2013-04-21T08:05:44.000Z</time>
      </trkpt>
      <trkpt lat="43.69573" lon="-1.31316">
        <ele>32</ele>
        <time>2013-04-21T08:05:50.000Z</time>
      </trkpt>
      <trkpt lat="43.69562" lon="-1.31325">
        <ele>32</ele>
        <time>2013-04-21T08:05:55.000Z</time>
      </trkpt>
      <trkpt lat="43.69553" lon="-1.31332">
        <ele>31.799999237061</ele>
        <time>2013-04-21T08:06:00.000Z</time>
      </trkpt>
      <trkpt lat="43.69539" lon="-1.31345">
        <ele>31.799999237061</ele>
        <time>2013-04-21T08:06:07.000Z</time>
      </trkpt>
      <trkpt lat="43.69525" lon="-1.3135">
        <ele>31.799999237061</ele>
        <time>2013-04-21T08:06:13.000Z</time>
      </trkpt>
      <trkpt lat="43.69511" lon="-1.31351">
        <ele>31.799999237061</ele>
        <time>2013-04-21T08:06:19.000Z</time>
      </trkpt>
      <trkpt lat="43.69499" lon="-1.31349">
        <ele>32</ele>
        <time>2013-04-21T08:06:25.000Z</time>
      </trkpt>
      <trkpt lat="43.69483" lon="-1.31347">
        <ele>32</ele>
        <time>2013-04-21T08:06:31.000Z</time>
      </trkpt>
      <trkpt lat="43.69468" lon="-1.31343">
        <ele>32.200000762939</ele>
        <time>2013-04-21T08:06:37.000Z</time>
      </trkpt>
      <trkpt lat="43.6945" lon="-1.31339">
        <ele>32.400001525879</ele>
        <time>2013-04-21T08:06:44.000Z</time>
      </trkpt>
      <trkpt lat="43.69436" lon="-1.31338">
        <ele>32.599998474121</ele>
        <time>2013-04-21T08:06:50.000Z</time>
      </trkpt>
      <trkpt lat="43.69424" lon="-1.3134">
        <ele>32.799999237061</ele>
        <time>2013-04-21T08:06:55.000Z</time>
      </trkpt>
      <trkpt lat="43.69408" lon="-1.31344">
        <ele>33</ele>
        <time>2013-04-21T08:07:02.000Z</time>
      </trkpt>
      <trkpt lat="43.69394" lon="-1.31341">
        <ele>33.200000762939</ele>
        <time>2013-04-21T08:07:07.000Z</time>
      </trkpt>
      <trkpt lat="43.69381" lon="-1.31342">
        <ele>33.400001525879</ele>
        <time>2013-04-21T08:07:12.000Z</time>
      </trkpt>
      <trkpt lat="43.69378" lon="-1.31343">
        <ele>33.400001525879</ele>
        <time>2013-04-21T08:07:14.000Z</time>
      </trkpt>
      <trkpt lat="43.6937" lon="-1.31345">
        <ele>33.400001525879</ele>
        <time>2013-04-21T08:07:17.000Z</time>
      </trkpt>
      <trkpt lat="43.69362" lon="-1.31344">
        <ele>33.599998474121</ele>
        <time>2013-04-21T08:07:20.000Z</time>
      </trkpt>
      <trkpt lat="43.69358" lon="-1.31344">
        <ele>33.599998474121</ele>
        <time>2013-04-21T08:07:22.000Z</time>
      </trkpt>
      <trkpt lat="43.69345" lon="-1.31346">
        <ele>33.799999237061</ele>
        <time>2013-04-21T08:07:27.000Z</time>
      </trkpt>
      <trkpt lat="43.69332" lon="-1.31345">
        <ele>34</ele>
        <time>2013-04-21T08:07:32.000Z</time>
      </trkpt>
      <trkpt lat="43.69317" lon="-1.31347">
        <ele>34.400001525879</ele>
        <time>2013-04-21T08:07:38.000Z</time>
      </trkpt>
      <trkpt lat="43.69304" lon="-1.31351">
        <ele>34.799999237061</ele>
        <time>2013-04-21T08:07:43.000Z</time>
      </trkpt>
      <trkpt lat="43.69288" lon="-1.31354">
        <ele>35.200000762939</ele>
        <time>2013-04-21T08:07:49.000Z</time>
      </trkpt>
      <trkpt lat="43.69276" lon="-1.31356">
        <ele>35.599998474121</ele>
        <time>2013-04-21T08:07:54.000Z</time>
      </trkpt>
      <trkpt lat="43.69263" lon="-1.31359">
        <ele>36</ele>
        <time>2013-04-21T08:07:59.000Z</time>
      </trkpt>
      <trkpt lat="43.69248" lon="-1.31362">
        <ele>36.599998474121</ele>
        <time>2013-04-21T08:08:05.000Z</time>
      </trkpt>
      <trkpt lat="43.69231" lon="-1.31368">
        <ele>36.400001525879</ele>
        <time>2013-04-21T08:08:13.000Z</time>
      </trkpt>
      <trkpt lat="43.69218" lon="-1.31371">
        <ele>36.200000762939</ele>
        <time>2013-04-21T08:08:18.000Z</time>
      </trkpt>
      <trkpt lat="43.69209" lon="-1.31374">
        <ele>36.200000762939</ele>
        <time>2013-04-21T08:08:22.000Z</time>
      </trkpt>
      <trkpt lat="43.69199" lon="-1.31377">
        <ele>36</ele>
        <time>2013-04-21T08:08:27.000Z</time>
      </trkpt>
      <trkpt lat="43.69186" lon="-1.31378">
        <ele>35.599998474121</ele>
        <time>2013-04-21T08:08:32.000Z</time>
      </trkpt>
      <trkpt lat="43.69173" lon="-1.3138">
        <ele>35.200000762939</ele>
        <time>2013-04-21T08:08:37.000Z</time>
      </trkpt>
      <trkpt lat="43.69155" lon="-1.31382">
        <ele>35</ele>
        <time>2013-04-21T08:08:44.000Z</time>
      </trkpt>
      <trkpt lat="43.69141" lon="-1.31385">
        <ele>35.200000762939</ele>
        <time>2013-04-21T08:08:50.000Z</time>
      </trkpt>
      <trkpt lat="43.69126" lon="-1.31388">
        <ele>35.200000762939</ele>
        <time>2013-04-21T08:08:56.000Z</time>
      </trkpt>
      <trkpt lat="43.69108" lon="-1.31393">
        <ele>35.200000762939</ele>
        <time>2013-04-21T08:09:03.000Z</time>
      </trkpt>
      <trkpt lat="43.69105" lon="-1.31394">
        <ele>35.400001525879</ele>
        <time>2013-04-21T08:09:04.000Z</time>
      </trkpt>
      <trkpt lat="43.69093" lon="-1.31396">
        <ele>35.400001525879</ele>
        <time>2013-04-21T08:09:09.000Z</time>
      </trkpt>
      <trkpt lat="43.69081" lon="-1.31397">
        <ele>35.400001525879</ele>
        <time>2013-04-21T08:09:14.000Z</time>
      </trkpt>
      <trkpt lat="43.69069" lon="-1.31402">
        <ele>35.799999237061</ele>
        <time>2013-04-21T08:09:20.000Z</time>
      </trkpt>
      <trkpt lat="43.69053" lon="-1.31405">
        <ele>36.400001525879</ele>
        <time>2013-04-21T08:09:26.000Z</time>
      </trkpt>
      <trkpt lat="43.69039" lon="-1.31408">
        <ele>36.799999237061</ele>
        <time>2013-04-21T08:09:31.000Z</time>
      </trkpt>
      <trkpt lat="43.69025" lon="-1.31417">
        <ele>37</ele>
        <time>2013-04-21T08:09:37.000Z</time>
      </trkpt>
      <trkpt lat="43.69013" lon="-1.31425">
        <ele>37</ele>
        <time>2013-04-21T08:09:42.000Z</time>
      </trkpt>
      <trkpt lat="43.68999" lon="-1.31434">
        <ele>36.799999237061</ele>
        <time>2013-04-21T08:09:48.000Z</time>
      </trkpt>
      <trkpt lat="43.68983" lon="-1.31447">
        <ele>35.400001525879</ele>
        <time>2013-04-21T08:09:55.000Z</time>
      </trkpt>
      <trkpt lat="43.68971" lon="-1.31457">
        <ele>34.599998474121</ele>
        <time>2013-04-21T08:10:01.000Z</time>
      </trkpt>
      <trkpt lat="43.68956" lon="-1.31466">
        <ele>33.799999237061</ele>
        <time>2013-04-21T08:10:08.000Z</time>
      </trkpt>
      <trkpt lat="43.68945" lon="-1.31477">
        <ele>33</ele>
        <time>2013-04-21T08:10:13.000Z</time>
      </trkpt>
      <trkpt lat="43.68932" lon="-1.31491">
        <ele>32.400001525879</ele>
        <time>2013-04-21T08:10:19.000Z</time>
      </trkpt>
      <trkpt lat="43.68924" lon="-1.31501">
        <ele>32</ele>
        <time>2013-04-21T08:10:24.000Z</time>
      </trkpt>
      <trkpt lat="43.68916" lon="-1.31509">
        <ele>32.200000762939</ele>
        <time>2013-04-21T08:10:28.000Z</time>
      </trkpt>
      <trkpt lat="43.68905" lon="-1.3152">
        <ele>32.400001525879</ele>
        <time>2013-04-21T08:10:34.000Z</time>
      </trkpt>
      <trkpt lat="43.68894" lon="-1.31535">
        <ele>32.799999237061</ele>
        <time>2013-04-21T08:10:40.000Z</time>
      </trkpt>
      <trkpt lat="43.68886" lon="-1.3155">
        <ele>33.200000762939</ele>
        <time>2013-04-21T08:10:45.000Z</time>
      </trkpt>
      <trkpt lat="43.68879" lon="-1.31564">
        <ele>33.599998474121</ele>
        <time>2013-04-21T08:10:50.000Z</time>
      </trkpt>
      <trkpt lat="43.6887" lon="-1.31583">
        <ele>34.400001525879</ele>
        <time>2013-04-21T08:10:56.000Z</time>
      </trkpt>
      <trkpt lat="43.68863" lon="-1.31597">
        <ele>34.400001525879</ele>
        <time>2013-04-21T08:11:01.000Z</time>
      </trkpt>
      <trkpt lat="43.68853" lon="-1.31612">
        <ele>34.400001525879</ele>
        <time>2013-04-21T08:11:07.000Z</time>
      </trkpt>
      <trkpt lat="43.68852" lon="-1.31613">
        <ele>34.400001525879</ele>
        <time>2013-04-21T08:11:08.000Z</time>
      </trkpt>
      <trkpt lat="43.68847" lon="-1.31609">
        <ele>34.400001525879</ele>
        <time>2013-04-21T08:11:11.000Z</time>
      </trkpt>
      <trkpt lat="43.68847" lon="-1.31599">
        <ele>34.599998474121</ele>
        <time>2013-04-21T08:11:14.000Z</time>
      </trkpt>
      <trkpt lat="43.68846" lon="-1.31596">
        <ele>34.599998474121</ele>
        <time>2013-04-21T08:11:15.000Z</time>
      </trkpt>
      <trkpt lat="43.68842" lon="-1.31574">
        <ele>34.400001525879</ele>
        <time>2013-04-21T08:11:22.000Z</time>
      </trkpt>
      <trkpt lat="43.68837" lon="-1.31558">
        <ele>33.599998474121</ele>
        <time>2013-04-21T08:11:28.000Z</time>
      </trkpt>
      <trkpt lat="43.68829" lon="-1.31536">
        <ele>32.599998474121</ele>
        <time>2013-04-21T08:11:36.000Z</time>
      </trkpt>
      <trkpt lat="43.68824" lon="-1.31518">
        <ele>31.60000038147</ele>
        <time>2013-04-21T08:11:42.000Z</time>
      </trkpt>
      <trkpt lat="43.68819" lon="-1.31503">
        <ele>31</ele>
        <time>2013-04-21T08:11:47.000Z</time>
      </trkpt>
      <trkpt lat="43.68815" lon="-1.31488">
        <ele>31</ele>
        <time>2013-04-21T08:11:52.000Z</time>
      </trkpt>
      <trkpt lat="43.68809" lon="-1.3147">
        <ele>31</ele>
        <time>2013-04-21T08:11:58.000Z</time>
      </trkpt>
      <trkpt lat="43.68799" lon="-1.31454">
        <ele>31.200000762939</ele>
        <time>2013-04-21T08:12:04.000Z</time>
      </trkpt>
      <trkpt lat="43.6879" lon="-1.31444">
        <ele>31.200000762939</ele>
        <time>2013-04-21T08:12:09.000Z</time>
      </trkpt>
      <trkpt lat="43.68781" lon="-1.31435">
        <ele>31.39999961853</ele>
        <time>2013-04-21T08:12:14.000Z</time>
      </trkpt>
      <trkpt lat="43.68771" lon="-1.31427">
        <ele>31.60000038147</ele>
        <time>2013-04-21T08:12:19.000Z</time>
      </trkpt>
      <trkpt lat="43.68768" lon="-1.31425">
        <ele>31.60000038147</ele>
        <time>2013-04-21T08:12:21.000Z</time>
      </trkpt>
      <trkpt lat="43.68762" lon="-1.31418">
        <ele>31.799999237061</ele>
        <time>2013-04-21T08:12:24.000Z</time>
      </trkpt>
      <trkpt lat="43.68758" lon="-1.31416">
        <ele>31.799999237061</ele>
        <time>2013-04-21T08:12:26.000Z</time>
      </trkpt>
      <trkpt lat="43.68754" lon="-1.31412">
        <ele>32</ele>
        <time>2013-04-21T08:12:28.000Z</time>
      </trkpt>
      <trkpt lat="43.68749" lon="-1.31409">
        <ele>32.200000762939</ele>
        <time>2013-04-21T08:12:30.000Z</time>
      </trkpt>
      <trkpt lat="43.68739" lon="-1.31405">
        <ele>32.200000762939</ele>
        <time>2013-04-21T08:12:34.000Z</time>
      </trkpt>
      <trkpt lat="43.68727" lon="-1.31397">
        <ele>32.200000762939</ele>
        <time>2013-04-21T08:12:39.000Z</time>
      </trkpt>
      <trkpt lat="43.68716" lon="-1.31392">
        <ele>32</ele>
        <time>2013-04-21T08:12:44.000Z</time>
      </trkpt>
      <trkpt lat="43.68708" lon="-1.31389">
        <ele>32</ele>
        <time>2013-04-21T08:12:49.000Z</time>
      </trkpt>
      <trkpt lat="43.68706" lon="-1.31387">
        <ele>31.799999237061</ele>
        <time>2013-04-21T08:12:50.000Z</time>
      </trkpt>
      <trkpt lat="43.68701" lon="-1.31383">
        <ele>31.799999237061</ele>
        <time>2013-04-21T08:12:53.000Z</time>
      </trkpt>
      <trkpt lat="43.68698" lon="-1.31381">
        <ele>31.799999237061</ele>
        <time>2013-04-21T08:12:55.000Z</time>
      </trkpt>
      <trkpt lat="43.68695" lon="-1.31381">
        <ele>31.799999237061</ele>
        <time>2013-04-21T08:13:01.000Z</time>
      </trkpt>
      <trkpt lat="43.68694" lon="-1.31381">
        <ele>31.60000038147</ele>
        <time>2013-04-21T08:13:02.000Z</time>
      </trkpt>
      <trkpt lat="43.68693" lon="-1.31388">
        <ele>31.39999961853</ele>
        <time>2013-04-21T08:13:06.000Z</time>
      </trkpt>
      <trkpt lat="43.68693" lon="-1.31389">
        <ele>31.39999961853</ele>
        <time>2013-04-21T08:13:07.000Z</time>
      </trkpt>
      <trkpt lat="43.68692" lon="-1.31392">
        <ele>31.200000762939</ele>
        <time>2013-04-21T08:13:11.000Z</time>
      </trkpt>
      <trkpt lat="43.6869" lon="-1.31393">
        <ele>31.200000762939</ele>
        <time>2013-04-21T08:13:13.000Z</time>
      </trkpt>
      <trkpt lat="43.68689" lon="-1.31394">
        <ele>31.200000762939</ele>
        <time>2013-04-21T08:13:15.000Z</time>
      </trkpt>
      <trkpt lat="43.68688" lon="-1.31395">
        <ele>31</ele>
        <time>2013-04-21T08:13:16.000Z</time>
      </trkpt>
      <trkpt lat="43.68688" lon="-1.31397">
        <ele>31</ele>
        <time>2013-04-21T08:13:19.000Z</time>
      </trkpt>
      <trkpt lat="43.68691" lon="-1.31399">
        <ele>31</ele>
        <time>2013-04-21T08:13:31.000Z</time>
      </trkpt>
      <trkpt lat="43.6869" lon="-1.31399">
        <ele>31</ele>
        <time>2013-04-21T08:13:42.000Z</time>
      </trkpt>
      <trkpt lat="43.68688" lon="-1.31396">
        <ele>31</ele>
        <time>2013-04-21T08:13:48.000Z</time>
      </trkpt>
      <trkpt lat="43.68688" lon="-1.31395">
        <ele>31</ele>
        <time>2013-04-21T08:14:04.000Z</time>
      </trkpt>
      <trkpt lat="43.68685" lon="-1.31399">
        <ele>30.799999237061</ele>
        <time>2013-04-21T08:14:11.000Z</time>
      </trkpt>
      <trkpt lat="43.68682" lon="-1.31402">
        <ele>30.60000038147</ele>
        <time>2013-04-21T08:14:15.000Z</time>
      </trkpt>
      <trkpt lat="43.68682" lon="-1.31402">
        <ele>30.60000038147</ele>
        <time>2013-04-21T08:14:16.000Z</time>
      </trkpt>
      <trkpt lat="43.6868" lon="-1.31405">
        <ele>30.60000038147</ele>
        <time>2013-04-21T08:14:26.000Z</time>
      </trkpt>
      <trkpt lat="43.68677" lon="-1.31412">
        <ele>30.200000762939</ele>
        <time>2013-04-21T08:14:32.000Z</time>
      </trkpt>
      <trkpt lat="43.68677" lon="-1.31413">
        <ele>30.200000762939</ele>
        <time>2013-04-21T08:14:34.000Z</time>
      </trkpt>
      <trkpt lat="43.68676" lon="-1.31415">
        <ele>30.200000762939</ele>
        <time>2013-04-21T08:14:36.000Z</time>
      </trkpt>
      <trkpt lat="43.68675" lon="-1.31418">
        <ele>30.200000762939</ele>
        <time>2013-04-21T08:14:38.000Z</time>
      </trkpt>
      <trkpt lat="43.68671" lon="-1.31425">
        <ele>30.200000762939</ele>
        <time>2013-04-21T08:14:43.000Z</time>
      </trkpt>
      <trkpt lat="43.68669" lon="-1.31427">
        <ele>30.200000762939</ele>
        <time>2013-04-21T08:14:45.000Z</time>
      </trkpt>
      <trkpt lat="43.68665" lon="-1.31435">
        <ele>30.39999961853</ele>
        <time>2013-04-21T08:14:50.000Z</time>
      </trkpt>
      <trkpt lat="43.68661" lon="-1.31441">
        <ele>31</ele>
        <time>2013-04-21T08:14:53.000Z</time>
      </trkpt>
      <trkpt lat="43.68659" lon="-1.31446">
        <ele>31.39999961853</ele>
        <time>2013-04-21T08:14:55.000Z</time>
      </trkpt>
      <trkpt lat="43.6866" lon="-1.31452">
        <ele>31.39999961853</ele>
        <time>2013-04-21T08:14:59.000Z</time>
      </trkpt>
      <trkpt lat="43.68659" lon="-1.31454">
        <ele>31.60000038147</ele>
        <time>2013-04-21T08:15:01.000Z</time>
      </trkpt>
      <trkpt lat="43.68662" lon="-1.31462">
        <ele>31.39999961853</ele>
        <time>2013-04-21T08:15:05.000Z</time>
      </trkpt>
      <trkpt lat="43.68665" lon="-1.31468">
        <ele>31.200000762939</ele>
        <time>2013-04-21T08:15:09.000Z</time>
      </trkpt>
      <trkpt lat="43.68666" lon="-1.31468">
        <ele>31.200000762939</ele>
        <time>2013-04-21T08:15:10.000Z</time>
      </trkpt>
      <trkpt lat="43.68668" lon="-1.31469">
        <ele>31.200000762939</ele>
        <time>2013-04-21T08:15:12.000Z</time>
      </trkpt>
      <trkpt lat="43.68671" lon="-1.31471">
        <ele>31.200000762939</ele>
        <time>2013-04-21T08:15:16.000Z</time>
      </trkpt>
      <trkpt lat="43.68673" lon="-1.31474">
        <ele>31.200000762939</ele>
        <time>2013-04-21T08:15:28.000Z</time>
      </trkpt>
      <trkpt lat="43.68676" lon="-1.31478">
        <ele>31.39999961853</ele>
        <time>2013-04-21T08:15:41.000Z</time>
      </trkpt>
      <trkpt lat="43.68682" lon="-1.31483">
        <ele>31.39999961853</ele>
        <time>2013-04-21T08:15:44.000Z</time>
      </trkpt>
      <trkpt lat="43.68682" lon="-1.3149">
        <ele>31.60000038147</ele>
        <time>2013-04-21T08:15:48.000Z</time>
      </trkpt>
      <trkpt lat="43.68682" lon="-1.31492">
        <ele>31.60000038147</ele>
        <time>2013-04-21T08:15:50.000Z</time>
      </trkpt>
      <trkpt lat="43.68681" lon="-1.31495">
        <ele>31.60000038147</ele>
        <time>2013-04-21T08:15:52.000Z</time>
      </trkpt>
      <trkpt lat="43.68681" lon="-1.31497">
        <ele>31.60000038147</ele>
        <time>2013-04-21T08:15:54.000Z</time>
      </trkpt>
      <trkpt lat="43.68677" lon="-1.315">
        <ele>31.799999237061</ele>
        <time>2013-04-21T08:15:58.000Z</time>
      </trkpt>
      <trkpt lat="43.68668" lon="-1.31503">
        <ele>31.799999237061</ele>
        <time>2013-04-21T08:16:03.000Z</time>
      </trkpt>
      <trkpt lat="43.68663" lon="-1.31508">
        <ele>31.799999237061</ele>
        <time>2013-04-21T08:16:07.000Z</time>
      </trkpt>
      <trkpt lat="43.68662" lon="-1.31509">
        <ele>31.799999237061</ele>
        <time>2013-04-21T08:16:08.000Z</time>
      </trkpt>
      <trkpt lat="43.68661" lon="-1.31509">
        <ele>32</ele>
        <time>2013-04-21T08:16:09.000Z</time>
      </trkpt>
      <trkpt lat="43.68659" lon="-1.31511">
        <ele>32</ele>
        <time>2013-04-21T08:16:13.000Z</time>
      </trkpt>
      <trkpt lat="43.68657" lon="-1.31511">
        <ele>32.200000762939</ele>
        <time>2013-04-21T08:16:14.000Z</time>
      </trkpt>
      <trkpt lat="43.68655" lon="-1.3151">
        <ele>32.400001525879</ele>
        <time>2013-04-21T08:16:18.000Z</time>
      </trkpt>
      <trkpt lat="43.68651" lon="-1.31511">
        <ele>32.599998474121</ele>
        <time>2013-04-21T08:16:25.000Z</time>
      </trkpt>
      <trkpt lat="43.6865" lon="-1.31516">
        <ele>32.599998474121</ele>
        <time>2013-04-21T08:16:41.000Z</time>
      </trkpt>
      <trkpt lat="43.68645" lon="-1.31518">
        <ele>32.799999237061</ele>
        <time>2013-04-21T08:16:46.000Z</time>
      </trkpt>
      <trkpt lat="43.68637" lon="-1.3152">
        <ele>33.400001525879</ele>
        <time>2013-04-21T08:16:50.000Z</time>
      </trkpt>
      <trkpt lat="43.68626" lon="-1.31517">
        <ele>34.400001525879</ele>
        <time>2013-04-21T08:16:56.000Z</time>
      </trkpt>
      <trkpt lat="43.68623" lon="-1.31516">
        <ele>34.599998474121</ele>
        <time>2013-04-21T08:16:59.000Z</time>
      </trkpt>
      <trkpt lat="43.68619" lon="-1.31519">
        <ele>34.799999237061</ele>
        <time>2013-04-21T08:17:02.000Z</time>
      </trkpt>
      <trkpt lat="43.68613" lon="-1.31523">
        <ele>35.200000762939</ele>
        <time>2013-04-21T08:17:06.000Z</time>
      </trkpt>
      <trkpt lat="43.68602" lon="-1.31531">
        <ele>35.599998474121</ele>
        <time>2013-04-21T08:17:12.000Z</time>
      </trkpt>
      <trkpt lat="43.68598" lon="-1.31532">
        <ele>35.799999237061</ele>
        <time>2013-04-21T08:17:15.000Z</time>
      </trkpt>
      <trkpt lat="43.68596" lon="-1.31534">
        <ele>36</ele>
        <time>2013-04-21T08:17:17.000Z</time>
      </trkpt>
      <trkpt lat="43.68596" lon="-1.31539">
        <ele>35.599998474121</ele>
        <time>2013-04-21T08:17:20.000Z</time>
      </trkpt>
      <trkpt lat="43.68596" lon="-1.3154">
        <ele>35.400001525879</ele>
        <time>2013-04-21T08:17:21.000Z</time>
      </trkpt>
      <trkpt lat="43.68591" lon="-1.31546">
        <ele>35.599998474121</ele>
        <time>2013-04-21T08:17:33.000Z</time>
      </trkpt>
      <trkpt lat="43.6858" lon="-1.31549">
        <ele>36</ele>
        <time>2013-04-21T08:17:37.000Z</time>
      </trkpt>
      <trkpt lat="43.68571" lon="-1.31551">
        <ele>35.799999237061</ele>
        <time>2013-04-21T08:17:42.000Z</time>
      </trkpt>
      <trkpt lat="43.68569" lon="-1.31548">
        <ele>35.799999237061</ele>
        <time>2013-04-21T08:17:44.000Z</time>
      </trkpt>
      <trkpt lat="43.68567" lon="-1.31545">
        <ele>36</ele>
        <time>2013-04-21T08:17:47.000Z</time>
      </trkpt>
      <trkpt lat="43.68562" lon="-1.3154">
        <ele>36.200000762939</ele>
        <time>2013-04-21T08:17:51.000Z</time>
      </trkpt>
      <trkpt lat="43.68561" lon="-1.3154">
        <ele>36.200000762939</ele>
        <time>2013-04-21T08:17:53.000Z</time>
      </trkpt>
      <trkpt lat="43.68561" lon="-1.31537">
        <ele>36.400001525879</ele>
        <time>2013-04-21T08:17:57.000Z</time>
      </trkpt>
      <trkpt lat="43.68558" lon="-1.31534">
        <ele>36.400001525879</ele>
        <time>2013-04-21T08:18:03.000Z</time>
      </trkpt>
      <trkpt lat="43.68554" lon="-1.31531">
        <ele>36.599998474121</ele>
        <time>2013-04-21T08:18:09.000Z</time>
      </trkpt>
      <trkpt lat="43.68552" lon="-1.31533">
        <ele>36.400001525879</ele>
        <time>2013-04-21T08:18:15.000Z</time>
      </trkpt>
      <trkpt lat="43.68552" lon="-1.31537">
        <ele>36.200000762939</ele>
        <time>2013-04-21T08:18:17.000Z</time>
      </trkpt>
      <trkpt lat="43.68549" lon="-1.31541">
        <ele>36</ele>
        <time>2013-04-21T08:18:20.000Z</time>
      </trkpt>
      <trkpt lat="43.68549" lon="-1.31541">
        <ele>36</ele>
        <time>2013-04-21T08:18:21.000Z</time>
      </trkpt>
      <trkpt lat="43.68546" lon="-1.31542">
        <ele>36</ele>
        <time>2013-04-21T08:18:23.000Z</time>
      </trkpt>
      <trkpt lat="43.68541" lon="-1.3154">
        <ele>36</ele>
        <time>2013-04-21T08:18:26.000Z</time>
      </trkpt>
      <trkpt lat="43.68536" lon="-1.31538">
        <ele>36</ele>
        <time>2013-04-21T08:18:29.000Z</time>
      </trkpt>
      <trkpt lat="43.68533" lon="-1.31537">
        <ele>36</ele>
        <time>2013-04-21T08:18:31.000Z</time>
      </trkpt>
      <trkpt lat="43.68528" lon="-1.31534">
        <ele>36</ele>
        <time>2013-04-21T08:18:35.000Z</time>
      </trkpt>
      <trkpt lat="43.68527" lon="-1.31533">
        <ele>36</ele>
        <time>2013-04-21T08:18:36.000Z</time>
      </trkpt>
      <trkpt lat="43.68521" lon="-1.31528">
        <ele>36</ele>
        <time>2013-04-21T08:18:42.000Z</time>
      </trkpt>
      <trkpt lat="43.6852" lon="-1.31527">
        <ele>36</ele>
        <time>2013-04-21T08:18:43.000Z</time>
      </trkpt>
      <trkpt lat="43.68517" lon="-1.31525">
        <ele>36</ele>
        <time>2013-04-21T08:18:47.000Z</time>
      </trkpt>
      <trkpt lat="43.68515" lon="-1.31524">
        <ele>36</ele>
        <time>2013-04-21T08:18:49.000Z</time>
      </trkpt>
      <trkpt lat="43.68512" lon="-1.3152">
        <ele>36</ele>
        <time>2013-04-21T08:18:52.000Z</time>
      </trkpt>
      <trkpt lat="43.68516" lon="-1.31513">
        <ele>36.200000762939</ele>
        <time>2013-04-21T08:18:57.000Z</time>
      </trkpt>
      <trkpt lat="43.68517" lon="-1.31507">
        <ele>36.400001525879</ele>
        <time>2013-04-21T08:19:01.000Z</time>
      </trkpt>
      <trkpt lat="43.68518" lon="-1.31507">
        <ele>36.400001525879</ele>
        <time>2013-04-21T08:19:03.000Z</time>
      </trkpt>
      <trkpt lat="43.68522" lon="-1.315">
        <ele>36.799999237061</ele>
        <time>2013-04-21T08:19:14.000Z</time>
      </trkpt>
      <trkpt lat="43.68524" lon="-1.31488">
        <ele>36.799999237061</ele>
        <time>2013-04-21T08:19:18.000Z</time>
      </trkpt>
      <trkpt lat="43.68525" lon="-1.31485">
        <ele>36.799999237061</ele>
        <time>2013-04-21T08:19:19.000Z</time>
      </trkpt>
      <trkpt lat="43.68531" lon="-1.31471">
        <ele>37</ele>
        <time>2013-04-21T08:19:24.000Z</time>
      </trkpt>
      <trkpt lat="43.68541" lon="-1.31456">
        <ele>37.400001525879</ele>
        <time>2013-04-21T08:19:30.000Z</time>
      </trkpt>
      <trkpt lat="43.68552" lon="-1.31444">
        <ele>37.799999237061</ele>
        <time>2013-04-21T08:19:36.000Z</time>
      </trkpt>
      <trkpt lat="43.68557" lon="-1.31434">
        <ele>38</ele>
        <time>2013-04-21T08:19:40.000Z</time>
      </trkpt>
      <trkpt lat="43.68565" lon="-1.3142">
        <ele>38.200000762939</ele>
        <time>2013-04-21T08:19:46.000Z</time>
      </trkpt>
      <trkpt lat="43.68573" lon="-1.31415">
        <ele>38.400001525879</ele>
        <time>2013-04-21T08:19:51.000Z</time>
      </trkpt>
      <trkpt lat="43.68575" lon="-1.31412">
        <ele>38.599998474121</ele>
        <time>2013-04-21T08:19:53.000Z</time>
      </trkpt>
      <trkpt lat="43.68573" lon="-1.3141">
        <ele>38.400001525879</ele>
        <time>2013-04-21T08:19:55.000Z</time>
      </trkpt>
      <trkpt lat="43.68573" lon="-1.31397">
        <ele>38.400001525879</ele>
        <time>2013-04-21T08:19:59.000Z</time>
      </trkpt>
      <trkpt lat="43.68573" lon="-1.31385">
        <ele>38.200000762939</ele>
        <time>2013-04-21T08:20:03.000Z</time>
      </trkpt>
      <trkpt lat="43.68573" lon="-1.31382">
        <ele>38.200000762939</ele>
        <time>2013-04-21T08:20:04.000Z</time>
      </trkpt>
      <trkpt lat="43.68574" lon="-1.31367">
        <ele>38</ele>
        <time>2013-04-21T08:20:09.000Z</time>
      </trkpt>
      <trkpt lat="43.68574" lon="-1.31349">
        <ele>38</ele>
        <time>2013-04-21T08:20:14.000Z</time>
      </trkpt>
      <trkpt lat="43.68574" lon="-1.3134">
        <ele>37.799999237061</ele>
        <time>2013-04-21T08:20:17.000Z</time>
      </trkpt>
      <trkpt lat="43.68574" lon="-1.31336">
        <ele>37.799999237061</ele>
        <time>2013-04-21T08:20:18.000Z</time>
      </trkpt>
      <trkpt lat="43.68572" lon="-1.31317">
        <ele>38</ele>
        <time>2013-04-21T08:20:23.000Z</time>
      </trkpt>
      <trkpt lat="43.6857" lon="-1.313">
        <ele>38.400001525879</ele>
        <time>2013-04-21T08:20:28.000Z</time>
      </trkpt>
      <trkpt lat="43.6857" lon="-1.31279">
        <ele>38.799999237061</ele>
        <time>2013-04-21T08:20:34.000Z</time>
      </trkpt>
      <trkpt lat="43.68569" lon="-1.31264">
        <ele>39</ele>
        <time>2013-04-21T08:20:38.000Z</time>
      </trkpt>
      <trkpt lat="43.68572" lon="-1.31256">
        <ele>39.200000762939</ele>
        <time>2013-04-21T08:20:43.000Z</time>
      </trkpt>
      <trkpt lat="43.68578" lon="-1.31255">
        <ele>39.599998474121</ele>
        <time>2013-04-21T08:20:47.000Z</time>
      </trkpt>
      <trkpt lat="43.68579" lon="-1.31255">
        <ele>39.599998474121</ele>
        <time>2013-04-21T08:20:48.000Z</time>
      </trkpt>
      <trkpt lat="43.68587" lon="-1.31253">
        <ele>39.599998474121</ele>
        <time>2013-04-21T08:20:53.000Z</time>
      </trkpt>
      <trkpt lat="43.68588" lon="-1.31252">
        <ele>39.599998474121</ele>
        <time>2013-04-21T08:20:54.000Z</time>
      </trkpt>
      <trkpt lat="43.68593" lon="-1.31249">
        <ele>39.400001525879</ele>
        <time>2013-04-21T08:20:58.000Z</time>
      </trkpt>
      <trkpt lat="43.68594" lon="-1.31245">
        <ele>39.599998474121</ele>
        <time>2013-04-21T08:21:00.000Z</time>
      </trkpt>
      <trkpt lat="43.68596" lon="-1.31246">
        <ele>39.400001525879</ele>
        <time>2013-04-21T08:21:02.000Z</time>
      </trkpt>
      <trkpt lat="43.68597" lon="-1.31249">
        <ele>39.200000762939</ele>
        <time>2013-04-21T08:21:04.000Z</time>
      </trkpt>
      <trkpt lat="43.68601" lon="-1.31258">
        <ele>38.799999237061</ele>
        <time>2013-04-21T08:21:09.000Z</time>
      </trkpt>
      <trkpt lat="43.68602" lon="-1.31259">
        <ele>38.799999237061</ele>
        <time>2013-04-21T08:21:10.000Z</time>
      </trkpt>
      <trkpt lat="43.68606" lon="-1.31268">
        <ele>38.200000762939</ele>
        <time>2013-04-21T08:21:14.000Z</time>
      </trkpt>
      <trkpt lat="43.68606" lon="-1.3127">
        <ele>38.200000762939</ele>
        <time>2013-04-21T08:21:15.000Z</time>
      </trkpt>
      <trkpt lat="43.68607" lon="-1.31273">
        <ele>38</ele>
        <time>2013-04-21T08:21:16.000Z</time>
      </trkpt>
      <trkpt lat="43.6861" lon="-1.3128">
        <ele>37.599998474121</ele>
        <time>2013-04-21T08:21:19.000Z</time>
      </trkpt>
      <trkpt lat="43.68611" lon="-1.31282">
        <ele>37.599998474121</ele>
        <time>2013-04-21T08:21:20.000Z</time>
      </trkpt>
      <trkpt lat="43.68615" lon="-1.31292">
        <ele>37</ele>
        <time>2013-04-21T08:21:24.000Z</time>
      </trkpt>
      <trkpt lat="43.68616" lon="-1.313">
        <ele>36.599998474121</ele>
        <time>2013-04-21T08:21:29.000Z</time>
      </trkpt>
      <trkpt lat="43.68615" lon="-1.31306">
        <ele>36.599998474121</ele>
        <time>2013-04-21T08:21:38.000Z</time>
      </trkpt>
      <trkpt lat="43.68625" lon="-1.31305">
        <ele>35.799999237061</ele>
        <time>2013-04-21T08:22:32.000Z</time>
      </trkpt>
      <trkpt lat="43.68629" lon="-1.31306">
        <ele>35.599998474121</ele>
        <time>2013-04-21T08:23:02.000Z</time>
      </trkpt>
      <trkpt lat="43.6863" lon="-1.31311">
        <ele>35.400001525879</ele>
        <time>2013-04-21T08:23:05.000Z</time>
      </trkpt>
      <trkpt lat="43.68633" lon="-1.31325">
        <ele>34.599998474121</ele>
        <time>2013-04-21T08:23:11.000Z</time>
      </trkpt>
      <trkpt lat="43.68643" lon="-1.31338">
        <ele>33.599998474121</ele>
        <time>2013-04-21T08:23:18.000Z</time>
      </trkpt>
      <trkpt lat="43.68654" lon="-1.31346">
        <ele>32.599998474121</ele>
        <time>2013-04-21T08:23:24.000Z</time>
      </trkpt>
      <trkpt lat="43.68666" lon="-1.3136">
        <ele>31.39999961853</ele>
        <time>2013-04-21T08:23:31.000Z</time>
      </trkpt>
      <trkpt lat="43.68674" lon="-1.31367">
        <ele>31.39999961853</ele>
        <time>2013-04-21T08:23:35.000Z</time>
      </trkpt>
      <trkpt lat="43.68676" lon="-1.31368">
        <ele>31.39999961853</ele>
        <time>2013-04-21T08:23:36.000Z</time>
      </trkpt>
      <trkpt lat="43.68689" lon="-1.3138">
        <ele>31.60000038147</ele>
        <time>2013-04-21T08:23:42.000Z</time>
      </trkpt>
      <trkpt lat="43.68695" lon="-1.31386">
        <ele>31.60000038147</ele>
        <time>2013-04-21T08:23:47.000Z</time>
      </trkpt>
      <trkpt lat="43.68697" lon="-1.31387">
        <ele>31.60000038147</ele>
        <time>2013-04-21T08:23:48.000Z</time>
      </trkpt>
      <trkpt lat="43.68703" lon="-1.31388">
        <ele>31.799999237061</ele>
        <time>2013-04-21T08:23:53.000Z</time>
      </trkpt>
      <trkpt lat="43.68705" lon="-1.31388">
        <ele>31.799999237061</ele>
        <time>2013-04-21T08:24:00.000Z</time>
      </trkpt>
      <trkpt lat="43.68702" lon="-1.31383">
        <ele>32</ele>
        <time>2013-04-21T08:24:08.000Z</time>
      </trkpt>
      <trkpt lat="43.68701" lon="-1.31381">
        <ele>32</ele>
        <time>2013-04-21T08:24:18.000Z</time>
      </trkpt>
      <trkpt lat="43.68702" lon="-1.31383">
        <ele>32</ele>
        <time>2013-04-21T08:24:43.000Z</time>
      </trkpt>
      <trkpt lat="43.68703" lon="-1.3138">
        <ele>32</ele>
        <time>2013-04-21T08:24:45.000Z</time>
      </trkpt>
      <trkpt lat="43.68703" lon="-1.31377">
        <ele>32.200000762939</ele>
        <time>2013-04-21T08:24:47.000Z</time>
      </trkpt>
      <trkpt lat="43.687" lon="-1.31371">
        <ele>32.200000762939</ele>
        <time>2013-04-21T08:24:50.000Z</time>
      </trkpt>
      <trkpt lat="43.68699" lon="-1.31365">
        <ele>32.400001525879</ele>
        <time>2013-04-21T08:24:55.000Z</time>
      </trkpt>
      <trkpt lat="43.68699" lon="-1.31361">
        <ele>32.599998474121</ele>
        <time>2013-04-21T08:25:00.000Z</time>
      </trkpt>
      <trkpt lat="43.68693" lon="-1.31348">
        <ele>32.599998474121</ele>
        <time>2013-04-21T08:25:05.000Z</time>
      </trkpt>
      <trkpt lat="43.68691" lon="-1.31342">
        <ele>32.799999237061</ele>
        <time>2013-04-21T08:25:10.000Z</time>
      </trkpt>
      <trkpt lat="43.68693" lon="-1.3134">
        <ele>33</ele>
        <time>2013-04-21T08:25:35.000Z</time>
      </trkpt>
      <trkpt lat="43.68688" lon="-1.31328">
        <ele>33</ele>
        <time>2013-04-21T08:25:40.000Z</time>
      </trkpt>
      <trkpt lat="43.68685" lon="-1.31323">
        <ele>33.200000762939</ele>
        <time>2013-04-21T08:25:42.000Z</time>
      </trkpt>
      <trkpt lat="43.6868" lon="-1.31316">
        <ele>33.200000762939</ele>
        <time>2013-04-21T08:25:45.000Z</time>
      </trkpt>
      <trkpt lat="43.68679" lon="-1.31297">
        <ele>34</ele>
        <time>2013-04-21T08:25:51.000Z</time>
      </trkpt>
      <trkpt lat="43.68681" lon="-1.31275">
        <ele>34.799999237061</ele>
        <time>2013-04-21T08:25:57.000Z</time>
      </trkpt>
      <trkpt lat="43.6868" lon="-1.31259">
        <ele>35.599998474121</ele>
        <time>2013-04-21T08:26:02.000Z</time>
      </trkpt>
      <trkpt lat="43.68678" lon="-1.31256">
        <ele>35.599998474121</ele>
        <time>2013-04-21T08:26:03.000Z</time>
      </trkpt>
      <trkpt lat="43.68678" lon="-1.31243">
        <ele>36.200000762939</ele>
        <time>2013-04-21T08:26:07.000Z</time>
      </trkpt>
      <trkpt lat="43.68683" lon="-1.31229">
        <ele>36.599998474121</ele>
        <time>2013-04-21T08:26:12.000Z</time>
      </trkpt>
      <trkpt lat="43.68688" lon="-1.31217">
        <ele>36.599998474121</ele>
        <time>2013-04-21T08:26:17.000Z</time>
      </trkpt>
      <trkpt lat="43.6869" lon="-1.3121">
        <ele>36.799999237061</ele>
        <time>2013-04-21T08:26:20.000Z</time>
      </trkpt>
      <trkpt lat="43.68693" lon="-1.31205">
        <ele>36.799999237061</ele>
        <time>2013-04-21T08:26:22.000Z</time>
      </trkpt>
      <trkpt lat="43.68697" lon="-1.31198">
        <ele>36.599998474121</ele>
        <time>2013-04-21T08:26:26.000Z</time>
      </trkpt>
      <trkpt lat="43.68699" lon="-1.31194">
        <ele>36.400001525879</ele>
        <time>2013-04-21T08:26:30.000Z</time>
      </trkpt>
      <trkpt lat="43.687" lon="-1.31194">
        <ele>36.400001525879</ele>
        <time>2013-04-21T08:26:31.000Z</time>
      </trkpt>
      <trkpt lat="43.687" lon="-1.31193">
        <ele>36.400001525879</ele>
        <time>2013-04-21T08:26:32.000Z</time>
      </trkpt>
      <trkpt lat="43.68702" lon="-1.31192">
        <ele>36.400001525879</ele>
        <time>2013-04-21T08:26:40.000Z</time>
      </trkpt>
      <trkpt lat="43.68703" lon="-1.31187">
        <ele>36.200000762939</ele>
        <time>2013-04-21T08:26:56.000Z</time>
      </trkpt>
      <trkpt lat="43.68702" lon="-1.31185">
        <ele>36.400001525879</ele>
        <time>2013-04-21T08:27:04.000Z</time>
      </trkpt>
      <trkpt lat="43.68702" lon="-1.31182">
        <ele>36.400001525879</ele>
        <time>2013-04-21T08:27:18.000Z</time>
      </trkpt>
      <trkpt lat="43.687" lon="-1.31183">
        <ele>36.599998474121</ele>
        <time>2013-04-21T08:27:21.000Z</time>
      </trkpt>
      <trkpt lat="43.68697" lon="-1.31182">
        <ele>36.799999237061</ele>
        <time>2013-04-21T08:27:27.000Z</time>
      </trkpt>
      <trkpt lat="43.6869" lon="-1.31177">
        <ele>37.400001525879</ele>
        <time>2013-04-21T08:27:34.000Z</time>
      </trkpt>
      <trkpt lat="43.6869" lon="-1.31175">
        <ele>37.599998474121</ele>
        <time>2013-04-21T08:27:35.000Z</time>
      </trkpt>
      <trkpt lat="43.68687" lon="-1.3117">
        <ele>37.799999237061</ele>
        <time>2013-04-21T08:27:39.000Z</time>
      </trkpt>
      <trkpt lat="43.68683" lon="-1.31168">
        <ele>38.200000762939</ele>
        <time>2013-04-21T08:27:43.000Z</time>
      </trkpt>
      <trkpt lat="43.68683" lon="-1.31165">
        <ele>38.400001525879</ele>
        <time>2013-04-21T08:27:48.000Z</time>
      </trkpt>
      <trkpt lat="43.68684" lon="-1.3116">
        <ele>38.200000762939</ele>
        <time>2013-04-21T08:27:54.000Z</time>
      </trkpt>
      <trkpt lat="43.68684" lon="-1.31156">
        <ele>38.400001525879</ele>
        <time>2013-04-21T08:27:58.000Z</time>
      </trkpt>
      <trkpt lat="43.68683" lon="-1.3115">
        <ele>38.400001525879</ele>
        <time>2013-04-21T08:28:04.000Z</time>
      </trkpt>
      <trkpt lat="43.68685" lon="-1.3114">
        <ele>38.400001525879</ele>
        <time>2013-04-21T08:28:09.000Z</time>
      </trkpt>
      <trkpt lat="43.68693" lon="-1.31132">
        <ele>37.599998474121</ele>
        <time>2013-04-21T08:28:15.000Z</time>
      </trkpt>
      <trkpt lat="43.68694" lon="-1.31131">
        <ele>37.599998474121</ele>
        <time>2013-04-21T08:28:16.000Z</time>
      </trkpt>
      <trkpt lat="43.68701" lon="-1.31126">
        <ele>37</ele>
        <time>2013-04-21T08:28:21.000Z</time>
      </trkpt>
      <trkpt lat="43.68705" lon="-1.31121">
        <ele>36.599998474121</ele>
        <time>2013-04-21T08:28:24.000Z</time>
      </trkpt>
      <trkpt lat="43.68707" lon="-1.31118">
        <ele>36.400001525879</ele>
        <time>2013-04-21T08:28:26.000Z</time>
      </trkpt>
      <trkpt lat="43.6871" lon="-1.31115">
        <ele>36</ele>
        <time>2013-04-21T08:28:29.000Z</time>
      </trkpt>
      <trkpt lat="43.68712" lon="-1.31109">
        <ele>36</ele>
        <time>2013-04-21T08:28:32.000Z</time>
      </trkpt>
      <trkpt lat="43.68715" lon="-1.31099">
        <ele>35.599998474121</ele>
        <time>2013-04-21T08:28:38.000Z</time>
      </trkpt>
      <trkpt lat="43.68715" lon="-1.31092">
        <ele>35.599998474121</ele>
        <time>2013-04-21T08:28:42.000Z</time>
      </trkpt>
      <trkpt lat="43.68718" lon="-1.31089">
        <ele>35.400001525879</ele>
        <time>2013-04-21T08:28:47.000Z</time>
      </trkpt>
      <trkpt lat="43.68719" lon="-1.31089">
        <ele>35.200000762939</ele>
        <time>2013-04-21T08:28:48.000Z</time>
      </trkpt>
      <trkpt lat="43.68721" lon="-1.31088">
        <ele>35</ele>
        <time>2013-04-21T08:28:49.000Z</time>
      </trkpt>
      <trkpt lat="43.68723" lon="-1.31086">
        <ele>34.799999237061</ele>
        <time>2013-04-21T08:28:52.000Z</time>
      </trkpt>
      <trkpt lat="43.68723" lon="-1.31085">
        <ele>34.799999237061</ele>
        <time>2013-04-21T08:28:53.000Z</time>
      </trkpt>
      <trkpt lat="43.68721" lon="-1.3108">
        <ele>35</ele>
        <time>2013-04-21T08:28:57.000Z</time>
      </trkpt>
      <trkpt lat="43.68721" lon="-1.31079">
        <ele>35</ele>
        <time>2013-04-21T08:28:58.000Z</time>
      </trkpt>
      <trkpt lat="43.68724" lon="-1.31076">
        <ele>34.599998474121</ele>
        <time>2013-04-21T08:29:04.000Z</time>
      </trkpt>
      <trkpt lat="43.68729" lon="-1.31075">
        <ele>34</ele>
        <time>2013-04-21T08:29:09.000Z</time>
      </trkpt>
      <trkpt lat="43.68732" lon="-1.3107">
        <ele>33.599998474121</ele>
        <time>2013-04-21T08:29:15.000Z</time>
      </trkpt>
      <trkpt lat="43.68732" lon="-1.31061">
        <ele>33.400001525879</ele>
        <time>2013-04-21T08:29:20.000Z</time>
      </trkpt>
      <trkpt lat="43.68723" lon="-1.31057">
        <ele>34.200000762939</ele>
        <time>2013-04-21T08:29:26.000Z</time>
      </trkpt>
      <trkpt lat="43.68717" lon="-1.31054">
        <ele>34.599998474121</ele>
        <time>2013-04-21T08:29:29.000Z</time>
      </trkpt>
      <trkpt lat="43.68712" lon="-1.31051">
        <ele>35</ele>
        <time>2013-04-21T08:29:32.000Z</time>
      </trkpt>
      <trkpt lat="43.68704" lon="-1.31043">
        <ele>35.599998474121</ele>
        <time>2013-04-21T08:29:37.000Z</time>
      </trkpt>
      <trkpt lat="43.68694" lon="-1.31035">
        <ele>36.200000762939</ele>
        <time>2013-04-21T08:29:43.000Z</time>
      </trkpt>
      <trkpt lat="43.68685" lon="-1.31029">
        <ele>36.799999237061</ele>
        <time>2013-04-21T08:29:49.000Z</time>
      </trkpt>
      <trkpt lat="43.68683" lon="-1.31023">
        <ele>36.599998474121</ele>
        <time>2013-04-21T08:29:51.000Z</time>
      </trkpt>
      <trkpt lat="43.68681" lon="-1.31017">
        <ele>36.599998474121</ele>
        <time>2013-04-21T08:29:54.000Z</time>
      </trkpt>
      <trkpt lat="43.68681" lon="-1.31016">
        <ele>36.599998474121</ele>
        <time>2013-04-21T08:29:55.000Z</time>
      </trkpt>
      <trkpt lat="43.68679" lon="-1.31006">
        <ele>36.200000762939</ele>
        <time>2013-04-21T08:30:00.000Z</time>
      </trkpt>
      <trkpt lat="43.68678" lon="-1.31003">
        <ele>36.200000762939</ele>
        <time>2013-04-21T08:30:02.000Z</time>
      </trkpt>
      <trkpt lat="43.68679" lon="-1.31001">
        <ele>36</ele>
        <time>2013-04-21T08:30:04.000Z</time>
      </trkpt>
      <trkpt lat="43.68682" lon="-1.30992">
        <ele>35.400001525879</ele>
        <time>2013-04-21T08:30:09.000Z</time>
      </trkpt>
      <trkpt lat="43.68682" lon="-1.3099">
        <ele>35.400001525879</ele>
        <time>2013-04-21T08:30:10.000Z</time>
      </trkpt>
      <trkpt lat="43.68681" lon="-1.30989">
        <ele>35.400001525879</ele>
        <time>2013-04-21T08:30:11.000Z</time>
      </trkpt>
      <trkpt lat="43.68678" lon="-1.30984">
        <ele>35.200000762939</ele>
        <time>2013-04-21T08:30:14.000Z</time>
      </trkpt>
      <trkpt lat="43.68677" lon="-1.30982">
        <ele>35.200000762939</ele>
        <time>2013-04-21T08:30:16.000Z</time>
      </trkpt>
      <trkpt lat="43.68675" lon="-1.30978">
        <ele>35</ele>
        <time>2013-04-21T08:30:19.000Z</time>
      </trkpt>
      <trkpt lat="43.68675" lon="-1.30976">
        <ele>35</ele>
        <time>2013-04-21T08:30:21.000Z</time>
      </trkpt>
      <trkpt lat="43.68674" lon="-1.30973">
        <ele>35</ele>
        <time>2013-04-21T08:30:27.000Z</time>
      </trkpt>
      <trkpt lat="43.68672" lon="-1.30967">
        <ele>34.799999237061</ele>
        <time>2013-04-21T08:30:41.000Z</time>
      </trkpt>
      <trkpt lat="43.6867" lon="-1.30965">
        <ele>34.599998474121</ele>
        <time>2013-04-21T08:30:43.000Z</time>
      </trkpt>
      <trkpt lat="43.68667" lon="-1.30962">
        <ele>34.599998474121</ele>
        <time>2013-04-21T08:30:46.000Z</time>
      </trkpt>
      <trkpt lat="43.68667" lon="-1.30962">
        <ele>34.599998474121</ele>
        <time>2013-04-21T08:30:47.000Z</time>
      </trkpt>
      <trkpt lat="43.68666" lon="-1.30962">
        <ele>34.599998474121</ele>
        <time>2013-04-21T08:30:48.000Z</time>
      </trkpt>
      <trkpt lat="43.68664" lon="-1.30959">
        <ele>34.599998474121</ele>
        <time>2013-04-21T08:30:50.000Z</time>
      </trkpt>
      <trkpt lat="43.68661" lon="-1.30954">
        <ele>34.200000762939</ele>
        <time>2013-04-21T08:30:52.000Z</time>
      </trkpt>
      <trkpt lat="43.68657" lon="-1.30943">
        <ele>33.599998474121</ele>
        <time>2013-04-21T08:30:56.000Z</time>
      </trkpt>
      <trkpt lat="43.68649" lon="-1.30919">
        <ele>32.200000762939</ele>
        <time>2013-04-21T08:31:03.000Z</time>
      </trkpt>
      <trkpt lat="43.68643" lon="-1.30905">
        <ele>32.400001525879</ele>
        <time>2013-04-21T08:31:08.000Z</time>
      </trkpt>
      <trkpt lat="43.68636" lon="-1.30885">
        <ele>33</ele>
        <time>2013-04-21T08:31:14.000Z</time>
      </trkpt>
      <trkpt lat="43.68627" lon="-1.30871">
        <ele>33.799999237061</ele>
        <time>2013-04-21T08:31:20.000Z</time>
      </trkpt>
      <trkpt lat="43.68618" lon="-1.30863">
        <ele>34.200000762939</ele>
        <time>2013-04-21T08:31:25.000Z</time>
      </trkpt>
      <trkpt lat="43.68609" lon="-1.3085">
        <ele>35</ele>
        <time>2013-04-21T08:31:31.000Z</time>
      </trkpt>
      <trkpt lat="43.68602" lon="-1.30837">
        <ele>35.799999237061</ele>
        <time>2013-04-21T08:31:36.000Z</time>
      </trkpt>
      <trkpt lat="43.68596" lon="-1.30821">
        <ele>37.400001525879</ele>
        <time>2013-04-21T08:31:42.000Z</time>
      </trkpt>
      <trkpt lat="43.68593" lon="-1.30804">
        <ele>39</ele>
        <time>2013-04-21T08:31:47.000Z</time>
      </trkpt>
      <trkpt lat="43.68591" lon="-1.30788">
        <ele>40.400001525879</ele>
        <time>2013-04-21T08:31:52.000Z</time>
      </trkpt>
      <trkpt lat="43.6859" lon="-1.30775">
        <ele>41.599998474121</ele>
        <time>2013-04-21T08:31:57.000Z</time>
      </trkpt>
      <trkpt lat="43.68587" lon="-1.30752">
        <ele>43.599998474121</ele>
        <time>2013-04-21T08:32:04.000Z</time>
      </trkpt>
      <trkpt lat="43.68585" lon="-1.30734">
        <ele>43.799999237061</ele>
        <time>2013-04-21T08:32:10.000Z</time>
      </trkpt>
      <trkpt lat="43.68584" lon="-1.30715">
        <ele>43.799999237061</ele>
        <time>2013-04-21T08:32:16.000Z</time>
      </trkpt>
      <trkpt lat="43.68583" lon="-1.30695">
        <ele>43.799999237061</ele>
        <time>2013-04-21T08:32:22.000Z</time>
      </trkpt>
      <trkpt lat="43.68582" lon="-1.30678">
        <ele>43.799999237061</ele>
        <time>2013-04-21T08:32:27.000Z</time>
      </trkpt>
      <trkpt lat="43.68583" lon="-1.30658">
        <ele>43.799999237061</ele>
        <time>2013-04-21T08:32:33.000Z</time>
      </trkpt>
      <trkpt lat="43.68581" lon="-1.30634">
        <ele>43.400001525879</ele>
        <time>2013-04-21T08:32:40.000Z</time>
      </trkpt>
      <trkpt lat="43.68581" lon="-1.3062">
        <ele>43.200000762939</ele>
        <time>2013-04-21T08:32:45.000Z</time>
      </trkpt>
      <trkpt lat="43.68582" lon="-1.30604">
        <ele>43.200000762939</ele>
        <time>2013-04-21T08:32:50.000Z</time>
      </trkpt>
      <trkpt lat="43.68582" lon="-1.30587">
        <ele>42.799999237061</ele>
        <time>2013-04-21T08:32:56.000Z</time>
      </trkpt>
      <trkpt lat="43.6859" lon="-1.30577">
        <ele>43</ele>
        <time>2013-04-21T08:33:01.000Z</time>
      </trkpt>
      <trkpt lat="43.68598" lon="-1.30572">
        <ele>43</ele>
        <time>2013-04-21T08:33:05.000Z</time>
      </trkpt>
      <trkpt lat="43.68611" lon="-1.30567">
        <ele>43.200000762939</ele>
        <time>2013-04-21T08:33:11.000Z</time>
      </trkpt>
      <trkpt lat="43.68617" lon="-1.30569">
        <ele>43.200000762939</ele>
        <time>2013-04-21T08:33:15.000Z</time>
      </trkpt>
      <trkpt lat="43.68619" lon="-1.30569">
        <ele>43.200000762939</ele>
        <time>2013-04-21T08:33:16.000Z</time>
      </trkpt>
      <trkpt lat="43.68625" lon="-1.30568">
        <ele>43.200000762939</ele>
        <time>2013-04-21T08:33:19.000Z</time>
      </trkpt>
      <trkpt lat="43.68638" lon="-1.30563">
        <ele>43.400001525879</ele>
        <time>2013-04-21T08:33:25.000Z</time>
      </trkpt>
      <trkpt lat="43.68652" lon="-1.30556">
        <ele>43.799999237061</ele>
        <time>2013-04-21T08:33:31.000Z</time>
      </trkpt>
      <trkpt lat="43.68662" lon="-1.30549">
        <ele>44</ele>
        <time>2013-04-21T08:33:36.000Z</time>
      </trkpt>
      <trkpt lat="43.68673" lon="-1.30538">
        <ele>44.400001525879</ele>
        <time>2013-04-21T08:33:41.000Z</time>
      </trkpt>
      <trkpt lat="43.68682" lon="-1.30524">
        <ele>44.599998474121</ele>
        <time>2013-04-21T08:33:46.000Z</time>
      </trkpt>
      <trkpt lat="43.68694" lon="-1.30501">
        <ele>44.599998474121</ele>
        <time>2013-04-21T08:33:54.000Z</time>
      </trkpt>
      <trkpt lat="43.68702" lon="-1.30483">
        <ele>44.400001525879</ele>
        <time>2013-04-21T08:34:00.000Z</time>
      </trkpt>
      <trkpt lat="43.68709" lon="-1.30469">
        <ele>44</ele>
        <time>2013-04-21T08:34:05.000Z</time>
      </trkpt>
      <trkpt lat="43.68718" lon="-1.30453">
        <ele>43.599998474121</ele>
        <time>2013-04-21T08:34:11.000Z</time>
      </trkpt>
      <trkpt lat="43.68727" lon="-1.30442">
        <ele>43.200000762939</ele>
        <time>2013-04-21T08:34:16.000Z</time>
      </trkpt>
      <trkpt lat="43.68733" lon="-1.3043">
        <ele>42.799999237061</ele>
        <time>2013-04-21T08:34:21.000Z</time>
      </trkpt>
      <trkpt lat="43.68741" lon="-1.30411">
        <ele>42.599998474121</ele>
        <time>2013-04-21T08:34:27.000Z</time>
      </trkpt>
      <trkpt lat="43.68746" lon="-1.30395">
        <ele>42.400001525879</ele>
        <time>2013-04-21T08:34:32.000Z</time>
      </trkpt>
      <trkpt lat="43.68752" lon="-1.30376">
        <ele>42.400001525879</ele>
        <time>2013-04-21T08:34:38.000Z</time>
      </trkpt>
      <trkpt lat="43.68761" lon="-1.3036">
        <ele>42</ele>
        <time>2013-04-21T08:34:43.000Z</time>
      </trkpt>
      <trkpt lat="43.68769" lon="-1.30344">
        <ele>41.799999237061</ele>
        <time>2013-04-21T08:34:49.000Z</time>
      </trkpt>
      <trkpt lat="43.68772" lon="-1.3033">
        <ele>41.799999237061</ele>
        <time>2013-04-21T08:34:53.000Z</time>
      </trkpt>
      <trkpt lat="43.6878" lon="-1.30316">
        <ele>41.200000762939</ele>
        <time>2013-04-21T08:34:58.000Z</time>
      </trkpt>
      <trkpt lat="43.68784" lon="-1.30296">
        <ele>41</ele>
        <time>2013-04-21T08:35:04.000Z</time>
      </trkpt>
      <trkpt lat="43.68786" lon="-1.3028">
        <ele>40.799999237061</ele>
        <time>2013-04-21T08:35:09.000Z</time>
      </trkpt>
      <trkpt lat="43.68787" lon="-1.30263">
        <ele>40.599998474121</ele>
        <time>2013-04-21T08:35:14.000Z</time>
      </trkpt>
      <trkpt lat="43.68787" lon="-1.30247">
        <ele>40.400001525879</ele>
        <time>2013-04-21T08:35:20.000Z</time>
      </trkpt>
      <trkpt lat="43.68787" lon="-1.30228">
        <ele>40.400001525879</ele>
        <time>2013-04-21T08:35:25.000Z</time>
      </trkpt>
      <trkpt lat="43.68786" lon="-1.30211">
        <ele>40.400001525879</ele>
        <time>2013-04-21T08:35:30.000Z</time>
      </trkpt>
      <trkpt lat="43.68785" lon="-1.30191">
        <ele>40.400001525879</ele>
        <time>2013-04-21T08:35:36.000Z</time>
      </trkpt>
      <trkpt lat="43.68787" lon="-1.30174">
        <ele>40.400001525879</ele>
        <time>2013-04-21T08:35:41.000Z</time>
      </trkpt>
      <trkpt lat="43.68786" lon="-1.30154">
        <ele>40.599998474121</ele>
        <time>2013-04-21T08:35:47.000Z</time>
      </trkpt>
      <trkpt lat="43.68788" lon="-1.30146">
        <ele>40.599998474121</ele>
        <time>2013-04-21T08:35:51.000Z</time>
      </trkpt>
      <trkpt lat="43.68789" lon="-1.30145">
        <ele>40.599998474121</ele>
        <time>2013-04-21T08:35:52.000Z</time>
      </trkpt>
      <trkpt lat="43.68793" lon="-1.30142">
        <ele>40.599998474121</ele>
        <time>2013-04-21T08:35:56.000Z</time>
      </trkpt>
      <trkpt lat="43.68794" lon="-1.30141">
        <ele>40.599998474121</ele>
        <time>2013-04-21T08:35:57.000Z</time>
      </trkpt>
      <trkpt lat="43.68801" lon="-1.30131">
        <ele>40.400001525879</ele>
        <time>2013-04-21T08:36:01.000Z</time>
      </trkpt>
      <trkpt lat="43.68804" lon="-1.30122">
        <ele>40.400001525879</ele>
        <time>2013-04-21T08:36:05.000Z</time>
      </trkpt>
      <trkpt lat="43.68805" lon="-1.30114">
        <ele>40.400001525879</ele>
        <time>2013-04-21T08:36:08.000Z</time>
      </trkpt>
      <trkpt lat="43.68806" lon="-1.30102">
        <ele>40.400001525879</ele>
        <time>2013-04-21T08:36:12.000Z</time>
      </trkpt>
      <trkpt lat="43.68805" lon="-1.30086">
        <ele>40.599998474121</ele>
        <time>2013-04-21T08:36:18.000Z</time>
      </trkpt>
      <trkpt lat="43.68805" lon="-1.30069">
        <ele>40.599998474121</ele>
        <time>2013-04-21T08:36:23.000Z</time>
      </trkpt>
      <trkpt lat="43.68805" lon="-1.30053">
        <ele>40.599998474121</ele>
        <time>2013-04-21T08:36:28.000Z</time>
      </trkpt>
      <trkpt lat="43.68806" lon="-1.3004">
        <ele>40.599998474121</ele>
        <time>2013-04-21T08:36:32.000Z</time>
      </trkpt>
      <trkpt lat="43.68805" lon="-1.3002">
        <ele>40.599998474121</ele>
        <time>2013-04-21T08:36:38.000Z</time>
      </trkpt>
      <trkpt lat="43.68806" lon="-1.30006">
        <ele>40.599998474121</ele>
        <time>2013-04-21T08:36:42.000Z</time>
      </trkpt>
      <trkpt lat="43.68808" lon="-1.29982">
        <ele>40.599998474121</ele>
        <time>2013-04-21T08:36:49.000Z</time>
      </trkpt>
      <trkpt lat="43.6881" lon="-1.29971">
        <ele>40.599998474121</ele>
        <time>2013-04-21T08:36:53.000Z</time>
      </trkpt>
      <trkpt lat="43.6881" lon="-1.29968">
        <ele>40.599998474121</ele>
        <time>2013-04-21T08:36:54.000Z</time>
      </trkpt>
      <trkpt lat="43.6881" lon="-1.29948">
        <ele>40.599998474121</ele>
        <time>2013-04-21T08:37:00.000Z</time>
      </trkpt>
      <trkpt lat="43.68809" lon="-1.29924">
        <ele>40.599998474121</ele>
        <time>2013-04-21T08:37:07.000Z</time>
      </trkpt>
      <trkpt lat="43.68811" lon="-1.29904">
        <ele>40.599998474121</ele>
        <time>2013-04-21T08:37:13.000Z</time>
      </trkpt>
      <trkpt lat="43.68811" lon="-1.29885">
        <ele>40.599998474121</ele>
        <time>2013-04-21T08:37:19.000Z</time>
      </trkpt>
      <trkpt lat="43.68811" lon="-1.29865">
        <ele>40.599998474121</ele>
        <time>2013-04-21T08:37:25.000Z</time>
      </trkpt>
      <trkpt lat="43.68811" lon="-1.29848">
        <ele>40.400001525879</ele>
        <time>2013-04-21T08:37:30.000Z</time>
      </trkpt>
      <trkpt lat="43.6881" lon="-1.29824">
        <ele>40.799999237061</ele>
        <time>2013-04-21T08:37:37.000Z</time>
      </trkpt>
      <trkpt lat="43.68809" lon="-1.29806">
        <ele>41.400001525879</ele>
        <time>2013-04-21T08:37:43.000Z</time>
      </trkpt>
      <trkpt lat="43.68809" lon="-1.29783">
        <ele>42</ele>
        <time>2013-04-21T08:37:50.000Z</time>
      </trkpt>
      <trkpt lat="43.68808" lon="-1.29774">
        <ele>42.400001525879</ele>
        <time>2013-04-21T08:37:53.000Z</time>
      </trkpt>
      <trkpt lat="43.68809" lon="-1.29769">
        <ele>42.400001525879</ele>
        <time>2013-04-21T08:37:55.000Z</time>
      </trkpt>
      <trkpt lat="43.6881" lon="-1.29766">
        <ele>42.599998474121</ele>
        <time>2013-04-21T08:37:56.000Z</time>
      </trkpt>
      <trkpt lat="43.68811" lon="-1.29755">
        <ele>42.799999237061</ele>
        <time>2013-04-21T08:37:59.000Z</time>
      </trkpt>
      <trkpt lat="43.6881" lon="-1.29744">
        <ele>43</ele>
        <time>2013-04-21T08:38:03.000Z</time>
      </trkpt>
      <trkpt lat="43.6881" lon="-1.29737">
        <ele>42.799999237061</ele>
        <time>2013-04-21T08:38:05.000Z</time>
      </trkpt>
      <trkpt lat="43.68811" lon="-1.29727">
        <ele>42.599998474121</ele>
        <time>2013-04-21T08:38:08.000Z</time>
      </trkpt>
      <trkpt lat="43.68814" lon="-1.29704">
        <ele>42.200000762939</ele>
        <time>2013-04-21T08:38:14.000Z</time>
      </trkpt>
      <trkpt lat="43.68812" lon="-1.29693">
        <ele>42</ele>
        <time>2013-04-21T08:38:17.000Z</time>
      </trkpt>
      <trkpt lat="43.6881" lon="-1.29692">
        <ele>42.200000762939</ele>
        <time>2013-04-21T08:38:18.000Z</time>
      </trkpt>
      <trkpt lat="43.68801" lon="-1.29686">
        <ele>42.400001525879</ele>
        <time>2013-04-21T08:38:22.000Z</time>
      </trkpt>
      <trkpt lat="43.68797" lon="-1.29684">
        <ele>42.400001525879</ele>
        <time>2013-04-21T08:38:24.000Z</time>
      </trkpt>
      <trkpt lat="43.68789" lon="-1.29679">
        <ele>42.799999237061</ele>
        <time>2013-04-21T08:38:28.000Z</time>
      </trkpt>
      <trkpt lat="43.68787" lon="-1.29676">
        <ele>42.799999237061</ele>
        <time>2013-04-21T08:38:30.000Z</time>
      </trkpt>
      <trkpt lat="43.68786" lon="-1.29669">
        <ele>42.599998474121</ele>
        <time>2013-04-21T08:38:32.000Z</time>
      </trkpt>
      <trkpt lat="43.68787" lon="-1.29658">
        <ele>42.599998474121</ele>
        <time>2013-04-21T08:38:36.000Z</time>
      </trkpt>
      <trkpt lat="43.68778" lon="-1.29651">
        <ele>43</ele>
        <time>2013-04-21T08:38:40.000Z</time>
      </trkpt>
      <trkpt lat="43.68772" lon="-1.29638">
        <ele>43.200000762939</ele>
        <time>2013-04-21T08:38:45.000Z</time>
      </trkpt>
      <trkpt lat="43.68769" lon="-1.29624">
        <ele>43.400001525879</ele>
        <time>2013-04-21T08:38:50.000Z</time>
      </trkpt>
      <trkpt lat="43.68772" lon="-1.29612">
        <ele>43.200000762939</ele>
        <time>2013-04-21T08:38:56.000Z</time>
      </trkpt>
      <trkpt lat="43.68773" lon="-1.29611">
        <ele>43.200000762939</ele>
        <time>2013-04-21T08:38:57.000Z</time>
      </trkpt>
      <trkpt lat="43.6878" lon="-1.29607">
        <ele>43</ele>
        <time>2013-04-21T08:39:00.000Z</time>
      </trkpt>
      <trkpt lat="43.68781" lon="-1.29605">
        <ele>43</ele>
        <time>2013-04-21T08:39:01.000Z</time>
      </trkpt>
      <trkpt lat="43.68785" lon="-1.29601">
        <ele>43</ele>
        <time>2013-04-21T08:39:04.000Z</time>
      </trkpt>
      <trkpt lat="43.68788" lon="-1.296">
        <ele>43</ele>
        <time>2013-04-21T08:39:05.000Z</time>
      </trkpt>
      <trkpt lat="43.68797" lon="-1.2959">
        <ele>42.799999237061</ele>
        <time>2013-04-21T08:39:11.000Z</time>
      </trkpt>
      <trkpt lat="43.68798" lon="-1.29587">
        <ele>42.799999237061</ele>
        <time>2013-04-21T08:39:12.000Z</time>
      </trkpt>
      <trkpt lat="43.68803" lon="-1.29577">
        <ele>42.599998474121</ele>
        <time>2013-04-21T08:39:16.000Z</time>
      </trkpt>
      <trkpt lat="43.68807" lon="-1.29558">
        <ele>42.400001525879</ele>
        <time>2013-04-21T08:39:22.000Z</time>
      </trkpt>
      <trkpt lat="43.68807" lon="-1.29546">
        <ele>42.400001525879</ele>
        <time>2013-04-21T08:39:26.000Z</time>
      </trkpt>
      <trkpt lat="43.68805" lon="-1.29527">
        <ele>42.400001525879</ele>
        <time>2013-04-21T08:39:32.000Z</time>
      </trkpt>
      <trkpt lat="43.68803" lon="-1.29511">
        <ele>42.400001525879</ele>
        <time>2013-04-21T08:39:37.000Z</time>
      </trkpt>
      <trkpt lat="43.688" lon="-1.29499">
        <ele>42.599998474121</ele>
        <time>2013-04-21T08:39:41.000Z</time>
      </trkpt>
      <trkpt lat="43.68795" lon="-1.29484">
        <ele>43.200000762939</ele>
        <time>2013-04-21T08:39:47.000Z</time>
      </trkpt>
      <trkpt lat="43.68792" lon="-1.29468">
        <ele>43.599998474121</ele>
        <time>2013-04-21T08:39:52.000Z</time>
      </trkpt>
      <trkpt lat="43.68792" lon="-1.29446">
        <ele>44.200000762939</ele>
        <time>2013-04-21T08:39:59.000Z</time>
      </trkpt>
      <trkpt lat="43.68791" lon="-1.2943">
        <ele>44.599998474121</ele>
        <time>2013-04-21T08:40:04.000Z</time>
      </trkpt>
      <trkpt lat="43.68791" lon="-1.29426">
        <ele>44.799999237061</ele>
        <time>2013-04-21T08:40:05.000Z</time>
      </trkpt>
      <trkpt lat="43.68791" lon="-1.29418">
        <ele>45</ele>
        <time>2013-04-21T08:40:08.000Z</time>
      </trkpt>
      <trkpt lat="43.68789" lon="-1.29407">
        <ele>45.200000762939</ele>
        <time>2013-04-21T08:40:12.000Z</time>
      </trkpt>
      <trkpt lat="43.68786" lon="-1.29392">
        <ele>45.599998474121</ele>
        <time>2013-04-21T08:40:17.000Z</time>
      </trkpt>
      <trkpt lat="43.68782" lon="-1.29378">
        <ele>46.200000762939</ele>
        <time>2013-04-21T08:40:22.000Z</time>
      </trkpt>
      <trkpt lat="43.68781" lon="-1.29364">
        <ele>46.599998474121</ele>
        <time>2013-04-21T08:40:27.000Z</time>
      </trkpt>
      <trkpt lat="43.68782" lon="-1.2935">
        <ele>46.799999237061</ele>
        <time>2013-04-21T08:40:32.000Z</time>
      </trkpt>
      <trkpt lat="43.6878" lon="-1.29347">
        <ele>47</ele>
        <time>2013-04-21T08:40:33.000Z</time>
      </trkpt>
      <trkpt lat="43.68778" lon="-1.29338">
        <ele>47.200000762939</ele>
        <time>2013-04-21T08:40:36.000Z</time>
      </trkpt>
      <trkpt lat="43.68779" lon="-1.29328">
        <ele>47</ele>
        <time>2013-04-21T08:40:40.000Z</time>
      </trkpt>
      <trkpt lat="43.68781" lon="-1.29323">
        <ele>46.799999237061</ele>
        <time>2013-04-21T08:40:42.000Z</time>
      </trkpt>
      <trkpt lat="43.68784" lon="-1.29308">
        <ele>46.400001525879</ele>
        <time>2013-04-21T08:40:48.000Z</time>
      </trkpt>
      <trkpt lat="43.68785" lon="-1.29303">
        <ele>46.400001525879</ele>
        <time>2013-04-21T08:40:50.000Z</time>
      </trkpt>
      <trkpt lat="43.68787" lon="-1.29295">
        <ele>46</ele>
        <time>2013-04-21T08:40:53.000Z</time>
      </trkpt>
      <trkpt lat="43.68788" lon="-1.29282">
        <ele>45.799999237061</ele>
        <time>2013-04-21T08:40:58.000Z</time>
      </trkpt>
      <trkpt lat="43.68786" lon="-1.29274">
        <ele>45.799999237061</ele>
        <time>2013-04-21T08:41:02.000Z</time>
      </trkpt>
      <trkpt lat="43.68786" lon="-1.29269">
        <ele>45.599998474121</ele>
        <time>2013-04-21T08:41:04.000Z</time>
      </trkpt>
      <trkpt lat="43.6879" lon="-1.29255">
        <ele>45.200000762939</ele>
        <time>2013-04-21T08:41:09.000Z</time>
      </trkpt>
      <trkpt lat="43.68798" lon="-1.29241">
        <ele>44.200000762939</ele>
        <time>2013-04-21T08:41:15.000Z</time>
      </trkpt>
      <trkpt lat="43.68806" lon="-1.29231">
        <ele>43.400001525879</ele>
        <time>2013-04-21T08:41:20.000Z</time>
      </trkpt>
      <trkpt lat="43.68816" lon="-1.29217">
        <ele>42.599998474121</ele>
        <time>2013-04-21T08:41:26.000Z</time>
      </trkpt>
      <trkpt lat="43.68825" lon="-1.29202">
        <ele>41.799999237061</ele>
        <time>2013-04-21T08:41:32.000Z</time>
      </trkpt>
      <trkpt lat="43.68822" lon="-1.29191">
        <ele>41.799999237061</ele>
        <time>2013-04-21T08:41:37.000Z</time>
      </trkpt>
      <trkpt lat="43.68818" lon="-1.29175">
        <ele>41.799999237061</ele>
        <time>2013-04-21T08:41:43.000Z</time>
      </trkpt>
      <trkpt lat="43.68813" lon="-1.29158">
        <ele>42</ele>
        <time>2013-04-21T08:41:49.000Z</time>
      </trkpt>
      <trkpt lat="43.68812" lon="-1.29141">
        <ele>42.200000762939</ele>
        <time>2013-04-21T08:41:55.000Z</time>
      </trkpt>
      <trkpt lat="43.68815" lon="-1.29121">
        <ele>42.200000762939</ele>
        <time>2013-04-21T08:42:02.000Z</time>
      </trkpt>
      <trkpt lat="43.68815" lon="-1.29104">
        <ele>42.400001525879</ele>
        <time>2013-04-21T08:42:09.000Z</time>
      </trkpt>
      <trkpt lat="43.68813" lon="-1.291">
        <ele>42.400001525879</ele>
        <time>2013-04-21T08:42:11.000Z</time>
      </trkpt>
      <trkpt lat="43.68809" lon="-1.29097">
        <ele>42.599998474121</ele>
        <time>2013-04-21T08:42:14.000Z</time>
      </trkpt>
      <trkpt lat="43.68808" lon="-1.29094">
        <ele>42.599998474121</ele>
        <time>2013-04-21T08:42:16.000Z</time>
      </trkpt>
      <trkpt lat="43.68807" lon="-1.29088">
        <ele>42.599998474121</ele>
        <time>2013-04-21T08:42:18.000Z</time>
      </trkpt>
      <trkpt lat="43.68808" lon="-1.29084">
        <ele>42.599998474121</ele>
        <time>2013-04-21T08:42:20.000Z</time>
      </trkpt>
      <trkpt lat="43.68809" lon="-1.29083">
        <ele>42.599998474121</ele>
        <time>2013-04-21T08:42:21.000Z</time>
      </trkpt>
      <trkpt lat="43.68813" lon="-1.29079">
        <ele>42.799999237061</ele>
        <time>2013-04-21T08:42:23.000Z</time>
      </trkpt>
      <trkpt lat="43.68818" lon="-1.29068">
        <ele>43.400001525879</ele>
        <time>2013-04-21T08:42:28.000Z</time>
      </trkpt>
      <trkpt lat="43.6883" lon="-1.2905">
        <ele>44.799999237061</ele>
        <time>2013-04-21T08:42:36.000Z</time>
      </trkpt>
      <trkpt lat="43.68838" lon="-1.29034">
        <ele>45.799999237061</ele>
        <time>2013-04-21T08:42:43.000Z</time>
      </trkpt>
      <trkpt lat="43.68852" lon="-1.29026">
        <ele>45.799999237061</ele>
        <time>2013-04-21T08:42:49.000Z</time>
      </trkpt>
      <trkpt lat="43.68861" lon="-1.29019">
        <ele>45.799999237061</ele>
        <time>2013-04-21T08:42:54.000Z</time>
      </trkpt>
      <trkpt lat="43.68873" lon="-1.2901">
        <ele>46</ele>
        <time>2013-04-21T08:43:00.000Z</time>
      </trkpt>
      <trkpt lat="43.68882" lon="-1.29002">
        <ele>46</ele>
        <time>2013-04-21T08:43:05.000Z</time>
      </trkpt>
      <trkpt lat="43.68893" lon="-1.28995">
        <ele>46</ele>
        <time>2013-04-21T08:43:10.000Z</time>
      </trkpt>
      <trkpt lat="43.68904" lon="-1.28988">
        <ele>46.200000762939</ele>
        <time>2013-04-21T08:43:15.000Z</time>
      </trkpt>
      <trkpt lat="43.68915" lon="-1.2898">
        <ele>46.599998474121</ele>
        <time>2013-04-21T08:43:20.000Z</time>
      </trkpt>
      <trkpt lat="43.68927" lon="-1.28977">
        <ele>46.400001525879</ele>
        <time>2013-04-21T08:43:25.000Z</time>
      </trkpt>
      <trkpt lat="43.68938" lon="-1.28973">
        <ele>46.400001525879</ele>
        <time>2013-04-21T08:43:30.000Z</time>
      </trkpt>
      <trkpt lat="43.68951" lon="-1.28974">
        <ele>45.799999237061</ele>
        <time>2013-04-21T08:43:35.000Z</time>
      </trkpt>
      <trkpt lat="43.68962" lon="-1.28982">
        <ele>44.599998474121</ele>
        <time>2013-04-21T08:43:40.000Z</time>
      </trkpt>
      <trkpt lat="43.6897" lon="-1.28993">
        <ele>43.599998474121</ele>
        <time>2013-04-21T08:43:44.000Z</time>
      </trkpt>
      <trkpt lat="43.6897" lon="-1.28997">
        <ele>43.200000762939</ele>
        <time>2013-04-21T08:43:45.000Z</time>
      </trkpt>
      <trkpt lat="43.68976" lon="-1.29005">
        <ele>42.799999237061</ele>
        <time>2013-04-21T08:43:48.000Z</time>
      </trkpt>
      <trkpt lat="43.68977" lon="-1.29009">
        <ele>42.799999237061</ele>
        <time>2013-04-21T08:43:49.000Z</time>
      </trkpt>
      <trkpt lat="43.68987" lon="-1.29024">
        <ele>42.599998474121</ele>
        <time>2013-04-21T08:43:55.000Z</time>
      </trkpt>
      <trkpt lat="43.68997" lon="-1.29037">
        <ele>42.799999237061</ele>
        <time>2013-04-21T08:44:00.000Z</time>
      </trkpt>
      <trkpt lat="43.69013" lon="-1.29053">
        <ele>43</ele>
        <time>2013-04-21T08:44:08.000Z</time>
      </trkpt>
      <trkpt lat="43.69021" lon="-1.29061">
        <ele>43</ele>
        <time>2013-04-21T08:44:13.000Z</time>
      </trkpt>
      <trkpt lat="43.69029" lon="-1.29067">
        <ele>43.200000762939</ele>
        <time>2013-04-21T08:44:18.000Z</time>
      </trkpt>
      <trkpt lat="43.69041" lon="-1.29076">
        <ele>43.200000762939</ele>
        <time>2013-04-21T08:44:24.000Z</time>
      </trkpt>
      <trkpt lat="43.69049" lon="-1.2908">
        <ele>43.200000762939</ele>
        <time>2013-04-21T08:44:28.000Z</time>
      </trkpt>
      <trkpt lat="43.69052" lon="-1.29082">
        <ele>43.200000762939</ele>
        <time>2013-04-21T08:44:29.000Z</time>
      </trkpt>
      <trkpt lat="43.6906" lon="-1.29085">
        <ele>43.200000762939</ele>
        <time>2013-04-21T08:44:32.000Z</time>
      </trkpt>
      <trkpt lat="43.69068" lon="-1.29093">
        <ele>42.799999237061</ele>
        <time>2013-04-21T08:44:37.000Z</time>
      </trkpt>
      <trkpt lat="43.69077" lon="-1.29098">
        <ele>42.400001525879</ele>
        <time>2013-04-21T08:44:41.000Z</time>
      </trkpt>
      <trkpt lat="43.69086" lon="-1.29104">
        <ele>42.200000762939</ele>
        <time>2013-04-21T08:44:45.000Z</time>
      </trkpt>
      <trkpt lat="43.69091" lon="-1.29111">
        <ele>41.799999237061</ele>
        <time>2013-04-21T08:44:48.000Z</time>
      </trkpt>
      <trkpt lat="43.69095" lon="-1.29116">
        <ele>41.599998474121</ele>
        <time>2013-04-21T08:44:50.000Z</time>
      </trkpt>
      <trkpt lat="43.69107" lon="-1.29125">
        <ele>41.400001525879</ele>
        <time>2013-04-21T08:44:55.000Z</time>
      </trkpt>
      <trkpt lat="43.69121" lon="-1.2914">
        <ele>41</ele>
        <time>2013-04-21T08:45:02.000Z</time>
      </trkpt>
      <trkpt lat="43.6913" lon="-1.29156">
        <ele>40.799999237061</ele>
        <time>2013-04-21T08:45:08.000Z</time>
      </trkpt>
      <trkpt lat="43.69132" lon="-1.29174">
        <ele>40.400001525879</ele>
        <time>2013-04-21T08:45:14.000Z</time>
      </trkpt>
      <trkpt lat="43.69132" lon="-1.29179">
        <ele>40.400001525879</ele>
        <time>2013-04-21T08:45:16.000Z</time>
      </trkpt>
      <trkpt lat="43.6913" lon="-1.29187">
        <ele>40.200000762939</ele>
        <time>2013-04-21T08:45:19.000Z</time>
      </trkpt>
      <trkpt lat="43.69128" lon="-1.29197">
        <ele>40</ele>
        <time>2013-04-21T08:45:22.000Z</time>
      </trkpt>
      <trkpt lat="43.69127" lon="-1.29203">
        <ele>40</ele>
        <time>2013-04-21T08:45:24.000Z</time>
      </trkpt>
      <trkpt lat="43.69129" lon="-1.29216">
        <ele>39.799999237061</ele>
        <time>2013-04-21T08:45:28.000Z</time>
      </trkpt>
      <trkpt lat="43.69131" lon="-1.29234">
        <ele>39.599998474121</ele>
        <time>2013-04-21T08:45:33.000Z</time>
      </trkpt>
      <trkpt lat="43.69133" lon="-1.2925">
        <ele>39.400001525879</ele>
        <time>2013-04-21T08:45:38.000Z</time>
      </trkpt>
      <trkpt lat="43.69136" lon="-1.29265">
        <ele>39.200000762939</ele>
        <time>2013-04-21T08:45:43.000Z</time>
      </trkpt>
      <trkpt lat="43.69144" lon="-1.29283">
        <ele>38.799999237061</ele>
        <time>2013-04-21T08:45:50.000Z</time>
      </trkpt>
      <trkpt lat="43.69153" lon="-1.29291">
        <ele>38.599998474121</ele>
        <time>2013-04-21T08:45:56.000Z</time>
      </trkpt>
      <trkpt lat="43.69157" lon="-1.29289">
        <ele>38.599998474121</ele>
        <time>2013-04-21T08:45:58.000Z</time>
      </trkpt>
      <trkpt lat="43.69162" lon="-1.29289">
        <ele>38.599998474121</ele>
        <time>2013-04-21T08:46:00.000Z</time>
      </trkpt>
      <trkpt lat="43.69167" lon="-1.29287">
        <ele>38.400001525879</ele>
        <time>2013-04-21T08:46:03.000Z</time>
      </trkpt>
      <trkpt lat="43.69171" lon="-1.29285">
        <ele>38.400001525879</ele>
        <time>2013-04-21T08:46:05.000Z</time>
      </trkpt>
      <trkpt lat="43.69184" lon="-1.29281">
        <ele>38.400001525879</ele>
        <time>2013-04-21T08:46:11.000Z</time>
      </trkpt>
      <trkpt lat="43.69194" lon="-1.29281">
        <ele>38.400001525879</ele>
        <time>2013-04-21T08:46:16.000Z</time>
      </trkpt>
      <trkpt lat="43.69206" lon="-1.29279">
        <ele>38.400001525879</ele>
        <time>2013-04-21T08:46:21.000Z</time>
      </trkpt>
      <trkpt lat="43.69209" lon="-1.2928">
        <ele>38.400001525879</ele>
        <time>2013-04-21T08:46:24.000Z</time>
      </trkpt>
      <trkpt lat="43.69211" lon="-1.2928">
        <ele>38.400001525879</ele>
        <time>2013-04-21T08:46:25.000Z</time>
      </trkpt>
      <trkpt lat="43.69218" lon="-1.29279">
        <ele>38.400001525879</ele>
        <time>2013-04-21T08:46:29.000Z</time>
      </trkpt>
      <trkpt lat="43.69219" lon="-1.29279">
        <ele>38.400001525879</ele>
        <time>2013-04-21T08:46:30.000Z</time>
      </trkpt>
      <trkpt lat="43.6922" lon="-1.2928">
        <ele>38.400001525879</ele>
        <time>2013-04-21T08:46:31.000Z</time>
      </trkpt>
      <trkpt lat="43.69224" lon="-1.29279">
        <ele>38.400001525879</ele>
        <time>2013-04-21T08:46:36.000Z</time>
      </trkpt>
      <trkpt lat="43.69224" lon="-1.29279">
        <ele>38.400001525879</ele>
        <time>2013-04-21T08:46:37.000Z</time>
      </trkpt>
      <trkpt lat="43.69226" lon="-1.29274">
        <ele>38.400001525879</ele>
        <time>2013-04-21T08:46:46.000Z</time>
      </trkpt>
      <trkpt lat="43.69226" lon="-1.29268">
        <ele>38.599998474121</ele>
        <time>2013-04-21T08:46:54.000Z</time>
      </trkpt>
      <trkpt lat="43.69224" lon="-1.29269">
        <ele>38.599998474121</ele>
        <time>2013-04-21T08:47:00.000Z</time>
      </trkpt>
      <trkpt lat="43.6922" lon="-1.29268">
        <ele>38.599998474121</ele>
        <time>2013-04-21T08:49:36.000Z</time>
      </trkpt>
      <trkpt lat="43.69224" lon="-1.29267">
        <ele>38.599998474121</ele>
        <time>2013-04-21T08:49:50.000Z</time>
      </trkpt>
      <trkpt lat="43.69224" lon="-1.29269">
        <ele>38.599998474121</ele>
        <time>2013-04-21T08:50:01.000Z</time>
      </trkpt>
      <trkpt lat="43.69224" lon="-1.29262">
        <ele>38.599998474121</ele>
        <time>2013-04-21T08:51:51.000Z</time>
      </trkpt>
      <trkpt lat="43.69233" lon="-1.29269">
        <ele>38.400001525879</ele>
        <time>2013-04-21T08:52:19.000Z</time>
      </trkpt>
      <trkpt lat="43.69243" lon="-1.29266">
        <ele>38.599998474121</ele>
        <time>2013-04-21T08:52:25.000Z</time>
      </trkpt>
      <trkpt lat="43.69248" lon="-1.29262">
        <ele>38.599998474121</ele>
        <time>2013-04-21T08:52:28.000Z</time>
      </trkpt>
      <trkpt lat="43.69252" lon="-1.29261">
        <ele>38.799999237061</ele>
        <time>2013-04-21T08:52:30.000Z</time>
      </trkpt>
      <trkpt lat="43.69259" lon="-1.29255">
        <ele>39.400001525879</ele>
        <time>2013-04-21T08:52:34.000Z</time>
      </trkpt>
      <trkpt lat="43.6927" lon="-1.29249">
        <ele>40</ele>
        <time>2013-04-21T08:52:38.000Z</time>
      </trkpt>
      <trkpt lat="43.69283" lon="-1.2924">
        <ele>40.599998474121</ele>
        <time>2013-04-21T08:52:44.000Z</time>
      </trkpt>
      <trkpt lat="43.69296" lon="-1.29231">
        <ele>41.200000762939</ele>
        <time>2013-04-21T08:52:50.000Z</time>
      </trkpt>
      <trkpt lat="43.693" lon="-1.29225">
        <ele>41.200000762939</ele>
        <time>2013-04-21T08:52:53.000Z</time>
      </trkpt>
      <trkpt lat="43.69303" lon="-1.29221">
        <ele>41.200000762939</ele>
        <time>2013-04-21T08:52:55.000Z</time>
      </trkpt>
      <trkpt lat="43.69314" lon="-1.29211">
        <ele>41.599998474121</ele>
        <time>2013-04-21T08:53:01.000Z</time>
      </trkpt>
      <trkpt lat="43.69315" lon="-1.29209">
        <ele>41.599998474121</ele>
        <time>2013-04-21T08:53:02.000Z</time>
      </trkpt>
      <trkpt lat="43.6932" lon="-1.29208">
        <ele>41.799999237061</ele>
        <time>2013-04-21T08:53:05.000Z</time>
      </trkpt>
      <trkpt lat="43.69322" lon="-1.29207">
        <ele>41.799999237061</ele>
        <time>2013-04-21T08:53:06.000Z</time>
      </trkpt>
      <trkpt lat="43.69332" lon="-1.29202">
        <ele>42</ele>
        <time>2013-04-21T08:53:10.000Z</time>
      </trkpt>
      <trkpt lat="43.69341" lon="-1.29198">
        <ele>42.200000762939</ele>
        <time>2013-04-21T08:53:14.000Z</time>
      </trkpt>
      <trkpt lat="43.69352" lon="-1.29194">
        <ele>42.200000762939</ele>
        <time>2013-04-21T08:53:19.000Z</time>
      </trkpt>
      <trkpt lat="43.69364" lon="-1.29192">
        <ele>42.400001525879</ele>
        <time>2013-04-21T08:53:24.000Z</time>
      </trkpt>
      <trkpt lat="43.69375" lon="-1.29193">
        <ele>42.599998474121</ele>
        <time>2013-04-21T08:53:28.000Z</time>
      </trkpt>
      <trkpt lat="43.69387" lon="-1.29191">
        <ele>42.799999237061</ele>
        <time>2013-04-21T08:53:33.000Z</time>
      </trkpt>
      <trkpt lat="43.69398" lon="-1.29191">
        <ele>43</ele>
        <time>2013-04-21T08:53:38.000Z</time>
      </trkpt>
      <trkpt lat="43.69411" lon="-1.29192">
        <ele>43.400001525879</ele>
        <time>2013-04-21T08:53:43.000Z</time>
      </trkpt>
      <trkpt lat="43.69424" lon="-1.2919">
        <ele>43.200000762939</ele>
        <time>2013-04-21T08:53:49.000Z</time>
      </trkpt>
      <trkpt lat="43.69438" lon="-1.29189">
        <ele>43</ele>
        <time>2013-04-21T08:53:55.000Z</time>
      </trkpt>
      <trkpt lat="43.69449" lon="-1.29188">
        <ele>42.799999237061</ele>
        <time>2013-04-21T08:54:00.000Z</time>
      </trkpt>
      <trkpt lat="43.69452" lon="-1.29188">
        <ele>42.799999237061</ele>
        <time>2013-04-21T08:54:01.000Z</time>
      </trkpt>
      <trkpt lat="43.6946" lon="-1.29189">
        <ele>42.799999237061</ele>
        <time>2013-04-21T08:54:05.000Z</time>
      </trkpt>
      <trkpt lat="43.69472" lon="-1.29188">
        <ele>42.599998474121</ele>
        <time>2013-04-21T08:54:11.000Z</time>
      </trkpt>
      <trkpt lat="43.69485" lon="-1.29186">
        <ele>42.200000762939</ele>
        <time>2013-04-21T08:54:16.000Z</time>
      </trkpt>
      <trkpt lat="43.69488" lon="-1.29184">
        <ele>42</ele>
        <time>2013-04-21T08:54:18.000Z</time>
      </trkpt>
      <trkpt lat="43.69491" lon="-1.2918">
        <ele>41.799999237061</ele>
        <time>2013-04-21T08:54:20.000Z</time>
      </trkpt>
      <trkpt lat="43.69492" lon="-1.29171">
        <ele>41.200000762939</ele>
        <time>2013-04-21T08:54:23.000Z</time>
      </trkpt>
      <trkpt lat="43.69494" lon="-1.29164">
        <ele>41</ele>
        <time>2013-04-21T08:54:25.000Z</time>
      </trkpt>
      <trkpt lat="43.69496" lon="-1.29145">
        <ele>40.400001525879</ele>
        <time>2013-04-21T08:54:31.000Z</time>
      </trkpt>
      <trkpt lat="43.69496" lon="-1.2913">
        <ele>40</ele>
        <time>2013-04-21T08:54:36.000Z</time>
      </trkpt>
      <trkpt lat="43.69495" lon="-1.29113">
        <ele>39.599998474121</ele>
        <time>2013-04-21T08:54:41.000Z</time>
      </trkpt>
      <trkpt lat="43.69496" lon="-1.29104">
        <ele>39.400001525879</ele>
        <time>2013-04-21T08:54:44.000Z</time>
      </trkpt>
      <trkpt lat="43.69497" lon="-1.29099">
        <ele>39.200000762939</ele>
        <time>2013-04-21T08:54:45.000Z</time>
      </trkpt>
      <trkpt lat="43.69499" lon="-1.29082">
        <ele>38.799999237061</ele>
        <time>2013-04-21T08:54:51.000Z</time>
      </trkpt>
      <trkpt lat="43.69498" lon="-1.29065">
        <ele>38.599998474121</ele>
        <time>2013-04-21T08:54:56.000Z</time>
      </trkpt>
      <trkpt lat="43.69499" lon="-1.29043">
        <ele>38.400001525879</ele>
        <time>2013-04-21T08:55:02.000Z</time>
      </trkpt>
      <trkpt lat="43.695" lon="-1.29023">
        <ele>38.200000762939</ele>
        <time>2013-04-21T08:55:08.000Z</time>
      </trkpt>
      <trkpt lat="43.69498" lon="-1.29002">
        <ele>38</ele>
        <time>2013-04-21T08:55:14.000Z</time>
      </trkpt>
      <trkpt lat="43.69496" lon="-1.28982">
        <ele>38</ele>
        <time>2013-04-21T08:55:20.000Z</time>
      </trkpt>
      <trkpt lat="43.69495" lon="-1.28967">
        <ele>38</ele>
        <time>2013-04-21T08:55:25.000Z</time>
      </trkpt>
      <trkpt lat="43.69493" lon="-1.28952">
        <ele>38</ele>
        <time>2013-04-21T08:55:30.000Z</time>
      </trkpt>
      <trkpt lat="43.69495" lon="-1.28937">
        <ele>38</ele>
        <time>2013-04-21T08:55:35.000Z</time>
      </trkpt>
      <trkpt lat="43.69495" lon="-1.28923">
        <ele>38</ele>
        <time>2013-04-21T08:55:39.000Z</time>
      </trkpt>
      <trkpt lat="43.69494" lon="-1.28919">
        <ele>38</ele>
        <time>2013-04-21T08:55:40.000Z</time>
      </trkpt>
      <trkpt lat="43.69495" lon="-1.28902">
        <ele>38.200000762939</ele>
        <time>2013-04-21T08:55:45.000Z</time>
      </trkpt>
      <trkpt lat="43.69495" lon="-1.2888">
        <ele>38.400001525879</ele>
        <time>2013-04-21T08:55:52.000Z</time>
      </trkpt>
      <trkpt lat="43.69498" lon="-1.28863">
        <ele>38.599998474121</ele>
        <time>2013-04-21T08:55:58.000Z</time>
      </trkpt>
      <trkpt lat="43.69497" lon="-1.28856">
        <ele>38.599998474121</ele>
        <time>2013-04-21T08:56:00.000Z</time>
      </trkpt>
      <trkpt lat="43.69496" lon="-1.2885">
        <ele>38.799999237061</ele>
        <time>2013-04-21T08:56:02.000Z</time>
      </trkpt>
      <trkpt lat="43.69499" lon="-1.28834">
        <ele>39</ele>
        <time>2013-04-21T08:56:07.000Z</time>
      </trkpt>
      <trkpt lat="43.69504" lon="-1.28812">
        <ele>39.599998474121</ele>
        <time>2013-04-21T08:56:13.000Z</time>
      </trkpt>
      <trkpt lat="43.69507" lon="-1.28794">
        <ele>40.400001525879</ele>
        <time>2013-04-21T08:56:18.000Z</time>
      </trkpt>
      <trkpt lat="43.69505" lon="-1.28775">
        <ele>41</ele>
        <time>2013-04-21T08:56:23.000Z</time>
      </trkpt>
      <trkpt lat="43.69509" lon="-1.28761">
        <ele>41.400001525879</ele>
        <time>2013-04-21T08:56:28.000Z</time>
      </trkpt>
      <trkpt lat="43.69515" lon="-1.28764">
        <ele>41.200000762939</ele>
        <time>2013-04-21T08:56:32.000Z</time>
      </trkpt>
      <trkpt lat="43.69517" lon="-1.28766">
        <ele>41.200000762939</ele>
        <time>2013-04-21T08:56:33.000Z</time>
      </trkpt>
      <trkpt lat="43.69523" lon="-1.28769">
        <ele>41</ele>
        <time>2013-04-21T08:56:37.000Z</time>
      </trkpt>
      <trkpt lat="43.69536" lon="-1.28775">
        <ele>40.799999237061</ele>
        <time>2013-04-21T08:56:43.000Z</time>
      </trkpt>
      <trkpt lat="43.69548" lon="-1.28782">
        <ele>40.599998474121</ele>
        <time>2013-04-21T08:56:49.000Z</time>
      </trkpt>
      <trkpt lat="43.69559" lon="-1.28788">
        <ele>40.400001525879</ele>
        <time>2013-04-21T08:56:54.000Z</time>
      </trkpt>
      <trkpt lat="43.69573" lon="-1.28796">
        <ele>40.400001525879</ele>
        <time>2013-04-21T08:57:00.000Z</time>
      </trkpt>
      <trkpt lat="43.6958" lon="-1.28799">
        <ele>40.200000762939</ele>
        <time>2013-04-21T08:57:04.000Z</time>
      </trkpt>
      <trkpt lat="43.69593" lon="-1.28808">
        <ele>40.200000762939</ele>
        <time>2013-04-21T08:57:11.000Z</time>
      </trkpt>
      <trkpt lat="43.69606" lon="-1.28812">
        <ele>40</ele>
        <time>2013-04-21T08:57:18.000Z</time>
      </trkpt>
      <trkpt lat="43.69608" lon="-1.2881">
        <ele>40</ele>
        <time>2013-04-21T08:57:19.000Z</time>
      </trkpt>
      <trkpt lat="43.69614" lon="-1.28809">
        <ele>40</ele>
        <time>2013-04-21T08:57:22.000Z</time>
      </trkpt>
      <trkpt lat="43.69615" lon="-1.28812">
        <ele>40</ele>
        <time>2013-04-21T08:57:23.000Z</time>
      </trkpt>
      <trkpt lat="43.6962" lon="-1.28822">
        <ele>40</ele>
        <time>2013-04-21T08:57:27.000Z</time>
      </trkpt>
      <trkpt lat="43.69628" lon="-1.28828">
        <ele>40</ele>
        <time>2013-04-21T08:57:32.000Z</time>
      </trkpt>
      <trkpt lat="43.69636" lon="-1.28833">
        <ele>40</ele>
        <time>2013-04-21T08:57:37.000Z</time>
      </trkpt>
      <trkpt lat="43.69641" lon="-1.28836">
        <ele>40</ele>
        <time>2013-04-21T08:57:40.000Z</time>
      </trkpt>
      <trkpt lat="43.69648" lon="-1.28841">
        <ele>40</ele>
        <time>2013-04-21T08:57:43.000Z</time>
      </trkpt>
      <trkpt lat="43.69659" lon="-1.28846">
        <ele>40</ele>
        <time>2013-04-21T08:57:48.000Z</time>
      </trkpt>
      <trkpt lat="43.69668" lon="-1.28855">
        <ele>40</ele>
        <time>2013-04-21T08:57:53.000Z</time>
      </trkpt>
      <trkpt lat="43.69676" lon="-1.28859">
        <ele>40</ele>
        <time>2013-04-21T08:57:58.000Z</time>
      </trkpt>
      <trkpt lat="43.69678" lon="-1.28857">
        <ele>40</ele>
        <time>2013-04-21T08:57:59.000Z</time>
      </trkpt>
      <trkpt lat="43.69679" lon="-1.28843">
        <ele>40</ele>
        <time>2013-04-21T08:58:03.000Z</time>
      </trkpt>
      <trkpt lat="43.69679" lon="-1.28836">
        <ele>40</ele>
        <time>2013-04-21T08:58:05.000Z</time>
      </trkpt>
      <trkpt lat="43.69679" lon="-1.28827">
        <ele>39.799999237061</ele>
        <time>2013-04-21T08:58:08.000Z</time>
      </trkpt>
      <trkpt lat="43.6968" lon="-1.28812">
        <ele>39.799999237061</ele>
        <time>2013-04-21T08:58:13.000Z</time>
      </trkpt>
      <trkpt lat="43.6968" lon="-1.28802">
        <ele>39.799999237061</ele>
        <time>2013-04-21T08:58:16.000Z</time>
      </trkpt>
      <trkpt lat="43.6968" lon="-1.28799">
        <ele>39.799999237061</ele>
        <time>2013-04-21T08:58:17.000Z</time>
      </trkpt>
      <trkpt lat="43.69682" lon="-1.28789">
        <ele>39.799999237061</ele>
        <time>2013-04-21T08:58:21.000Z</time>
      </trkpt>
      <trkpt lat="43.69684" lon="-1.2877">
        <ele>39.799999237061</ele>
        <time>2013-04-21T08:58:27.000Z</time>
      </trkpt>
      <trkpt lat="43.69684" lon="-1.28754">
        <ele>39.599998474121</ele>
        <time>2013-04-21T08:58:32.000Z</time>
      </trkpt>
      <trkpt lat="43.69685" lon="-1.28733">
        <ele>39.799999237061</ele>
        <time>2013-04-21T08:58:37.000Z</time>
      </trkpt>
      <trkpt lat="43.69684" lon="-1.28721">
        <ele>39.799999237061</ele>
        <time>2013-04-21T08:58:41.000Z</time>
      </trkpt>
      <trkpt lat="43.69685" lon="-1.28717">
        <ele>39.799999237061</ele>
        <time>2013-04-21T08:58:42.000Z</time>
      </trkpt>
      <trkpt lat="43.69683" lon="-1.287">
        <ele>39.799999237061</ele>
        <time>2013-04-21T08:58:47.000Z</time>
      </trkpt>
      <trkpt lat="43.69686" lon="-1.28689">
        <ele>39.799999237061</ele>
        <time>2013-04-21T08:58:51.000Z</time>
      </trkpt>
      <trkpt lat="43.69689" lon="-1.28669">
        <ele>39.799999237061</ele>
        <time>2013-04-21T08:58:57.000Z</time>
      </trkpt>
      <trkpt lat="43.6969" lon="-1.2865">
        <ele>39.799999237061</ele>
        <time>2013-04-21T08:59:02.000Z</time>
      </trkpt>
      <trkpt lat="43.69694" lon="-1.28634">
        <ele>39.599998474121</ele>
        <time>2013-04-21T08:59:07.000Z</time>
      </trkpt>
      <trkpt lat="43.69699" lon="-1.28618">
        <ele>39.599998474121</ele>
        <time>2013-04-21T08:59:13.000Z</time>
      </trkpt>
      <trkpt lat="43.69705" lon="-1.286">
        <ele>39.400001525879</ele>
        <time>2013-04-21T08:59:19.000Z</time>
      </trkpt>
      <trkpt lat="43.69709" lon="-1.28585">
        <ele>39.400001525879</ele>
        <time>2013-04-21T08:59:24.000Z</time>
      </trkpt>
      <trkpt lat="43.69712" lon="-1.28568">
        <ele>39.200000762939</ele>
        <time>2013-04-21T08:59:29.000Z</time>
      </trkpt>
      <trkpt lat="43.69713" lon="-1.28565">
        <ele>39.200000762939</ele>
        <time>2013-04-21T08:59:30.000Z</time>
      </trkpt>
      <trkpt lat="43.69714" lon="-1.2855">
        <ele>39</ele>
        <time>2013-04-21T08:59:35.000Z</time>
      </trkpt>
      <trkpt lat="43.69715" lon="-1.2853">
        <ele>38.799999237061</ele>
        <time>2013-04-21T08:59:41.000Z</time>
      </trkpt>
      <trkpt lat="43.69716" lon="-1.28514">
        <ele>38.599998474121</ele>
        <time>2013-04-21T08:59:46.000Z</time>
      </trkpt>
      <trkpt lat="43.69717" lon="-1.28508">
        <ele>38.400001525879</ele>
        <time>2013-04-21T08:59:48.000Z</time>
      </trkpt>
      <trkpt lat="43.69716" lon="-1.285">
        <ele>38.400001525879</ele>
        <time>2013-04-21T08:59:51.000Z</time>
      </trkpt>
      <trkpt lat="43.69716" lon="-1.28485">
        <ele>38.400001525879</ele>
        <time>2013-04-21T08:59:55.000Z</time>
      </trkpt>
      <trkpt lat="43.69715" lon="-1.28465">
        <ele>38.799999237061</ele>
        <time>2013-04-21T09:00:01.000Z</time>
      </trkpt>
      <trkpt lat="43.69715" lon="-1.2845">
        <ele>39</ele>
        <time>2013-04-21T09:00:06.000Z</time>
      </trkpt>
      <trkpt lat="43.69714" lon="-1.28433">
        <ele>39.200000762939</ele>
        <time>2013-04-21T09:00:11.000Z</time>
      </trkpt>
      <trkpt lat="43.69711" lon="-1.28414">
        <ele>39.400001525879</ele>
        <time>2013-04-21T09:00:17.000Z</time>
      </trkpt>
      <trkpt lat="43.69712" lon="-1.28397">
        <ele>39.599998474121</ele>
        <time>2013-04-21T09:00:22.000Z</time>
      </trkpt>
      <trkpt lat="43.69713" lon="-1.28382">
        <ele>39.799999237061</ele>
        <time>2013-04-21T09:00:27.000Z</time>
      </trkpt>
      <trkpt lat="43.69713" lon="-1.28375">
        <ele>39.799999237061</ele>
        <time>2013-04-21T09:00:30.000Z</time>
      </trkpt>
      <trkpt lat="43.69713" lon="-1.28368">
        <ele>40</ele>
        <time>2013-04-21T09:00:32.000Z</time>
      </trkpt>
      <trkpt lat="43.69712" lon="-1.28361">
        <ele>40</ele>
        <time>2013-04-21T09:00:34.000Z</time>
      </trkpt>
      <trkpt lat="43.69713" lon="-1.28346">
        <ele>40.200000762939</ele>
        <time>2013-04-21T09:00:38.000Z</time>
      </trkpt>
      <trkpt lat="43.69711" lon="-1.28329">
        <ele>40.599998474121</ele>
        <time>2013-04-21T09:00:43.000Z</time>
      </trkpt>
      <trkpt lat="43.69709" lon="-1.28315">
        <ele>41</ele>
        <time>2013-04-21T09:00:48.000Z</time>
      </trkpt>
      <trkpt lat="43.69709" lon="-1.2831">
        <ele>41.200000762939</ele>
        <time>2013-04-21T09:00:49.000Z</time>
      </trkpt>
      <trkpt lat="43.6971" lon="-1.28303">
        <ele>41.400001525879</ele>
        <time>2013-04-21T09:00:52.000Z</time>
      </trkpt>
      <trkpt lat="43.69711" lon="-1.28296">
        <ele>41.599998474121</ele>
        <time>2013-04-21T09:00:54.000Z</time>
      </trkpt>
      <trkpt lat="43.69711" lon="-1.28286">
        <ele>42</ele>
        <time>2013-04-21T09:00:57.000Z</time>
      </trkpt>
      <trkpt lat="43.69711" lon="-1.28276">
        <ele>42.400001525879</ele>
        <time>2013-04-21T09:01:00.000Z</time>
      </trkpt>
      <trkpt lat="43.6971" lon="-1.28271">
        <ele>42.599998474121</ele>
        <time>2013-04-21T09:01:02.000Z</time>
      </trkpt>
      <trkpt lat="43.69707" lon="-1.28254">
        <ele>43.400001525879</ele>
        <time>2013-04-21T09:01:08.000Z</time>
      </trkpt>
      <trkpt lat="43.69704" lon="-1.2824">
        <ele>44.200000762939</ele>
        <time>2013-04-21T09:01:13.000Z</time>
      </trkpt>
      <trkpt lat="43.69702" lon="-1.28218">
        <ele>45.400001525879</ele>
        <time>2013-04-21T09:01:20.000Z</time>
      </trkpt>
      <trkpt lat="43.69701" lon="-1.28199">
        <ele>46.599998474121</ele>
        <time>2013-04-21T09:01:26.000Z</time>
      </trkpt>
      <trkpt lat="43.69699" lon="-1.28182">
        <ele>47.599998474121</ele>
        <time>2013-04-21T09:01:32.000Z</time>
      </trkpt>
      <trkpt lat="43.69696" lon="-1.28166">
        <ele>48.799999237061</ele>
        <time>2013-04-21T09:01:37.000Z</time>
      </trkpt>
      <trkpt lat="43.69694" lon="-1.28151">
        <ele>49</ele>
        <time>2013-04-21T09:01:43.000Z</time>
      </trkpt>
      <trkpt lat="43.69692" lon="-1.28132">
        <ele>49</ele>
        <time>2013-04-21T09:01:49.000Z</time>
      </trkpt>
      <trkpt lat="43.6969" lon="-1.28113">
        <ele>49</ele>
        <time>2013-04-21T09:01:55.000Z</time>
      </trkpt>
      <trkpt lat="43.69686" lon="-1.28097">
        <ele>49</ele>
        <time>2013-04-21T09:02:00.000Z</time>
      </trkpt>
      <trkpt lat="43.69681" lon="-1.28079">
        <ele>48.799999237061</ele>
        <time>2013-04-21T09:02:06.000Z</time>
      </trkpt>
      <trkpt lat="43.6968" lon="-1.28062">
        <ele>48.799999237061</ele>
        <time>2013-04-21T09:02:12.000Z</time>
      </trkpt>
      <trkpt lat="43.69677" lon="-1.28047">
        <ele>48.799999237061</ele>
        <time>2013-04-21T09:02:17.000Z</time>
      </trkpt>
      <trkpt lat="43.69673" lon="-1.28034">
        <ele>48.599998474121</ele>
        <time>2013-04-21T09:02:21.000Z</time>
      </trkpt>
      <trkpt lat="43.69669" lon="-1.2802">
        <ele>48.200000762939</ele>
        <time>2013-04-21T09:02:26.000Z</time>
      </trkpt>
      <trkpt lat="43.69663" lon="-1.28006">
        <ele>48</ele>
        <time>2013-04-21T09:02:31.000Z</time>
      </trkpt>
      <trkpt lat="43.69658" lon="-1.28">
        <ele>47.799999237061</ele>
        <time>2013-04-21T09:02:36.000Z</time>
      </trkpt>
      <trkpt lat="43.6965" lon="-1.28002">
        <ele>48</ele>
        <time>2013-04-21T09:02:40.000Z</time>
      </trkpt>
      <trkpt lat="43.6964" lon="-1.28004">
        <ele>48</ele>
        <time>2013-04-21T09:02:45.000Z</time>
      </trkpt>
      <trkpt lat="43.69631" lon="-1.28006">
        <ele>48</ele>
        <time>2013-04-21T09:02:49.000Z</time>
      </trkpt>
      <trkpt lat="43.69629" lon="-1.28005">
        <ele>48</ele>
        <time>2013-04-21T09:02:50.000Z</time>
      </trkpt>
      <trkpt lat="43.69618" lon="-1.28006">
        <ele>48.200000762939</ele>
        <time>2013-04-21T09:02:55.000Z</time>
      </trkpt>
      <trkpt lat="43.69607" lon="-1.28007">
        <ele>48.200000762939</ele>
        <time>2013-04-21T09:03:00.000Z</time>
      </trkpt>
      <trkpt lat="43.69596" lon="-1.2801">
        <ele>48.400001525879</ele>
        <time>2013-04-21T09:03:05.000Z</time>
      </trkpt>
      <trkpt lat="43.69582" lon="-1.28015">
        <ele>48.599998474121</ele>
        <time>2013-04-21T09:03:11.000Z</time>
      </trkpt>
      <trkpt lat="43.69565" lon="-1.2802">
        <ele>48.200000762939</ele>
        <time>2013-04-21T09:03:18.000Z</time>
      </trkpt>
      <trkpt lat="43.69557" lon="-1.28024">
        <ele>48</ele>
        <time>2013-04-21T09:03:22.000Z</time>
      </trkpt>
      <trkpt lat="43.69543" lon="-1.28027">
        <ele>47.599998474121</ele>
        <time>2013-04-21T09:03:28.000Z</time>
      </trkpt>
      <trkpt lat="43.69533" lon="-1.2803">
        <ele>47.200000762939</ele>
        <time>2013-04-21T09:03:33.000Z</time>
      </trkpt>
      <trkpt lat="43.69522" lon="-1.28033">
        <ele>46.799999237061</ele>
        <time>2013-04-21T09:03:38.000Z</time>
      </trkpt>
      <trkpt lat="43.6951" lon="-1.28034">
        <ele>46.400001525879</ele>
        <time>2013-04-21T09:03:43.000Z</time>
      </trkpt>
      <trkpt lat="43.695" lon="-1.28038">
        <ele>46</ele>
        <time>2013-04-21T09:03:48.000Z</time>
      </trkpt>
      <trkpt lat="43.69487" lon="-1.28043">
        <ele>45.400001525879</ele>
        <time>2013-04-21T09:03:54.000Z</time>
      </trkpt>
      <trkpt lat="43.69473" lon="-1.28048">
        <ele>44.799999237061</ele>
        <time>2013-04-21T09:04:00.000Z</time>
      </trkpt>
      <trkpt lat="43.69463" lon="-1.28049">
        <ele>44.400001525879</ele>
        <time>2013-04-21T09:04:05.000Z</time>
      </trkpt>
      <trkpt lat="43.69453" lon="-1.28049">
        <ele>44.200000762939</ele>
        <time>2013-04-21T09:04:10.000Z</time>
      </trkpt>
      <trkpt lat="43.69442" lon="-1.28052">
        <ele>43.599998474121</ele>
        <time>2013-04-21T09:04:14.000Z</time>
      </trkpt>
      <trkpt lat="43.69428" lon="-1.28058">
        <ele>43</ele>
        <time>2013-04-21T09:04:20.000Z</time>
      </trkpt>
      <trkpt lat="43.69415" lon="-1.28063">
        <ele>42.400001525879</ele>
        <time>2013-04-21T09:04:26.000Z</time>
      </trkpt>
      <trkpt lat="43.69411" lon="-1.28063">
        <ele>42.400001525879</ele>
        <time>2013-04-21T09:04:28.000Z</time>
      </trkpt>
      <trkpt lat="43.69408" lon="-1.28067">
        <ele>42.400001525879</ele>
        <time>2013-04-21T09:04:30.000Z</time>
      </trkpt>
      <trkpt lat="43.69403" lon="-1.28068">
        <ele>42.400001525879</ele>
        <time>2013-04-21T09:04:32.000Z</time>
      </trkpt>
      <trkpt lat="43.69396" lon="-1.28067">
        <ele>42.400001525879</ele>
        <time>2013-04-21T09:04:35.000Z</time>
      </trkpt>
      <trkpt lat="43.69396" lon="-1.28069">
        <ele>42.400001525879</ele>
        <time>2013-04-21T09:04:36.000Z</time>
      </trkpt>
      <trkpt lat="43.69393" lon="-1.28072">
        <ele>42.400001525879</ele>
        <time>2013-04-21T09:04:39.000Z</time>
      </trkpt>
      <trkpt lat="43.69392" lon="-1.28073">
        <ele>42.400001525879</ele>
        <time>2013-04-21T09:04:40.000Z</time>
      </trkpt>
      <trkpt lat="43.69391" lon="-1.28072">
        <ele>42.400001525879</ele>
        <time>2013-04-21T09:04:41.000Z</time>
      </trkpt>
      <trkpt lat="43.69385" lon="-1.28075">
        <ele>42.400001525879</ele>
        <time>2013-04-21T09:04:46.000Z</time>
      </trkpt>
      <trkpt lat="43.69384" lon="-1.28075">
        <ele>42.400001525879</ele>
        <time>2013-04-21T09:04:48.000Z</time>
      </trkpt>
      <trkpt lat="43.69382" lon="-1.28074">
        <ele>42.400001525879</ele>
        <time>2013-04-21T09:04:51.000Z</time>
      </trkpt>
      <trkpt lat="43.69381" lon="-1.28073">
        <ele>42.400001525879</ele>
        <time>2013-04-21T09:04:53.000Z</time>
      </trkpt>
      <trkpt lat="43.69378" lon="-1.28072">
        <ele>42.599998474121</ele>
        <time>2013-04-21T09:04:59.000Z</time>
      </trkpt>
      <trkpt lat="43.69375" lon="-1.28075">
        <ele>42.599998474121</ele>
        <time>2013-04-21T09:05:07.000Z</time>
      </trkpt>
      <trkpt lat="43.69377" lon="-1.28084">
        <ele>42.400001525879</ele>
        <time>2013-04-21T09:05:34.000Z</time>
      </trkpt>
      <trkpt lat="43.69379" lon="-1.28093">
        <ele>42.400001525879</ele>
        <time>2013-04-21T09:05:39.000Z</time>
      </trkpt>
      <trkpt lat="43.6938" lon="-1.28094">
        <ele>42.400001525879</ele>
        <time>2013-04-21T09:05:40.000Z</time>
      </trkpt>
      <trkpt lat="43.69381" lon="-1.28103">
        <ele>42.400001525879</ele>
        <time>2013-04-21T09:05:43.000Z</time>
      </trkpt>
      <trkpt lat="43.69383" lon="-1.28107">
        <ele>42.400001525879</ele>
        <time>2013-04-21T09:05:45.000Z</time>
      </trkpt>
      <trkpt lat="43.69383" lon="-1.28121">
        <ele>42.400001525879</ele>
        <time>2013-04-21T09:05:50.000Z</time>
      </trkpt>
      <trkpt lat="43.69383" lon="-1.28134">
        <ele>42.599998474121</ele>
        <time>2013-04-21T09:05:55.000Z</time>
      </trkpt>
      <trkpt lat="43.69384" lon="-1.28146">
        <ele>42.599998474121</ele>
        <time>2013-04-21T09:05:59.000Z</time>
      </trkpt>
      <trkpt lat="43.69384" lon="-1.28156">
        <ele>42.599998474121</ele>
        <time>2013-04-21T09:06:04.000Z</time>
      </trkpt>
      <trkpt lat="43.69386" lon="-1.28163">
        <ele>42.599998474121</ele>
        <time>2013-04-21T09:06:06.000Z</time>
      </trkpt>
      <trkpt lat="43.69386" lon="-1.28169">
        <ele>42.799999237061</ele>
        <time>2013-04-21T09:06:08.000Z</time>
      </trkpt>
      <trkpt lat="43.69388" lon="-1.28181">
        <ele>43.599998474121</ele>
        <time>2013-04-21T09:06:13.000Z</time>
      </trkpt>
      <trkpt lat="43.69388" lon="-1.28186">
        <ele>44</ele>
        <time>2013-04-21T09:06:16.000Z</time>
      </trkpt>
      <trkpt lat="43.69388" lon="-1.28189">
        <ele>44</ele>
        <time>2013-04-21T09:06:17.000Z</time>
      </trkpt>
      <trkpt lat="43.69389" lon="-1.28201">
        <ele>45</ele>
        <time>2013-04-21T09:06:22.000Z</time>
      </trkpt>
      <trkpt lat="43.6939" lon="-1.2822">
        <ele>46.200000762939</ele>
        <time>2013-04-21T09:06:28.000Z</time>
      </trkpt>
      <trkpt lat="43.69388" lon="-1.28224">
        <ele>46.400001525879</ele>
        <time>2013-04-21T09:06:30.000Z</time>
      </trkpt>
      <trkpt lat="43.69383" lon="-1.28229">
        <ele>47</ele>
        <time>2013-04-21T09:06:32.000Z</time>
      </trkpt>
      <trkpt lat="43.6937" lon="-1.28231">
        <ele>47.799999237061</ele>
        <time>2013-04-21T09:06:38.000Z</time>
      </trkpt>
      <trkpt lat="43.6936" lon="-1.28231">
        <ele>48.200000762939</ele>
        <time>2013-04-21T09:06:43.000Z</time>
      </trkpt>
      <trkpt lat="43.69352" lon="-1.28228">
        <ele>48.200000762939</ele>
        <time>2013-04-21T09:06:47.000Z</time>
      </trkpt>
      <trkpt lat="43.69344" lon="-1.28226">
        <ele>48.400001525879</ele>
        <time>2013-04-21T09:06:52.000Z</time>
      </trkpt>
      <trkpt lat="43.69334" lon="-1.28222">
        <ele>48.599998474121</ele>
        <time>2013-04-21T09:06:57.000Z</time>
      </trkpt>
      <trkpt lat="43.69324" lon="-1.28223">
        <ele>48.599998474121</ele>
        <time>2013-04-21T09:07:02.000Z</time>
      </trkpt>
      <trkpt lat="43.69313" lon="-1.28225">
        <ele>48.599998474121</ele>
        <time>2013-04-21T09:07:08.000Z</time>
      </trkpt>
      <trkpt lat="43.69306" lon="-1.28224">
        <ele>48.400001525879</ele>
        <time>2013-04-21T09:07:13.000Z</time>
      </trkpt>
      <trkpt lat="43.69304" lon="-1.28225">
        <ele>48.599998474121</ele>
        <time>2013-04-21T09:07:14.000Z</time>
      </trkpt>
      <trkpt lat="43.69297" lon="-1.28228">
        <ele>48.799999237061</ele>
        <time>2013-04-21T09:07:18.000Z</time>
      </trkpt>
      <trkpt lat="43.69288" lon="-1.28232">
        <ele>49</ele>
        <time>2013-04-21T09:07:23.000Z</time>
      </trkpt>
      <trkpt lat="43.69281" lon="-1.28236">
        <ele>49.200000762939</ele>
        <time>2013-04-21T09:07:27.000Z</time>
      </trkpt>
      <trkpt lat="43.69269" lon="-1.28238">
        <ele>49.200000762939</ele>
        <time>2013-04-21T09:07:33.000Z</time>
      </trkpt>
      <trkpt lat="43.69257" lon="-1.28244">
        <ele>49.599998474121</ele>
        <time>2013-04-21T09:07:39.000Z</time>
      </trkpt>
      <trkpt lat="43.69249" lon="-1.28247">
        <ele>49.599998474121</ele>
        <time>2013-04-21T09:07:44.000Z</time>
      </trkpt>
      <trkpt lat="43.69241" lon="-1.2825">
        <ele>49.400001525879</ele>
        <time>2013-04-21T09:07:48.000Z</time>
      </trkpt>
      <trkpt lat="43.69238" lon="-1.28253">
        <ele>49.400001525879</ele>
        <time>2013-04-21T09:07:50.000Z</time>
      </trkpt>
      <trkpt lat="43.69231" lon="-1.28257">
        <ele>49.200000762939</ele>
        <time>2013-04-21T09:07:54.000Z</time>
      </trkpt>
      <trkpt lat="43.69229" lon="-1.28259">
        <ele>49.200000762939</ele>
        <time>2013-04-21T09:07:55.000Z</time>
      </trkpt>
      <trkpt lat="43.69226" lon="-1.28261">
        <ele>49.200000762939</ele>
        <time>2013-04-21T09:07:57.000Z</time>
      </trkpt>
      <trkpt lat="43.69223" lon="-1.28265">
        <ele>49.200000762939</ele>
        <time>2013-04-21T09:07:59.000Z</time>
      </trkpt>
      <trkpt lat="43.69211" lon="-1.28274">
        <ele>49.400001525879</ele>
        <time>2013-04-21T09:08:06.000Z</time>
      </trkpt>
      <trkpt lat="43.69207" lon="-1.28279">
        <ele>49.400001525879</ele>
        <time>2013-04-21T09:08:09.000Z</time>
      </trkpt>
      <trkpt lat="43.69201" lon="-1.28283">
        <ele>49.400001525879</ele>
        <time>2013-04-21T09:08:12.000Z</time>
      </trkpt>
      <trkpt lat="43.69191" lon="-1.28292">
        <ele>49.599998474121</ele>
        <time>2013-04-21T09:08:18.000Z</time>
      </trkpt>
      <trkpt lat="43.69183" lon="-1.28297">
        <ele>49.599998474121</ele>
        <time>2013-04-21T09:08:22.000Z</time>
      </trkpt>
      <trkpt lat="43.6918" lon="-1.28298">
        <ele>49.599998474121</ele>
        <time>2013-04-21T09:08:24.000Z</time>
      </trkpt>
      <trkpt lat="43.69173" lon="-1.28305">
        <ele>49.799999237061</ele>
        <time>2013-04-21T09:08:28.000Z</time>
      </trkpt>
      <trkpt lat="43.69168" lon="-1.2831">
        <ele>50</ele>
        <time>2013-04-21T09:08:31.000Z</time>
      </trkpt>
      <trkpt lat="43.69165" lon="-1.28315">
        <ele>50.200000762939</ele>
        <time>2013-04-21T09:08:33.000Z</time>
      </trkpt>
      <trkpt lat="43.6916" lon="-1.28322">
        <ele>50.799999237061</ele>
        <time>2013-04-21T09:08:37.000Z</time>
      </trkpt>
      <trkpt lat="43.69156" lon="-1.28323">
        <ele>50.799999237061</ele>
        <time>2013-04-21T09:08:39.000Z</time>
      </trkpt>
      <trkpt lat="43.69151" lon="-1.28325">
        <ele>50.799999237061</ele>
        <time>2013-04-21T09:08:42.000Z</time>
      </trkpt>
      <trkpt lat="43.69149" lon="-1.28328">
        <ele>51</ele>
        <time>2013-04-21T09:08:44.000Z</time>
      </trkpt>
      <trkpt lat="43.69141" lon="-1.28338">
        <ele>51.400001525879</ele>
        <time>2013-04-21T09:08:49.000Z</time>
      </trkpt>
      <trkpt lat="43.69136" lon="-1.28346">
        <ele>51.799999237061</ele>
        <time>2013-04-21T09:08:53.000Z</time>
      </trkpt>
      <trkpt lat="43.69133" lon="-1.28351">
        <ele>52</ele>
        <time>2013-04-21T09:08:55.000Z</time>
      </trkpt>
      <trkpt lat="43.69131" lon="-1.28355">
        <ele>52</ele>
        <time>2013-04-21T09:08:57.000Z</time>
      </trkpt>
      <trkpt lat="43.69124" lon="-1.28366">
        <ele>52.400001525879</ele>
        <time>2013-04-21T09:09:02.000Z</time>
      </trkpt>
      <trkpt lat="43.69119" lon="-1.2837">
        <ele>52.599998474121</ele>
        <time>2013-04-21T09:09:05.000Z</time>
      </trkpt>
      <trkpt lat="43.69115" lon="-1.28372">
        <ele>52.599998474121</ele>
        <time>2013-04-21T09:09:07.000Z</time>
      </trkpt>
      <trkpt lat="43.69111" lon="-1.28369">
        <ele>52.400001525879</ele>
        <time>2013-04-21T09:09:11.000Z</time>
      </trkpt>
      <trkpt lat="43.69109" lon="-1.28355">
        <ele>51.599998474121</ele>
        <time>2013-04-21T09:09:17.000Z</time>
      </trkpt>
      <trkpt lat="43.69108" lon="-1.28347">
        <ele>51.200000762939</ele>
        <time>2013-04-21T09:09:21.000Z</time>
      </trkpt>
      <trkpt lat="43.69108" lon="-1.28345">
        <ele>51.200000762939</ele>
        <time>2013-04-21T09:09:23.000Z</time>
      </trkpt>
      <trkpt lat="43.69108" lon="-1.28344">
        <ele>51</ele>
        <time>2013-04-21T09:09:25.000Z</time>
      </trkpt>
      <trkpt lat="43.69104" lon="-1.28343">
        <ele>51</ele>
        <time>2013-04-21T09:09:30.000Z</time>
      </trkpt>
      <trkpt lat="43.69101" lon="-1.28344">
        <ele>50.799999237061</ele>
        <time>2013-04-21T09:09:35.000Z</time>
      </trkpt>
      <trkpt lat="43.69098" lon="-1.28344">
        <ele>50.799999237061</ele>
        <time>2013-04-21T09:09:40.000Z</time>
      </trkpt>
      <trkpt lat="43.69099" lon="-1.28352">
        <ele>51.400001525879</ele>
        <time>2013-04-21T09:09:46.000Z</time>
      </trkpt>
      <trkpt lat="43.69097" lon="-1.28357">
        <ele>51.599998474121</ele>
        <time>2013-04-21T09:09:51.000Z</time>
      </trkpt>
      <trkpt lat="43.69096" lon="-1.28359">
        <ele>51.599998474121</ele>
        <time>2013-04-21T09:09:53.000Z</time>
      </trkpt>
      <trkpt lat="43.69096" lon="-1.28361">
        <ele>51.799999237061</ele>
        <time>2013-04-21T09:09:59.000Z</time>
      </trkpt>
      <trkpt lat="43.69098" lon="-1.28364">
        <ele>52</ele>
        <time>2013-04-21T09:10:04.000Z</time>
      </trkpt>
      <trkpt lat="43.69099" lon="-1.28372">
        <ele>52.400001525879</ele>
        <time>2013-04-21T09:10:11.000Z</time>
      </trkpt>
      <trkpt lat="43.69098" lon="-1.28379">
        <ele>52.799999237061</ele>
        <time>2013-04-21T09:10:16.000Z</time>
      </trkpt>
      <trkpt lat="43.69098" lon="-1.28382">
        <ele>53</ele>
        <time>2013-04-21T09:10:18.000Z</time>
      </trkpt>
      <trkpt lat="43.69098" lon="-1.28392">
        <ele>53.599998474121</ele>
        <time>2013-04-21T09:10:24.000Z</time>
      </trkpt>
      <trkpt lat="43.69096" lon="-1.28404">
        <ele>54.200000762939</ele>
        <time>2013-04-21T09:10:29.000Z</time>
      </trkpt>
      <trkpt lat="43.69096" lon="-1.28407">
        <ele>54.400001525879</ele>
        <time>2013-04-21T09:10:30.000Z</time>
      </trkpt>
      <trkpt lat="43.6909" lon="-1.28421">
        <ele>54.799999237061</ele>
        <time>2013-04-21T09:10:35.000Z</time>
      </trkpt>
      <trkpt lat="43.69084" lon="-1.28437">
        <ele>54.400001525879</ele>
        <time>2013-04-21T09:10:40.000Z</time>
      </trkpt>
      <trkpt lat="43.69079" lon="-1.28447">
        <ele>54.200000762939</ele>
        <time>2013-04-21T09:10:44.000Z</time>
      </trkpt>
      <trkpt lat="43.69074" lon="-1.2846">
        <ele>54</ele>
        <time>2013-04-21T09:10:48.000Z</time>
      </trkpt>
      <trkpt lat="43.69069" lon="-1.28475">
        <ele>53.799999237061</ele>
        <time>2013-04-21T09:10:53.000Z</time>
      </trkpt>
      <trkpt lat="43.69061" lon="-1.28491">
        <ele>53.599998474121</ele>
        <time>2013-04-21T09:10:58.000Z</time>
      </trkpt>
      <trkpt lat="43.69058" lon="-1.28504">
        <ele>53.400001525879</ele>
        <time>2013-04-21T09:11:02.000Z</time>
      </trkpt>
      <trkpt lat="43.69055" lon="-1.28525">
        <ele>52.799999237061</ele>
        <time>2013-04-21T09:11:09.000Z</time>
      </trkpt>
      <trkpt lat="43.69048" lon="-1.28546">
        <ele>52.400001525879</ele>
        <time>2013-04-21T09:11:15.000Z</time>
      </trkpt>
      <trkpt lat="43.69043" lon="-1.28568">
        <ele>51.799999237061</ele>
        <time>2013-04-21T09:11:22.000Z</time>
      </trkpt>
      <trkpt lat="43.6904" lon="-1.28584">
        <ele>51.400001525879</ele>
        <time>2013-04-21T09:11:27.000Z</time>
      </trkpt>
      <trkpt lat="43.69032" lon="-1.28601">
        <ele>51.400001525879</ele>
        <time>2013-04-21T09:11:33.000Z</time>
      </trkpt>
      <trkpt lat="43.69022" lon="-1.2862">
        <ele>51.400001525879</ele>
        <time>2013-04-21T09:11:40.000Z</time>
      </trkpt>
      <trkpt lat="43.69014" lon="-1.28635">
        <ele>51.400001525879</ele>
        <time>2013-04-21T09:11:46.000Z</time>
      </trkpt>
      <trkpt lat="43.69008" lon="-1.28648">
        <ele>51.200000762939</ele>
        <time>2013-04-21T09:11:51.000Z</time>
      </trkpt>
      <trkpt lat="43.69001" lon="-1.28661">
        <ele>51</ele>
        <time>2013-04-21T09:11:56.000Z</time>
      </trkpt>
      <trkpt lat="43.68996" lon="-1.28671">
        <ele>51</ele>
        <time>2013-04-21T09:12:00.000Z</time>
      </trkpt>
      <trkpt lat="43.68995" lon="-1.28673">
        <ele>51.200000762939</ele>
        <time>2013-04-21T09:12:01.000Z</time>
      </trkpt>
      <trkpt lat="43.68988" lon="-1.28687">
        <ele>51.599998474121</ele>
        <time>2013-04-21T09:12:06.000Z</time>
      </trkpt>
      <trkpt lat="43.68982" lon="-1.28706">
        <ele>52.200000762939</ele>
        <time>2013-04-21T09:12:12.000Z</time>
      </trkpt>
      <trkpt lat="43.68977" lon="-1.28717">
        <ele>52.400001525879</ele>
        <time>2013-04-21T09:12:16.000Z</time>
      </trkpt>
      <trkpt lat="43.68976" lon="-1.2872">
        <ele>52.599998474121</ele>
        <time>2013-04-21T09:12:17.000Z</time>
      </trkpt>
      <trkpt lat="43.68967" lon="-1.28732">
        <ele>53</ele>
        <time>2013-04-21T09:12:22.000Z</time>
      </trkpt>
      <trkpt lat="43.68957" lon="-1.28745">
        <ele>53.400001525879</ele>
        <time>2013-04-21T09:12:28.000Z</time>
      </trkpt>
      <trkpt lat="43.68948" lon="-1.2876">
        <ele>53.400001525879</ele>
        <time>2013-04-21T09:12:34.000Z</time>
      </trkpt>
      <trkpt lat="43.6894" lon="-1.28776">
        <ele>53.200000762939</ele>
        <time>2013-04-21T09:12:40.000Z</time>
      </trkpt>
      <trkpt lat="43.68934" lon="-1.28792">
        <ele>53</ele>
        <time>2013-04-21T09:12:46.000Z</time>
      </trkpt>
      <trkpt lat="43.68928" lon="-1.28807">
        <ele>53</ele>
        <time>2013-04-21T09:12:52.000Z</time>
      </trkpt>
      <trkpt lat="43.68923" lon="-1.28821">
        <ele>52.799999237061</ele>
        <time>2013-04-21T09:12:57.000Z</time>
      </trkpt>
      <trkpt lat="43.68917" lon="-1.28836">
        <ele>52.799999237061</ele>
        <time>2013-04-21T09:13:02.000Z</time>
      </trkpt>
      <trkpt lat="43.68909" lon="-1.28847">
        <ele>52.599998474121</ele>
        <time>2013-04-21T09:13:07.000Z</time>
      </trkpt>
      <trkpt lat="43.68901" lon="-1.2885">
        <ele>52.200000762939</ele>
        <time>2013-04-21T09:13:11.000Z</time>
      </trkpt>
      <trkpt lat="43.68894" lon="-1.28841">
        <ele>52.200000762939</ele>
        <time>2013-04-21T09:13:16.000Z</time>
      </trkpt>
      <trkpt lat="43.68882" lon="-1.28834">
        <ele>52</ele>
        <time>2013-04-21T09:13:23.000Z</time>
      </trkpt>
      <trkpt lat="43.68873" lon="-1.28826">
        <ele>52</ele>
        <time>2013-04-21T09:13:29.000Z</time>
      </trkpt>
      <trkpt lat="43.6887" lon="-1.28805">
        <ele>52.599998474121</ele>
        <time>2013-04-21T09:13:34.000Z</time>
      </trkpt>
      <trkpt lat="43.68869" lon="-1.28785">
        <ele>53.400001525879</ele>
        <time>2013-04-21T09:13:40.000Z</time>
      </trkpt>
      <trkpt lat="43.68872" lon="-1.28765">
        <ele>54</ele>
        <time>2013-04-21T09:13:46.000Z</time>
      </trkpt>
      <trkpt lat="43.6887" lon="-1.28749">
        <ele>54.400001525879</ele>
        <time>2013-04-21T09:13:51.000Z</time>
      </trkpt>
      <trkpt lat="43.68874" lon="-1.28729">
        <ele>54.400001525879</ele>
        <time>2013-04-21T09:13:57.000Z</time>
      </trkpt>
      <trkpt lat="43.68873" lon="-1.28712">
        <ele>54.400001525879</ele>
        <time>2013-04-21T09:14:02.000Z</time>
      </trkpt>
      <trkpt lat="43.68877" lon="-1.28693">
        <ele>54.400001525879</ele>
        <time>2013-04-21T09:14:09.000Z</time>
      </trkpt>
      <trkpt lat="43.68879" lon="-1.28668">
        <ele>54.200000762939</ele>
        <time>2013-04-21T09:14:16.000Z</time>
      </trkpt>
      <trkpt lat="43.68879" lon="-1.28664">
        <ele>54.200000762939</ele>
        <time>2013-04-21T09:14:17.000Z</time>
      </trkpt>
      <trkpt lat="43.6888" lon="-1.28648">
        <ele>54.400001525879</ele>
        <time>2013-04-21T09:14:22.000Z</time>
      </trkpt>
      <trkpt lat="43.68882" lon="-1.28632">
        <ele>54.599998474121</ele>
        <time>2013-04-21T09:14:27.000Z</time>
      </trkpt>
      <trkpt lat="43.68884" lon="-1.28617">
        <ele>54.599998474121</ele>
        <time>2013-04-21T09:14:32.000Z</time>
      </trkpt>
      <trkpt lat="43.68884" lon="-1.286">
        <ele>54.799999237061</ele>
        <time>2013-04-21T09:14:37.000Z</time>
      </trkpt>
      <trkpt lat="43.68885" lon="-1.28585">
        <ele>55</ele>
        <time>2013-04-21T09:14:42.000Z</time>
      </trkpt>
      <trkpt lat="43.68886" lon="-1.28569">
        <ele>55.200000762939</ele>
        <time>2013-04-21T09:14:47.000Z</time>
      </trkpt>
      <trkpt lat="43.68891" lon="-1.28551">
        <ele>55.200000762939</ele>
        <time>2013-04-21T09:14:53.000Z</time>
      </trkpt>
      <trkpt lat="43.68892" lon="-1.28534">
        <ele>55.400001525879</ele>
        <time>2013-04-21T09:14:58.000Z</time>
      </trkpt>
      <trkpt lat="43.68893" lon="-1.28516">
        <ele>55.599998474121</ele>
        <time>2013-04-21T09:15:04.000Z</time>
      </trkpt>
      <trkpt lat="43.68896" lon="-1.28498">
        <ele>55.599998474121</ele>
        <time>2013-04-21T09:15:10.000Z</time>
      </trkpt>
      <trkpt lat="43.6889" lon="-1.28475">
        <ele>56.200000762939</ele>
        <time>2013-04-21T09:15:17.000Z</time>
      </trkpt>
      <trkpt lat="43.68889" lon="-1.28459">
        <ele>56.599998474121</ele>
        <time>2013-04-21T09:15:23.000Z</time>
      </trkpt>
      <trkpt lat="43.68887" lon="-1.28445">
        <ele>56.799999237061</ele>
        <time>2013-04-21T09:15:27.000Z</time>
      </trkpt>
      <trkpt lat="43.68885" lon="-1.28425">
        <ele>57.200000762939</ele>
        <time>2013-04-21T09:15:34.000Z</time>
      </trkpt>
      <trkpt lat="43.68881" lon="-1.28408">
        <ele>57.200000762939</ele>
        <time>2013-04-21T09:15:40.000Z</time>
      </trkpt>
      <trkpt lat="43.68876" lon="-1.28396">
        <ele>57</ele>
        <time>2013-04-21T09:15:46.000Z</time>
      </trkpt>
      <trkpt lat="43.6887" lon="-1.2838">
        <ele>56.599998474121</ele>
        <time>2013-04-21T09:15:51.000Z</time>
      </trkpt>
      <trkpt lat="43.68869" lon="-1.28373">
        <ele>56.400001525879</ele>
        <time>2013-04-21T09:15:54.000Z</time>
      </trkpt>
      <trkpt lat="43.68867" lon="-1.28364">
        <ele>56.200000762939</ele>
        <time>2013-04-21T09:15:57.000Z</time>
      </trkpt>
      <trkpt lat="43.68863" lon="-1.28346">
        <ele>55.799999237061</ele>
        <time>2013-04-21T09:16:02.000Z</time>
      </trkpt>
      <trkpt lat="43.68859" lon="-1.28336">
        <ele>55.799999237061</ele>
        <time>2013-04-21T09:16:07.000Z</time>
      </trkpt>
      <trkpt lat="43.68859" lon="-1.28332">
        <ele>55.599998474121</ele>
        <time>2013-04-21T09:16:11.000Z</time>
      </trkpt>
      <trkpt lat="43.68859" lon="-1.28328">
        <ele>55.400001525879</ele>
        <time>2013-04-21T09:16:13.000Z</time>
      </trkpt>
      <trkpt lat="43.6886" lon="-1.28321">
        <ele>55.200000762939</ele>
        <time>2013-04-21T09:16:21.000Z</time>
      </trkpt>
      <trkpt lat="43.68862" lon="-1.28318">
        <ele>54.799999237061</ele>
        <time>2013-04-21T09:16:30.000Z</time>
      </trkpt>
      <trkpt lat="43.68861" lon="-1.28318">
        <ele>54.799999237061</ele>
        <time>2013-04-21T09:16:38.000Z</time>
      </trkpt>
      <trkpt lat="43.68862" lon="-1.28314">
        <ele>54.599998474121</ele>
        <time>2013-04-21T09:16:43.000Z</time>
      </trkpt>
      <trkpt lat="43.68861" lon="-1.2831">
        <ele>54.400001525879</ele>
        <time>2013-04-21T09:16:48.000Z</time>
      </trkpt>
      <trkpt lat="43.68856" lon="-1.28309">
        <ele>54.799999237061</ele>
        <time>2013-04-21T09:16:54.000Z</time>
      </trkpt>
      <trkpt lat="43.68854" lon="-1.28309">
        <ele>55</ele>
        <time>2013-04-21T09:16:55.000Z</time>
      </trkpt>
      <trkpt lat="43.68851" lon="-1.28311">
        <ele>55.400001525879</ele>
        <time>2013-04-21T09:17:00.000Z</time>
      </trkpt>
      <trkpt lat="43.68847" lon="-1.2831">
        <ele>55.599998474121</ele>
        <time>2013-04-21T09:17:03.000Z</time>
      </trkpt>
      <trkpt lat="43.68844" lon="-1.28304">
        <ele>55.599998474121</ele>
        <time>2013-04-21T09:17:06.000Z</time>
      </trkpt>
      <trkpt lat="43.68836" lon="-1.2829">
        <ele>55.599998474121</ele>
        <time>2013-04-21T09:17:12.000Z</time>
      </trkpt>
      <trkpt lat="43.68827" lon="-1.28277">
        <ele>55.400001525879</ele>
        <time>2013-04-21T09:17:19.000Z</time>
      </trkpt>
      <trkpt lat="43.68817" lon="-1.28267">
        <ele>55.200000762939</ele>
        <time>2013-04-21T09:17:26.000Z</time>
      </trkpt>
      <trkpt lat="43.68811" lon="-1.28262">
        <ele>55.200000762939</ele>
        <time>2013-04-21T09:17:30.000Z</time>
      </trkpt>
      <trkpt lat="43.688" lon="-1.28265">
        <ele>55.599998474121</ele>
        <time>2013-04-21T09:17:35.000Z</time>
      </trkpt>
      <trkpt lat="43.68799" lon="-1.28266">
        <ele>55.799999237061</ele>
        <time>2013-04-21T09:17:36.000Z</time>
      </trkpt>
      <trkpt lat="43.68789" lon="-1.2827">
        <ele>56.200000762939</ele>
        <time>2013-04-21T09:17:41.000Z</time>
      </trkpt>
      <trkpt lat="43.6878" lon="-1.28273">
        <ele>56.599998474121</ele>
        <time>2013-04-21T09:17:46.000Z</time>
      </trkpt>
      <trkpt lat="43.68768" lon="-1.28278">
        <ele>57</ele>
        <time>2013-04-21T09:17:52.000Z</time>
      </trkpt>
      <trkpt lat="43.68759" lon="-1.28284">
        <ele>57.400001525879</ele>
        <time>2013-04-21T09:17:57.000Z</time>
      </trkpt>
      <trkpt lat="43.68745" lon="-1.28287">
        <ele>58</ele>
        <time>2013-04-21T09:18:04.000Z</time>
      </trkpt>
      <trkpt lat="43.68737" lon="-1.2829">
        <ele>58.200000762939</ele>
        <time>2013-04-21T09:18:08.000Z</time>
      </trkpt>
      <trkpt lat="43.68729" lon="-1.28301">
        <ele>58.599998474121</ele>
        <time>2013-04-21T09:18:13.000Z</time>
      </trkpt>
      <trkpt lat="43.68725" lon="-1.2831">
        <ele>59</ele>
        <time>2013-04-21T09:18:17.000Z</time>
      </trkpt>
      <trkpt lat="43.68718" lon="-1.28323">
        <ele>59.200000762939</ele>
        <time>2013-04-21T09:18:22.000Z</time>
      </trkpt>
      <trkpt lat="43.6871" lon="-1.28338">
        <ele>59.400001525879</ele>
        <time>2013-04-21T09:18:27.000Z</time>
      </trkpt>
      <trkpt lat="43.68704" lon="-1.28352">
        <ele>59.400001525879</ele>
        <time>2013-04-21T09:18:32.000Z</time>
      </trkpt>
      <trkpt lat="43.68698" lon="-1.28373">
        <ele>59.200000762939</ele>
        <time>2013-04-21T09:18:39.000Z</time>
      </trkpt>
      <trkpt lat="43.68699" lon="-1.28392">
        <ele>59.200000762939</ele>
        <time>2013-04-21T09:18:45.000Z</time>
      </trkpt>
      <trkpt lat="43.68698" lon="-1.28408">
        <ele>59</ele>
        <time>2013-04-21T09:18:50.000Z</time>
      </trkpt>
      <trkpt lat="43.68698" lon="-1.28425">
        <ele>58.599998474121</ele>
        <time>2013-04-21T09:18:55.000Z</time>
      </trkpt>
      <trkpt lat="43.68704" lon="-1.28438">
        <ele>58</ele>
        <time>2013-04-21T09:19:00.000Z</time>
      </trkpt>
      <trkpt lat="43.6871" lon="-1.28455">
        <ele>57.400001525879</ele>
        <time>2013-04-21T09:19:07.000Z</time>
      </trkpt>
      <trkpt lat="43.68704" lon="-1.28459">
        <ele>56.799999237061</ele>
        <time>2013-04-21T09:19:10.000Z</time>
      </trkpt>
      <trkpt lat="43.68699" lon="-1.28461">
        <ele>56.400001525879</ele>
        <time>2013-04-21T09:19:12.000Z</time>
      </trkpt>
      <trkpt lat="43.68684" lon="-1.28467">
        <ele>55.400001525879</ele>
        <time>2013-04-21T09:19:18.000Z</time>
      </trkpt>
      <trkpt lat="43.68672" lon="-1.28469">
        <ele>54.400001525879</ele>
        <time>2013-04-21T09:19:23.000Z</time>
      </trkpt>
      <trkpt lat="43.6866" lon="-1.28473">
        <ele>53.799999237061</ele>
        <time>2013-04-21T09:19:28.000Z</time>
      </trkpt>
      <trkpt lat="43.68646" lon="-1.2848">
        <ele>53.200000762939</ele>
        <time>2013-04-21T09:19:34.000Z</time>
      </trkpt>
      <trkpt lat="43.68636" lon="-1.28486">
        <ele>52.599998474121</ele>
        <time>2013-04-21T09:19:38.000Z</time>
      </trkpt>
      <trkpt lat="43.68623" lon="-1.28493">
        <ele>51.799999237061</ele>
        <time>2013-04-21T09:19:44.000Z</time>
      </trkpt>
      <trkpt lat="43.68614" lon="-1.28499">
        <ele>51.400001525879</ele>
        <time>2013-04-21T09:19:49.000Z</time>
      </trkpt>
      <trkpt lat="43.68602" lon="-1.28504">
        <ele>51</ele>
        <time>2013-04-21T09:19:55.000Z</time>
      </trkpt>
      <trkpt lat="43.6859" lon="-1.28509">
        <ele>50.599998474121</ele>
        <time>2013-04-21T09:20:01.000Z</time>
      </trkpt>
      <trkpt lat="43.68574" lon="-1.28517">
        <ele>50.599998474121</ele>
        <time>2013-04-21T09:20:09.000Z</time>
      </trkpt>
      <trkpt lat="43.68561" lon="-1.28516">
        <ele>50.799999237061</ele>
        <time>2013-04-21T09:20:15.000Z</time>
      </trkpt>
      <trkpt lat="43.68551" lon="-1.28515">
        <ele>51.200000762939</ele>
        <time>2013-04-21T09:20:20.000Z</time>
      </trkpt>
      <trkpt lat="43.68537" lon="-1.2851">
        <ele>51.799999237061</ele>
        <time>2013-04-21T09:20:26.000Z</time>
      </trkpt>
      <trkpt lat="43.68525" lon="-1.28505">
        <ele>52.200000762939</ele>
        <time>2013-04-21T09:20:32.000Z</time>
      </trkpt>
      <trkpt lat="43.68514" lon="-1.28502">
        <ele>52.599998474121</ele>
        <time>2013-04-21T09:20:37.000Z</time>
      </trkpt>
      <trkpt lat="43.68504" lon="-1.28498">
        <ele>53</ele>
        <time>2013-04-21T09:20:42.000Z</time>
      </trkpt>
      <trkpt lat="43.68493" lon="-1.28494">
        <ele>53.400001525879</ele>
        <time>2013-04-21T09:20:47.000Z</time>
      </trkpt>
      <trkpt lat="43.68484" lon="-1.2849">
        <ele>53.799999237061</ele>
        <time>2013-04-21T09:20:51.000Z</time>
      </trkpt>
      <trkpt lat="43.68472" lon="-1.28489">
        <ele>54</ele>
        <time>2013-04-21T09:20:57.000Z</time>
      </trkpt>
      <trkpt lat="43.6847" lon="-1.2849">
        <ele>54</ele>
        <time>2013-04-21T09:20:58.000Z</time>
      </trkpt>
      <trkpt lat="43.68467" lon="-1.28493">
        <ele>54</ele>
        <time>2013-04-21T09:21:01.000Z</time>
      </trkpt>
      <trkpt lat="43.68463" lon="-1.28494">
        <ele>54</ele>
        <time>2013-04-21T09:21:06.000Z</time>
      </trkpt>
      <trkpt lat="43.68459" lon="-1.28495">
        <ele>54</ele>
        <time>2013-04-21T09:21:10.000Z</time>
      </trkpt>
      <trkpt lat="43.68454" lon="-1.28495">
        <ele>54.200000762939</ele>
        <time>2013-04-21T09:21:12.000Z</time>
      </trkpt>
      <trkpt lat="43.68438" lon="-1.28503">
        <ele>54.400001525879</ele>
        <time>2013-04-21T09:21:20.000Z</time>
      </trkpt>
      <trkpt lat="43.68426" lon="-1.28511">
        <ele>54.400001525879</ele>
        <time>2013-04-21T09:21:26.000Z</time>
      </trkpt>
      <trkpt lat="43.68417" lon="-1.28519">
        <ele>54.400001525879</ele>
        <time>2013-04-21T09:21:31.000Z</time>
      </trkpt>
      <trkpt lat="43.68406" lon="-1.28525">
        <ele>54.799999237061</ele>
        <time>2013-04-21T09:21:38.000Z</time>
      </trkpt>
      <trkpt lat="43.68397" lon="-1.28528">
        <ele>55</ele>
        <time>2013-04-21T09:21:43.000Z</time>
      </trkpt>
      <trkpt lat="43.68388" lon="-1.28525">
        <ele>55.599998474121</ele>
        <time>2013-04-21T09:21:48.000Z</time>
      </trkpt>
      <trkpt lat="43.6838" lon="-1.28525">
        <ele>55.799999237061</ele>
        <time>2013-04-21T09:21:52.000Z</time>
      </trkpt>
      <trkpt lat="43.68375" lon="-1.28527">
        <ele>56</ele>
        <time>2013-04-21T09:21:54.000Z</time>
      </trkpt>
      <trkpt lat="43.68371" lon="-1.28526">
        <ele>56.200000762939</ele>
        <time>2013-04-21T09:21:56.000Z</time>
      </trkpt>
      <trkpt lat="43.68368" lon="-1.28525">
        <ele>56.400001525879</ele>
        <time>2013-04-21T09:21:58.000Z</time>
      </trkpt>
      <trkpt lat="43.68359" lon="-1.28529">
        <ele>56.799999237061</ele>
        <time>2013-04-21T09:22:02.000Z</time>
      </trkpt>
      <trkpt lat="43.68357" lon="-1.2853">
        <ele>56.799999237061</ele>
        <time>2013-04-21T09:22:03.000Z</time>
      </trkpt>
      <trkpt lat="43.68346" lon="-1.28535">
        <ele>57.599998474121</ele>
        <time>2013-04-21T09:22:08.000Z</time>
      </trkpt>
      <trkpt lat="43.6833" lon="-1.28541">
        <ele>58.200000762939</ele>
        <time>2013-04-21T09:22:15.000Z</time>
      </trkpt>
      <trkpt lat="43.68318" lon="-1.28544">
        <ele>57.799999237061</ele>
        <time>2013-04-21T09:22:20.000Z</time>
      </trkpt>
      <trkpt lat="43.68302" lon="-1.28549">
        <ele>57.400001525879</ele>
        <time>2013-04-21T09:22:27.000Z</time>
      </trkpt>
      <trkpt lat="43.68287" lon="-1.2855">
        <ele>57</ele>
        <time>2013-04-21T09:22:33.000Z</time>
      </trkpt>
      <trkpt lat="43.68272" lon="-1.28549">
        <ele>56.400001525879</ele>
        <time>2013-04-21T09:22:39.000Z</time>
      </trkpt>
      <trkpt lat="43.68254" lon="-1.28545">
        <ele>55.400001525879</ele>
        <time>2013-04-21T09:22:46.000Z</time>
      </trkpt>
      <trkpt lat="43.68252" lon="-1.28545">
        <ele>55.200000762939</ele>
        <time>2013-04-21T09:22:47.000Z</time>
      </trkpt>
      <trkpt lat="43.68238" lon="-1.28541">
        <ele>53.799999237061</ele>
        <time>2013-04-21T09:22:53.000Z</time>
      </trkpt>
      <trkpt lat="43.68223" lon="-1.28537">
        <ele>52.200000762939</ele>
        <time>2013-04-21T09:22:59.000Z</time>
      </trkpt>
      <trkpt lat="43.68208" lon="-1.28532">
        <ele>50.799999237061</ele>
        <time>2013-04-21T09:23:05.000Z</time>
      </trkpt>
      <trkpt lat="43.68194" lon="-1.28528">
        <ele>49.400001525879</ele>
        <time>2013-04-21T09:23:11.000Z</time>
      </trkpt>
      <trkpt lat="43.68182" lon="-1.28524">
        <ele>48.400001525879</ele>
        <time>2013-04-21T09:23:16.000Z</time>
      </trkpt>
      <trkpt lat="43.68168" lon="-1.28519">
        <ele>46.799999237061</ele>
        <time>2013-04-21T09:23:22.000Z</time>
      </trkpt>
      <trkpt lat="43.68152" lon="-1.28515">
        <ele>46.400001525879</ele>
        <time>2013-04-21T09:23:28.000Z</time>
      </trkpt>
      <trkpt lat="43.68142" lon="-1.28512">
        <ele>46</ele>
        <time>2013-04-21T09:23:32.000Z</time>
      </trkpt>
      <trkpt lat="43.68127" lon="-1.28507">
        <ele>45.599998474121</ele>
        <time>2013-04-21T09:23:38.000Z</time>
      </trkpt>
      <trkpt lat="43.68113" lon="-1.28507">
        <ele>45.400001525879</ele>
        <time>2013-04-21T09:23:43.000Z</time>
      </trkpt>
      <trkpt lat="43.681" lon="-1.28503">
        <ele>45.200000762939</ele>
        <time>2013-04-21T09:23:48.000Z</time>
      </trkpt>
      <trkpt lat="43.68089" lon="-1.28499">
        <ele>45</ele>
        <time>2013-04-21T09:23:52.000Z</time>
      </trkpt>
      <trkpt lat="43.68074" lon="-1.28497">
        <ele>44.400001525879</ele>
        <time>2013-04-21T09:23:58.000Z</time>
      </trkpt>
      <trkpt lat="43.68061" lon="-1.28496">
        <ele>44</ele>
        <time>2013-04-21T09:24:03.000Z</time>
      </trkpt>
      <trkpt lat="43.68043" lon="-1.28495">
        <ele>43.200000762939</ele>
        <time>2013-04-21T09:24:10.000Z</time>
      </trkpt>
      <trkpt lat="43.6803" lon="-1.28497">
        <ele>42.799999237061</ele>
        <time>2013-04-21T09:24:15.000Z</time>
      </trkpt>
      <trkpt lat="43.68016" lon="-1.28498">
        <ele>42.400001525879</ele>
        <time>2013-04-21T09:24:20.000Z</time>
      </trkpt>
      <trkpt lat="43.67998" lon="-1.28504">
        <ele>41.799999237061</ele>
        <time>2013-04-21T09:24:27.000Z</time>
      </trkpt>
      <trkpt lat="43.67989" lon="-1.2851">
        <ele>41.599998474121</ele>
        <time>2013-04-21T09:24:31.000Z</time>
      </trkpt>
      <trkpt lat="43.67977" lon="-1.28517">
        <ele>41</ele>
        <time>2013-04-21T09:24:36.000Z</time>
      </trkpt>
      <trkpt lat="43.67969" lon="-1.28524">
        <ele>40.799999237061</ele>
        <time>2013-04-21T09:24:40.000Z</time>
      </trkpt>
      <trkpt lat="43.67953" lon="-1.28534">
        <ele>40</ele>
        <time>2013-04-21T09:24:47.000Z</time>
      </trkpt>
      <trkpt lat="43.67945" lon="-1.28542">
        <ele>39.599998474121</ele>
        <time>2013-04-21T09:24:51.000Z</time>
      </trkpt>
      <trkpt lat="43.67938" lon="-1.28552">
        <ele>39.200000762939</ele>
        <time>2013-04-21T09:24:56.000Z</time>
      </trkpt>
      <trkpt lat="43.67935" lon="-1.28558">
        <ele>39</ele>
        <time>2013-04-21T09:25:01.000Z</time>
      </trkpt>
      <trkpt lat="43.6793" lon="-1.28563">
        <ele>38.799999237061</ele>
        <time>2013-04-21T09:25:04.000Z</time>
      </trkpt>
      <trkpt lat="43.67929" lon="-1.28565">
        <ele>38.799999237061</ele>
        <time>2013-04-21T09:25:05.000Z</time>
      </trkpt>
      <trkpt lat="43.67924" lon="-1.28571">
        <ele>38.400001525879</ele>
        <time>2013-04-21T09:25:08.000Z</time>
      </trkpt>
      <trkpt lat="43.67916" lon="-1.28582">
        <ele>38</ele>
        <time>2013-04-21T09:25:13.000Z</time>
      </trkpt>
      <trkpt lat="43.67908" lon="-1.28592">
        <ele>38</ele>
        <time>2013-04-21T09:25:18.000Z</time>
      </trkpt>
      <trkpt lat="43.67895" lon="-1.28604">
        <ele>38.400001525879</ele>
        <time>2013-04-21T09:25:25.000Z</time>
      </trkpt>
      <trkpt lat="43.67892" lon="-1.28608">
        <ele>38.400001525879</ele>
        <time>2013-04-21T09:25:27.000Z</time>
      </trkpt>
      <trkpt lat="43.67885" lon="-1.28613">
        <ele>38.599998474121</ele>
        <time>2013-04-21T09:25:30.000Z</time>
      </trkpt>
      <trkpt lat="43.67877" lon="-1.2862">
        <ele>38.599998474121</ele>
        <time>2013-04-21T09:25:35.000Z</time>
      </trkpt>
      <trkpt lat="43.67871" lon="-1.28626">
        <ele>38.799999237061</ele>
        <time>2013-04-21T09:25:39.000Z</time>
      </trkpt>
      <trkpt lat="43.67863" lon="-1.28635">
        <ele>38.799999237061</ele>
        <time>2013-04-21T09:25:44.000Z</time>
      </trkpt>
      <trkpt lat="43.6786" lon="-1.2864">
        <ele>38.799999237061</ele>
        <time>2013-04-21T09:25:46.000Z</time>
      </trkpt>
      <trkpt lat="43.67857" lon="-1.28645">
        <ele>38.799999237061</ele>
        <time>2013-04-21T09:25:48.000Z</time>
      </trkpt>
      <trkpt lat="43.67854" lon="-1.28652">
        <ele>38.799999237061</ele>
        <time>2013-04-21T09:25:53.000Z</time>
      </trkpt>
      <trkpt lat="43.67854" lon="-1.2866">
        <ele>38.799999237061</ele>
        <time>2013-04-21T09:25:58.000Z</time>
      </trkpt>
      <trkpt lat="43.67855" lon="-1.28663">
        <ele>38.599998474121</ele>
        <time>2013-04-21T09:26:06.000Z</time>
      </trkpt>
      <trkpt lat="43.67852" lon="-1.28665">
        <ele>38.599998474121</ele>
        <time>2013-04-21T09:26:12.000Z</time>
      </trkpt>
      <trkpt lat="43.67851" lon="-1.28666">
        <ele>38.599998474121</ele>
        <time>2013-04-21T09:26:14.000Z</time>
      </trkpt>
      <trkpt lat="43.67846" lon="-1.2867">
        <ele>39</ele>
        <time>2013-04-21T09:26:20.000Z</time>
      </trkpt>
      <trkpt lat="43.67843" lon="-1.28675">
        <ele>39.400001525879</ele>
        <time>2013-04-21T09:26:22.000Z</time>
      </trkpt>
      <trkpt lat="43.6784" lon="-1.28687">
        <ele>40.599998474121</ele>
        <time>2013-04-21T09:26:26.000Z</time>
      </trkpt>
      <trkpt lat="43.67838" lon="-1.28693">
        <ele>41</ele>
        <time>2013-04-21T09:26:28.000Z</time>
      </trkpt>
      <trkpt lat="43.67833" lon="-1.28709">
        <ele>42.400001525879</ele>
        <time>2013-04-21T09:26:33.000Z</time>
      </trkpt>
      <trkpt lat="43.67824" lon="-1.2872">
        <ele>43</ele>
        <time>2013-04-21T09:26:38.000Z</time>
      </trkpt>
      <trkpt lat="43.6781" lon="-1.28732">
        <ele>43.400001525879</ele>
        <time>2013-04-21T09:26:45.000Z</time>
      </trkpt>
      <trkpt lat="43.67798" lon="-1.28745">
        <ele>43.799999237061</ele>
        <time>2013-04-21T09:26:51.000Z</time>
      </trkpt>
      <trkpt lat="43.67785" lon="-1.28757">
        <ele>44</ele>
        <time>2013-04-21T09:26:57.000Z</time>
      </trkpt>
      <trkpt lat="43.67773" lon="-1.28769">
        <ele>44</ele>
        <time>2013-04-21T09:27:03.000Z</time>
      </trkpt>
      <trkpt lat="43.67759" lon="-1.28783">
        <ele>44.200000762939</ele>
        <time>2013-04-21T09:27:10.000Z</time>
      </trkpt>
      <trkpt lat="43.67749" lon="-1.28793">
        <ele>44.400001525879</ele>
        <time>2013-04-21T09:27:15.000Z</time>
      </trkpt>
      <trkpt lat="43.67737" lon="-1.28803">
        <ele>44.200000762939</ele>
        <time>2013-04-21T09:27:21.000Z</time>
      </trkpt>
      <trkpt lat="43.67722" lon="-1.28808">
        <ele>43.400001525879</ele>
        <time>2013-04-21T09:27:28.000Z</time>
      </trkpt>
      <trkpt lat="43.67719" lon="-1.28812">
        <ele>43.200000762939</ele>
        <time>2013-04-21T09:27:32.000Z</time>
      </trkpt>
      <trkpt lat="43.67719" lon="-1.28814">
        <ele>43.400001525879</ele>
        <time>2013-04-21T09:27:34.000Z</time>
      </trkpt>
      <trkpt lat="43.67718" lon="-1.28817">
        <ele>43.400001525879</ele>
        <time>2013-04-21T09:27:37.000Z</time>
      </trkpt>
      <trkpt lat="43.67715" lon="-1.28818">
        <ele>43.200000762939</ele>
        <time>2013-04-21T09:27:39.000Z</time>
      </trkpt>
      <trkpt lat="43.67713" lon="-1.28818">
        <ele>43</ele>
        <time>2013-04-21T09:27:41.000Z</time>
      </trkpt>
      <trkpt lat="43.67712" lon="-1.28819">
        <ele>43</ele>
        <time>2013-04-21T09:27:42.000Z</time>
      </trkpt>
      <trkpt lat="43.67708" lon="-1.2882">
        <ele>42.799999237061</ele>
        <time>2013-04-21T09:27:45.000Z</time>
      </trkpt>
      <trkpt lat="43.677" lon="-1.28817">
        <ele>42.200000762939</ele>
        <time>2013-04-21T09:27:49.000Z</time>
      </trkpt>
      <trkpt lat="43.67696" lon="-1.28815">
        <ele>41.599998474121</ele>
        <time>2013-04-21T09:27:51.000Z</time>
      </trkpt>
      <trkpt lat="43.67685" lon="-1.2881">
        <ele>40.799999237061</ele>
        <time>2013-04-21T09:27:56.000Z</time>
      </trkpt>
      <trkpt lat="43.67672" lon="-1.28798">
        <ele>39.400001525879</ele>
        <time>2013-04-21T09:28:03.000Z</time>
      </trkpt>
      <trkpt lat="43.67666" lon="-1.28792">
        <ele>39</ele>
        <time>2013-04-21T09:28:06.000Z</time>
      </trkpt>
      <trkpt lat="43.67664" lon="-1.28792">
        <ele>39</ele>
        <time>2013-04-21T09:28:07.000Z</time>
      </trkpt>
      <trkpt lat="43.67654" lon="-1.2879">
        <ele>39</ele>
        <time>2013-04-21T09:28:11.000Z</time>
      </trkpt>
      <trkpt lat="43.6764" lon="-1.28782">
        <ele>39.200000762939</ele>
        <time>2013-04-21T09:28:17.000Z</time>
      </trkpt>
      <trkpt lat="43.67638" lon="-1.28779">
        <ele>39.200000762939</ele>
        <time>2013-04-21T09:28:18.000Z</time>
      </trkpt>
      <trkpt lat="43.67637" lon="-1.28769">
        <ele>39.200000762939</ele>
        <time>2013-04-21T09:28:21.000Z</time>
      </trkpt>
      <trkpt lat="43.67636" lon="-1.28762">
        <ele>39.200000762939</ele>
        <time>2013-04-21T09:28:23.000Z</time>
      </trkpt>
      <trkpt lat="43.67634" lon="-1.28748">
        <ele>39</ele>
        <time>2013-04-21T09:28:27.000Z</time>
      </trkpt>
      <trkpt lat="43.67631" lon="-1.28747">
        <ele>39</ele>
        <time>2013-04-21T09:28:28.000Z</time>
      </trkpt>
      <trkpt lat="43.6762" lon="-1.28739">
        <ele>39.200000762939</ele>
        <time>2013-04-21T09:28:34.000Z</time>
      </trkpt>
      <trkpt lat="43.67616" lon="-1.28722">
        <ele>38.799999237061</ele>
        <time>2013-04-21T09:28:39.000Z</time>
      </trkpt>
      <trkpt lat="43.67614" lon="-1.28702">
        <ele>38.200000762939</ele>
        <time>2013-04-21T09:28:45.000Z</time>
      </trkpt>
      <trkpt lat="43.6761" lon="-1.28685">
        <ele>37.599998474121</ele>
        <time>2013-04-21T09:28:50.000Z</time>
      </trkpt>
      <trkpt lat="43.67602" lon="-1.28685">
        <ele>37.599998474121</ele>
        <time>2013-04-21T09:28:53.000Z</time>
      </trkpt>
      <trkpt lat="43.67591" lon="-1.28694">
        <ele>38.200000762939</ele>
        <time>2013-04-21T09:28:58.000Z</time>
      </trkpt>
      <trkpt lat="43.67581" lon="-1.28697">
        <ele>38.200000762939</ele>
        <time>2013-04-21T09:29:02.000Z</time>
      </trkpt>
      <trkpt lat="43.6757" lon="-1.28705">
        <ele>38.400001525879</ele>
        <time>2013-04-21T09:29:07.000Z</time>
      </trkpt>
      <trkpt lat="43.67555" lon="-1.28717">
        <ele>38.400001525879</ele>
        <time>2013-04-21T09:29:13.000Z</time>
      </trkpt>
      <trkpt lat="43.67539" lon="-1.28731">
        <ele>38.799999237061</ele>
        <time>2013-04-21T09:29:20.000Z</time>
      </trkpt>
      <trkpt lat="43.67537" lon="-1.28734">
        <ele>38.799999237061</ele>
        <time>2013-04-21T09:29:21.000Z</time>
      </trkpt>
      <trkpt lat="43.67529" lon="-1.28741">
        <ele>39.200000762939</ele>
        <time>2013-04-21T09:29:25.000Z</time>
      </trkpt>
    </trkseg>
  </trk>
</gpx>